<?xml version="1.0" encoding="UTF-8" standalone="no" ?>
<gpx xmlns="http://www.topografix.com/GPX/1/1" xmlns:xsi="http://www.w3.org/2001/XMLSchema-instance" xsi:schemaLocation="http://www.topografix.com/GPX/1/1 http://www.topografix.com/GPX/1/1/gpx.xsd" version="1.1" creator="VisuGPX - https://www.visugpx.com">
  <metadata>
    <name>2017-08-11 Bike ride-Amberieux-Rance O 35</name>
    <desc><![CDATA[2017-08-11 Bike ride-Amberieux-Rance O 35]]></desc>
  </metadata>
  <wpt lat="45.92475" lon="4.73645">
    <ele>174</ele>
    <name><![CDATA[2017-08-11 10:55 (Start)]]></name>
  </wpt>
  <wpt lat="45.92462" lon="4.73707">
    <ele>174</ele>
    <name><![CDATA[2017-08-11 10:55 (End)]]></name>
    <desc><![CDATA[Created by Google My Tracks on Android  Name: 2017-08-11 10:55 Activity type: biking Description: - Total distance: 35.16 km (21.8 mi) Total time: 1:48:43 Moving time: 1:41:39 Average speed: 19.40 km/h (12.1 mi/h) Average moving speed: 20.75 km/h (12.9 mi/h) Max speed: 48.05 km/h (29.9 mi/h) Average pace: 3:06 min/km (4:59 min/mi) Average moving pace: 2:53 min/km (4:39 min/mi) Fastest pace: 1:15 min/km (2:01 min/mi) Max elevation: 299 m (982 ft) Min elevation: 168 m (553 ft) Elevation gain: 540 m (1770 ft) Max grade: 23 % Min grade: -11 % Recorded: 11/08/2017 10:55]]></desc>
  </wpt>
  <trk>
    <name><![CDATA[2017-08-11 10:55]]></name>
    <trkseg>
      <trkpt lat="45.92475" lon="4.73645">
        <ele>174</ele>
        <time>2017-08-11T08:55:01.048Z</time>
      </trkpt>
      <trkpt lat="45.92484" lon="4.73641">
        <ele>174</ele>
        <time>2017-08-11T08:55:35Z</time>
      </trkpt>
      <trkpt lat="45.92487" lon="4.73642">
        <ele>174</ele>
        <time>2017-08-11T08:55:36Z</time>
      </trkpt>
      <trkpt lat="45.92495" lon="4.73641">
        <ele>174</ele>
        <time>2017-08-11T08:55:38Z</time>
      </trkpt>
      <trkpt lat="45.92499" lon="4.7364">
        <ele>174</ele>
        <time>2017-08-11T08:55:39Z</time>
      </trkpt>
      <trkpt lat="45.92507" lon="4.7364">
        <ele>174</ele>
        <time>2017-08-11T08:55:41Z</time>
      </trkpt>
      <trkpt lat="45.92512" lon="4.73639">
        <ele>174</ele>
        <time>2017-08-11T08:55:42Z</time>
      </trkpt>
      <trkpt lat="45.92516" lon="4.73639">
        <ele>173</ele>
        <time>2017-08-11T08:55:43Z</time>
      </trkpt>
      <trkpt lat="45.92521" lon="4.73639">
        <ele>173</ele>
        <time>2017-08-11T08:55:44Z</time>
      </trkpt>
      <trkpt lat="45.92526" lon="4.73639">
        <ele>173</ele>
        <time>2017-08-11T08:55:45Z</time>
      </trkpt>
      <trkpt lat="45.92532" lon="4.73638">
        <ele>173</ele>
        <time>2017-08-11T08:55:46Z</time>
      </trkpt>
      <trkpt lat="45.92537" lon="4.73636">
        <ele>173</ele>
        <time>2017-08-11T08:55:47Z</time>
      </trkpt>
      <trkpt lat="45.92543" lon="4.73635">
        <ele>173</ele>
        <time>2017-08-11T08:55:48Z</time>
      </trkpt>
      <trkpt lat="45.92548" lon="4.73634">
        <ele>173</ele>
        <time>2017-08-11T08:55:49Z</time>
      </trkpt>
      <trkpt lat="45.92554" lon="4.73632">
        <ele>173</ele>
        <time>2017-08-11T08:55:50Z</time>
      </trkpt>
      <trkpt lat="45.9256" lon="4.7363">
        <ele>173</ele>
        <time>2017-08-11T08:55:51Z</time>
      </trkpt>
      <trkpt lat="45.92565" lon="4.73628">
        <ele>173</ele>
        <time>2017-08-11T08:55:52Z</time>
      </trkpt>
      <trkpt lat="45.9257" lon="4.73627">
        <ele>173</ele>
        <time>2017-08-11T08:55:53Z</time>
      </trkpt>
      <trkpt lat="45.92574" lon="4.73626">
        <ele>173</ele>
        <time>2017-08-11T08:55:54Z</time>
      </trkpt>
      <trkpt lat="45.92583" lon="4.73624">
        <ele>173</ele>
        <time>2017-08-11T08:55:56Z</time>
      </trkpt>
      <trkpt lat="45.92588" lon="4.73623">
        <ele>173</ele>
        <time>2017-08-11T08:55:57Z</time>
      </trkpt>
      <trkpt lat="45.92593" lon="4.73623">
        <ele>173</ele>
        <time>2017-08-11T08:55:58Z</time>
      </trkpt>
      <trkpt lat="45.92598" lon="4.73623">
        <ele>173</ele>
        <time>2017-08-11T08:55:59Z</time>
      </trkpt>
      <trkpt lat="45.92603" lon="4.73623">
        <ele>173</ele>
        <time>2017-08-11T08:56:00Z</time>
      </trkpt>
      <trkpt lat="45.92609" lon="4.73626">
        <ele>173</ele>
        <time>2017-08-11T08:56:01Z</time>
      </trkpt>
      <trkpt lat="45.92615" lon="4.73628">
        <ele>173</ele>
        <time>2017-08-11T08:56:02Z</time>
      </trkpt>
      <trkpt lat="45.9262" lon="4.73632">
        <ele>173</ele>
        <time>2017-08-11T08:56:03Z</time>
      </trkpt>
      <trkpt lat="45.92622" lon="4.73639">
        <ele>173</ele>
        <time>2017-08-11T08:56:04Z</time>
      </trkpt>
      <trkpt lat="45.92625" lon="4.73646">
        <ele>173</ele>
        <time>2017-08-11T08:56:05Z</time>
      </trkpt>
      <trkpt lat="45.92627" lon="4.73652">
        <ele>173</ele>
        <time>2017-08-11T08:56:06Z</time>
      </trkpt>
      <trkpt lat="45.9263" lon="4.73658">
        <ele>173</ele>
        <time>2017-08-11T08:56:07Z</time>
      </trkpt>
      <trkpt lat="45.92633" lon="4.73664">
        <ele>173</ele>
        <time>2017-08-11T08:56:08Z</time>
      </trkpt>
      <trkpt lat="45.92636" lon="4.7367">
        <ele>173</ele>
        <time>2017-08-11T08:56:09Z</time>
      </trkpt>
      <trkpt lat="45.9264" lon="4.73676">
        <ele>173</ele>
        <time>2017-08-11T08:56:10Z</time>
      </trkpt>
      <trkpt lat="45.92644" lon="4.73682">
        <ele>173</ele>
        <time>2017-08-11T08:56:11Z</time>
      </trkpt>
      <trkpt lat="45.92648" lon="4.73687">
        <ele>173</ele>
        <time>2017-08-11T08:56:12Z</time>
      </trkpt>
      <trkpt lat="45.92653" lon="4.73692">
        <ele>173</ele>
        <time>2017-08-11T08:56:13Z</time>
      </trkpt>
      <trkpt lat="45.92658" lon="4.73696">
        <ele>173</ele>
        <time>2017-08-11T08:56:14Z</time>
      </trkpt>
      <trkpt lat="45.92663" lon="4.73699">
        <ele>173</ele>
        <time>2017-08-11T08:56:15Z</time>
      </trkpt>
      <trkpt lat="45.92669" lon="4.73702">
        <ele>174</ele>
        <time>2017-08-11T08:56:16Z</time>
      </trkpt>
      <trkpt lat="45.92674" lon="4.73704">
        <ele>174</ele>
        <time>2017-08-11T08:56:17Z</time>
      </trkpt>
      <trkpt lat="45.9268" lon="4.73706">
        <ele>173</ele>
        <time>2017-08-11T08:56:18Z</time>
      </trkpt>
      <trkpt lat="45.92685" lon="4.73708">
        <ele>173</ele>
        <time>2017-08-11T08:56:19Z</time>
      </trkpt>
      <trkpt lat="45.92689" lon="4.73709">
        <ele>173</ele>
        <time>2017-08-11T08:56:20Z</time>
      </trkpt>
      <trkpt lat="45.92694" lon="4.73711">
        <ele>173</ele>
        <time>2017-08-11T08:56:21Z</time>
      </trkpt>
      <trkpt lat="45.92698" lon="4.73712">
        <ele>173</ele>
        <time>2017-08-11T08:56:22Z</time>
      </trkpt>
      <trkpt lat="45.92704" lon="4.73714">
        <ele>173</ele>
        <time>2017-08-11T08:56:23Z</time>
      </trkpt>
      <trkpt lat="45.9271" lon="4.73715">
        <ele>173</ele>
        <time>2017-08-11T08:56:24Z</time>
      </trkpt>
      <trkpt lat="45.92715" lon="4.73717">
        <ele>173</ele>
        <time>2017-08-11T08:56:25Z</time>
      </trkpt>
      <trkpt lat="45.9272" lon="4.73719">
        <ele>173</ele>
        <time>2017-08-11T08:56:26Z</time>
      </trkpt>
      <trkpt lat="45.92725" lon="4.7372">
        <ele>173</ele>
        <time>2017-08-11T08:56:27Z</time>
      </trkpt>
      <trkpt lat="45.9273" lon="4.73721">
        <ele>173</ele>
        <time>2017-08-11T08:56:28Z</time>
      </trkpt>
      <trkpt lat="45.92736" lon="4.73723">
        <ele>173</ele>
        <time>2017-08-11T08:56:29Z</time>
      </trkpt>
      <trkpt lat="45.92741" lon="4.73724">
        <ele>173</ele>
        <time>2017-08-11T08:56:30Z</time>
      </trkpt>
      <trkpt lat="45.92747" lon="4.73725">
        <ele>173</ele>
        <time>2017-08-11T08:56:31Z</time>
      </trkpt>
      <trkpt lat="45.92751" lon="4.73726">
        <ele>172</ele>
        <time>2017-08-11T08:56:32Z</time>
      </trkpt>
      <trkpt lat="45.92756" lon="4.73728">
        <ele>172</ele>
        <time>2017-08-11T08:56:33Z</time>
      </trkpt>
      <trkpt lat="45.9276" lon="4.73732">
        <ele>172</ele>
        <time>2017-08-11T08:56:34Z</time>
      </trkpt>
      <trkpt lat="45.92765" lon="4.73734">
        <ele>172</ele>
        <time>2017-08-11T08:56:35Z</time>
      </trkpt>
      <trkpt lat="45.92769" lon="4.73737">
        <ele>172</ele>
        <time>2017-08-11T08:56:36Z</time>
      </trkpt>
      <trkpt lat="45.92773" lon="4.73739">
        <ele>172</ele>
        <time>2017-08-11T08:56:37Z</time>
      </trkpt>
      <trkpt lat="45.92779" lon="4.73747">
        <ele>172</ele>
        <time>2017-08-11T08:56:39Z</time>
      </trkpt>
      <trkpt lat="45.92781" lon="4.73753">
        <ele>173</ele>
        <time>2017-08-11T08:56:40Z</time>
      </trkpt>
      <trkpt lat="45.92784" lon="4.73757">
        <ele>173</ele>
        <time>2017-08-11T08:56:41Z</time>
      </trkpt>
      <trkpt lat="45.92789" lon="4.73761">
        <ele>173</ele>
        <time>2017-08-11T08:56:42Z</time>
      </trkpt>
      <trkpt lat="45.92793" lon="4.73764">
        <ele>173</ele>
        <time>2017-08-11T08:56:43Z</time>
      </trkpt>
      <trkpt lat="45.92798" lon="4.73767">
        <ele>173</ele>
        <time>2017-08-11T08:56:44Z</time>
      </trkpt>
      <trkpt lat="45.92803" lon="4.7377">
        <ele>173</ele>
        <time>2017-08-11T08:56:45Z</time>
      </trkpt>
      <trkpt lat="45.92808" lon="4.73773">
        <ele>173</ele>
        <time>2017-08-11T08:56:46Z</time>
      </trkpt>
      <trkpt lat="45.92813" lon="4.73776">
        <ele>173</ele>
        <time>2017-08-11T08:56:47Z</time>
      </trkpt>
      <trkpt lat="45.92819" lon="4.73779">
        <ele>173</ele>
        <time>2017-08-11T08:56:48Z</time>
      </trkpt>
      <trkpt lat="45.92824" lon="4.73782">
        <ele>173</ele>
        <time>2017-08-11T08:56:49Z</time>
      </trkpt>
      <trkpt lat="45.92829" lon="4.73787">
        <ele>173</ele>
        <time>2017-08-11T08:56:50Z</time>
      </trkpt>
      <trkpt lat="45.92834" lon="4.73791">
        <ele>173</ele>
        <time>2017-08-11T08:56:51Z</time>
      </trkpt>
      <trkpt lat="45.92839" lon="4.73795">
        <ele>173</ele>
        <time>2017-08-11T08:56:52Z</time>
      </trkpt>
      <trkpt lat="45.92844" lon="4.73799">
        <ele>173</ele>
        <time>2017-08-11T08:56:53Z</time>
      </trkpt>
      <trkpt lat="45.92849" lon="4.73804">
        <ele>173</ele>
        <time>2017-08-11T08:56:54Z</time>
      </trkpt>
      <trkpt lat="45.92851" lon="4.7381">
        <ele>173</ele>
        <time>2017-08-11T08:56:55Z</time>
      </trkpt>
      <trkpt lat="45.92853" lon="4.73817">
        <ele>173</ele>
        <time>2017-08-11T08:56:56Z</time>
      </trkpt>
      <trkpt lat="45.92856" lon="4.73824">
        <ele>173</ele>
        <time>2017-08-11T08:56:57Z</time>
      </trkpt>
      <trkpt lat="45.92858" lon="4.73831">
        <ele>173</ele>
        <time>2017-08-11T08:56:58Z</time>
      </trkpt>
      <trkpt lat="45.9286" lon="4.73838">
        <ele>173</ele>
        <time>2017-08-11T08:56:59Z</time>
      </trkpt>
      <trkpt lat="45.92863" lon="4.73845">
        <ele>173</ele>
        <time>2017-08-11T08:57:00Z</time>
      </trkpt>
      <trkpt lat="45.92865" lon="4.73852">
        <ele>173</ele>
        <time>2017-08-11T08:57:01Z</time>
      </trkpt>
      <trkpt lat="45.92866" lon="4.73858">
        <ele>173</ele>
        <time>2017-08-11T08:57:02Z</time>
      </trkpt>
      <trkpt lat="45.92869" lon="4.73867">
        <ele>173</ele>
        <time>2017-08-11T08:57:03Z</time>
      </trkpt>
      <trkpt lat="45.92871" lon="4.73873">
        <ele>173</ele>
        <time>2017-08-11T08:57:04Z</time>
      </trkpt>
      <trkpt lat="45.92873" lon="4.73883">
        <ele>173</ele>
        <time>2017-08-11T08:57:05Z</time>
      </trkpt>
      <trkpt lat="45.92875" lon="4.73892">
        <ele>173</ele>
        <time>2017-08-11T08:57:06Z</time>
      </trkpt>
      <trkpt lat="45.92875" lon="4.73901">
        <ele>173</ele>
        <time>2017-08-11T08:57:07Z</time>
      </trkpt>
      <trkpt lat="45.92876" lon="4.7391">
        <ele>173</ele>
        <time>2017-08-11T08:57:08Z</time>
      </trkpt>
      <trkpt lat="45.92877" lon="4.73919">
        <ele>172</ele>
        <time>2017-08-11T08:57:09Z</time>
      </trkpt>
      <trkpt lat="45.92878" lon="4.73928">
        <ele>172</ele>
        <time>2017-08-11T08:57:10Z</time>
      </trkpt>
      <trkpt lat="45.92878" lon="4.73937">
        <ele>172</ele>
        <time>2017-08-11T08:57:11Z</time>
      </trkpt>
      <trkpt lat="45.92879" lon="4.73945">
        <ele>172</ele>
        <time>2017-08-11T08:57:12Z</time>
      </trkpt>
      <trkpt lat="45.92879" lon="4.73953">
        <ele>172</ele>
        <time>2017-08-11T08:57:13Z</time>
      </trkpt>
      <trkpt lat="45.9288" lon="4.7396">
        <ele>172</ele>
        <time>2017-08-11T08:57:14Z</time>
      </trkpt>
      <trkpt lat="45.9288" lon="4.73973">
        <ele>172</ele>
        <time>2017-08-11T08:57:16Z</time>
      </trkpt>
      <trkpt lat="45.92879" lon="4.73979">
        <ele>172</ele>
        <time>2017-08-11T08:57:17Z</time>
      </trkpt>
      <trkpt lat="45.92878" lon="4.73986">
        <ele>172</ele>
        <time>2017-08-11T08:57:18Z</time>
      </trkpt>
      <trkpt lat="45.92877" lon="4.73992">
        <ele>172</ele>
        <time>2017-08-11T08:57:19Z</time>
      </trkpt>
      <trkpt lat="45.92875" lon="4.73998">
        <ele>172</ele>
        <time>2017-08-11T08:57:20Z</time>
      </trkpt>
      <trkpt lat="45.92874" lon="4.74006">
        <ele>172</ele>
        <time>2017-08-11T08:57:21Z</time>
      </trkpt>
      <trkpt lat="45.92873" lon="4.74013">
        <ele>172</ele>
        <time>2017-08-11T08:57:22Z</time>
      </trkpt>
      <trkpt lat="45.92873" lon="4.74021">
        <ele>172</ele>
        <time>2017-08-11T08:57:23Z</time>
      </trkpt>
      <trkpt lat="45.92871" lon="4.74028">
        <ele>172</ele>
        <time>2017-08-11T08:57:24Z</time>
      </trkpt>
      <trkpt lat="45.92868" lon="4.74036">
        <ele>172</ele>
        <time>2017-08-11T08:57:25Z</time>
      </trkpt>
      <trkpt lat="45.92865" lon="4.74043">
        <ele>172</ele>
        <time>2017-08-11T08:57:26Z</time>
      </trkpt>
      <trkpt lat="45.92861" lon="4.7405">
        <ele>172</ele>
        <time>2017-08-11T08:57:27Z</time>
      </trkpt>
      <trkpt lat="45.92856" lon="4.74056">
        <ele>172</ele>
        <time>2017-08-11T08:57:28Z</time>
      </trkpt>
      <trkpt lat="45.92851" lon="4.74062">
        <ele>172</ele>
        <time>2017-08-11T08:57:29Z</time>
      </trkpt>
      <trkpt lat="45.92847" lon="4.74068">
        <ele>172</ele>
        <time>2017-08-11T08:57:30Z</time>
      </trkpt>
      <trkpt lat="45.92842" lon="4.74074">
        <ele>172</ele>
        <time>2017-08-11T08:57:31Z</time>
      </trkpt>
      <trkpt lat="45.92838" lon="4.7408">
        <ele>171</ele>
        <time>2017-08-11T08:57:32Z</time>
      </trkpt>
      <trkpt lat="45.92833" lon="4.74085">
        <ele>171</ele>
        <time>2017-08-11T08:57:33Z</time>
      </trkpt>
      <trkpt lat="45.92829" lon="4.7409">
        <ele>171</ele>
        <time>2017-08-11T08:57:34Z</time>
      </trkpt>
      <trkpt lat="45.92824" lon="4.74095">
        <ele>171</ele>
        <time>2017-08-11T08:57:35Z</time>
      </trkpt>
      <trkpt lat="45.9282" lon="4.741">
        <ele>171</ele>
        <time>2017-08-11T08:57:36Z</time>
      </trkpt>
      <trkpt lat="45.92816" lon="4.74104">
        <ele>172</ele>
        <time>2017-08-11T08:57:37Z</time>
      </trkpt>
      <trkpt lat="45.92812" lon="4.74109">
        <ele>172</ele>
        <time>2017-08-11T08:57:38Z</time>
      </trkpt>
      <trkpt lat="45.92808" lon="4.74114">
        <ele>172</ele>
        <time>2017-08-11T08:57:39Z</time>
      </trkpt>
      <trkpt lat="45.92803" lon="4.74119">
        <ele>172</ele>
        <time>2017-08-11T08:57:40Z</time>
      </trkpt>
      <trkpt lat="45.92799" lon="4.74124">
        <ele>172</ele>
        <time>2017-08-11T08:57:41Z</time>
      </trkpt>
      <trkpt lat="45.92795" lon="4.74129">
        <ele>172</ele>
        <time>2017-08-11T08:57:42Z</time>
      </trkpt>
      <trkpt lat="45.9279" lon="4.74134">
        <ele>172</ele>
        <time>2017-08-11T08:57:43Z</time>
      </trkpt>
      <trkpt lat="45.92785" lon="4.74139">
        <ele>172</ele>
        <time>2017-08-11T08:57:44Z</time>
      </trkpt>
      <trkpt lat="45.9278" lon="4.74144">
        <ele>172</ele>
        <time>2017-08-11T08:57:45Z</time>
      </trkpt>
      <trkpt lat="45.92775" lon="4.74149">
        <ele>172</ele>
        <time>2017-08-11T08:57:46Z</time>
      </trkpt>
      <trkpt lat="45.9277" lon="4.74155">
        <ele>172</ele>
        <time>2017-08-11T08:57:47Z</time>
      </trkpt>
      <trkpt lat="45.92765" lon="4.7416">
        <ele>172</ele>
        <time>2017-08-11T08:57:48Z</time>
      </trkpt>
      <trkpt lat="45.9276" lon="4.74166">
        <ele>172</ele>
        <time>2017-08-11T08:57:49Z</time>
      </trkpt>
      <trkpt lat="45.92755" lon="4.74172">
        <ele>172</ele>
        <time>2017-08-11T08:57:50Z</time>
      </trkpt>
      <trkpt lat="45.92751" lon="4.74178">
        <ele>172</ele>
        <time>2017-08-11T08:57:51Z</time>
      </trkpt>
      <trkpt lat="45.92747" lon="4.74183">
        <ele>172</ele>
        <time>2017-08-11T08:57:52Z</time>
      </trkpt>
      <trkpt lat="45.92742" lon="4.74189">
        <ele>172</ele>
        <time>2017-08-11T08:57:53Z</time>
      </trkpt>
      <trkpt lat="45.92738" lon="4.74194">
        <ele>171</ele>
        <time>2017-08-11T08:57:54Z</time>
      </trkpt>
      <trkpt lat="45.92735" lon="4.742">
        <ele>171</ele>
        <time>2017-08-11T08:57:55Z</time>
      </trkpt>
      <trkpt lat="45.92731" lon="4.74206">
        <ele>171</ele>
        <time>2017-08-11T08:57:56Z</time>
      </trkpt>
      <trkpt lat="45.92727" lon="4.74211">
        <ele>171</ele>
        <time>2017-08-11T08:57:57Z</time>
      </trkpt>
      <trkpt lat="45.92723" lon="4.74217">
        <ele>171</ele>
        <time>2017-08-11T08:57:58Z</time>
      </trkpt>
      <trkpt lat="45.92719" lon="4.74222">
        <ele>171</ele>
        <time>2017-08-11T08:57:59Z</time>
      </trkpt>
      <trkpt lat="45.92715" lon="4.74228">
        <ele>171</ele>
        <time>2017-08-11T08:58:00Z</time>
      </trkpt>
      <trkpt lat="45.92711" lon="4.74234">
        <ele>171</ele>
        <time>2017-08-11T08:58:01Z</time>
      </trkpt>
      <trkpt lat="45.92707" lon="4.7424">
        <ele>171</ele>
        <time>2017-08-11T08:58:02Z</time>
      </trkpt>
      <trkpt lat="45.92703" lon="4.74247">
        <ele>171</ele>
        <time>2017-08-11T08:58:03Z</time>
      </trkpt>
      <trkpt lat="45.927" lon="4.74253">
        <ele>171</ele>
        <time>2017-08-11T08:58:04Z</time>
      </trkpt>
      <trkpt lat="45.92695" lon="4.7426">
        <ele>171</ele>
        <time>2017-08-11T08:58:05Z</time>
      </trkpt>
      <trkpt lat="45.92691" lon="4.74266">
        <ele>171</ele>
        <time>2017-08-11T08:58:06Z</time>
      </trkpt>
      <trkpt lat="45.92687" lon="4.74273">
        <ele>171</ele>
        <time>2017-08-11T08:58:07Z</time>
      </trkpt>
      <trkpt lat="45.92683" lon="4.7428">
        <ele>171</ele>
        <time>2017-08-11T08:58:08Z</time>
      </trkpt>
      <trkpt lat="45.9268" lon="4.74287">
        <ele>171</ele>
        <time>2017-08-11T08:58:09Z</time>
      </trkpt>
      <trkpt lat="45.92675" lon="4.74294">
        <ele>171</ele>
        <time>2017-08-11T08:58:10Z</time>
      </trkpt>
      <trkpt lat="45.92672" lon="4.74301">
        <ele>171</ele>
        <time>2017-08-11T08:58:11Z</time>
      </trkpt>
      <trkpt lat="45.92668" lon="4.74308">
        <ele>171</ele>
        <time>2017-08-11T08:58:12Z</time>
      </trkpt>
      <trkpt lat="45.92664" lon="4.74314">
        <ele>171</ele>
        <time>2017-08-11T08:58:13Z</time>
      </trkpt>
      <trkpt lat="45.9266" lon="4.74321">
        <ele>171</ele>
        <time>2017-08-11T08:58:14Z</time>
      </trkpt>
      <trkpt lat="45.92656" lon="4.74328">
        <ele>171</ele>
        <time>2017-08-11T08:58:15Z</time>
      </trkpt>
      <trkpt lat="45.92653" lon="4.74334">
        <ele>171</ele>
        <time>2017-08-11T08:58:16Z</time>
      </trkpt>
      <trkpt lat="45.92649" lon="4.74341">
        <ele>171</ele>
        <time>2017-08-11T08:58:17Z</time>
      </trkpt>
      <trkpt lat="45.92646" lon="4.74348">
        <ele>171</ele>
        <time>2017-08-11T08:58:18Z</time>
      </trkpt>
      <trkpt lat="45.92643" lon="4.74354">
        <ele>171</ele>
        <time>2017-08-11T08:58:19Z</time>
      </trkpt>
      <trkpt lat="45.92639" lon="4.7436">
        <ele>171</ele>
        <time>2017-08-11T08:58:20Z</time>
      </trkpt>
      <trkpt lat="45.92635" lon="4.74366">
        <ele>171</ele>
        <time>2017-08-11T08:58:21Z</time>
      </trkpt>
      <trkpt lat="45.92631" lon="4.74372">
        <ele>171</ele>
        <time>2017-08-11T08:58:22Z</time>
      </trkpt>
      <trkpt lat="45.92627" lon="4.74378">
        <ele>170</ele>
        <time>2017-08-11T08:58:23Z</time>
      </trkpt>
      <trkpt lat="45.92624" lon="4.74385">
        <ele>170</ele>
        <time>2017-08-11T08:58:24Z</time>
      </trkpt>
      <trkpt lat="45.9262" lon="4.74392">
        <ele>170</ele>
        <time>2017-08-11T08:58:25Z</time>
      </trkpt>
      <trkpt lat="45.92616" lon="4.74398">
        <ele>170</ele>
        <time>2017-08-11T08:58:26Z</time>
      </trkpt>
      <trkpt lat="45.92612" lon="4.74405">
        <ele>170</ele>
        <time>2017-08-11T08:58:27Z</time>
      </trkpt>
      <trkpt lat="45.92608" lon="4.74412">
        <ele>170</ele>
        <time>2017-08-11T08:58:28Z</time>
      </trkpt>
      <trkpt lat="45.92605" lon="4.74419">
        <ele>170</ele>
        <time>2017-08-11T08:58:29Z</time>
      </trkpt>
      <trkpt lat="45.92601" lon="4.74426">
        <ele>170</ele>
        <time>2017-08-11T08:58:30Z</time>
      </trkpt>
      <trkpt lat="45.92597" lon="4.74433">
        <ele>170</ele>
        <time>2017-08-11T08:58:31Z</time>
      </trkpt>
      <trkpt lat="45.92592" lon="4.7444">
        <ele>170</ele>
        <time>2017-08-11T08:58:32Z</time>
      </trkpt>
      <trkpt lat="45.92589" lon="4.74446">
        <ele>170</ele>
        <time>2017-08-11T08:58:33Z</time>
      </trkpt>
      <trkpt lat="45.92585" lon="4.74453">
        <ele>170</ele>
        <time>2017-08-11T08:58:34Z</time>
      </trkpt>
      <trkpt lat="45.92582" lon="4.7446">
        <ele>170</ele>
        <time>2017-08-11T08:58:35Z</time>
      </trkpt>
      <trkpt lat="45.92578" lon="4.74466">
        <ele>170</ele>
        <time>2017-08-11T08:58:36Z</time>
      </trkpt>
      <trkpt lat="45.92575" lon="4.74473">
        <ele>170</ele>
        <time>2017-08-11T08:58:37Z</time>
      </trkpt>
      <trkpt lat="45.92571" lon="4.74479">
        <ele>170</ele>
        <time>2017-08-11T08:58:38Z</time>
      </trkpt>
      <trkpt lat="45.92568" lon="4.74486">
        <ele>170</ele>
        <time>2017-08-11T08:58:39Z</time>
      </trkpt>
      <trkpt lat="45.92564" lon="4.74493">
        <ele>170</ele>
        <time>2017-08-11T08:58:40Z</time>
      </trkpt>
      <trkpt lat="45.92561" lon="4.745">
        <ele>170</ele>
        <time>2017-08-11T08:58:41Z</time>
      </trkpt>
      <trkpt lat="45.92557" lon="4.74506">
        <ele>170</ele>
        <time>2017-08-11T08:58:42Z</time>
      </trkpt>
      <trkpt lat="45.92553" lon="4.74513">
        <ele>170</ele>
        <time>2017-08-11T08:58:43Z</time>
      </trkpt>
      <trkpt lat="45.9255" lon="4.74521">
        <ele>170</ele>
        <time>2017-08-11T08:58:44Z</time>
      </trkpt>
      <trkpt lat="45.92546" lon="4.74528">
        <ele>170</ele>
        <time>2017-08-11T08:58:45Z</time>
      </trkpt>
      <trkpt lat="45.92542" lon="4.74535">
        <ele>170</ele>
        <time>2017-08-11T08:58:46Z</time>
      </trkpt>
      <trkpt lat="45.92538" lon="4.74542">
        <ele>171</ele>
        <time>2017-08-11T08:58:47Z</time>
      </trkpt>
      <trkpt lat="45.92533" lon="4.74549">
        <ele>171</ele>
        <time>2017-08-11T08:58:48Z</time>
      </trkpt>
      <trkpt lat="45.92528" lon="4.74555">
        <ele>171</ele>
        <time>2017-08-11T08:58:49Z</time>
      </trkpt>
      <trkpt lat="45.92524" lon="4.74562">
        <ele>171</ele>
        <time>2017-08-11T08:58:50Z</time>
      </trkpt>
      <trkpt lat="45.92519" lon="4.74568">
        <ele>171</ele>
        <time>2017-08-11T08:58:51Z</time>
      </trkpt>
      <trkpt lat="45.92514" lon="4.74573">
        <ele>171</ele>
        <time>2017-08-11T08:58:52Z</time>
      </trkpt>
      <trkpt lat="45.9251" lon="4.74579">
        <ele>171</ele>
        <time>2017-08-11T08:58:53Z</time>
      </trkpt>
      <trkpt lat="45.92506" lon="4.74584">
        <ele>171</ele>
        <time>2017-08-11T08:58:54Z</time>
      </trkpt>
      <trkpt lat="45.92501" lon="4.74589">
        <ele>171</ele>
        <time>2017-08-11T08:58:55Z</time>
      </trkpt>
      <trkpt lat="45.92497" lon="4.74594">
        <ele>171</ele>
        <time>2017-08-11T08:58:56Z</time>
      </trkpt>
      <trkpt lat="45.92493" lon="4.74599">
        <ele>171</ele>
        <time>2017-08-11T08:58:57Z</time>
      </trkpt>
      <trkpt lat="45.92489" lon="4.74604">
        <ele>171</ele>
        <time>2017-08-11T08:58:58Z</time>
      </trkpt>
      <trkpt lat="45.92485" lon="4.74609">
        <ele>171</ele>
        <time>2017-08-11T08:58:59Z</time>
      </trkpt>
      <trkpt lat="45.92481" lon="4.74615">
        <ele>171</ele>
        <time>2017-08-11T08:59:00Z</time>
      </trkpt>
      <trkpt lat="45.92477" lon="4.7462">
        <ele>171</ele>
        <time>2017-08-11T08:59:01Z</time>
      </trkpt>
      <trkpt lat="45.92474" lon="4.74625">
        <ele>171</ele>
        <time>2017-08-11T08:59:02Z</time>
      </trkpt>
      <trkpt lat="45.9247" lon="4.74629">
        <ele>171</ele>
        <time>2017-08-11T08:59:03Z</time>
      </trkpt>
      <trkpt lat="45.92467" lon="4.74634">
        <ele>171</ele>
        <time>2017-08-11T08:59:04Z</time>
      </trkpt>
      <trkpt lat="45.92464" lon="4.74639">
        <ele>171</ele>
        <time>2017-08-11T08:59:05Z</time>
      </trkpt>
      <trkpt lat="45.92457" lon="4.74647">
        <ele>171</ele>
        <time>2017-08-11T08:59:07Z</time>
      </trkpt>
      <trkpt lat="45.92454" lon="4.74652">
        <ele>171</ele>
        <time>2017-08-11T08:59:08Z</time>
      </trkpt>
      <trkpt lat="45.9245" lon="4.74663">
        <ele>171</ele>
        <time>2017-08-11T08:59:10Z</time>
      </trkpt>
      <trkpt lat="45.92447" lon="4.74668">
        <ele>171</ele>
        <time>2017-08-11T08:59:11Z</time>
      </trkpt>
      <trkpt lat="45.92444" lon="4.74674">
        <ele>171</ele>
        <time>2017-08-11T08:59:12Z</time>
      </trkpt>
      <trkpt lat="45.9244" lon="4.74679">
        <ele>171</ele>
        <time>2017-08-11T08:59:13Z</time>
      </trkpt>
      <trkpt lat="45.92437" lon="4.74686">
        <ele>171</ele>
        <time>2017-08-11T08:59:14Z</time>
      </trkpt>
      <trkpt lat="45.92434" lon="4.74693">
        <ele>171</ele>
        <time>2017-08-11T08:59:15Z</time>
      </trkpt>
      <trkpt lat="45.92431" lon="4.74701">
        <ele>171</ele>
        <time>2017-08-11T08:59:16Z</time>
      </trkpt>
      <trkpt lat="45.92428" lon="4.74709">
        <ele>171</ele>
        <time>2017-08-11T08:59:17Z</time>
      </trkpt>
      <trkpt lat="45.92426" lon="4.74717">
        <ele>171</ele>
        <time>2017-08-11T08:59:18Z</time>
      </trkpt>
      <trkpt lat="45.92424" lon="4.74725">
        <ele>171</ele>
        <time>2017-08-11T08:59:19Z</time>
      </trkpt>
      <trkpt lat="45.92421" lon="4.74733">
        <ele>171</ele>
        <time>2017-08-11T08:59:20Z</time>
      </trkpt>
      <trkpt lat="45.92419" lon="4.74741">
        <ele>172</ele>
        <time>2017-08-11T08:59:21Z</time>
      </trkpt>
      <trkpt lat="45.92416" lon="4.7475">
        <ele>172</ele>
        <time>2017-08-11T08:59:22Z</time>
      </trkpt>
      <trkpt lat="45.92414" lon="4.74758">
        <ele>172</ele>
        <time>2017-08-11T08:59:23Z</time>
      </trkpt>
      <trkpt lat="45.92412" lon="4.74767">
        <ele>172</ele>
        <time>2017-08-11T08:59:24Z</time>
      </trkpt>
      <trkpt lat="45.9241" lon="4.74776">
        <ele>171</ele>
        <time>2017-08-11T08:59:25Z</time>
      </trkpt>
      <trkpt lat="45.92408" lon="4.74784">
        <ele>171</ele>
        <time>2017-08-11T08:59:26Z</time>
      </trkpt>
      <trkpt lat="45.92406" lon="4.74793">
        <ele>171</ele>
        <time>2017-08-11T08:59:27Z</time>
      </trkpt>
      <trkpt lat="45.92404" lon="4.74802">
        <ele>171</ele>
        <time>2017-08-11T08:59:28Z</time>
      </trkpt>
      <trkpt lat="45.92402" lon="4.74812">
        <ele>171</ele>
        <time>2017-08-11T08:59:29Z</time>
      </trkpt>
      <trkpt lat="45.924" lon="4.74821">
        <ele>171</ele>
        <time>2017-08-11T08:59:30Z</time>
      </trkpt>
      <trkpt lat="45.92398" lon="4.74831">
        <ele>171</ele>
        <time>2017-08-11T08:59:31Z</time>
      </trkpt>
      <trkpt lat="45.92395" lon="4.7484">
        <ele>171</ele>
        <time>2017-08-11T08:59:32Z</time>
      </trkpt>
      <trkpt lat="45.92392" lon="4.74849">
        <ele>171</ele>
        <time>2017-08-11T08:59:33Z</time>
      </trkpt>
      <trkpt lat="45.92389" lon="4.74859">
        <ele>171</ele>
        <time>2017-08-11T08:59:34Z</time>
      </trkpt>
      <trkpt lat="45.92385" lon="4.74868">
        <ele>171</ele>
        <time>2017-08-11T08:59:35Z</time>
      </trkpt>
      <trkpt lat="45.92382" lon="4.74877">
        <ele>171</ele>
        <time>2017-08-11T08:59:36Z</time>
      </trkpt>
      <trkpt lat="45.92378" lon="4.74886">
        <ele>171</ele>
        <time>2017-08-11T08:59:37Z</time>
      </trkpt>
      <trkpt lat="45.92375" lon="4.74895">
        <ele>171</ele>
        <time>2017-08-11T08:59:38Z</time>
      </trkpt>
      <trkpt lat="45.92372" lon="4.74903">
        <ele>171</ele>
        <time>2017-08-11T08:59:39Z</time>
      </trkpt>
      <trkpt lat="45.92368" lon="4.74911">
        <ele>171</ele>
        <time>2017-08-11T08:59:40Z</time>
      </trkpt>
      <trkpt lat="45.92365" lon="4.7492">
        <ele>170</ele>
        <time>2017-08-11T08:59:41Z</time>
      </trkpt>
      <trkpt lat="45.92362" lon="4.74928">
        <ele>170</ele>
        <time>2017-08-11T08:59:42Z</time>
      </trkpt>
      <trkpt lat="45.92359" lon="4.74936">
        <ele>170</ele>
        <time>2017-08-11T08:59:43Z</time>
      </trkpt>
      <trkpt lat="45.92356" lon="4.74944">
        <ele>170</ele>
        <time>2017-08-11T08:59:44Z</time>
      </trkpt>
      <trkpt lat="45.92353" lon="4.74951">
        <ele>170</ele>
        <time>2017-08-11T08:59:45Z</time>
      </trkpt>
      <trkpt lat="45.9235" lon="4.74959">
        <ele>170</ele>
        <time>2017-08-11T08:59:46Z</time>
      </trkpt>
      <trkpt lat="45.92347" lon="4.74966">
        <ele>170</ele>
        <time>2017-08-11T08:59:47Z</time>
      </trkpt>
      <trkpt lat="45.92344" lon="4.74974">
        <ele>170</ele>
        <time>2017-08-11T08:59:48Z</time>
      </trkpt>
      <trkpt lat="45.92341" lon="4.74982">
        <ele>170</ele>
        <time>2017-08-11T08:59:49Z</time>
      </trkpt>
      <trkpt lat="45.92338" lon="4.74989">
        <ele>170</ele>
        <time>2017-08-11T08:59:50Z</time>
      </trkpt>
      <trkpt lat="45.92335" lon="4.74997">
        <ele>170</ele>
        <time>2017-08-11T08:59:51Z</time>
      </trkpt>
      <trkpt lat="45.92331" lon="4.75005">
        <ele>170</ele>
        <time>2017-08-11T08:59:52Z</time>
      </trkpt>
      <trkpt lat="45.92327" lon="4.75013">
        <ele>171</ele>
        <time>2017-08-11T08:59:53Z</time>
      </trkpt>
      <trkpt lat="45.92323" lon="4.75021">
        <ele>171</ele>
        <time>2017-08-11T08:59:54Z</time>
      </trkpt>
      <trkpt lat="45.92319" lon="4.75029">
        <ele>171</ele>
        <time>2017-08-11T08:59:55Z</time>
      </trkpt>
      <trkpt lat="45.92314" lon="4.75036">
        <ele>171</ele>
        <time>2017-08-11T08:59:56Z</time>
      </trkpt>
      <trkpt lat="45.9231" lon="4.75042">
        <ele>172</ele>
        <time>2017-08-11T08:59:57Z</time>
      </trkpt>
      <trkpt lat="45.92305" lon="4.75049">
        <ele>172</ele>
        <time>2017-08-11T08:59:58Z</time>
      </trkpt>
      <trkpt lat="45.923" lon="4.75055">
        <ele>172</ele>
        <time>2017-08-11T08:59:59Z</time>
      </trkpt>
      <trkpt lat="45.92295" lon="4.7506">
        <ele>172</ele>
        <time>2017-08-11T09:00:00Z</time>
      </trkpt>
      <trkpt lat="45.9229" lon="4.75066">
        <ele>172</ele>
        <time>2017-08-11T09:00:01Z</time>
      </trkpt>
      <trkpt lat="45.92285" lon="4.75071">
        <ele>172</ele>
        <time>2017-08-11T09:00:02Z</time>
      </trkpt>
      <trkpt lat="45.9228" lon="4.75077">
        <ele>172</ele>
        <time>2017-08-11T09:00:03Z</time>
      </trkpt>
      <trkpt lat="45.92275" lon="4.75082">
        <ele>172</ele>
        <time>2017-08-11T09:00:04Z</time>
      </trkpt>
      <trkpt lat="45.9227" lon="4.75086">
        <ele>173</ele>
        <time>2017-08-11T09:00:05Z</time>
      </trkpt>
      <trkpt lat="45.92265" lon="4.75092">
        <ele>173</ele>
        <time>2017-08-11T09:00:06Z</time>
      </trkpt>
      <trkpt lat="45.9226" lon="4.75096">
        <ele>173</ele>
        <time>2017-08-11T09:00:07Z</time>
      </trkpt>
      <trkpt lat="45.92255" lon="4.75102">
        <ele>173</ele>
        <time>2017-08-11T09:00:08Z</time>
      </trkpt>
      <trkpt lat="45.92249" lon="4.75107">
        <ele>174</ele>
        <time>2017-08-11T09:00:09Z</time>
      </trkpt>
      <trkpt lat="45.92245" lon="4.75113">
        <ele>174</ele>
        <time>2017-08-11T09:00:10Z</time>
      </trkpt>
      <trkpt lat="45.9224" lon="4.75119">
        <ele>174</ele>
        <time>2017-08-11T09:00:11Z</time>
      </trkpt>
      <trkpt lat="45.92236" lon="4.75126">
        <ele>174</ele>
        <time>2017-08-11T09:00:12Z</time>
      </trkpt>
      <trkpt lat="45.92231" lon="4.75133">
        <ele>174</ele>
        <time>2017-08-11T09:00:13Z</time>
      </trkpt>
      <trkpt lat="45.92227" lon="4.75141">
        <ele>174</ele>
        <time>2017-08-11T09:00:14Z</time>
      </trkpt>
      <trkpt lat="45.92224" lon="4.75148">
        <ele>174</ele>
        <time>2017-08-11T09:00:15Z</time>
      </trkpt>
      <trkpt lat="45.92221" lon="4.75156">
        <ele>174</ele>
        <time>2017-08-11T09:00:16Z</time>
      </trkpt>
      <trkpt lat="45.92218" lon="4.75164">
        <ele>174</ele>
        <time>2017-08-11T09:00:17Z</time>
      </trkpt>
      <trkpt lat="45.92216" lon="4.75171">
        <ele>175</ele>
        <time>2017-08-11T09:00:18Z</time>
      </trkpt>
      <trkpt lat="45.92214" lon="4.75179">
        <ele>175</ele>
        <time>2017-08-11T09:00:19Z</time>
      </trkpt>
      <trkpt lat="45.92212" lon="4.75186">
        <ele>175</ele>
        <time>2017-08-11T09:00:20Z</time>
      </trkpt>
      <trkpt lat="45.92211" lon="4.75194">
        <ele>175</ele>
        <time>2017-08-11T09:00:21Z</time>
      </trkpt>
      <trkpt lat="45.9221" lon="4.75202">
        <ele>175</ele>
        <time>2017-08-11T09:00:22Z</time>
      </trkpt>
      <trkpt lat="45.9221" lon="4.75211">
        <ele>175</ele>
        <time>2017-08-11T09:00:23Z</time>
      </trkpt>
      <trkpt lat="45.92209" lon="4.75219">
        <ele>175</ele>
        <time>2017-08-11T09:00:24Z</time>
      </trkpt>
      <trkpt lat="45.92209" lon="4.75228">
        <ele>175</ele>
        <time>2017-08-11T09:00:25Z</time>
      </trkpt>
      <trkpt lat="45.92209" lon="4.75237">
        <ele>175</ele>
        <time>2017-08-11T09:00:26Z</time>
      </trkpt>
      <trkpt lat="45.92209" lon="4.75246">
        <ele>175</ele>
        <time>2017-08-11T09:00:27Z</time>
      </trkpt>
      <trkpt lat="45.9221" lon="4.75254">
        <ele>175</ele>
        <time>2017-08-11T09:00:28Z</time>
      </trkpt>
      <trkpt lat="45.9221" lon="4.75264">
        <ele>176</ele>
        <time>2017-08-11T09:00:29Z</time>
      </trkpt>
      <trkpt lat="45.9221" lon="4.75273">
        <ele>176</ele>
        <time>2017-08-11T09:00:30Z</time>
      </trkpt>
      <trkpt lat="45.92209" lon="4.75281">
        <ele>176</ele>
        <time>2017-08-11T09:00:31Z</time>
      </trkpt>
      <trkpt lat="45.92209" lon="4.75289">
        <ele>176</ele>
        <time>2017-08-11T09:00:32Z</time>
      </trkpt>
      <trkpt lat="45.92209" lon="4.75297">
        <ele>176</ele>
        <time>2017-08-11T09:00:33Z</time>
      </trkpt>
      <trkpt lat="45.92208" lon="4.75305">
        <ele>176</ele>
        <time>2017-08-11T09:00:34Z</time>
      </trkpt>
      <trkpt lat="45.92205" lon="4.75312">
        <ele>176</ele>
        <time>2017-08-11T09:00:35Z</time>
      </trkpt>
      <trkpt lat="45.92204" lon="4.75318">
        <ele>176</ele>
        <time>2017-08-11T09:00:36Z</time>
      </trkpt>
      <trkpt lat="45.92203" lon="4.75325">
        <ele>176</ele>
        <time>2017-08-11T09:00:37Z</time>
      </trkpt>
      <trkpt lat="45.92202" lon="4.75332">
        <ele>176</ele>
        <time>2017-08-11T09:00:38Z</time>
      </trkpt>
      <trkpt lat="45.922" lon="4.75339">
        <ele>177</ele>
        <time>2017-08-11T09:00:39Z</time>
      </trkpt>
      <trkpt lat="45.92198" lon="4.75346">
        <ele>177</ele>
        <time>2017-08-11T09:00:40Z</time>
      </trkpt>
      <trkpt lat="45.92196" lon="4.75353">
        <ele>177</ele>
        <time>2017-08-11T09:00:41Z</time>
      </trkpt>
      <trkpt lat="45.92193" lon="4.75359">
        <ele>177</ele>
        <time>2017-08-11T09:00:42Z</time>
      </trkpt>
      <trkpt lat="45.9219" lon="4.75366">
        <ele>177</ele>
        <time>2017-08-11T09:00:43Z</time>
      </trkpt>
      <trkpt lat="45.92187" lon="4.75374">
        <ele>177</ele>
        <time>2017-08-11T09:00:44Z</time>
      </trkpt>
      <trkpt lat="45.92185" lon="4.75381">
        <ele>177</ele>
        <time>2017-08-11T09:00:45Z</time>
      </trkpt>
      <trkpt lat="45.92182" lon="4.75389">
        <ele>177</ele>
        <time>2017-08-11T09:00:46Z</time>
      </trkpt>
      <trkpt lat="45.92179" lon="4.75397">
        <ele>177</ele>
        <time>2017-08-11T09:00:47Z</time>
      </trkpt>
      <trkpt lat="45.92177" lon="4.75405">
        <ele>177</ele>
        <time>2017-08-11T09:00:48Z</time>
      </trkpt>
      <trkpt lat="45.92174" lon="4.75413">
        <ele>178</ele>
        <time>2017-08-11T09:00:49Z</time>
      </trkpt>
      <trkpt lat="45.92171" lon="4.7542">
        <ele>178</ele>
        <time>2017-08-11T09:00:50Z</time>
      </trkpt>
      <trkpt lat="45.92168" lon="4.75428">
        <ele>177</ele>
        <time>2017-08-11T09:00:51Z</time>
      </trkpt>
      <trkpt lat="45.92165" lon="4.75435">
        <ele>177</ele>
        <time>2017-08-11T09:00:52Z</time>
      </trkpt>
      <trkpt lat="45.92162" lon="4.75442">
        <ele>177</ele>
        <time>2017-08-11T09:00:53Z</time>
      </trkpt>
      <trkpt lat="45.92159" lon="4.7545">
        <ele>176</ele>
        <time>2017-08-11T09:00:54Z</time>
      </trkpt>
      <trkpt lat="45.92156" lon="4.75458">
        <ele>176</ele>
        <time>2017-08-11T09:00:55Z</time>
      </trkpt>
      <trkpt lat="45.92153" lon="4.75466">
        <ele>176</ele>
        <time>2017-08-11T09:00:56Z</time>
      </trkpt>
      <trkpt lat="45.9215" lon="4.75475">
        <ele>176</ele>
        <time>2017-08-11T09:00:57Z</time>
      </trkpt>
      <trkpt lat="45.92148" lon="4.75484">
        <ele>176</ele>
        <time>2017-08-11T09:00:58Z</time>
      </trkpt>
      <trkpt lat="45.92144" lon="4.75492">
        <ele>176</ele>
        <time>2017-08-11T09:00:59Z</time>
      </trkpt>
      <trkpt lat="45.9214" lon="4.75499">
        <ele>175</ele>
        <time>2017-08-11T09:01:00Z</time>
      </trkpt>
      <trkpt lat="45.92136" lon="4.75507">
        <ele>174</ele>
        <time>2017-08-11T09:01:01Z</time>
      </trkpt>
      <trkpt lat="45.92132" lon="4.75514">
        <ele>174</ele>
        <time>2017-08-11T09:01:02Z</time>
      </trkpt>
      <trkpt lat="45.92128" lon="4.7552">
        <ele>174</ele>
        <time>2017-08-11T09:01:03Z</time>
      </trkpt>
      <trkpt lat="45.92124" lon="4.75527">
        <ele>174</ele>
        <time>2017-08-11T09:01:04Z</time>
      </trkpt>
      <trkpt lat="45.92121" lon="4.75534">
        <ele>174</ele>
        <time>2017-08-11T09:01:05Z</time>
      </trkpt>
      <trkpt lat="45.92117" lon="4.75541">
        <ele>174</ele>
        <time>2017-08-11T09:01:06Z</time>
      </trkpt>
      <trkpt lat="45.92114" lon="4.75548">
        <ele>174</ele>
        <time>2017-08-11T09:01:07Z</time>
      </trkpt>
      <trkpt lat="45.9211" lon="4.75554">
        <ele>174</ele>
        <time>2017-08-11T09:01:08Z</time>
      </trkpt>
      <trkpt lat="45.92107" lon="4.75561">
        <ele>174</ele>
        <time>2017-08-11T09:01:09Z</time>
      </trkpt>
      <trkpt lat="45.92106" lon="4.7557">
        <ele>174</ele>
        <time>2017-08-11T09:01:10Z</time>
      </trkpt>
      <trkpt lat="45.92107" lon="4.75579">
        <ele>174</ele>
        <time>2017-08-11T09:01:11Z</time>
      </trkpt>
      <trkpt lat="45.9211" lon="4.75586">
        <ele>174</ele>
        <time>2017-08-11T09:01:12Z</time>
      </trkpt>
      <trkpt lat="45.92114" lon="4.75592">
        <ele>174</ele>
        <time>2017-08-11T09:01:13Z</time>
      </trkpt>
      <trkpt lat="45.9212" lon="4.75597">
        <ele>174</ele>
        <time>2017-08-11T09:01:14Z</time>
      </trkpt>
      <trkpt lat="45.92125" lon="4.75601">
        <ele>174</ele>
        <time>2017-08-11T09:01:15Z</time>
      </trkpt>
      <trkpt lat="45.9213" lon="4.75606">
        <ele>174</ele>
        <time>2017-08-11T09:01:16Z</time>
      </trkpt>
      <trkpt lat="45.92135" lon="4.7561">
        <ele>174</ele>
        <time>2017-08-11T09:01:17Z</time>
      </trkpt>
      <trkpt lat="45.9214" lon="4.75615">
        <ele>174</ele>
        <time>2017-08-11T09:01:18Z</time>
      </trkpt>
      <trkpt lat="45.92145" lon="4.75619">
        <ele>174</ele>
        <time>2017-08-11T09:01:19Z</time>
      </trkpt>
      <trkpt lat="45.9215" lon="4.75624">
        <ele>174</ele>
        <time>2017-08-11T09:01:20Z</time>
      </trkpt>
      <trkpt lat="45.92155" lon="4.75629">
        <ele>174</ele>
        <time>2017-08-11T09:01:21Z</time>
      </trkpt>
      <trkpt lat="45.9216" lon="4.75634">
        <ele>174</ele>
        <time>2017-08-11T09:01:22Z</time>
      </trkpt>
      <trkpt lat="45.92164" lon="4.75639">
        <ele>174</ele>
        <time>2017-08-11T09:01:23Z</time>
      </trkpt>
      <trkpt lat="45.92169" lon="4.75644">
        <ele>174</ele>
        <time>2017-08-11T09:01:24Z</time>
      </trkpt>
      <trkpt lat="45.92174" lon="4.75649">
        <ele>174</ele>
        <time>2017-08-11T09:01:25Z</time>
      </trkpt>
      <trkpt lat="45.92179" lon="4.75654">
        <ele>174</ele>
        <time>2017-08-11T09:01:26Z</time>
      </trkpt>
      <trkpt lat="45.92184" lon="4.75659">
        <ele>174</ele>
        <time>2017-08-11T09:01:27Z</time>
      </trkpt>
      <trkpt lat="45.92188" lon="4.75664">
        <ele>174</ele>
        <time>2017-08-11T09:01:28Z</time>
      </trkpt>
      <trkpt lat="45.92193" lon="4.7567">
        <ele>174</ele>
        <time>2017-08-11T09:01:29Z</time>
      </trkpt>
      <trkpt lat="45.92198" lon="4.75675">
        <ele>174</ele>
        <time>2017-08-11T09:01:30Z</time>
      </trkpt>
      <trkpt lat="45.92203" lon="4.7568">
        <ele>174</ele>
        <time>2017-08-11T09:01:31Z</time>
      </trkpt>
      <trkpt lat="45.92209" lon="4.75685">
        <ele>174</ele>
        <time>2017-08-11T09:01:32Z</time>
      </trkpt>
      <trkpt lat="45.92214" lon="4.7569">
        <ele>174</ele>
        <time>2017-08-11T09:01:33Z</time>
      </trkpt>
      <trkpt lat="45.9222" lon="4.75695">
        <ele>174</ele>
        <time>2017-08-11T09:01:34Z</time>
      </trkpt>
      <trkpt lat="45.92225" lon="4.75701">
        <ele>174</ele>
        <time>2017-08-11T09:01:35Z</time>
      </trkpt>
      <trkpt lat="45.9223" lon="4.75707">
        <ele>174</ele>
        <time>2017-08-11T09:01:36Z</time>
      </trkpt>
      <trkpt lat="45.92235" lon="4.75713">
        <ele>174</ele>
        <time>2017-08-11T09:01:37Z</time>
      </trkpt>
      <trkpt lat="45.92238" lon="4.75721">
        <ele>174</ele>
        <time>2017-08-11T09:01:38Z</time>
      </trkpt>
      <trkpt lat="45.92241" lon="4.75728">
        <ele>174</ele>
        <time>2017-08-11T09:01:39Z</time>
      </trkpt>
      <trkpt lat="45.92243" lon="4.75737">
        <ele>174</ele>
        <time>2017-08-11T09:01:40Z</time>
      </trkpt>
      <trkpt lat="45.92245" lon="4.75745">
        <ele>174</ele>
        <time>2017-08-11T09:01:41Z</time>
      </trkpt>
      <trkpt lat="45.92247" lon="4.75753">
        <ele>174</ele>
        <time>2017-08-11T09:01:42Z</time>
      </trkpt>
      <trkpt lat="45.92248" lon="4.7576">
        <ele>174</ele>
        <time>2017-08-11T09:01:43Z</time>
      </trkpt>
      <trkpt lat="45.9225" lon="4.75767">
        <ele>174</ele>
        <time>2017-08-11T09:01:44Z</time>
      </trkpt>
      <trkpt lat="45.92251" lon="4.75775">
        <ele>174</ele>
        <time>2017-08-11T09:01:45Z</time>
      </trkpt>
      <trkpt lat="45.92253" lon="4.75783">
        <ele>174</ele>
        <time>2017-08-11T09:01:46Z</time>
      </trkpt>
      <trkpt lat="45.92254" lon="4.7579">
        <ele>174</ele>
        <time>2017-08-11T09:01:47Z</time>
      </trkpt>
      <trkpt lat="45.92256" lon="4.75797">
        <ele>174</ele>
        <time>2017-08-11T09:01:48Z</time>
      </trkpt>
      <trkpt lat="45.92258" lon="4.75805">
        <ele>174</ele>
        <time>2017-08-11T09:01:49Z</time>
      </trkpt>
      <trkpt lat="45.92261" lon="4.75813">
        <ele>174</ele>
        <time>2017-08-11T09:01:50Z</time>
      </trkpt>
      <trkpt lat="45.92264" lon="4.7582">
        <ele>174</ele>
        <time>2017-08-11T09:01:51Z</time>
      </trkpt>
      <trkpt lat="45.92269" lon="4.75827">
        <ele>174</ele>
        <time>2017-08-11T09:01:52Z</time>
      </trkpt>
      <trkpt lat="45.92275" lon="4.75833">
        <ele>174</ele>
        <time>2017-08-11T09:01:53Z</time>
      </trkpt>
      <trkpt lat="45.92281" lon="4.75837">
        <ele>173</ele>
        <time>2017-08-11T09:01:54Z</time>
      </trkpt>
      <trkpt lat="45.92287" lon="4.75841">
        <ele>173</ele>
        <time>2017-08-11T09:01:55Z</time>
      </trkpt>
      <trkpt lat="45.92294" lon="4.75845">
        <ele>173</ele>
        <time>2017-08-11T09:01:56Z</time>
      </trkpt>
      <trkpt lat="45.923" lon="4.75848">
        <ele>173</ele>
        <time>2017-08-11T09:01:57Z</time>
      </trkpt>
      <trkpt lat="45.92306" lon="4.75852">
        <ele>173</ele>
        <time>2017-08-11T09:01:58Z</time>
      </trkpt>
      <trkpt lat="45.92313" lon="4.75856">
        <ele>173</ele>
        <time>2017-08-11T09:01:59Z</time>
      </trkpt>
      <trkpt lat="45.92319" lon="4.7586">
        <ele>173</ele>
        <time>2017-08-11T09:02:00Z</time>
      </trkpt>
      <trkpt lat="45.92326" lon="4.75864">
        <ele>173</ele>
        <time>2017-08-11T09:02:01Z</time>
      </trkpt>
      <trkpt lat="45.92332" lon="4.75868">
        <ele>173</ele>
        <time>2017-08-11T09:02:02Z</time>
      </trkpt>
      <trkpt lat="45.92338" lon="4.75871">
        <ele>173</ele>
        <time>2017-08-11T09:02:03Z</time>
      </trkpt>
      <trkpt lat="45.92345" lon="4.75874">
        <ele>173</ele>
        <time>2017-08-11T09:02:04Z</time>
      </trkpt>
      <trkpt lat="45.9235" lon="4.75878">
        <ele>173</ele>
        <time>2017-08-11T09:02:05Z</time>
      </trkpt>
      <trkpt lat="45.92356" lon="4.75882">
        <ele>173</ele>
        <time>2017-08-11T09:02:06Z</time>
      </trkpt>
      <trkpt lat="45.92362" lon="4.75885">
        <ele>173</ele>
        <time>2017-08-11T09:02:07Z</time>
      </trkpt>
      <trkpt lat="45.92367" lon="4.75888">
        <ele>173</ele>
        <time>2017-08-11T09:02:08Z</time>
      </trkpt>
      <trkpt lat="45.92373" lon="4.75891">
        <ele>173</ele>
        <time>2017-08-11T09:02:09Z</time>
      </trkpt>
      <trkpt lat="45.92378" lon="4.75895">
        <ele>173</ele>
        <time>2017-08-11T09:02:10Z</time>
      </trkpt>
      <trkpt lat="45.92382" lon="4.75898">
        <ele>173</ele>
        <time>2017-08-11T09:02:11Z</time>
      </trkpt>
      <trkpt lat="45.92387" lon="4.75902">
        <ele>173</ele>
        <time>2017-08-11T09:02:12Z</time>
      </trkpt>
      <trkpt lat="45.92392" lon="4.75905">
        <ele>173</ele>
        <time>2017-08-11T09:02:13Z</time>
      </trkpt>
      <trkpt lat="45.92397" lon="4.75909">
        <ele>173</ele>
        <time>2017-08-11T09:02:14Z</time>
      </trkpt>
      <trkpt lat="45.92402" lon="4.75912">
        <ele>172</ele>
        <time>2017-08-11T09:02:15Z</time>
      </trkpt>
      <trkpt lat="45.92407" lon="4.75916">
        <ele>172</ele>
        <time>2017-08-11T09:02:16Z</time>
      </trkpt>
      <trkpt lat="45.92413" lon="4.7592">
        <ele>172</ele>
        <time>2017-08-11T09:02:17Z</time>
      </trkpt>
      <trkpt lat="45.92418" lon="4.75924">
        <ele>172</ele>
        <time>2017-08-11T09:02:18Z</time>
      </trkpt>
      <trkpt lat="45.92423" lon="4.75928">
        <ele>172</ele>
        <time>2017-08-11T09:02:19Z</time>
      </trkpt>
      <trkpt lat="45.92428" lon="4.75931">
        <ele>172</ele>
        <time>2017-08-11T09:02:20Z</time>
      </trkpt>
      <trkpt lat="45.92433" lon="4.75935">
        <ele>172</ele>
        <time>2017-08-11T09:02:21Z</time>
      </trkpt>
      <trkpt lat="45.92438" lon="4.75939">
        <ele>172</ele>
        <time>2017-08-11T09:02:22Z</time>
      </trkpt>
      <trkpt lat="45.92443" lon="4.75943">
        <ele>172</ele>
        <time>2017-08-11T09:02:23Z</time>
      </trkpt>
      <trkpt lat="45.92448" lon="4.75947">
        <ele>172</ele>
        <time>2017-08-11T09:02:24Z</time>
      </trkpt>
      <trkpt lat="45.92453" lon="4.75952">
        <ele>172</ele>
        <time>2017-08-11T09:02:25Z</time>
      </trkpt>
      <trkpt lat="45.92457" lon="4.75956">
        <ele>172</ele>
        <time>2017-08-11T09:02:26Z</time>
      </trkpt>
      <trkpt lat="45.92462" lon="4.7596">
        <ele>172</ele>
        <time>2017-08-11T09:02:27Z</time>
      </trkpt>
      <trkpt lat="45.92467" lon="4.75963">
        <ele>172</ele>
        <time>2017-08-11T09:02:28Z</time>
      </trkpt>
      <trkpt lat="45.92472" lon="4.75967">
        <ele>172</ele>
        <time>2017-08-11T09:02:29Z</time>
      </trkpt>
      <trkpt lat="45.92477" lon="4.7597">
        <ele>172</ele>
        <time>2017-08-11T09:02:30Z</time>
      </trkpt>
      <trkpt lat="45.92481" lon="4.75973">
        <ele>172</ele>
        <time>2017-08-11T09:02:31Z</time>
      </trkpt>
      <trkpt lat="45.92486" lon="4.75976">
        <ele>172</ele>
        <time>2017-08-11T09:02:32Z</time>
      </trkpt>
      <trkpt lat="45.92491" lon="4.7598">
        <ele>172</ele>
        <time>2017-08-11T09:02:33Z</time>
      </trkpt>
      <trkpt lat="45.92496" lon="4.75983">
        <ele>172</ele>
        <time>2017-08-11T09:02:34Z</time>
      </trkpt>
      <trkpt lat="45.925" lon="4.75986">
        <ele>172</ele>
        <time>2017-08-11T09:02:35Z</time>
      </trkpt>
      <trkpt lat="45.92505" lon="4.7599">
        <ele>172</ele>
        <time>2017-08-11T09:02:36Z</time>
      </trkpt>
      <trkpt lat="45.9251" lon="4.75994">
        <ele>172</ele>
        <time>2017-08-11T09:02:37Z</time>
      </trkpt>
      <trkpt lat="45.92514" lon="4.75997">
        <ele>172</ele>
        <time>2017-08-11T09:02:38Z</time>
      </trkpt>
      <trkpt lat="45.92519" lon="4.76001">
        <ele>172</ele>
        <time>2017-08-11T09:02:39Z</time>
      </trkpt>
      <trkpt lat="45.92523" lon="4.76004">
        <ele>172</ele>
        <time>2017-08-11T09:02:40Z</time>
      </trkpt>
      <trkpt lat="45.92528" lon="4.76007">
        <ele>172</ele>
        <time>2017-08-11T09:02:41Z</time>
      </trkpt>
      <trkpt lat="45.92535" lon="4.76013">
        <ele>172</ele>
        <time>2017-08-11T09:02:43Z</time>
      </trkpt>
      <trkpt lat="45.92539" lon="4.76015">
        <ele>172</ele>
        <time>2017-08-11T09:02:44Z</time>
      </trkpt>
      <trkpt lat="45.92547" lon="4.76021">
        <ele>172</ele>
        <time>2017-08-11T09:02:46Z</time>
      </trkpt>
      <trkpt lat="45.9255" lon="4.76024">
        <ele>172</ele>
        <time>2017-08-11T09:02:47Z</time>
      </trkpt>
      <trkpt lat="45.92555" lon="4.76028">
        <ele>172</ele>
        <time>2017-08-11T09:02:48Z</time>
      </trkpt>
      <trkpt lat="45.92559" lon="4.76031">
        <ele>172</ele>
        <time>2017-08-11T09:02:49Z</time>
      </trkpt>
      <trkpt lat="45.92563" lon="4.76035">
        <ele>172</ele>
        <time>2017-08-11T09:02:50Z</time>
      </trkpt>
      <trkpt lat="45.92568" lon="4.76038">
        <ele>172</ele>
        <time>2017-08-11T09:02:51Z</time>
      </trkpt>
      <trkpt lat="45.92573" lon="4.76042">
        <ele>172</ele>
        <time>2017-08-11T09:02:52Z</time>
      </trkpt>
      <trkpt lat="45.92578" lon="4.76045">
        <ele>171</ele>
        <time>2017-08-11T09:02:53Z</time>
      </trkpt>
      <trkpt lat="45.92582" lon="4.76049">
        <ele>171</ele>
        <time>2017-08-11T09:02:54Z</time>
      </trkpt>
      <trkpt lat="45.92587" lon="4.76053">
        <ele>171</ele>
        <time>2017-08-11T09:02:55Z</time>
      </trkpt>
      <trkpt lat="45.92591" lon="4.76056">
        <ele>171</ele>
        <time>2017-08-11T09:02:56Z</time>
      </trkpt>
      <trkpt lat="45.92596" lon="4.7606">
        <ele>171</ele>
        <time>2017-08-11T09:02:57Z</time>
      </trkpt>
      <trkpt lat="45.92601" lon="4.76063">
        <ele>171</ele>
        <time>2017-08-11T09:02:58Z</time>
      </trkpt>
      <trkpt lat="45.92606" lon="4.76067">
        <ele>171</ele>
        <time>2017-08-11T09:02:59Z</time>
      </trkpt>
      <trkpt lat="45.92611" lon="4.7607">
        <ele>171</ele>
        <time>2017-08-11T09:03:00Z</time>
      </trkpt>
      <trkpt lat="45.92615" lon="4.76073">
        <ele>171</ele>
        <time>2017-08-11T09:03:01Z</time>
      </trkpt>
      <trkpt lat="45.92621" lon="4.76076">
        <ele>171</ele>
        <time>2017-08-11T09:03:02Z</time>
      </trkpt>
      <trkpt lat="45.92626" lon="4.76079">
        <ele>170</ele>
        <time>2017-08-11T09:03:03Z</time>
      </trkpt>
      <trkpt lat="45.92631" lon="4.76083">
        <ele>170</ele>
        <time>2017-08-11T09:03:04Z</time>
      </trkpt>
      <trkpt lat="45.92637" lon="4.76087">
        <ele>170</ele>
        <time>2017-08-11T09:03:05Z</time>
      </trkpt>
      <trkpt lat="45.92642" lon="4.76091">
        <ele>170</ele>
        <time>2017-08-11T09:03:06Z</time>
      </trkpt>
      <trkpt lat="45.92648" lon="4.76095">
        <ele>170</ele>
        <time>2017-08-11T09:03:07Z</time>
      </trkpt>
      <trkpt lat="45.92655" lon="4.76099">
        <ele>170</ele>
        <time>2017-08-11T09:03:08Z</time>
      </trkpt>
      <trkpt lat="45.92661" lon="4.76103">
        <ele>170</ele>
        <time>2017-08-11T09:03:09Z</time>
      </trkpt>
      <trkpt lat="45.92667" lon="4.76107">
        <ele>169</ele>
        <time>2017-08-11T09:03:10Z</time>
      </trkpt>
      <trkpt lat="45.92674" lon="4.76112">
        <ele>169</ele>
        <time>2017-08-11T09:03:11Z</time>
      </trkpt>
      <trkpt lat="45.92681" lon="4.76116">
        <ele>169</ele>
        <time>2017-08-11T09:03:12Z</time>
      </trkpt>
      <trkpt lat="45.92687" lon="4.7612">
        <ele>169</ele>
        <time>2017-08-11T09:03:13Z</time>
      </trkpt>
      <trkpt lat="45.92694" lon="4.76125">
        <ele>169</ele>
        <time>2017-08-11T09:03:14Z</time>
      </trkpt>
      <trkpt lat="45.927" lon="4.7613">
        <ele>169</ele>
        <time>2017-08-11T09:03:15Z</time>
      </trkpt>
      <trkpt lat="45.92706" lon="4.76135">
        <ele>169</ele>
        <time>2017-08-11T09:03:16Z</time>
      </trkpt>
      <trkpt lat="45.92712" lon="4.76139">
        <ele>168</ele>
        <time>2017-08-11T09:03:17Z</time>
      </trkpt>
      <trkpt lat="45.92719" lon="4.76143">
        <ele>168</ele>
        <time>2017-08-11T09:03:18Z</time>
      </trkpt>
      <trkpt lat="45.92725" lon="4.76148">
        <ele>168</ele>
        <time>2017-08-11T09:03:19Z</time>
      </trkpt>
      <trkpt lat="45.92731" lon="4.76153">
        <ele>168</ele>
        <time>2017-08-11T09:03:20Z</time>
      </trkpt>
      <trkpt lat="45.92737" lon="4.76157">
        <ele>168</ele>
        <time>2017-08-11T09:03:21Z</time>
      </trkpt>
      <trkpt lat="45.92743" lon="4.76162">
        <ele>167</ele>
        <time>2017-08-11T09:03:22Z</time>
      </trkpt>
      <trkpt lat="45.9275" lon="4.76167">
        <ele>167</ele>
        <time>2017-08-11T09:03:23Z</time>
      </trkpt>
      <trkpt lat="45.92756" lon="4.76172">
        <ele>167</ele>
        <time>2017-08-11T09:03:24Z</time>
      </trkpt>
      <trkpt lat="45.92762" lon="4.76176">
        <ele>167</ele>
        <time>2017-08-11T09:03:25Z</time>
      </trkpt>
      <trkpt lat="45.92768" lon="4.76181">
        <ele>167</ele>
        <time>2017-08-11T09:03:26Z</time>
      </trkpt>
      <trkpt lat="45.92774" lon="4.76186">
        <ele>168</ele>
        <time>2017-08-11T09:03:27Z</time>
      </trkpt>
      <trkpt lat="45.9278" lon="4.76191">
        <ele>168</ele>
        <time>2017-08-11T09:03:28Z</time>
      </trkpt>
      <trkpt lat="45.92786" lon="4.76197">
        <ele>168</ele>
        <time>2017-08-11T09:03:29Z</time>
      </trkpt>
      <trkpt lat="45.92792" lon="4.76203">
        <ele>168</ele>
        <time>2017-08-11T09:03:30Z</time>
      </trkpt>
      <trkpt lat="45.92797" lon="4.76208">
        <ele>168</ele>
        <time>2017-08-11T09:03:31Z</time>
      </trkpt>
      <trkpt lat="45.92803" lon="4.76213">
        <ele>168</ele>
        <time>2017-08-11T09:03:32Z</time>
      </trkpt>
      <trkpt lat="45.92808" lon="4.76218">
        <ele>168</ele>
        <time>2017-08-11T09:03:33Z</time>
      </trkpt>
      <trkpt lat="45.92813" lon="4.76224">
        <ele>168</ele>
        <time>2017-08-11T09:03:34Z</time>
      </trkpt>
      <trkpt lat="45.92819" lon="4.76229">
        <ele>168</ele>
        <time>2017-08-11T09:03:35Z</time>
      </trkpt>
      <trkpt lat="45.92824" lon="4.76234">
        <ele>168</ele>
        <time>2017-08-11T09:03:36Z</time>
      </trkpt>
      <trkpt lat="45.92829" lon="4.76239">
        <ele>169</ele>
        <time>2017-08-11T09:03:37Z</time>
      </trkpt>
      <trkpt lat="45.92833" lon="4.76244">
        <ele>169</ele>
        <time>2017-08-11T09:03:38Z</time>
      </trkpt>
      <trkpt lat="45.92838" lon="4.76249">
        <ele>169</ele>
        <time>2017-08-11T09:03:39Z</time>
      </trkpt>
      <trkpt lat="45.92842" lon="4.76253">
        <ele>169</ele>
        <time>2017-08-11T09:03:40Z</time>
      </trkpt>
      <trkpt lat="45.92847" lon="4.76258">
        <ele>169</ele>
        <time>2017-08-11T09:03:41Z</time>
      </trkpt>
      <trkpt lat="45.92852" lon="4.76263">
        <ele>169</ele>
        <time>2017-08-11T09:03:42Z</time>
      </trkpt>
      <trkpt lat="45.92858" lon="4.76269">
        <ele>169</ele>
        <time>2017-08-11T09:03:43Z</time>
      </trkpt>
      <trkpt lat="45.92863" lon="4.76274">
        <ele>169</ele>
        <time>2017-08-11T09:03:44Z</time>
      </trkpt>
      <trkpt lat="45.92869" lon="4.7628">
        <ele>169</ele>
        <time>2017-08-11T09:03:45Z</time>
      </trkpt>
      <trkpt lat="45.92875" lon="4.76286">
        <ele>169</ele>
        <time>2017-08-11T09:03:46Z</time>
      </trkpt>
      <trkpt lat="45.92881" lon="4.76292">
        <ele>169</ele>
        <time>2017-08-11T09:03:47Z</time>
      </trkpt>
      <trkpt lat="45.92887" lon="4.76298">
        <ele>169</ele>
        <time>2017-08-11T09:03:48Z</time>
      </trkpt>
      <trkpt lat="45.92893" lon="4.76305">
        <ele>169</ele>
        <time>2017-08-11T09:03:49Z</time>
      </trkpt>
      <trkpt lat="45.92899" lon="4.76311">
        <ele>169</ele>
        <time>2017-08-11T09:03:50Z</time>
      </trkpt>
      <trkpt lat="45.92905" lon="4.76317">
        <ele>169</ele>
        <time>2017-08-11T09:03:51Z</time>
      </trkpt>
      <trkpt lat="45.9291" lon="4.76323">
        <ele>169</ele>
        <time>2017-08-11T09:03:52Z</time>
      </trkpt>
      <trkpt lat="45.92916" lon="4.76328">
        <ele>169</ele>
        <time>2017-08-11T09:03:53Z</time>
      </trkpt>
      <trkpt lat="45.92921" lon="4.76334">
        <ele>169</ele>
        <time>2017-08-11T09:03:54Z</time>
      </trkpt>
      <trkpt lat="45.92926" lon="4.76339">
        <ele>169</ele>
        <time>2017-08-11T09:03:55Z</time>
      </trkpt>
      <trkpt lat="45.92931" lon="4.76344">
        <ele>169</ele>
        <time>2017-08-11T09:03:56Z</time>
      </trkpt>
      <trkpt lat="45.92936" lon="4.7635">
        <ele>169</ele>
        <time>2017-08-11T09:03:57Z</time>
      </trkpt>
      <trkpt lat="45.92941" lon="4.76354">
        <ele>169</ele>
        <time>2017-08-11T09:03:58Z</time>
      </trkpt>
      <trkpt lat="45.92946" lon="4.76359">
        <ele>169</ele>
        <time>2017-08-11T09:03:59Z</time>
      </trkpt>
      <trkpt lat="45.92951" lon="4.76364">
        <ele>169</ele>
        <time>2017-08-11T09:04:00Z</time>
      </trkpt>
      <trkpt lat="45.92956" lon="4.76369">
        <ele>169</ele>
        <time>2017-08-11T09:04:01Z</time>
      </trkpt>
      <trkpt lat="45.92961" lon="4.76374">
        <ele>169</ele>
        <time>2017-08-11T09:04:02Z</time>
      </trkpt>
      <trkpt lat="45.92966" lon="4.76379">
        <ele>169</ele>
        <time>2017-08-11T09:04:03Z</time>
      </trkpt>
      <trkpt lat="45.92972" lon="4.76385">
        <ele>169</ele>
        <time>2017-08-11T09:04:04Z</time>
      </trkpt>
      <trkpt lat="45.92977" lon="4.7639">
        <ele>169</ele>
        <time>2017-08-11T09:04:05Z</time>
      </trkpt>
      <trkpt lat="45.92983" lon="4.76395">
        <ele>169</ele>
        <time>2017-08-11T09:04:06Z</time>
      </trkpt>
      <trkpt lat="45.92988" lon="4.76401">
        <ele>169</ele>
        <time>2017-08-11T09:04:07Z</time>
      </trkpt>
      <trkpt lat="45.92993" lon="4.76406">
        <ele>169</ele>
        <time>2017-08-11T09:04:08Z</time>
      </trkpt>
      <trkpt lat="45.92998" lon="4.7641">
        <ele>169</ele>
        <time>2017-08-11T09:04:09Z</time>
      </trkpt>
      <trkpt lat="45.93003" lon="4.76414">
        <ele>169</ele>
        <time>2017-08-11T09:04:10Z</time>
      </trkpt>
      <trkpt lat="45.93007" lon="4.76419">
        <ele>169</ele>
        <time>2017-08-11T09:04:11Z</time>
      </trkpt>
      <trkpt lat="45.93012" lon="4.76424">
        <ele>169</ele>
        <time>2017-08-11T09:04:12Z</time>
      </trkpt>
      <trkpt lat="45.93016" lon="4.76428">
        <ele>169</ele>
        <time>2017-08-11T09:04:13Z</time>
      </trkpt>
      <trkpt lat="45.9302" lon="4.76432">
        <ele>169</ele>
        <time>2017-08-11T09:04:14Z</time>
      </trkpt>
      <trkpt lat="45.93024" lon="4.76437">
        <ele>169</ele>
        <time>2017-08-11T09:04:15Z</time>
      </trkpt>
      <trkpt lat="45.93029" lon="4.76442">
        <ele>169</ele>
        <time>2017-08-11T09:04:16Z</time>
      </trkpt>
      <trkpt lat="45.93034" lon="4.76447">
        <ele>169</ele>
        <time>2017-08-11T09:04:17Z</time>
      </trkpt>
      <trkpt lat="45.93039" lon="4.76452">
        <ele>169</ele>
        <time>2017-08-11T09:04:18Z</time>
      </trkpt>
      <trkpt lat="45.93044" lon="4.76457">
        <ele>169</ele>
        <time>2017-08-11T09:04:19Z</time>
      </trkpt>
      <trkpt lat="45.93049" lon="4.76462">
        <ele>169</ele>
        <time>2017-08-11T09:04:20Z</time>
      </trkpt>
      <trkpt lat="45.93054" lon="4.76468">
        <ele>169</ele>
        <time>2017-08-11T09:04:21Z</time>
      </trkpt>
      <trkpt lat="45.93059" lon="4.76473">
        <ele>169</ele>
        <time>2017-08-11T09:04:22Z</time>
      </trkpt>
      <trkpt lat="45.93065" lon="4.76479">
        <ele>169</ele>
        <time>2017-08-11T09:04:23Z</time>
      </trkpt>
      <trkpt lat="45.9307" lon="4.76484">
        <ele>169</ele>
        <time>2017-08-11T09:04:24Z</time>
      </trkpt>
      <trkpt lat="45.93075" lon="4.76489">
        <ele>170</ele>
        <time>2017-08-11T09:04:25Z</time>
      </trkpt>
      <trkpt lat="45.9308" lon="4.76494">
        <ele>170</ele>
        <time>2017-08-11T09:04:26Z</time>
      </trkpt>
      <trkpt lat="45.93085" lon="4.76499">
        <ele>170</ele>
        <time>2017-08-11T09:04:27Z</time>
      </trkpt>
      <trkpt lat="45.93089" lon="4.76503">
        <ele>170</ele>
        <time>2017-08-11T09:04:28Z</time>
      </trkpt>
      <trkpt lat="45.93094" lon="4.76508">
        <ele>170</ele>
        <time>2017-08-11T09:04:29Z</time>
      </trkpt>
      <trkpt lat="45.93099" lon="4.76512">
        <ele>170</ele>
        <time>2017-08-11T09:04:30Z</time>
      </trkpt>
      <trkpt lat="45.93104" lon="4.76516">
        <ele>170</ele>
        <time>2017-08-11T09:04:31Z</time>
      </trkpt>
      <trkpt lat="45.93108" lon="4.76521">
        <ele>170</ele>
        <time>2017-08-11T09:04:32Z</time>
      </trkpt>
      <trkpt lat="45.93112" lon="4.76525">
        <ele>170</ele>
        <time>2017-08-11T09:04:33Z</time>
      </trkpt>
      <trkpt lat="45.93117" lon="4.76529">
        <ele>170</ele>
        <time>2017-08-11T09:04:34Z</time>
      </trkpt>
      <trkpt lat="45.93121" lon="4.76533">
        <ele>170</ele>
        <time>2017-08-11T09:04:35Z</time>
      </trkpt>
      <trkpt lat="45.93125" lon="4.76537">
        <ele>170</ele>
        <time>2017-08-11T09:04:36Z</time>
      </trkpt>
      <trkpt lat="45.93129" lon="4.76541">
        <ele>170</ele>
        <time>2017-08-11T09:04:37Z</time>
      </trkpt>
      <trkpt lat="45.93133" lon="4.76545">
        <ele>170</ele>
        <time>2017-08-11T09:04:38Z</time>
      </trkpt>
      <trkpt lat="45.93138" lon="4.76549">
        <ele>170</ele>
        <time>2017-08-11T09:04:39Z</time>
      </trkpt>
      <trkpt lat="45.93142" lon="4.76553">
        <ele>170</ele>
        <time>2017-08-11T09:04:40Z</time>
      </trkpt>
      <trkpt lat="45.93147" lon="4.76558">
        <ele>170</ele>
        <time>2017-08-11T09:04:41Z</time>
      </trkpt>
      <trkpt lat="45.93151" lon="4.76562">
        <ele>170</ele>
        <time>2017-08-11T09:04:42Z</time>
      </trkpt>
      <trkpt lat="45.93156" lon="4.76566">
        <ele>170</ele>
        <time>2017-08-11T09:04:43Z</time>
      </trkpt>
      <trkpt lat="45.93161" lon="4.76571">
        <ele>170</ele>
        <time>2017-08-11T09:04:44Z</time>
      </trkpt>
      <trkpt lat="45.93166" lon="4.76575">
        <ele>171</ele>
        <time>2017-08-11T09:04:45Z</time>
      </trkpt>
      <trkpt lat="45.9317" lon="4.7658">
        <ele>171</ele>
        <time>2017-08-11T09:04:46Z</time>
      </trkpt>
      <trkpt lat="45.93175" lon="4.76585">
        <ele>171</ele>
        <time>2017-08-11T09:04:47Z</time>
      </trkpt>
      <trkpt lat="45.9318" lon="4.76591">
        <ele>171</ele>
        <time>2017-08-11T09:04:48Z</time>
      </trkpt>
      <trkpt lat="45.93185" lon="4.76596">
        <ele>171</ele>
        <time>2017-08-11T09:04:49Z</time>
      </trkpt>
      <trkpt lat="45.9319" lon="4.766">
        <ele>170</ele>
        <time>2017-08-11T09:04:50Z</time>
      </trkpt>
      <trkpt lat="45.93195" lon="4.76605">
        <ele>170</ele>
        <time>2017-08-11T09:04:51Z</time>
      </trkpt>
      <trkpt lat="45.93199" lon="4.76609">
        <ele>170</ele>
        <time>2017-08-11T09:04:52Z</time>
      </trkpt>
      <trkpt lat="45.93203" lon="4.76613">
        <ele>170</ele>
        <time>2017-08-11T09:04:53Z</time>
      </trkpt>
      <trkpt lat="45.93207" lon="4.76617">
        <ele>170</ele>
        <time>2017-08-11T09:04:54Z</time>
      </trkpt>
      <trkpt lat="45.93212" lon="4.76622">
        <ele>170</ele>
        <time>2017-08-11T09:04:55Z</time>
      </trkpt>
      <trkpt lat="45.93216" lon="4.76627">
        <ele>170</ele>
        <time>2017-08-11T09:04:56Z</time>
      </trkpt>
      <trkpt lat="45.93221" lon="4.76632">
        <ele>171</ele>
        <time>2017-08-11T09:04:57Z</time>
      </trkpt>
      <trkpt lat="45.93226" lon="4.76637">
        <ele>171</ele>
        <time>2017-08-11T09:04:58Z</time>
      </trkpt>
      <trkpt lat="45.93231" lon="4.76642">
        <ele>171</ele>
        <time>2017-08-11T09:04:59Z</time>
      </trkpt>
      <trkpt lat="45.93236" lon="4.76647">
        <ele>171</ele>
        <time>2017-08-11T09:05:00Z</time>
      </trkpt>
      <trkpt lat="45.9324" lon="4.76652">
        <ele>171</ele>
        <time>2017-08-11T09:05:01Z</time>
      </trkpt>
      <trkpt lat="45.93245" lon="4.76657">
        <ele>171</ele>
        <time>2017-08-11T09:05:02Z</time>
      </trkpt>
      <trkpt lat="45.9325" lon="4.76662">
        <ele>172</ele>
        <time>2017-08-11T09:05:03Z</time>
      </trkpt>
      <trkpt lat="45.93255" lon="4.76667">
        <ele>172</ele>
        <time>2017-08-11T09:05:04Z</time>
      </trkpt>
      <trkpt lat="45.9326" lon="4.76672">
        <ele>172</ele>
        <time>2017-08-11T09:05:05Z</time>
      </trkpt>
      <trkpt lat="45.93265" lon="4.76677">
        <ele>172</ele>
        <time>2017-08-11T09:05:06Z</time>
      </trkpt>
      <trkpt lat="45.9327" lon="4.76681">
        <ele>172</ele>
        <time>2017-08-11T09:05:07Z</time>
      </trkpt>
      <trkpt lat="45.93274" lon="4.76685">
        <ele>172</ele>
        <time>2017-08-11T09:05:08Z</time>
      </trkpt>
      <trkpt lat="45.93279" lon="4.76691">
        <ele>172</ele>
        <time>2017-08-11T09:05:09Z</time>
      </trkpt>
      <trkpt lat="45.93284" lon="4.76695">
        <ele>172</ele>
        <time>2017-08-11T09:05:10Z</time>
      </trkpt>
      <trkpt lat="45.93288" lon="4.767">
        <ele>172</ele>
        <time>2017-08-11T09:05:11Z</time>
      </trkpt>
      <trkpt lat="45.93293" lon="4.76705">
        <ele>172</ele>
        <time>2017-08-11T09:05:12Z</time>
      </trkpt>
      <trkpt lat="45.93298" lon="4.7671">
        <ele>172</ele>
        <time>2017-08-11T09:05:13Z</time>
      </trkpt>
      <trkpt lat="45.93303" lon="4.76715">
        <ele>172</ele>
        <time>2017-08-11T09:05:14Z</time>
      </trkpt>
      <trkpt lat="45.93308" lon="4.7672">
        <ele>172</ele>
        <time>2017-08-11T09:05:15Z</time>
      </trkpt>
      <trkpt lat="45.93313" lon="4.76725">
        <ele>172</ele>
        <time>2017-08-11T09:05:16Z</time>
      </trkpt>
      <trkpt lat="45.93318" lon="4.7673">
        <ele>172</ele>
        <time>2017-08-11T09:05:17Z</time>
      </trkpt>
      <trkpt lat="45.93323" lon="4.76735">
        <ele>172</ele>
        <time>2017-08-11T09:05:18Z</time>
      </trkpt>
      <trkpt lat="45.93328" lon="4.7674">
        <ele>172</ele>
        <time>2017-08-11T09:05:19Z</time>
      </trkpt>
      <trkpt lat="45.93333" lon="4.76744">
        <ele>173</ele>
        <time>2017-08-11T09:05:20Z</time>
      </trkpt>
      <trkpt lat="45.93338" lon="4.76749">
        <ele>173</ele>
        <time>2017-08-11T09:05:21Z</time>
      </trkpt>
      <trkpt lat="45.93343" lon="4.76754">
        <ele>173</ele>
        <time>2017-08-11T09:05:22Z</time>
      </trkpt>
      <trkpt lat="45.93348" lon="4.76759">
        <ele>172</ele>
        <time>2017-08-11T09:05:23Z</time>
      </trkpt>
      <trkpt lat="45.93352" lon="4.76763">
        <ele>172</ele>
        <time>2017-08-11T09:05:24Z</time>
      </trkpt>
      <trkpt lat="45.93356" lon="4.76768">
        <ele>172</ele>
        <time>2017-08-11T09:05:25Z</time>
      </trkpt>
      <trkpt lat="45.9336" lon="4.76772">
        <ele>172</ele>
        <time>2017-08-11T09:05:26Z</time>
      </trkpt>
      <trkpt lat="45.93364" lon="4.76776">
        <ele>172</ele>
        <time>2017-08-11T09:05:27Z</time>
      </trkpt>
      <trkpt lat="45.93368" lon="4.76781">
        <ele>172</ele>
        <time>2017-08-11T09:05:28Z</time>
      </trkpt>
      <trkpt lat="45.93373" lon="4.76785">
        <ele>172</ele>
        <time>2017-08-11T09:05:29Z</time>
      </trkpt>
      <trkpt lat="45.93377" lon="4.76789">
        <ele>172</ele>
        <time>2017-08-11T09:05:30Z</time>
      </trkpt>
      <trkpt lat="45.93381" lon="4.76794">
        <ele>172</ele>
        <time>2017-08-11T09:05:31Z</time>
      </trkpt>
      <trkpt lat="45.93386" lon="4.76799">
        <ele>172</ele>
        <time>2017-08-11T09:05:32Z</time>
      </trkpt>
      <trkpt lat="45.9339" lon="4.76804">
        <ele>172</ele>
        <time>2017-08-11T09:05:33Z</time>
      </trkpt>
      <trkpt lat="45.93394" lon="4.76809">
        <ele>172</ele>
        <time>2017-08-11T09:05:34Z</time>
      </trkpt>
      <trkpt lat="45.93398" lon="4.76815">
        <ele>172</ele>
        <time>2017-08-11T09:05:35Z</time>
      </trkpt>
      <trkpt lat="45.93402" lon="4.7682">
        <ele>172</ele>
        <time>2017-08-11T09:05:36Z</time>
      </trkpt>
      <trkpt lat="45.93406" lon="4.76826">
        <ele>172</ele>
        <time>2017-08-11T09:05:37Z</time>
      </trkpt>
      <trkpt lat="45.9341" lon="4.76832">
        <ele>172</ele>
        <time>2017-08-11T09:05:38Z</time>
      </trkpt>
      <trkpt lat="45.93413" lon="4.76838">
        <ele>172</ele>
        <time>2017-08-11T09:05:39Z</time>
      </trkpt>
      <trkpt lat="45.93417" lon="4.76845">
        <ele>172</ele>
        <time>2017-08-11T09:05:40Z</time>
      </trkpt>
      <trkpt lat="45.9342" lon="4.76851">
        <ele>171</ele>
        <time>2017-08-11T09:05:41Z</time>
      </trkpt>
      <trkpt lat="45.93424" lon="4.76859">
        <ele>171</ele>
        <time>2017-08-11T09:05:42Z</time>
      </trkpt>
      <trkpt lat="45.93427" lon="4.76866">
        <ele>171</ele>
        <time>2017-08-11T09:05:43Z</time>
      </trkpt>
      <trkpt lat="45.9343" lon="4.76873">
        <ele>171</ele>
        <time>2017-08-11T09:05:44Z</time>
      </trkpt>
      <trkpt lat="45.93433" lon="4.7688">
        <ele>171</ele>
        <time>2017-08-11T09:05:45Z</time>
      </trkpt>
      <trkpt lat="45.93436" lon="4.76887">
        <ele>171</ele>
        <time>2017-08-11T09:05:46Z</time>
      </trkpt>
      <trkpt lat="45.93438" lon="4.76895">
        <ele>170</ele>
        <time>2017-08-11T09:05:47Z</time>
      </trkpt>
      <trkpt lat="45.9344" lon="4.76902">
        <ele>170</ele>
        <time>2017-08-11T09:05:48Z</time>
      </trkpt>
      <trkpt lat="45.93442" lon="4.76909">
        <ele>170</ele>
        <time>2017-08-11T09:05:49Z</time>
      </trkpt>
      <trkpt lat="45.93444" lon="4.76916">
        <ele>170</ele>
        <time>2017-08-11T09:05:50Z</time>
      </trkpt>
      <trkpt lat="45.93446" lon="4.76923">
        <ele>170</ele>
        <time>2017-08-11T09:05:51Z</time>
      </trkpt>
      <trkpt lat="45.93447" lon="4.76931">
        <ele>170</ele>
        <time>2017-08-11T09:05:52Z</time>
      </trkpt>
      <trkpt lat="45.93448" lon="4.76939">
        <ele>170</ele>
        <time>2017-08-11T09:05:53Z</time>
      </trkpt>
      <trkpt lat="45.93449" lon="4.76947">
        <ele>170</ele>
        <time>2017-08-11T09:05:54Z</time>
      </trkpt>
      <trkpt lat="45.9345" lon="4.76955">
        <ele>170</ele>
        <time>2017-08-11T09:05:55Z</time>
      </trkpt>
      <trkpt lat="45.93451" lon="4.76963">
        <ele>170</ele>
        <time>2017-08-11T09:05:56Z</time>
      </trkpt>
      <trkpt lat="45.93452" lon="4.76971">
        <ele>170</ele>
        <time>2017-08-11T09:05:57Z</time>
      </trkpt>
      <trkpt lat="45.93453" lon="4.76979">
        <ele>170</ele>
        <time>2017-08-11T09:05:58Z</time>
      </trkpt>
      <trkpt lat="45.93454" lon="4.76987">
        <ele>170</ele>
        <time>2017-08-11T09:05:59Z</time>
      </trkpt>
      <trkpt lat="45.93455" lon="4.76995">
        <ele>170</ele>
        <time>2017-08-11T09:06:00Z</time>
      </trkpt>
      <trkpt lat="45.93457" lon="4.77003">
        <ele>170</ele>
        <time>2017-08-11T09:06:01Z</time>
      </trkpt>
      <trkpt lat="45.93458" lon="4.77011">
        <ele>170</ele>
        <time>2017-08-11T09:06:02Z</time>
      </trkpt>
      <trkpt lat="45.93459" lon="4.77019">
        <ele>170</ele>
        <time>2017-08-11T09:06:03Z</time>
      </trkpt>
      <trkpt lat="45.93461" lon="4.77028">
        <ele>170</ele>
        <time>2017-08-11T09:06:04Z</time>
      </trkpt>
      <trkpt lat="45.93462" lon="4.77036">
        <ele>170</ele>
        <time>2017-08-11T09:06:05Z</time>
      </trkpt>
      <trkpt lat="45.93464" lon="4.77044">
        <ele>170</ele>
        <time>2017-08-11T09:06:06Z</time>
      </trkpt>
      <trkpt lat="45.93465" lon="4.77052">
        <ele>170</ele>
        <time>2017-08-11T09:06:07Z</time>
      </trkpt>
      <trkpt lat="45.93466" lon="4.7706">
        <ele>170</ele>
        <time>2017-08-11T09:06:08Z</time>
      </trkpt>
      <trkpt lat="45.93467" lon="4.77069">
        <ele>170</ele>
        <time>2017-08-11T09:06:09Z</time>
      </trkpt>
      <trkpt lat="45.93468" lon="4.77077">
        <ele>170</ele>
        <time>2017-08-11T09:06:10Z</time>
      </trkpt>
      <trkpt lat="45.9347" lon="4.77084">
        <ele>170</ele>
        <time>2017-08-11T09:06:11Z</time>
      </trkpt>
      <trkpt lat="45.93472" lon="4.77091">
        <ele>169</ele>
        <time>2017-08-11T09:06:12Z</time>
      </trkpt>
      <trkpt lat="45.93473" lon="4.77098">
        <ele>169</ele>
        <time>2017-08-11T09:06:13Z</time>
      </trkpt>
      <trkpt lat="45.93475" lon="4.77105">
        <ele>169</ele>
        <time>2017-08-11T09:06:14Z</time>
      </trkpt>
      <trkpt lat="45.93476" lon="4.77113">
        <ele>169</ele>
        <time>2017-08-11T09:06:15Z</time>
      </trkpt>
      <trkpt lat="45.93478" lon="4.77121">
        <ele>169</ele>
        <time>2017-08-11T09:06:16Z</time>
      </trkpt>
      <trkpt lat="45.9348" lon="4.77129">
        <ele>169</ele>
        <time>2017-08-11T09:06:17Z</time>
      </trkpt>
      <trkpt lat="45.93482" lon="4.77137">
        <ele>169</ele>
        <time>2017-08-11T09:06:18Z</time>
      </trkpt>
      <trkpt lat="45.93483" lon="4.77144">
        <ele>169</ele>
        <time>2017-08-11T09:06:19Z</time>
      </trkpt>
      <trkpt lat="45.93485" lon="4.77153">
        <ele>169</ele>
        <time>2017-08-11T09:06:20Z</time>
      </trkpt>
      <trkpt lat="45.93487" lon="4.7716">
        <ele>169</ele>
        <time>2017-08-11T09:06:21Z</time>
      </trkpt>
      <trkpt lat="45.93488" lon="4.77168">
        <ele>169</ele>
        <time>2017-08-11T09:06:22Z</time>
      </trkpt>
      <trkpt lat="45.9349" lon="4.77176">
        <ele>169</ele>
        <time>2017-08-11T09:06:23Z</time>
      </trkpt>
      <trkpt lat="45.93491" lon="4.77183">
        <ele>169</ele>
        <time>2017-08-11T09:06:24Z</time>
      </trkpt>
      <trkpt lat="45.93493" lon="4.77191">
        <ele>169</ele>
        <time>2017-08-11T09:06:25Z</time>
      </trkpt>
      <trkpt lat="45.93494" lon="4.77198">
        <ele>169</ele>
        <time>2017-08-11T09:06:26Z</time>
      </trkpt>
      <trkpt lat="45.93495" lon="4.77205">
        <ele>169</ele>
        <time>2017-08-11T09:06:27Z</time>
      </trkpt>
      <trkpt lat="45.93496" lon="4.77212">
        <ele>169</ele>
        <time>2017-08-11T09:06:28Z</time>
      </trkpt>
      <trkpt lat="45.93498" lon="4.77219">
        <ele>169</ele>
        <time>2017-08-11T09:06:29Z</time>
      </trkpt>
      <trkpt lat="45.93499" lon="4.77226">
        <ele>170</ele>
        <time>2017-08-11T09:06:30Z</time>
      </trkpt>
      <trkpt lat="45.93501" lon="4.77233">
        <ele>169</ele>
        <time>2017-08-11T09:06:31Z</time>
      </trkpt>
      <trkpt lat="45.93502" lon="4.7724">
        <ele>169</ele>
        <time>2017-08-11T09:06:32Z</time>
      </trkpt>
      <trkpt lat="45.93504" lon="4.77247">
        <ele>170</ele>
        <time>2017-08-11T09:06:33Z</time>
      </trkpt>
      <trkpt lat="45.93505" lon="4.77254">
        <ele>170</ele>
        <time>2017-08-11T09:06:34Z</time>
      </trkpt>
      <trkpt lat="45.93507" lon="4.77261">
        <ele>170</ele>
        <time>2017-08-11T09:06:35Z</time>
      </trkpt>
      <trkpt lat="45.93508" lon="4.77268">
        <ele>170</ele>
        <time>2017-08-11T09:06:36Z</time>
      </trkpt>
      <trkpt lat="45.9351" lon="4.77276">
        <ele>170</ele>
        <time>2017-08-11T09:06:37Z</time>
      </trkpt>
      <trkpt lat="45.93512" lon="4.77283">
        <ele>170</ele>
        <time>2017-08-11T09:06:38Z</time>
      </trkpt>
      <trkpt lat="45.93514" lon="4.7729">
        <ele>170</ele>
        <time>2017-08-11T09:06:39Z</time>
      </trkpt>
      <trkpt lat="45.93516" lon="4.77297">
        <ele>170</ele>
        <time>2017-08-11T09:06:40Z</time>
      </trkpt>
      <trkpt lat="45.93517" lon="4.77305">
        <ele>170</ele>
        <time>2017-08-11T09:06:41Z</time>
      </trkpt>
      <trkpt lat="45.93519" lon="4.77313">
        <ele>170</ele>
        <time>2017-08-11T09:06:42Z</time>
      </trkpt>
      <trkpt lat="45.9352" lon="4.77321">
        <ele>170</ele>
        <time>2017-08-11T09:06:43Z</time>
      </trkpt>
      <trkpt lat="45.93522" lon="4.77328">
        <ele>170</ele>
        <time>2017-08-11T09:06:44Z</time>
      </trkpt>
      <trkpt lat="45.93523" lon="4.77336">
        <ele>170</ele>
        <time>2017-08-11T09:06:45Z</time>
      </trkpt>
      <trkpt lat="45.93525" lon="4.77344">
        <ele>170</ele>
        <time>2017-08-11T09:06:46Z</time>
      </trkpt>
      <trkpt lat="45.93527" lon="4.77352">
        <ele>170</ele>
        <time>2017-08-11T09:06:47Z</time>
      </trkpt>
      <trkpt lat="45.93529" lon="4.77359">
        <ele>170</ele>
        <time>2017-08-11T09:06:48Z</time>
      </trkpt>
      <trkpt lat="45.93531" lon="4.77367">
        <ele>170</ele>
        <time>2017-08-11T09:06:49Z</time>
      </trkpt>
      <trkpt lat="45.93532" lon="4.77374">
        <ele>170</ele>
        <time>2017-08-11T09:06:50Z</time>
      </trkpt>
      <trkpt lat="45.93534" lon="4.77382">
        <ele>170</ele>
        <time>2017-08-11T09:06:51Z</time>
      </trkpt>
      <trkpt lat="45.93535" lon="4.77389">
        <ele>170</ele>
        <time>2017-08-11T09:06:52Z</time>
      </trkpt>
      <trkpt lat="45.93537" lon="4.77395">
        <ele>170</ele>
        <time>2017-08-11T09:06:53Z</time>
      </trkpt>
      <trkpt lat="45.93538" lon="4.77402">
        <ele>170</ele>
        <time>2017-08-11T09:06:54Z</time>
      </trkpt>
      <trkpt lat="45.9354" lon="4.77408">
        <ele>170</ele>
        <time>2017-08-11T09:06:55Z</time>
      </trkpt>
      <trkpt lat="45.93541" lon="4.77415">
        <ele>170</ele>
        <time>2017-08-11T09:06:56Z</time>
      </trkpt>
      <trkpt lat="45.93543" lon="4.77422">
        <ele>170</ele>
        <time>2017-08-11T09:06:57Z</time>
      </trkpt>
      <trkpt lat="45.93544" lon="4.77428">
        <ele>169</ele>
        <time>2017-08-11T09:06:58Z</time>
      </trkpt>
      <trkpt lat="45.93545" lon="4.77435">
        <ele>169</ele>
        <time>2017-08-11T09:06:59Z</time>
      </trkpt>
      <trkpt lat="45.93547" lon="4.77442">
        <ele>169</ele>
        <time>2017-08-11T09:07:00Z</time>
      </trkpt>
      <trkpt lat="45.93548" lon="4.7745">
        <ele>169</ele>
        <time>2017-08-11T09:07:01Z</time>
      </trkpt>
      <trkpt lat="45.9355" lon="4.77458">
        <ele>169</ele>
        <time>2017-08-11T09:07:02Z</time>
      </trkpt>
      <trkpt lat="45.93552" lon="4.77466">
        <ele>169</ele>
        <time>2017-08-11T09:07:03Z</time>
      </trkpt>
      <trkpt lat="45.93553" lon="4.77474">
        <ele>169</ele>
        <time>2017-08-11T09:07:04Z</time>
      </trkpt>
      <trkpt lat="45.93555" lon="4.77482">
        <ele>169</ele>
        <time>2017-08-11T09:07:05Z</time>
      </trkpt>
      <trkpt lat="45.93557" lon="4.7749">
        <ele>169</ele>
        <time>2017-08-11T09:07:06Z</time>
      </trkpt>
      <trkpt lat="45.93559" lon="4.77498">
        <ele>169</ele>
        <time>2017-08-11T09:07:07Z</time>
      </trkpt>
      <trkpt lat="45.93561" lon="4.77505">
        <ele>169</ele>
        <time>2017-08-11T09:07:08Z</time>
      </trkpt>
      <trkpt lat="45.93562" lon="4.77513">
        <ele>169</ele>
        <time>2017-08-11T09:07:09Z</time>
      </trkpt>
      <trkpt lat="45.93564" lon="4.77521">
        <ele>169</ele>
        <time>2017-08-11T09:07:10Z</time>
      </trkpt>
      <trkpt lat="45.93565" lon="4.77527">
        <ele>169</ele>
        <time>2017-08-11T09:07:11Z</time>
      </trkpt>
      <trkpt lat="45.93567" lon="4.77535">
        <ele>169</ele>
        <time>2017-08-11T09:07:12Z</time>
      </trkpt>
      <trkpt lat="45.93569" lon="4.77542">
        <ele>169</ele>
        <time>2017-08-11T09:07:13Z</time>
      </trkpt>
      <trkpt lat="45.93571" lon="4.7755">
        <ele>169</ele>
        <time>2017-08-11T09:07:14Z</time>
      </trkpt>
      <trkpt lat="45.93573" lon="4.77557">
        <ele>169</ele>
        <time>2017-08-11T09:07:15Z</time>
      </trkpt>
      <trkpt lat="45.93575" lon="4.77565">
        <ele>169</ele>
        <time>2017-08-11T09:07:16Z</time>
      </trkpt>
      <trkpt lat="45.93578" lon="4.77572">
        <ele>170</ele>
        <time>2017-08-11T09:07:17Z</time>
      </trkpt>
      <trkpt lat="45.9358" lon="4.77579">
        <ele>170</ele>
        <time>2017-08-11T09:07:18Z</time>
      </trkpt>
      <trkpt lat="45.93583" lon="4.77586">
        <ele>170</ele>
        <time>2017-08-11T09:07:19Z</time>
      </trkpt>
      <trkpt lat="45.93585" lon="4.77594">
        <ele>170</ele>
        <time>2017-08-11T09:07:20Z</time>
      </trkpt>
      <trkpt lat="45.93588" lon="4.77601">
        <ele>170</ele>
        <time>2017-08-11T09:07:21Z</time>
      </trkpt>
      <trkpt lat="45.93592" lon="4.77609">
        <ele>170</ele>
        <time>2017-08-11T09:07:22Z</time>
      </trkpt>
      <trkpt lat="45.93594" lon="4.77617">
        <ele>170</ele>
        <time>2017-08-11T09:07:23Z</time>
      </trkpt>
      <trkpt lat="45.93597" lon="4.77624">
        <ele>170</ele>
        <time>2017-08-11T09:07:24Z</time>
      </trkpt>
      <trkpt lat="45.936" lon="4.77632">
        <ele>169</ele>
        <time>2017-08-11T09:07:25Z</time>
      </trkpt>
      <trkpt lat="45.93603" lon="4.7764">
        <ele>169</ele>
        <time>2017-08-11T09:07:26Z</time>
      </trkpt>
      <trkpt lat="45.93606" lon="4.77648">
        <ele>169</ele>
        <time>2017-08-11T09:07:27Z</time>
      </trkpt>
      <trkpt lat="45.93609" lon="4.77655">
        <ele>169</ele>
        <time>2017-08-11T09:07:28Z</time>
      </trkpt>
      <trkpt lat="45.93612" lon="4.77662">
        <ele>169</ele>
        <time>2017-08-11T09:07:29Z</time>
      </trkpt>
      <trkpt lat="45.93614" lon="4.77668">
        <ele>169</ele>
        <time>2017-08-11T09:07:30Z</time>
      </trkpt>
      <trkpt lat="45.93617" lon="4.77674">
        <ele>169</ele>
        <time>2017-08-11T09:07:31Z</time>
      </trkpt>
      <trkpt lat="45.93619" lon="4.7768">
        <ele>169</ele>
        <time>2017-08-11T09:07:32Z</time>
      </trkpt>
      <trkpt lat="45.93622" lon="4.77685">
        <ele>169</ele>
        <time>2017-08-11T09:07:33Z</time>
      </trkpt>
      <trkpt lat="45.93625" lon="4.7769">
        <ele>169</ele>
        <time>2017-08-11T09:07:34Z</time>
      </trkpt>
      <trkpt lat="45.93628" lon="4.77695">
        <ele>169</ele>
        <time>2017-08-11T09:07:35Z</time>
      </trkpt>
      <trkpt lat="45.9363" lon="4.77701">
        <ele>169</ele>
        <time>2017-08-11T09:07:36Z</time>
      </trkpt>
      <trkpt lat="45.93633" lon="4.77706">
        <ele>170</ele>
        <time>2017-08-11T09:07:37Z</time>
      </trkpt>
      <trkpt lat="45.93638" lon="4.77716">
        <ele>170</ele>
        <time>2017-08-11T09:07:39Z</time>
      </trkpt>
      <trkpt lat="45.9364" lon="4.77721">
        <ele>170</ele>
        <time>2017-08-11T09:07:40Z</time>
      </trkpt>
      <trkpt lat="45.93643" lon="4.77726">
        <ele>170</ele>
        <time>2017-08-11T09:07:41Z</time>
      </trkpt>
      <trkpt lat="45.93646" lon="4.77732">
        <ele>170</ele>
        <time>2017-08-11T09:07:42Z</time>
      </trkpt>
      <trkpt lat="45.93652" lon="4.77741">
        <ele>170</ele>
        <time>2017-08-11T09:07:44Z</time>
      </trkpt>
      <trkpt lat="45.93655" lon="4.77745">
        <ele>170</ele>
        <time>2017-08-11T09:07:45Z</time>
      </trkpt>
      <trkpt lat="45.93659" lon="4.7775">
        <ele>171</ele>
        <time>2017-08-11T09:07:46Z</time>
      </trkpt>
      <trkpt lat="45.93662" lon="4.77755">
        <ele>171</ele>
        <time>2017-08-11T09:07:47Z</time>
      </trkpt>
      <trkpt lat="45.93669" lon="4.77764">
        <ele>170</ele>
        <time>2017-08-11T09:07:49Z</time>
      </trkpt>
      <trkpt lat="45.93672" lon="4.77769">
        <ele>170</ele>
        <time>2017-08-11T09:07:50Z</time>
      </trkpt>
      <trkpt lat="45.93675" lon="4.77774">
        <ele>170</ele>
        <time>2017-08-11T09:07:51Z</time>
      </trkpt>
      <trkpt lat="45.93678" lon="4.77778">
        <ele>170</ele>
        <time>2017-08-11T09:07:52Z</time>
      </trkpt>
      <trkpt lat="45.93684" lon="4.77788">
        <ele>170</ele>
        <time>2017-08-11T09:07:54Z</time>
      </trkpt>
      <trkpt lat="45.93687" lon="4.77792">
        <ele>170</ele>
        <time>2017-08-11T09:07:55Z</time>
      </trkpt>
      <trkpt lat="45.93693" lon="4.778">
        <ele>169</ele>
        <time>2017-08-11T09:07:57Z</time>
      </trkpt>
      <trkpt lat="45.93696" lon="4.77804">
        <ele>169</ele>
        <time>2017-08-11T09:07:58Z</time>
      </trkpt>
      <trkpt lat="45.93702" lon="4.77812">
        <ele>169</ele>
        <time>2017-08-11T09:08:00Z</time>
      </trkpt>
      <trkpt lat="45.93705" lon="4.77816">
        <ele>169</ele>
        <time>2017-08-11T09:08:01Z</time>
      </trkpt>
      <trkpt lat="45.93711" lon="4.77824">
        <ele>169</ele>
        <time>2017-08-11T09:08:03Z</time>
      </trkpt>
      <trkpt lat="45.93715" lon="4.77828">
        <ele>169</ele>
        <time>2017-08-11T09:08:04Z</time>
      </trkpt>
      <trkpt lat="45.93721" lon="4.77836">
        <ele>167</ele>
        <time>2017-08-11T09:08:06Z</time>
      </trkpt>
      <trkpt lat="45.93723" lon="4.77841">
        <ele>167</ele>
        <time>2017-08-11T09:08:07Z</time>
      </trkpt>
      <trkpt lat="45.9373" lon="4.77849">
        <ele>167</ele>
        <time>2017-08-11T09:08:09Z</time>
      </trkpt>
      <trkpt lat="45.93733" lon="4.77854">
        <ele>167</ele>
        <time>2017-08-11T09:08:10Z</time>
      </trkpt>
      <trkpt lat="45.93737" lon="4.77862">
        <ele>167</ele>
        <time>2017-08-11T09:08:12Z</time>
      </trkpt>
      <trkpt lat="45.9374" lon="4.77866">
        <ele>167</ele>
        <time>2017-08-11T09:08:13Z</time>
      </trkpt>
      <trkpt lat="45.93745" lon="4.77873">
        <ele>167</ele>
        <time>2017-08-11T09:08:15Z</time>
      </trkpt>
      <trkpt lat="45.93748" lon="4.77877">
        <ele>167</ele>
        <time>2017-08-11T09:08:16Z</time>
      </trkpt>
      <trkpt lat="45.93755" lon="4.77884">
        <ele>166</ele>
        <time>2017-08-11T09:08:18Z</time>
      </trkpt>
      <trkpt lat="45.93758" lon="4.77888">
        <ele>166</ele>
        <time>2017-08-11T09:08:19Z</time>
      </trkpt>
      <trkpt lat="45.93762" lon="4.77892">
        <ele>166</ele>
        <time>2017-08-11T09:08:20Z</time>
      </trkpt>
      <trkpt lat="45.93765" lon="4.77897">
        <ele>166</ele>
        <time>2017-08-11T09:08:21Z</time>
      </trkpt>
      <trkpt lat="45.93772" lon="4.77905">
        <ele>166</ele>
        <time>2017-08-11T09:08:23Z</time>
      </trkpt>
      <trkpt lat="45.93776" lon="4.77909">
        <ele>166</ele>
        <time>2017-08-11T09:08:24Z</time>
      </trkpt>
      <trkpt lat="45.93779" lon="4.77914">
        <ele>166</ele>
        <time>2017-08-11T09:08:25Z</time>
      </trkpt>
      <trkpt lat="45.93782" lon="4.77919">
        <ele>168</ele>
        <time>2017-08-11T09:08:26Z</time>
      </trkpt>
      <trkpt lat="45.93785" lon="4.77924">
        <ele>168</ele>
        <time>2017-08-11T09:08:27Z</time>
      </trkpt>
      <trkpt lat="45.93789" lon="4.77928">
        <ele>168</ele>
        <time>2017-08-11T09:08:28Z</time>
      </trkpt>
      <trkpt lat="45.93795" lon="4.77937">
        <ele>169</ele>
        <time>2017-08-11T09:08:30Z</time>
      </trkpt>
      <trkpt lat="45.93798" lon="4.77941">
        <ele>169</ele>
        <time>2017-08-11T09:08:31Z</time>
      </trkpt>
      <trkpt lat="45.93802" lon="4.77946">
        <ele>169</ele>
        <time>2017-08-11T09:08:32Z</time>
      </trkpt>
      <trkpt lat="45.93805" lon="4.77951">
        <ele>169</ele>
        <time>2017-08-11T09:08:33Z</time>
      </trkpt>
      <trkpt lat="45.93809" lon="4.77955">
        <ele>170</ele>
        <time>2017-08-11T09:08:34Z</time>
      </trkpt>
      <trkpt lat="45.93813" lon="4.77959">
        <ele>170</ele>
        <time>2017-08-11T09:08:35Z</time>
      </trkpt>
      <trkpt lat="45.93816" lon="4.77963">
        <ele>171</ele>
        <time>2017-08-11T09:08:36Z</time>
      </trkpt>
      <trkpt lat="45.9382" lon="4.77968">
        <ele>171</ele>
        <time>2017-08-11T09:08:37Z</time>
      </trkpt>
      <trkpt lat="45.93824" lon="4.77973">
        <ele>172</ele>
        <time>2017-08-11T09:08:38Z</time>
      </trkpt>
      <trkpt lat="45.93828" lon="4.77978">
        <ele>173</ele>
        <time>2017-08-11T09:08:39Z</time>
      </trkpt>
      <trkpt lat="45.93831" lon="4.77983">
        <ele>174</ele>
        <time>2017-08-11T09:08:40Z</time>
      </trkpt>
      <trkpt lat="45.93834" lon="4.77988">
        <ele>179</ele>
        <time>2017-08-11T09:08:41Z</time>
      </trkpt>
      <trkpt lat="45.93838" lon="4.77993">
        <ele>179</ele>
        <time>2017-08-11T09:08:42Z</time>
      </trkpt>
      <trkpt lat="45.9384" lon="4.77998">
        <ele>179</ele>
        <time>2017-08-11T09:08:43Z</time>
      </trkpt>
      <trkpt lat="45.93841" lon="4.78006">
        <ele>180</ele>
        <time>2017-08-11T09:08:44Z</time>
      </trkpt>
      <trkpt lat="45.9384" lon="4.78013">
        <ele>181</ele>
        <time>2017-08-11T09:08:45Z</time>
      </trkpt>
      <trkpt lat="45.93841" lon="4.78025">
        <ele>182</ele>
        <time>2017-08-11T09:08:47Z</time>
      </trkpt>
      <trkpt lat="45.93842" lon="4.7803">
        <ele>182</ele>
        <time>2017-08-11T09:08:48Z</time>
      </trkpt>
      <trkpt lat="45.93844" lon="4.78041">
        <ele>182</ele>
        <time>2017-08-11T09:08:50Z</time>
      </trkpt>
      <trkpt lat="45.93843" lon="4.78046">
        <ele>182</ele>
        <time>2017-08-11T09:08:51Z</time>
      </trkpt>
      <trkpt lat="45.93841" lon="4.78057">
        <ele>182</ele>
        <time>2017-08-11T09:08:53Z</time>
      </trkpt>
      <trkpt lat="45.93839" lon="4.78063">
        <ele>182</ele>
        <time>2017-08-11T09:08:54Z</time>
      </trkpt>
      <trkpt lat="45.93836" lon="4.78074">
        <ele>181</ele>
        <time>2017-08-11T09:08:56Z</time>
      </trkpt>
      <trkpt lat="45.93834" lon="4.7808">
        <ele>180</ele>
        <time>2017-08-11T09:08:57Z</time>
      </trkpt>
      <trkpt lat="45.93832" lon="4.78086">
        <ele>180</ele>
        <time>2017-08-11T09:08:58Z</time>
      </trkpt>
      <trkpt lat="45.9383" lon="4.78093">
        <ele>180</ele>
        <time>2017-08-11T09:08:59Z</time>
      </trkpt>
      <trkpt lat="45.93828" lon="4.78099">
        <ele>179</ele>
        <time>2017-08-11T09:09:00Z</time>
      </trkpt>
      <trkpt lat="45.93826" lon="4.78106">
        <ele>179</ele>
        <time>2017-08-11T09:09:01Z</time>
      </trkpt>
      <trkpt lat="45.93824" lon="4.78112">
        <ele>179</ele>
        <time>2017-08-11T09:09:02Z</time>
      </trkpt>
      <trkpt lat="45.93822" lon="4.78118">
        <ele>179</ele>
        <time>2017-08-11T09:09:03Z</time>
      </trkpt>
      <trkpt lat="45.9382" lon="4.78124">
        <ele>179</ele>
        <time>2017-08-11T09:09:04Z</time>
      </trkpt>
      <trkpt lat="45.93818" lon="4.7813">
        <ele>179</ele>
        <time>2017-08-11T09:09:05Z</time>
      </trkpt>
      <trkpt lat="45.93815" lon="4.78141">
        <ele>180</ele>
        <time>2017-08-11T09:09:07Z</time>
      </trkpt>
      <trkpt lat="45.93813" lon="4.78146">
        <ele>180</ele>
        <time>2017-08-11T09:09:08Z</time>
      </trkpt>
      <trkpt lat="45.9381" lon="4.78157">
        <ele>180</ele>
        <time>2017-08-11T09:09:10Z</time>
      </trkpt>
      <trkpt lat="45.93808" lon="4.78162">
        <ele>180</ele>
        <time>2017-08-11T09:09:11Z</time>
      </trkpt>
      <trkpt lat="45.93806" lon="4.78169">
        <ele>181</ele>
        <time>2017-08-11T09:09:12Z</time>
      </trkpt>
      <trkpt lat="45.93805" lon="4.78178">
        <ele>181</ele>
        <time>2017-08-11T09:09:13Z</time>
      </trkpt>
      <trkpt lat="45.93804" lon="4.78186">
        <ele>181</ele>
        <time>2017-08-11T09:09:14Z</time>
      </trkpt>
      <trkpt lat="45.93802" lon="4.78193">
        <ele>181</ele>
        <time>2017-08-11T09:09:15Z</time>
      </trkpt>
      <trkpt lat="45.93801" lon="4.78199">
        <ele>182</ele>
        <time>2017-08-11T09:09:16Z</time>
      </trkpt>
      <trkpt lat="45.93798" lon="4.78205">
        <ele>182</ele>
        <time>2017-08-11T09:09:17Z</time>
      </trkpt>
      <trkpt lat="45.93796" lon="4.78211">
        <ele>182</ele>
        <time>2017-08-11T09:09:18Z</time>
      </trkpt>
      <trkpt lat="45.93794" lon="4.78218">
        <ele>182</ele>
        <time>2017-08-11T09:09:19Z</time>
      </trkpt>
      <trkpt lat="45.93789" lon="4.78227">
        <ele>182</ele>
        <time>2017-08-11T09:09:21Z</time>
      </trkpt>
      <trkpt lat="45.93787" lon="4.78233">
        <ele>182</ele>
        <time>2017-08-11T09:09:22Z</time>
      </trkpt>
      <trkpt lat="45.93784" lon="4.78244">
        <ele>182</ele>
        <time>2017-08-11T09:09:24Z</time>
      </trkpt>
      <trkpt lat="45.93782" lon="4.78248">
        <ele>182</ele>
        <time>2017-08-11T09:09:25Z</time>
      </trkpt>
      <trkpt lat="45.9378" lon="4.78259">
        <ele>183</ele>
        <time>2017-08-11T09:09:27Z</time>
      </trkpt>
      <trkpt lat="45.93778" lon="4.78266">
        <ele>183</ele>
        <time>2017-08-11T09:09:28Z</time>
      </trkpt>
      <trkpt lat="45.93776" lon="4.78273">
        <ele>183</ele>
        <time>2017-08-11T09:09:29Z</time>
      </trkpt>
      <trkpt lat="45.93774" lon="4.7828">
        <ele>183</ele>
        <time>2017-08-11T09:09:30Z</time>
      </trkpt>
      <trkpt lat="45.93772" lon="4.78288">
        <ele>183</ele>
        <time>2017-08-11T09:09:31Z</time>
      </trkpt>
      <trkpt lat="45.9377" lon="4.78295">
        <ele>183</ele>
        <time>2017-08-11T09:09:32Z</time>
      </trkpt>
      <trkpt lat="45.93768" lon="4.78303">
        <ele>183</ele>
        <time>2017-08-11T09:09:33Z</time>
      </trkpt>
      <trkpt lat="45.93767" lon="4.7831">
        <ele>183</ele>
        <time>2017-08-11T09:09:34Z</time>
      </trkpt>
      <trkpt lat="45.93765" lon="4.78316">
        <ele>183</ele>
        <time>2017-08-11T09:09:35Z</time>
      </trkpt>
      <trkpt lat="45.93763" lon="4.78323">
        <ele>183</ele>
        <time>2017-08-11T09:09:36Z</time>
      </trkpt>
      <trkpt lat="45.93762" lon="4.7833">
        <ele>183</ele>
        <time>2017-08-11T09:09:37Z</time>
      </trkpt>
      <trkpt lat="45.9376" lon="4.78337">
        <ele>183</ele>
        <time>2017-08-11T09:09:38Z</time>
      </trkpt>
      <trkpt lat="45.93759" lon="4.78344">
        <ele>183</ele>
        <time>2017-08-11T09:09:39Z</time>
      </trkpt>
      <trkpt lat="45.93758" lon="4.7835">
        <ele>183</ele>
        <time>2017-08-11T09:09:40Z</time>
      </trkpt>
      <trkpt lat="45.93756" lon="4.78356">
        <ele>183</ele>
        <time>2017-08-11T09:09:41Z</time>
      </trkpt>
      <trkpt lat="45.93754" lon="4.78362">
        <ele>183</ele>
        <time>2017-08-11T09:09:42Z</time>
      </trkpt>
      <trkpt lat="45.93752" lon="4.7837">
        <ele>183</ele>
        <time>2017-08-11T09:09:43Z</time>
      </trkpt>
      <trkpt lat="45.9375" lon="4.78377">
        <ele>181</ele>
        <time>2017-08-11T09:09:44Z</time>
      </trkpt>
      <trkpt lat="45.93747" lon="4.78386">
        <ele>181</ele>
        <time>2017-08-11T09:09:45Z</time>
      </trkpt>
      <trkpt lat="45.93745" lon="4.78393">
        <ele>181</ele>
        <time>2017-08-11T09:09:46Z</time>
      </trkpt>
      <trkpt lat="45.93744" lon="4.78401">
        <ele>181</ele>
        <time>2017-08-11T09:09:47Z</time>
      </trkpt>
      <trkpt lat="45.93742" lon="4.78409">
        <ele>181</ele>
        <time>2017-08-11T09:09:48Z</time>
      </trkpt>
      <trkpt lat="45.9374" lon="4.78416">
        <ele>181</ele>
        <time>2017-08-11T09:09:49Z</time>
      </trkpt>
      <trkpt lat="45.93739" lon="4.78424">
        <ele>180</ele>
        <time>2017-08-11T09:09:50Z</time>
      </trkpt>
      <trkpt lat="45.93738" lon="4.78432">
        <ele>180</ele>
        <time>2017-08-11T09:09:51Z</time>
      </trkpt>
      <trkpt lat="45.93736" lon="4.7844">
        <ele>180</ele>
        <time>2017-08-11T09:09:52Z</time>
      </trkpt>
      <trkpt lat="45.93735" lon="4.78447">
        <ele>180</ele>
        <time>2017-08-11T09:09:53Z</time>
      </trkpt>
      <trkpt lat="45.93733" lon="4.78455">
        <ele>180</ele>
        <time>2017-08-11T09:09:54Z</time>
      </trkpt>
      <trkpt lat="45.9373" lon="4.78462">
        <ele>180</ele>
        <time>2017-08-11T09:09:55Z</time>
      </trkpt>
      <trkpt lat="45.93729" lon="4.7847">
        <ele>180</ele>
        <time>2017-08-11T09:09:56Z</time>
      </trkpt>
      <trkpt lat="45.93727" lon="4.78478">
        <ele>180</ele>
        <time>2017-08-11T09:09:57Z</time>
      </trkpt>
      <trkpt lat="45.93725" lon="4.78486">
        <ele>180</ele>
        <time>2017-08-11T09:09:58Z</time>
      </trkpt>
      <trkpt lat="45.93723" lon="4.78495">
        <ele>180</ele>
        <time>2017-08-11T09:09:59Z</time>
      </trkpt>
      <trkpt lat="45.93722" lon="4.78504">
        <ele>179</ele>
        <time>2017-08-11T09:10:00Z</time>
      </trkpt>
      <trkpt lat="45.9372" lon="4.78512">
        <ele>179</ele>
        <time>2017-08-11T09:10:01Z</time>
      </trkpt>
      <trkpt lat="45.93718" lon="4.78521">
        <ele>178</ele>
        <time>2017-08-11T09:10:02Z</time>
      </trkpt>
      <trkpt lat="45.93716" lon="4.7853">
        <ele>178</ele>
        <time>2017-08-11T09:10:03Z</time>
      </trkpt>
      <trkpt lat="45.93714" lon="4.78539">
        <ele>178</ele>
        <time>2017-08-11T09:10:04Z</time>
      </trkpt>
      <trkpt lat="45.93712" lon="4.78548">
        <ele>178</ele>
        <time>2017-08-11T09:10:05Z</time>
      </trkpt>
      <trkpt lat="45.9371" lon="4.78558">
        <ele>178</ele>
        <time>2017-08-11T09:10:06Z</time>
      </trkpt>
      <trkpt lat="45.93708" lon="4.78567">
        <ele>177</ele>
        <time>2017-08-11T09:10:07Z</time>
      </trkpt>
      <trkpt lat="45.93706" lon="4.78576">
        <ele>177</ele>
        <time>2017-08-11T09:10:08Z</time>
      </trkpt>
      <trkpt lat="45.93704" lon="4.78586">
        <ele>176</ele>
        <time>2017-08-11T09:10:09Z</time>
      </trkpt>
      <trkpt lat="45.93702" lon="4.78595">
        <ele>176</ele>
        <time>2017-08-11T09:10:10Z</time>
      </trkpt>
      <trkpt lat="45.93699" lon="4.78602">
        <ele>176</ele>
        <time>2017-08-11T09:10:11Z</time>
      </trkpt>
      <trkpt lat="45.93697" lon="4.78609">
        <ele>176</ele>
        <time>2017-08-11T09:10:12Z</time>
      </trkpt>
      <trkpt lat="45.93698" lon="4.78616">
        <ele>176</ele>
        <time>2017-08-11T09:10:13Z</time>
      </trkpt>
      <trkpt lat="45.93701" lon="4.78622">
        <ele>176</ele>
        <time>2017-08-11T09:10:14Z</time>
      </trkpt>
      <trkpt lat="45.93704" lon="4.78628">
        <ele>176</ele>
        <time>2017-08-11T09:10:15Z</time>
      </trkpt>
      <trkpt lat="45.93708" lon="4.78631">
        <ele>176</ele>
        <time>2017-08-11T09:10:16Z</time>
      </trkpt>
      <trkpt lat="45.93715" lon="4.78629">
        <ele>176</ele>
        <time>2017-08-11T09:10:18Z</time>
      </trkpt>
      <trkpt lat="45.93718" lon="4.78628">
        <ele>176</ele>
        <time>2017-08-11T09:10:19Z</time>
      </trkpt>
      <trkpt lat="45.93727" lon="4.78627">
        <ele>177</ele>
        <time>2017-08-11T09:10:21Z</time>
      </trkpt>
      <trkpt lat="45.93731" lon="4.78626">
        <ele>177</ele>
        <time>2017-08-11T09:10:22Z</time>
      </trkpt>
      <trkpt lat="45.9374" lon="4.78625">
        <ele>177</ele>
        <time>2017-08-11T09:10:24Z</time>
      </trkpt>
      <trkpt lat="45.93743" lon="4.78624">
        <ele>177</ele>
        <time>2017-08-11T09:10:25Z</time>
      </trkpt>
      <trkpt lat="45.9375" lon="4.78622">
        <ele>181</ele>
        <time>2017-08-11T09:10:27Z</time>
      </trkpt>
      <trkpt lat="45.93754" lon="4.78621">
        <ele>181</ele>
        <time>2017-08-11T09:10:28Z</time>
      </trkpt>
      <trkpt lat="45.9376" lon="4.7862">
        <ele>181</ele>
        <time>2017-08-11T09:10:30Z</time>
      </trkpt>
      <trkpt lat="45.93763" lon="4.78619">
        <ele>181</ele>
        <time>2017-08-11T09:10:31Z</time>
      </trkpt>
      <trkpt lat="45.93769" lon="4.78619">
        <ele>181</ele>
        <time>2017-08-11T09:10:33Z</time>
      </trkpt>
      <trkpt lat="45.93773" lon="4.78619">
        <ele>181</ele>
        <time>2017-08-11T09:10:34Z</time>
      </trkpt>
      <trkpt lat="45.9378" lon="4.78617">
        <ele>181</ele>
        <time>2017-08-11T09:10:36Z</time>
      </trkpt>
      <trkpt lat="45.93784" lon="4.78616">
        <ele>182</ele>
        <time>2017-08-11T09:10:37Z</time>
      </trkpt>
      <trkpt lat="45.93791" lon="4.78615">
        <ele>182</ele>
        <time>2017-08-11T09:10:39Z</time>
      </trkpt>
      <trkpt lat="45.93795" lon="4.78614">
        <ele>182</ele>
        <time>2017-08-11T09:10:40Z</time>
      </trkpt>
      <trkpt lat="45.93804" lon="4.78611">
        <ele>183</ele>
        <time>2017-08-11T09:10:42Z</time>
      </trkpt>
      <trkpt lat="45.93808" lon="4.78611">
        <ele>183</ele>
        <time>2017-08-11T09:10:43Z</time>
      </trkpt>
      <trkpt lat="45.93816" lon="4.78609">
        <ele>183</ele>
        <time>2017-08-11T09:10:45Z</time>
      </trkpt>
      <trkpt lat="45.93819" lon="4.78609">
        <ele>183</ele>
        <time>2017-08-11T09:10:46Z</time>
      </trkpt>
      <trkpt lat="45.93826" lon="4.78607">
        <ele>184</ele>
        <time>2017-08-11T09:10:48Z</time>
      </trkpt>
      <trkpt lat="45.93829" lon="4.78606">
        <ele>184</ele>
        <time>2017-08-11T09:10:49Z</time>
      </trkpt>
      <trkpt lat="45.93835" lon="4.78604">
        <ele>187</ele>
        <time>2017-08-11T09:10:51Z</time>
      </trkpt>
      <trkpt lat="45.93838" lon="4.78603">
        <ele>187</ele>
        <time>2017-08-11T09:10:52Z</time>
      </trkpt>
      <trkpt lat="45.93846" lon="4.78602">
        <ele>188</ele>
        <time>2017-08-11T09:10:55Z</time>
      </trkpt>
      <trkpt lat="45.93849" lon="4.78601">
        <ele>188</ele>
        <time>2017-08-11T09:10:56Z</time>
      </trkpt>
      <trkpt lat="45.93857" lon="4.78599">
        <ele>188</ele>
        <time>2017-08-11T09:10:59Z</time>
      </trkpt>
      <trkpt lat="45.9386" lon="4.786">
        <ele>188</ele>
        <time>2017-08-11T09:11:00Z</time>
      </trkpt>
      <trkpt lat="45.93866" lon="4.786">
        <ele>188</ele>
        <time>2017-08-11T09:11:04Z</time>
      </trkpt>
      <trkpt lat="45.93869" lon="4.78599">
        <ele>188</ele>
        <time>2017-08-11T09:11:05Z</time>
      </trkpt>
      <trkpt lat="45.93875" lon="4.78597">
        <ele>189</ele>
        <time>2017-08-11T09:11:08Z</time>
      </trkpt>
      <trkpt lat="45.93878" lon="4.78597">
        <ele>189</ele>
        <time>2017-08-11T09:11:09Z</time>
      </trkpt>
      <trkpt lat="45.93885" lon="4.78595">
        <ele>189</ele>
        <time>2017-08-11T09:11:13Z</time>
      </trkpt>
      <trkpt lat="45.93887" lon="4.78594">
        <ele>189</ele>
        <time>2017-08-11T09:11:14Z</time>
      </trkpt>
      <trkpt lat="45.93896" lon="4.78592">
        <ele>190</ele>
        <time>2017-08-11T09:11:19Z</time>
      </trkpt>
      <trkpt lat="45.93898" lon="4.78592">
        <ele>190</ele>
        <time>2017-08-11T09:11:20Z</time>
      </trkpt>
      <trkpt lat="45.93904" lon="4.78589">
        <ele>191</ele>
        <time>2017-08-11T09:11:23Z</time>
      </trkpt>
      <trkpt lat="45.93907" lon="4.78588">
        <ele>191</ele>
        <time>2017-08-11T09:11:24Z</time>
      </trkpt>
      <trkpt lat="45.93915" lon="4.78583">
        <ele>193</ele>
        <time>2017-08-11T09:11:28Z</time>
      </trkpt>
      <trkpt lat="45.93916" lon="4.78581">
        <ele>193</ele>
        <time>2017-08-11T09:11:29Z</time>
      </trkpt>
      <trkpt lat="45.93925" lon="4.78585">
        <ele>194</ele>
        <time>2017-08-11T09:11:35Z</time>
      </trkpt>
      <trkpt lat="45.93925" lon="4.78587">
        <ele>194</ele>
        <time>2017-08-11T09:11:36Z</time>
      </trkpt>
      <trkpt lat="45.93928" lon="4.78596">
        <ele>195</ele>
        <time>2017-08-11T09:11:40Z</time>
      </trkpt>
      <trkpt lat="45.93928" lon="4.786">
        <ele>195</ele>
        <time>2017-08-11T09:11:41Z</time>
      </trkpt>
      <trkpt lat="45.93931" lon="4.78612">
        <ele>195</ele>
        <time>2017-08-11T09:11:45Z</time>
      </trkpt>
      <trkpt lat="45.93931" lon="4.78616">
        <ele>195</ele>
        <time>2017-08-11T09:11:46Z</time>
      </trkpt>
      <trkpt lat="45.93932" lon="4.78627">
        <ele>195</ele>
        <time>2017-08-11T09:11:48Z</time>
      </trkpt>
      <trkpt lat="45.93931" lon="4.78633">
        <ele>195</ele>
        <time>2017-08-11T09:11:49Z</time>
      </trkpt>
      <trkpt lat="45.93932" lon="4.78643">
        <ele>194</ele>
        <time>2017-08-11T09:11:51Z</time>
      </trkpt>
      <trkpt lat="45.93932" lon="4.78648">
        <ele>194</ele>
        <time>2017-08-11T09:11:52Z</time>
      </trkpt>
      <trkpt lat="45.93932" lon="4.7866">
        <ele>193</ele>
        <time>2017-08-11T09:11:55Z</time>
      </trkpt>
      <trkpt lat="45.93931" lon="4.78663">
        <ele>193</ele>
        <time>2017-08-11T09:11:56Z</time>
      </trkpt>
      <trkpt lat="45.9393" lon="4.78676">
        <ele>193</ele>
        <time>2017-08-11T09:11:59Z</time>
      </trkpt>
      <trkpt lat="45.93931" lon="4.78681">
        <ele>193</ele>
        <time>2017-08-11T09:12:00Z</time>
      </trkpt>
      <trkpt lat="45.93932" lon="4.7869">
        <ele>193</ele>
        <time>2017-08-11T09:12:02Z</time>
      </trkpt>
      <trkpt lat="45.93932" lon="4.78695">
        <ele>194</ele>
        <time>2017-08-11T09:12:03Z</time>
      </trkpt>
      <trkpt lat="45.93934" lon="4.78708">
        <ele>194</ele>
        <time>2017-08-11T09:12:05Z</time>
      </trkpt>
      <trkpt lat="45.93934" lon="4.78713">
        <ele>194</ele>
        <time>2017-08-11T09:12:06Z</time>
      </trkpt>
      <trkpt lat="45.93936" lon="4.78724">
        <ele>194</ele>
        <time>2017-08-11T09:12:08Z</time>
      </trkpt>
      <trkpt lat="45.93937" lon="4.78729">
        <ele>194</ele>
        <time>2017-08-11T09:12:09Z</time>
      </trkpt>
      <trkpt lat="45.93937" lon="4.78741">
        <ele>193</ele>
        <time>2017-08-11T09:12:11Z</time>
      </trkpt>
      <trkpt lat="45.93938" lon="4.78746">
        <ele>193</ele>
        <time>2017-08-11T09:12:12Z</time>
      </trkpt>
      <trkpt lat="45.93937" lon="4.78758">
        <ele>193</ele>
        <time>2017-08-11T09:12:14Z</time>
      </trkpt>
      <trkpt lat="45.93937" lon="4.78764">
        <ele>193</ele>
        <time>2017-08-11T09:12:15Z</time>
      </trkpt>
      <trkpt lat="45.93937" lon="4.78772">
        <ele>194</ele>
        <time>2017-08-11T09:12:16Z</time>
      </trkpt>
      <trkpt lat="45.93937" lon="4.78779">
        <ele>194</ele>
        <time>2017-08-11T09:12:17Z</time>
      </trkpt>
      <trkpt lat="45.93935" lon="4.78789">
        <ele>194</ele>
        <time>2017-08-11T09:12:18Z</time>
      </trkpt>
      <trkpt lat="45.93933" lon="4.78801">
        <ele>194</ele>
        <time>2017-08-11T09:12:19Z</time>
      </trkpt>
      <trkpt lat="45.93934" lon="4.78809">
        <ele>194</ele>
        <time>2017-08-11T09:12:20Z</time>
      </trkpt>
      <trkpt lat="45.93935" lon="4.78816">
        <ele>194</ele>
        <time>2017-08-11T09:12:21Z</time>
      </trkpt>
      <trkpt lat="45.93935" lon="4.78824">
        <ele>193</ele>
        <time>2017-08-11T09:12:22Z</time>
      </trkpt>
      <trkpt lat="45.93935" lon="4.7883">
        <ele>193</ele>
        <time>2017-08-11T09:12:23Z</time>
      </trkpt>
      <trkpt lat="45.93935" lon="4.78842">
        <ele>193</ele>
        <time>2017-08-11T09:12:25Z</time>
      </trkpt>
      <trkpt lat="45.93938" lon="4.78845">
        <ele>193</ele>
        <time>2017-08-11T09:12:26Z</time>
      </trkpt>
      <trkpt lat="45.9394" lon="4.78857">
        <ele>194</ele>
        <time>2017-08-11T09:12:28Z</time>
      </trkpt>
      <trkpt lat="45.93938" lon="4.78864">
        <ele>194</ele>
        <time>2017-08-11T09:12:29Z</time>
      </trkpt>
      <trkpt lat="45.93941" lon="4.78875">
        <ele>194</ele>
        <time>2017-08-11T09:12:31Z</time>
      </trkpt>
      <trkpt lat="45.93941" lon="4.78883">
        <ele>194</ele>
        <time>2017-08-11T09:12:32Z</time>
      </trkpt>
      <trkpt lat="45.9394" lon="4.78895">
        <ele>193</ele>
        <time>2017-08-11T09:12:34Z</time>
      </trkpt>
      <trkpt lat="45.9394" lon="4.78902">
        <ele>193</ele>
        <time>2017-08-11T09:12:35Z</time>
      </trkpt>
      <trkpt lat="45.93941" lon="4.78913">
        <ele>193</ele>
        <time>2017-08-11T09:12:37Z</time>
      </trkpt>
      <trkpt lat="45.93941" lon="4.78919">
        <ele>193</ele>
        <time>2017-08-11T09:12:38Z</time>
      </trkpt>
      <trkpt lat="45.93941" lon="4.78927">
        <ele>193</ele>
        <time>2017-08-11T09:12:39Z</time>
      </trkpt>
      <trkpt lat="45.9394" lon="4.78933">
        <ele>193</ele>
        <time>2017-08-11T09:12:40Z</time>
      </trkpt>
      <trkpt lat="45.9394" lon="4.78944">
        <ele>194</ele>
        <time>2017-08-11T09:12:42Z</time>
      </trkpt>
      <trkpt lat="45.93942" lon="4.78951">
        <ele>194</ele>
        <time>2017-08-11T09:12:43Z</time>
      </trkpt>
      <trkpt lat="45.93943" lon="4.78957">
        <ele>194</ele>
        <time>2017-08-11T09:12:44Z</time>
      </trkpt>
      <trkpt lat="45.93945" lon="4.78964">
        <ele>194</ele>
        <time>2017-08-11T09:12:45Z</time>
      </trkpt>
      <trkpt lat="45.93946" lon="4.7897">
        <ele>194</ele>
        <time>2017-08-11T09:12:46Z</time>
      </trkpt>
      <trkpt lat="45.93947" lon="4.78976">
        <ele>194</ele>
        <time>2017-08-11T09:12:47Z</time>
      </trkpt>
      <trkpt lat="45.93948" lon="4.78983">
        <ele>194</ele>
        <time>2017-08-11T09:12:48Z</time>
      </trkpt>
      <trkpt lat="45.93949" lon="4.78989">
        <ele>194</ele>
        <time>2017-08-11T09:12:49Z</time>
      </trkpt>
      <trkpt lat="45.93948" lon="4.78996">
        <ele>194</ele>
        <time>2017-08-11T09:12:50Z</time>
      </trkpt>
      <trkpt lat="45.93948" lon="4.79003">
        <ele>195</ele>
        <time>2017-08-11T09:12:51Z</time>
      </trkpt>
      <trkpt lat="45.93948" lon="4.79011">
        <ele>195</ele>
        <time>2017-08-11T09:12:52Z</time>
      </trkpt>
      <trkpt lat="45.93948" lon="4.79016">
        <ele>195</ele>
        <time>2017-08-11T09:12:53Z</time>
      </trkpt>
      <trkpt lat="45.93947" lon="4.79028">
        <ele>195</ele>
        <time>2017-08-11T09:12:55Z</time>
      </trkpt>
      <trkpt lat="45.93944" lon="4.79034">
        <ele>195</ele>
        <time>2017-08-11T09:12:56Z</time>
      </trkpt>
      <trkpt lat="45.9394" lon="4.79041">
        <ele>195</ele>
        <time>2017-08-11T09:12:57Z</time>
      </trkpt>
      <trkpt lat="45.9394" lon="4.79048">
        <ele>195</ele>
        <time>2017-08-11T09:12:58Z</time>
      </trkpt>
      <trkpt lat="45.93941" lon="4.79055">
        <ele>195</ele>
        <time>2017-08-11T09:12:59Z</time>
      </trkpt>
      <trkpt lat="45.93942" lon="4.79061">
        <ele>195</ele>
        <time>2017-08-11T09:13:00Z</time>
      </trkpt>
      <trkpt lat="45.93944" lon="4.79072">
        <ele>195</ele>
        <time>2017-08-11T09:13:02Z</time>
      </trkpt>
      <trkpt lat="45.93945" lon="4.79077">
        <ele>195</ele>
        <time>2017-08-11T09:13:03Z</time>
      </trkpt>
      <trkpt lat="45.93944" lon="4.79089">
        <ele>196</ele>
        <time>2017-08-11T09:13:05Z</time>
      </trkpt>
      <trkpt lat="45.93944" lon="4.79095">
        <ele>196</ele>
        <time>2017-08-11T09:13:06Z</time>
      </trkpt>
      <trkpt lat="45.93945" lon="4.79107">
        <ele>196</ele>
        <time>2017-08-11T09:13:08Z</time>
      </trkpt>
      <trkpt lat="45.93945" lon="4.79113">
        <ele>196</ele>
        <time>2017-08-11T09:13:09Z</time>
      </trkpt>
      <trkpt lat="45.93946" lon="4.79126">
        <ele>196</ele>
        <time>2017-08-11T09:13:11Z</time>
      </trkpt>
      <trkpt lat="45.93945" lon="4.79132">
        <ele>196</ele>
        <time>2017-08-11T09:13:12Z</time>
      </trkpt>
      <trkpt lat="45.93946" lon="4.79144">
        <ele>196</ele>
        <time>2017-08-11T09:13:14Z</time>
      </trkpt>
      <trkpt lat="45.93946" lon="4.79152">
        <ele>196</ele>
        <time>2017-08-11T09:13:15Z</time>
      </trkpt>
      <trkpt lat="45.93946" lon="4.79164">
        <ele>196</ele>
        <time>2017-08-11T09:13:17Z</time>
      </trkpt>
      <trkpt lat="45.93946" lon="4.79169">
        <ele>196</ele>
        <time>2017-08-11T09:13:18Z</time>
      </trkpt>
      <trkpt lat="45.93946" lon="4.79179">
        <ele>196</ele>
        <time>2017-08-11T09:13:20Z</time>
      </trkpt>
      <trkpt lat="45.93946" lon="4.79185">
        <ele>196</ele>
        <time>2017-08-11T09:13:21Z</time>
      </trkpt>
      <trkpt lat="45.93946" lon="4.79192">
        <ele>197</ele>
        <time>2017-08-11T09:13:22Z</time>
      </trkpt>
      <trkpt lat="45.93946" lon="4.79199">
        <ele>197</ele>
        <time>2017-08-11T09:13:23Z</time>
      </trkpt>
      <trkpt lat="45.93945" lon="4.79206">
        <ele>197</ele>
        <time>2017-08-11T09:13:24Z</time>
      </trkpt>
      <trkpt lat="45.93945" lon="4.79212">
        <ele>197</ele>
        <time>2017-08-11T09:13:25Z</time>
      </trkpt>
      <trkpt lat="45.93945" lon="4.79219">
        <ele>197</ele>
        <time>2017-08-11T09:13:26Z</time>
      </trkpt>
      <trkpt lat="45.93945" lon="4.79225">
        <ele>197</ele>
        <time>2017-08-11T09:13:27Z</time>
      </trkpt>
      <trkpt lat="45.93946" lon="4.79236">
        <ele>196</ele>
        <time>2017-08-11T09:13:29Z</time>
      </trkpt>
      <trkpt lat="45.93947" lon="4.79244">
        <ele>196</ele>
        <time>2017-08-11T09:13:30Z</time>
      </trkpt>
      <trkpt lat="45.93948" lon="4.79251">
        <ele>197</ele>
        <time>2017-08-11T09:13:31Z</time>
      </trkpt>
      <trkpt lat="45.93948" lon="4.79258">
        <ele>197</ele>
        <time>2017-08-11T09:13:32Z</time>
      </trkpt>
      <trkpt lat="45.93949" lon="4.79265">
        <ele>198</ele>
        <time>2017-08-11T09:13:33Z</time>
      </trkpt>
      <trkpt lat="45.93949" lon="4.79272">
        <ele>198</ele>
        <time>2017-08-11T09:13:34Z</time>
      </trkpt>
      <trkpt lat="45.9395" lon="4.79284">
        <ele>198</ele>
        <time>2017-08-11T09:13:36Z</time>
      </trkpt>
      <trkpt lat="45.93951" lon="4.7929">
        <ele>198</ele>
        <time>2017-08-11T09:13:37Z</time>
      </trkpt>
      <trkpt lat="45.93952" lon="4.79302">
        <ele>198</ele>
        <time>2017-08-11T09:13:39Z</time>
      </trkpt>
      <trkpt lat="45.93952" lon="4.79309">
        <ele>198</ele>
        <time>2017-08-11T09:13:40Z</time>
      </trkpt>
      <trkpt lat="45.93951" lon="4.79321">
        <ele>198</ele>
        <time>2017-08-11T09:13:42Z</time>
      </trkpt>
      <trkpt lat="45.93951" lon="4.79326">
        <ele>198</ele>
        <time>2017-08-11T09:13:43Z</time>
      </trkpt>
      <trkpt lat="45.93951" lon="4.79338">
        <ele>200</ele>
        <time>2017-08-11T09:13:45Z</time>
      </trkpt>
      <trkpt lat="45.93951" lon="4.79344">
        <ele>200</ele>
        <time>2017-08-11T09:13:46Z</time>
      </trkpt>
      <trkpt lat="45.93951" lon="4.79357">
        <ele>200</ele>
        <time>2017-08-11T09:13:48Z</time>
      </trkpt>
      <trkpt lat="45.9395" lon="4.79362">
        <ele>200</ele>
        <time>2017-08-11T09:13:49Z</time>
      </trkpt>
      <trkpt lat="45.93948" lon="4.79373">
        <ele>200</ele>
        <time>2017-08-11T09:13:51Z</time>
      </trkpt>
      <trkpt lat="45.93948" lon="4.79378">
        <ele>201</ele>
        <time>2017-08-11T09:13:52Z</time>
      </trkpt>
      <trkpt lat="45.93947" lon="4.79389">
        <ele>201</ele>
        <time>2017-08-11T09:13:54Z</time>
      </trkpt>
      <trkpt lat="45.93947" lon="4.79394">
        <ele>201</ele>
        <time>2017-08-11T09:13:55Z</time>
      </trkpt>
      <trkpt lat="45.93946" lon="4.79404">
        <ele>200</ele>
        <time>2017-08-11T09:13:57Z</time>
      </trkpt>
      <trkpt lat="45.93946" lon="4.79409">
        <ele>200</ele>
        <time>2017-08-11T09:13:58Z</time>
      </trkpt>
      <trkpt lat="45.93946" lon="4.79417">
        <ele>201</ele>
        <time>2017-08-11T09:14:00Z</time>
      </trkpt>
      <trkpt lat="45.93946" lon="4.79422">
        <ele>201</ele>
        <time>2017-08-11T09:14:01Z</time>
      </trkpt>
      <trkpt lat="45.93947" lon="4.79434">
        <ele>202</ele>
        <time>2017-08-11T09:14:03Z</time>
      </trkpt>
      <trkpt lat="45.93946" lon="4.79441">
        <ele>202</ele>
        <time>2017-08-11T09:14:04Z</time>
      </trkpt>
      <trkpt lat="45.93945" lon="4.79449">
        <ele>202</ele>
        <time>2017-08-11T09:14:05Z</time>
      </trkpt>
      <trkpt lat="45.93942" lon="4.79458">
        <ele>202</ele>
        <time>2017-08-11T09:14:06Z</time>
      </trkpt>
      <trkpt lat="45.9394" lon="4.79467">
        <ele>202</ele>
        <time>2017-08-11T09:14:07Z</time>
      </trkpt>
      <trkpt lat="45.93941" lon="4.79474">
        <ele>202</ele>
        <time>2017-08-11T09:14:08Z</time>
      </trkpt>
      <trkpt lat="45.9394" lon="4.79485">
        <ele>201</ele>
        <time>2017-08-11T09:14:10Z</time>
      </trkpt>
      <trkpt lat="45.9394" lon="4.79491">
        <ele>201</ele>
        <time>2017-08-11T09:14:11Z</time>
      </trkpt>
      <trkpt lat="45.9394" lon="4.79502">
        <ele>202</ele>
        <time>2017-08-11T09:14:13Z</time>
      </trkpt>
      <trkpt lat="45.93941" lon="4.79508">
        <ele>202</ele>
        <time>2017-08-11T09:14:14Z</time>
      </trkpt>
      <trkpt lat="45.93942" lon="4.79519">
        <ele>203</ele>
        <time>2017-08-11T09:14:16Z</time>
      </trkpt>
      <trkpt lat="45.93943" lon="4.79524">
        <ele>203</ele>
        <time>2017-08-11T09:14:17Z</time>
      </trkpt>
      <trkpt lat="45.93944" lon="4.79535">
        <ele>204</ele>
        <time>2017-08-11T09:14:19Z</time>
      </trkpt>
      <trkpt lat="45.93945" lon="4.7954">
        <ele>204</ele>
        <time>2017-08-11T09:14:20Z</time>
      </trkpt>
      <trkpt lat="45.93946" lon="4.79552">
        <ele>204</ele>
        <time>2017-08-11T09:14:22Z</time>
      </trkpt>
      <trkpt lat="45.93947" lon="4.79558">
        <ele>204</ele>
        <time>2017-08-11T09:14:23Z</time>
      </trkpt>
      <trkpt lat="45.93949" lon="4.79569">
        <ele>205</ele>
        <time>2017-08-11T09:14:25Z</time>
      </trkpt>
      <trkpt lat="45.9395" lon="4.79574">
        <ele>205</ele>
        <time>2017-08-11T09:14:26Z</time>
      </trkpt>
      <trkpt lat="45.93951" lon="4.79584">
        <ele>206</ele>
        <time>2017-08-11T09:14:28Z</time>
      </trkpt>
      <trkpt lat="45.93952" lon="4.7959">
        <ele>206</ele>
        <time>2017-08-11T09:14:29Z</time>
      </trkpt>
      <trkpt lat="45.93953" lon="4.79599">
        <ele>206</ele>
        <time>2017-08-11T09:14:31Z</time>
      </trkpt>
      <trkpt lat="45.93954" lon="4.79604">
        <ele>206</ele>
        <time>2017-08-11T09:14:32Z</time>
      </trkpt>
      <trkpt lat="45.93955" lon="4.79615">
        <ele>207</ele>
        <time>2017-08-11T09:14:34Z</time>
      </trkpt>
      <trkpt lat="45.93956" lon="4.79621">
        <ele>207</ele>
        <time>2017-08-11T09:14:35Z</time>
      </trkpt>
      <trkpt lat="45.93958" lon="4.79631">
        <ele>207</ele>
        <time>2017-08-11T09:14:37Z</time>
      </trkpt>
      <trkpt lat="45.93959" lon="4.79636">
        <ele>207</ele>
        <time>2017-08-11T09:14:38Z</time>
      </trkpt>
      <trkpt lat="45.9396" lon="4.79646">
        <ele>207</ele>
        <time>2017-08-11T09:14:40Z</time>
      </trkpt>
      <trkpt lat="45.9396" lon="4.79652">
        <ele>207</ele>
        <time>2017-08-11T09:14:41Z</time>
      </trkpt>
      <trkpt lat="45.93961" lon="4.79663">
        <ele>207</ele>
        <time>2017-08-11T09:14:43Z</time>
      </trkpt>
      <trkpt lat="45.93961" lon="4.79669">
        <ele>207</ele>
        <time>2017-08-11T09:14:44Z</time>
      </trkpt>
      <trkpt lat="45.93961" lon="4.79681">
        <ele>207</ele>
        <time>2017-08-11T09:14:46Z</time>
      </trkpt>
      <trkpt lat="45.93963" lon="4.79687">
        <ele>207</ele>
        <time>2017-08-11T09:14:47Z</time>
      </trkpt>
      <trkpt lat="45.93964" lon="4.79692">
        <ele>207</ele>
        <time>2017-08-11T09:14:48Z</time>
      </trkpt>
      <trkpt lat="45.93965" lon="4.797">
        <ele>207</ele>
        <time>2017-08-11T09:14:49Z</time>
      </trkpt>
      <trkpt lat="45.93965" lon="4.79711">
        <ele>206</ele>
        <time>2017-08-11T09:14:51Z</time>
      </trkpt>
      <trkpt lat="45.93965" lon="4.79718">
        <ele>206</ele>
        <time>2017-08-11T09:14:52Z</time>
      </trkpt>
      <trkpt lat="45.93965" lon="4.79729">
        <ele>206</ele>
        <time>2017-08-11T09:14:54Z</time>
      </trkpt>
      <trkpt lat="45.93966" lon="4.79735">
        <ele>206</ele>
        <time>2017-08-11T09:14:55Z</time>
      </trkpt>
      <trkpt lat="45.93967" lon="4.79746">
        <ele>206</ele>
        <time>2017-08-11T09:14:57Z</time>
      </trkpt>
      <trkpt lat="45.93967" lon="4.79751">
        <ele>206</ele>
        <time>2017-08-11T09:14:58Z</time>
      </trkpt>
      <trkpt lat="45.93967" lon="4.79763">
        <ele>206</ele>
        <time>2017-08-11T09:15:00Z</time>
      </trkpt>
      <trkpt lat="45.93969" lon="4.7977">
        <ele>206</ele>
        <time>2017-08-11T09:15:01Z</time>
      </trkpt>
      <trkpt lat="45.93969" lon="4.79782">
        <ele>206</ele>
        <time>2017-08-11T09:15:03Z</time>
      </trkpt>
      <trkpt lat="45.93968" lon="4.79788">
        <ele>206</ele>
        <time>2017-08-11T09:15:04Z</time>
      </trkpt>
      <trkpt lat="45.93967" lon="4.79799">
        <ele>206</ele>
        <time>2017-08-11T09:15:06Z</time>
      </trkpt>
      <trkpt lat="45.93967" lon="4.79805">
        <ele>206</ele>
        <time>2017-08-11T09:15:07Z</time>
      </trkpt>
      <trkpt lat="45.93966" lon="4.79816">
        <ele>206</ele>
        <time>2017-08-11T09:15:09Z</time>
      </trkpt>
      <trkpt lat="45.93964" lon="4.79822">
        <ele>206</ele>
        <time>2017-08-11T09:15:10Z</time>
      </trkpt>
      <trkpt lat="45.93963" lon="4.79829">
        <ele>206</ele>
        <time>2017-08-11T09:15:11Z</time>
      </trkpt>
      <trkpt lat="45.93963" lon="4.79836">
        <ele>206</ele>
        <time>2017-08-11T09:15:12Z</time>
      </trkpt>
      <trkpt lat="45.93962" lon="4.79843">
        <ele>206</ele>
        <time>2017-08-11T09:15:13Z</time>
      </trkpt>
      <trkpt lat="45.93961" lon="4.79849">
        <ele>206</ele>
        <time>2017-08-11T09:15:14Z</time>
      </trkpt>
      <trkpt lat="45.93958" lon="4.79861">
        <ele>206</ele>
        <time>2017-08-11T09:15:16Z</time>
      </trkpt>
      <trkpt lat="45.93956" lon="4.79866">
        <ele>206</ele>
        <time>2017-08-11T09:15:17Z</time>
      </trkpt>
      <trkpt lat="45.93954" lon="4.79877">
        <ele>206</ele>
        <time>2017-08-11T09:15:19Z</time>
      </trkpt>
      <trkpt lat="45.93953" lon="4.79882">
        <ele>206</ele>
        <time>2017-08-11T09:15:20Z</time>
      </trkpt>
      <trkpt lat="45.93951" lon="4.79893">
        <ele>205</ele>
        <time>2017-08-11T09:15:22Z</time>
      </trkpt>
      <trkpt lat="45.93949" lon="4.79899">
        <ele>205</ele>
        <time>2017-08-11T09:15:23Z</time>
      </trkpt>
      <trkpt lat="45.93946" lon="4.79911">
        <ele>205</ele>
        <time>2017-08-11T09:15:25Z</time>
      </trkpt>
      <trkpt lat="45.93944" lon="4.79916">
        <ele>205</ele>
        <time>2017-08-11T09:15:26Z</time>
      </trkpt>
      <trkpt lat="45.9394" lon="4.79926">
        <ele>204</ele>
        <time>2017-08-11T09:15:28Z</time>
      </trkpt>
      <trkpt lat="45.9394" lon="4.79931">
        <ele>204</ele>
        <time>2017-08-11T09:15:29Z</time>
      </trkpt>
      <trkpt lat="45.93938" lon="4.79942">
        <ele>204</ele>
        <time>2017-08-11T09:15:31Z</time>
      </trkpt>
      <trkpt lat="45.93938" lon="4.79948">
        <ele>205</ele>
        <time>2017-08-11T09:15:32Z</time>
      </trkpt>
      <trkpt lat="45.93936" lon="4.7996">
        <ele>204</ele>
        <time>2017-08-11T09:15:34Z</time>
      </trkpt>
      <trkpt lat="45.93934" lon="4.79966">
        <ele>204</ele>
        <time>2017-08-11T09:15:35Z</time>
      </trkpt>
      <trkpt lat="45.93932" lon="4.79978">
        <ele>204</ele>
        <time>2017-08-11T09:15:37Z</time>
      </trkpt>
      <trkpt lat="45.93931" lon="4.79984">
        <ele>204</ele>
        <time>2017-08-11T09:15:38Z</time>
      </trkpt>
      <trkpt lat="45.9393" lon="4.79991">
        <ele>203</ele>
        <time>2017-08-11T09:15:39Z</time>
      </trkpt>
      <trkpt lat="45.93929" lon="4.79998">
        <ele>203</ele>
        <time>2017-08-11T09:15:40Z</time>
      </trkpt>
      <trkpt lat="45.93928" lon="4.80005">
        <ele>204</ele>
        <time>2017-08-11T09:15:41Z</time>
      </trkpt>
      <trkpt lat="45.93927" lon="4.80012">
        <ele>204</ele>
        <time>2017-08-11T09:15:42Z</time>
      </trkpt>
      <trkpt lat="45.93927" lon="4.80019">
        <ele>205</ele>
        <time>2017-08-11T09:15:43Z</time>
      </trkpt>
      <trkpt lat="45.93927" lon="4.80026">
        <ele>206</ele>
        <time>2017-08-11T09:15:44Z</time>
      </trkpt>
      <trkpt lat="45.93926" lon="4.80033">
        <ele>206</ele>
        <time>2017-08-11T09:15:45Z</time>
      </trkpt>
      <trkpt lat="45.93926" lon="4.80039">
        <ele>206</ele>
        <time>2017-08-11T09:15:46Z</time>
      </trkpt>
      <trkpt lat="45.93925" lon="4.80045">
        <ele>207</ele>
        <time>2017-08-11T09:15:47Z</time>
      </trkpt>
      <trkpt lat="45.93925" lon="4.80052">
        <ele>207</ele>
        <time>2017-08-11T09:15:48Z</time>
      </trkpt>
      <trkpt lat="45.93926" lon="4.80059">
        <ele>207</ele>
        <time>2017-08-11T09:15:49Z</time>
      </trkpt>
      <trkpt lat="45.93927" lon="4.80067">
        <ele>207</ele>
        <time>2017-08-11T09:15:50Z</time>
      </trkpt>
      <trkpt lat="45.93928" lon="4.80074">
        <ele>206</ele>
        <time>2017-08-11T09:15:51Z</time>
      </trkpt>
      <trkpt lat="45.93928" lon="4.80081">
        <ele>206</ele>
        <time>2017-08-11T09:15:52Z</time>
      </trkpt>
      <trkpt lat="45.93928" lon="4.80087">
        <ele>207</ele>
        <time>2017-08-11T09:15:53Z</time>
      </trkpt>
      <trkpt lat="45.93929" lon="4.80095">
        <ele>207</ele>
        <time>2017-08-11T09:15:54Z</time>
      </trkpt>
      <trkpt lat="45.93929" lon="4.80102">
        <ele>208</ele>
        <time>2017-08-11T09:15:55Z</time>
      </trkpt>
      <trkpt lat="45.9393" lon="4.80109">
        <ele>208</ele>
        <time>2017-08-11T09:15:56Z</time>
      </trkpt>
      <trkpt lat="45.93932" lon="4.80116">
        <ele>208</ele>
        <time>2017-08-11T09:15:57Z</time>
      </trkpt>
      <trkpt lat="45.93933" lon="4.80123">
        <ele>208</ele>
        <time>2017-08-11T09:15:58Z</time>
      </trkpt>
      <trkpt lat="45.93933" lon="4.8013">
        <ele>208</ele>
        <time>2017-08-11T09:15:59Z</time>
      </trkpt>
      <trkpt lat="45.93934" lon="4.80137">
        <ele>208</ele>
        <time>2017-08-11T09:16:00Z</time>
      </trkpt>
      <trkpt lat="45.93935" lon="4.80149">
        <ele>207</ele>
        <time>2017-08-11T09:16:02Z</time>
      </trkpt>
      <trkpt lat="45.93936" lon="4.80155">
        <ele>207</ele>
        <time>2017-08-11T09:16:03Z</time>
      </trkpt>
      <trkpt lat="45.93938" lon="4.80165">
        <ele>207</ele>
        <time>2017-08-11T09:16:05Z</time>
      </trkpt>
      <trkpt lat="45.93938" lon="4.80171">
        <ele>205</ele>
        <time>2017-08-11T09:16:06Z</time>
      </trkpt>
      <trkpt lat="45.9394" lon="4.80183">
        <ele>205</ele>
        <time>2017-08-11T09:16:08Z</time>
      </trkpt>
      <trkpt lat="45.93942" lon="4.80189">
        <ele>205</ele>
        <time>2017-08-11T09:16:09Z</time>
      </trkpt>
      <trkpt lat="45.93943" lon="4.80196">
        <ele>205</ele>
        <time>2017-08-11T09:16:10Z</time>
      </trkpt>
      <trkpt lat="45.93945" lon="4.80202">
        <ele>205</ele>
        <time>2017-08-11T09:16:11Z</time>
      </trkpt>
      <trkpt lat="45.93947" lon="4.80209">
        <ele>205</ele>
        <time>2017-08-11T09:16:12Z</time>
      </trkpt>
      <trkpt lat="45.93948" lon="4.80217">
        <ele>205</ele>
        <time>2017-08-11T09:16:13Z</time>
      </trkpt>
      <trkpt lat="45.93951" lon="4.80224">
        <ele>204</ele>
        <time>2017-08-11T09:16:14Z</time>
      </trkpt>
      <trkpt lat="45.93953" lon="4.80231">
        <ele>204</ele>
        <time>2017-08-11T09:16:15Z</time>
      </trkpt>
      <trkpt lat="45.93955" lon="4.80238">
        <ele>204</ele>
        <time>2017-08-11T09:16:16Z</time>
      </trkpt>
      <trkpt lat="45.93957" lon="4.80245">
        <ele>204</ele>
        <time>2017-08-11T09:16:17Z</time>
      </trkpt>
      <trkpt lat="45.9396" lon="4.80252">
        <ele>202</ele>
        <time>2017-08-11T09:16:18Z</time>
      </trkpt>
      <trkpt lat="45.93962" lon="4.80258">
        <ele>202</ele>
        <time>2017-08-11T09:16:19Z</time>
      </trkpt>
      <trkpt lat="45.93965" lon="4.8027">
        <ele>202</ele>
        <time>2017-08-11T09:16:21Z</time>
      </trkpt>
      <trkpt lat="45.93967" lon="4.80275">
        <ele>202</ele>
        <time>2017-08-11T09:16:22Z</time>
      </trkpt>
      <trkpt lat="45.93971" lon="4.80287">
        <ele>202</ele>
        <time>2017-08-11T09:16:24Z</time>
      </trkpt>
      <trkpt lat="45.93972" lon="4.80292">
        <ele>202</ele>
        <time>2017-08-11T09:16:25Z</time>
      </trkpt>
      <trkpt lat="45.93975" lon="4.80303">
        <ele>203</ele>
        <time>2017-08-11T09:16:27Z</time>
      </trkpt>
      <trkpt lat="45.93977" lon="4.80308">
        <ele>203</ele>
        <time>2017-08-11T09:16:28Z</time>
      </trkpt>
      <trkpt lat="45.9398" lon="4.80318">
        <ele>203</ele>
        <time>2017-08-11T09:16:30Z</time>
      </trkpt>
      <trkpt lat="45.93982" lon="4.80323">
        <ele>204</ele>
        <time>2017-08-11T09:16:31Z</time>
      </trkpt>
      <trkpt lat="45.93986" lon="4.80333">
        <ele>204</ele>
        <time>2017-08-11T09:16:33Z</time>
      </trkpt>
      <trkpt lat="45.93987" lon="4.80337">
        <ele>206</ele>
        <time>2017-08-11T09:16:34Z</time>
      </trkpt>
      <trkpt lat="45.9399" lon="4.80346">
        <ele>206</ele>
        <time>2017-08-11T09:16:36Z</time>
      </trkpt>
      <trkpt lat="45.93991" lon="4.8035">
        <ele>206</ele>
        <time>2017-08-11T09:16:37Z</time>
      </trkpt>
      <trkpt lat="45.93994" lon="4.80361">
        <ele>207</ele>
        <time>2017-08-11T09:16:40Z</time>
      </trkpt>
      <trkpt lat="45.93996" lon="4.80366">
        <ele>207</ele>
        <time>2017-08-11T09:16:41Z</time>
      </trkpt>
      <trkpt lat="45.93998" lon="4.80375">
        <ele>208</ele>
        <time>2017-08-11T09:16:43Z</time>
      </trkpt>
      <trkpt lat="45.93998" lon="4.8038">
        <ele>208</ele>
        <time>2017-08-11T09:16:44Z</time>
      </trkpt>
      <trkpt lat="45.94" lon="4.80387">
        <ele>209</ele>
        <time>2017-08-11T09:16:46Z</time>
      </trkpt>
      <trkpt lat="45.94001" lon="4.80392">
        <ele>217</ele>
        <time>2017-08-11T09:16:47Z</time>
      </trkpt>
      <trkpt lat="45.94002" lon="4.80402">
        <ele>217</ele>
        <time>2017-08-11T09:16:49Z</time>
      </trkpt>
      <trkpt lat="45.94003" lon="4.80405">
        <ele>217</ele>
        <time>2017-08-11T09:16:50Z</time>
      </trkpt>
      <trkpt lat="45.94005" lon="4.80416">
        <ele>217</ele>
        <time>2017-08-11T09:16:53Z</time>
      </trkpt>
      <trkpt lat="45.94006" lon="4.80419">
        <ele>218</ele>
        <time>2017-08-11T09:16:54Z</time>
      </trkpt>
      <trkpt lat="45.94008" lon="4.80432">
        <ele>220</ele>
        <time>2017-08-11T09:16:58Z</time>
      </trkpt>
      <trkpt lat="45.94008" lon="4.80435">
        <ele>221</ele>
        <time>2017-08-11T09:16:59Z</time>
      </trkpt>
      <trkpt lat="45.94007" lon="4.80448">
        <ele>222</ele>
        <time>2017-08-11T09:17:03Z</time>
      </trkpt>
      <trkpt lat="45.94007" lon="4.80451">
        <ele>222</ele>
        <time>2017-08-11T09:17:04Z</time>
      </trkpt>
      <trkpt lat="45.94007" lon="4.80462">
        <ele>222</ele>
        <time>2017-08-11T09:17:08Z</time>
      </trkpt>
      <trkpt lat="45.94006" lon="4.80465">
        <ele>222</ele>
        <time>2017-08-11T09:17:09Z</time>
      </trkpt>
      <trkpt lat="45.94007" lon="4.80478">
        <ele>222</ele>
        <time>2017-08-11T09:17:15Z</time>
      </trkpt>
      <trkpt lat="45.94007" lon="4.80479">
        <ele>222</ele>
        <time>2017-08-11T09:17:16Z</time>
      </trkpt>
      <trkpt lat="45.94007" lon="4.80491">
        <ele>221</ele>
        <time>2017-08-11T09:17:20Z</time>
      </trkpt>
      <trkpt lat="45.94007" lon="4.80494">
        <ele>220</ele>
        <time>2017-08-11T09:17:21Z</time>
      </trkpt>
      <trkpt lat="45.94008" lon="4.80506">
        <ele>221</ele>
        <time>2017-08-11T09:17:23Z</time>
      </trkpt>
      <trkpt lat="45.94008" lon="4.80512">
        <ele>222</ele>
        <time>2017-08-11T09:17:24Z</time>
      </trkpt>
      <trkpt lat="45.9401" lon="4.80521">
        <ele>223</ele>
        <time>2017-08-11T09:17:26Z</time>
      </trkpt>
      <trkpt lat="45.94011" lon="4.80526">
        <ele>223</ele>
        <time>2017-08-11T09:17:27Z</time>
      </trkpt>
      <trkpt lat="45.94008" lon="4.80537">
        <ele>224</ele>
        <time>2017-08-11T09:17:31Z</time>
      </trkpt>
      <trkpt lat="45.94007" lon="4.8054">
        <ele>224</ele>
        <time>2017-08-11T09:17:32Z</time>
      </trkpt>
      <trkpt lat="45.94006" lon="4.80552">
        <ele>223</ele>
        <time>2017-08-11T09:17:36Z</time>
      </trkpt>
      <trkpt lat="45.94006" lon="4.80555">
        <ele>223</ele>
        <time>2017-08-11T09:17:37Z</time>
      </trkpt>
      <trkpt lat="45.94005" lon="4.80563">
        <ele>222</ele>
        <time>2017-08-11T09:17:41Z</time>
      </trkpt>
      <trkpt lat="45.94006" lon="4.80568">
        <ele>222</ele>
        <time>2017-08-11T09:17:42Z</time>
      </trkpt>
      <trkpt lat="45.94008" lon="4.80576">
        <ele>221</ele>
        <time>2017-08-11T09:17:44Z</time>
      </trkpt>
      <trkpt lat="45.9401" lon="4.80581">
        <ele>220</ele>
        <time>2017-08-11T09:17:45Z</time>
      </trkpt>
      <trkpt lat="45.9401" lon="4.80592">
        <ele>221</ele>
        <time>2017-08-11T09:17:48Z</time>
      </trkpt>
      <trkpt lat="45.9401" lon="4.80595">
        <ele>222</ele>
        <time>2017-08-11T09:17:49Z</time>
      </trkpt>
      <trkpt lat="45.94012" lon="4.80608">
        <ele>223</ele>
        <time>2017-08-11T09:17:51Z</time>
      </trkpt>
      <trkpt lat="45.94015" lon="4.80617">
        <ele>224</ele>
        <time>2017-08-11T09:17:52Z</time>
      </trkpt>
      <trkpt lat="45.94015" lon="4.80622">
        <ele>224</ele>
        <time>2017-08-11T09:17:53Z</time>
      </trkpt>
      <trkpt lat="45.94018" lon="4.8063">
        <ele>224</ele>
        <time>2017-08-11T09:17:54Z</time>
      </trkpt>
      <trkpt lat="45.94019" lon="4.80636">
        <ele>224</ele>
        <time>2017-08-11T09:17:55Z</time>
      </trkpt>
      <trkpt lat="45.9402" lon="4.80642">
        <ele>224</ele>
        <time>2017-08-11T09:17:56Z</time>
      </trkpt>
      <trkpt lat="45.94021" lon="4.80654">
        <ele>223</ele>
        <time>2017-08-11T09:17:59Z</time>
      </trkpt>
      <trkpt lat="45.9402" lon="4.80658">
        <ele>222</ele>
        <time>2017-08-11T09:18:00Z</time>
      </trkpt>
      <trkpt lat="45.94019" lon="4.8067">
        <ele>222</ele>
        <time>2017-08-11T09:18:03Z</time>
      </trkpt>
      <trkpt lat="45.9402" lon="4.80677">
        <ele>223</ele>
        <time>2017-08-11T09:18:04Z</time>
      </trkpt>
      <trkpt lat="45.94021" lon="4.80688">
        <ele>224</ele>
        <time>2017-08-11T09:18:07Z</time>
      </trkpt>
      <trkpt lat="45.9402" lon="4.8069">
        <ele>224</ele>
        <time>2017-08-11T09:18:08Z</time>
      </trkpt>
      <trkpt lat="45.94024" lon="4.80702">
        <ele>225</ele>
        <time>2017-08-11T09:18:10Z</time>
      </trkpt>
      <trkpt lat="45.94024" lon="4.80707">
        <ele>225</ele>
        <time>2017-08-11T09:18:11Z</time>
      </trkpt>
      <trkpt lat="45.94024" lon="4.80715">
        <ele>225</ele>
        <time>2017-08-11T09:18:13Z</time>
      </trkpt>
      <trkpt lat="45.94025" lon="4.80722">
        <ele>225</ele>
        <time>2017-08-11T09:18:14Z</time>
      </trkpt>
      <trkpt lat="45.94026" lon="4.80733">
        <ele>225</ele>
        <time>2017-08-11T09:18:16Z</time>
      </trkpt>
      <trkpt lat="45.94025" lon="4.80738">
        <ele>224</ele>
        <time>2017-08-11T09:18:17Z</time>
      </trkpt>
      <trkpt lat="45.94025" lon="4.80747">
        <ele>224</ele>
        <time>2017-08-11T09:18:19Z</time>
      </trkpt>
      <trkpt lat="45.94026" lon="4.80752">
        <ele>225</ele>
        <time>2017-08-11T09:18:20Z</time>
      </trkpt>
      <trkpt lat="45.94026" lon="4.80756">
        <ele>225</ele>
        <time>2017-08-11T09:18:21Z</time>
      </trkpt>
      <trkpt lat="45.94028" lon="4.80765">
        <ele>226</ele>
        <time>2017-08-11T09:18:22Z</time>
      </trkpt>
      <trkpt lat="45.9403" lon="4.80774">
        <ele>226</ele>
        <time>2017-08-11T09:18:23Z</time>
      </trkpt>
      <trkpt lat="45.9403" lon="4.80779">
        <ele>226</ele>
        <time>2017-08-11T09:18:24Z</time>
      </trkpt>
      <trkpt lat="45.94033" lon="4.80791">
        <ele>227</ele>
        <time>2017-08-11T09:18:26Z</time>
      </trkpt>
      <trkpt lat="45.94033" lon="4.80795">
        <ele>227</ele>
        <time>2017-08-11T09:18:27Z</time>
      </trkpt>
      <trkpt lat="45.94034" lon="4.80806">
        <ele>227</ele>
        <time>2017-08-11T09:18:29Z</time>
      </trkpt>
      <trkpt lat="45.94033" lon="4.8081">
        <ele>227</ele>
        <time>2017-08-11T09:18:30Z</time>
      </trkpt>
      <trkpt lat="45.94035" lon="4.8082">
        <ele>227</ele>
        <time>2017-08-11T09:18:33Z</time>
      </trkpt>
      <trkpt lat="45.94036" lon="4.80825">
        <ele>227</ele>
        <time>2017-08-11T09:18:34Z</time>
      </trkpt>
      <trkpt lat="45.94038" lon="4.80833">
        <ele>227</ele>
        <time>2017-08-11T09:18:36Z</time>
      </trkpt>
      <trkpt lat="45.94038" lon="4.80838">
        <ele>228</ele>
        <time>2017-08-11T09:18:37Z</time>
      </trkpt>
      <trkpt lat="45.94042" lon="4.80848">
        <ele>228</ele>
        <time>2017-08-11T09:18:40Z</time>
      </trkpt>
      <trkpt lat="45.94042" lon="4.80852">
        <ele>229</ele>
        <time>2017-08-11T09:18:41Z</time>
      </trkpt>
      <trkpt lat="45.94045" lon="4.80864">
        <ele>229</ele>
        <time>2017-08-11T09:18:44Z</time>
      </trkpt>
      <trkpt lat="45.94046" lon="4.80868">
        <ele>229</ele>
        <time>2017-08-11T09:18:45Z</time>
      </trkpt>
      <trkpt lat="45.94047" lon="4.8088">
        <ele>229</ele>
        <time>2017-08-11T09:18:48Z</time>
      </trkpt>
      <trkpt lat="45.94049" lon="4.80883">
        <ele>229</ele>
        <time>2017-08-11T09:18:49Z</time>
      </trkpt>
      <trkpt lat="45.9405" lon="4.80895">
        <ele>230</ele>
        <time>2017-08-11T09:18:52Z</time>
      </trkpt>
      <trkpt lat="45.9405" lon="4.80898">
        <ele>230</ele>
        <time>2017-08-11T09:18:53Z</time>
      </trkpt>
      <trkpt lat="45.94051" lon="4.80909">
        <ele>230</ele>
        <time>2017-08-11T09:18:56Z</time>
      </trkpt>
      <trkpt lat="45.94051" lon="4.80913">
        <ele>230</ele>
        <time>2017-08-11T09:18:57Z</time>
      </trkpt>
      <trkpt lat="45.94051" lon="4.80922">
        <ele>231</ele>
        <time>2017-08-11T09:18:59Z</time>
      </trkpt>
      <trkpt lat="45.94052" lon="4.80926">
        <ele>231</ele>
        <time>2017-08-11T09:19:00Z</time>
      </trkpt>
      <trkpt lat="45.94053" lon="4.80938">
        <ele>231</ele>
        <time>2017-08-11T09:19:03Z</time>
      </trkpt>
      <trkpt lat="45.94053" lon="4.80942">
        <ele>231</ele>
        <time>2017-08-11T09:19:04Z</time>
      </trkpt>
      <trkpt lat="45.94056" lon="4.80953">
        <ele>231</ele>
        <time>2017-08-11T09:19:07Z</time>
      </trkpt>
      <trkpt lat="45.94057" lon="4.80957">
        <ele>231</ele>
        <time>2017-08-11T09:19:08Z</time>
      </trkpt>
      <trkpt lat="45.94058" lon="4.80968">
        <ele>232</ele>
        <time>2017-08-11T09:19:11Z</time>
      </trkpt>
      <trkpt lat="45.94058" lon="4.80972">
        <ele>232</ele>
        <time>2017-08-11T09:19:12Z</time>
      </trkpt>
      <trkpt lat="45.9406" lon="4.80983">
        <ele>232</ele>
        <time>2017-08-11T09:19:15Z</time>
      </trkpt>
      <trkpt lat="45.9406" lon="4.80986">
        <ele>233</ele>
        <time>2017-08-11T09:19:16Z</time>
      </trkpt>
      <trkpt lat="45.94062" lon="4.80996">
        <ele>234</ele>
        <time>2017-08-11T09:19:19Z</time>
      </trkpt>
      <trkpt lat="45.94063" lon="4.81">
        <ele>234</ele>
        <time>2017-08-11T09:19:20Z</time>
      </trkpt>
      <trkpt lat="45.94064" lon="4.81011">
        <ele>234</ele>
        <time>2017-08-11T09:19:23Z</time>
      </trkpt>
      <trkpt lat="45.94065" lon="4.81015">
        <ele>234</ele>
        <time>2017-08-11T09:19:24Z</time>
      </trkpt>
      <trkpt lat="45.94067" lon="4.81023">
        <ele>234</ele>
        <time>2017-08-11T09:19:26Z</time>
      </trkpt>
      <trkpt lat="45.94069" lon="4.81027">
        <ele>233</ele>
        <time>2017-08-11T09:19:27Z</time>
      </trkpt>
      <trkpt lat="45.94071" lon="4.81035">
        <ele>233</ele>
        <time>2017-08-11T09:19:29Z</time>
      </trkpt>
      <trkpt lat="45.94073" lon="4.8104">
        <ele>233</ele>
        <time>2017-08-11T09:19:30Z</time>
      </trkpt>
      <trkpt lat="45.94075" lon="4.81051">
        <ele>233</ele>
        <time>2017-08-11T09:19:33Z</time>
      </trkpt>
      <trkpt lat="45.94077" lon="4.81055">
        <ele>233</ele>
        <time>2017-08-11T09:19:34Z</time>
      </trkpt>
      <trkpt lat="45.94081" lon="4.81065">
        <ele>234</ele>
        <time>2017-08-11T09:19:37Z</time>
      </trkpt>
      <trkpt lat="45.94083" lon="4.81068">
        <ele>234</ele>
        <time>2017-08-11T09:19:38Z</time>
      </trkpt>
      <trkpt lat="45.94088" lon="4.81077">
        <ele>240</ele>
        <time>2017-08-11T09:19:41Z</time>
      </trkpt>
      <trkpt lat="45.94091" lon="4.81081">
        <ele>240</ele>
        <time>2017-08-11T09:19:42Z</time>
      </trkpt>
      <trkpt lat="45.94096" lon="4.81088">
        <ele>240</ele>
        <time>2017-08-11T09:19:45Z</time>
      </trkpt>
      <trkpt lat="45.94098" lon="4.81091">
        <ele>240</ele>
        <time>2017-08-11T09:19:46Z</time>
      </trkpt>
      <trkpt lat="45.94103" lon="4.811">
        <ele>241</ele>
        <time>2017-08-11T09:19:49Z</time>
      </trkpt>
      <trkpt lat="45.94105" lon="4.81102">
        <ele>241</ele>
        <time>2017-08-11T09:19:50Z</time>
      </trkpt>
      <trkpt lat="45.94111" lon="4.8111">
        <ele>242</ele>
        <time>2017-08-11T09:19:53Z</time>
      </trkpt>
      <trkpt lat="45.94112" lon="4.81114">
        <ele>242</ele>
        <time>2017-08-11T09:19:54Z</time>
      </trkpt>
      <trkpt lat="45.94116" lon="4.81124">
        <ele>243</ele>
        <time>2017-08-11T09:19:57Z</time>
      </trkpt>
      <trkpt lat="45.94118" lon="4.81127">
        <ele>243</ele>
        <time>2017-08-11T09:19:58Z</time>
      </trkpt>
      <trkpt lat="45.94123" lon="4.81134">
        <ele>243</ele>
        <time>2017-08-11T09:20:00Z</time>
      </trkpt>
      <trkpt lat="45.94124" lon="4.81137">
        <ele>243</ele>
        <time>2017-08-11T09:20:01Z</time>
      </trkpt>
      <trkpt lat="45.94128" lon="4.81148">
        <ele>243</ele>
        <time>2017-08-11T09:20:04Z</time>
      </trkpt>
      <trkpt lat="45.94129" lon="4.81151">
        <ele>243</ele>
        <time>2017-08-11T09:20:05Z</time>
      </trkpt>
      <trkpt lat="45.94133" lon="4.81162">
        <ele>244</ele>
        <time>2017-08-11T09:20:08Z</time>
      </trkpt>
      <trkpt lat="45.94135" lon="4.81165">
        <ele>244</ele>
        <time>2017-08-11T09:20:09Z</time>
      </trkpt>
      <trkpt lat="45.94138" lon="4.81175">
        <ele>244</ele>
        <time>2017-08-11T09:20:12Z</time>
      </trkpt>
      <trkpt lat="45.9414" lon="4.81178">
        <ele>244</ele>
        <time>2017-08-11T09:20:13Z</time>
      </trkpt>
      <trkpt lat="45.94143" lon="4.81189">
        <ele>244</ele>
        <time>2017-08-11T09:20:16Z</time>
      </trkpt>
      <trkpt lat="45.94144" lon="4.81193">
        <ele>244</ele>
        <time>2017-08-11T09:20:17Z</time>
      </trkpt>
      <trkpt lat="45.94146" lon="4.81204">
        <ele>244</ele>
        <time>2017-08-11T09:20:20Z</time>
      </trkpt>
      <trkpt lat="45.94147" lon="4.81207">
        <ele>244</ele>
        <time>2017-08-11T09:20:21Z</time>
      </trkpt>
      <trkpt lat="45.94149" lon="4.81217">
        <ele>244</ele>
        <time>2017-08-11T09:20:24Z</time>
      </trkpt>
      <trkpt lat="45.9415" lon="4.8122">
        <ele>245</ele>
        <time>2017-08-11T09:20:25Z</time>
      </trkpt>
      <trkpt lat="45.94152" lon="4.81231">
        <ele>245</ele>
        <time>2017-08-11T09:20:29Z</time>
      </trkpt>
      <trkpt lat="45.94153" lon="4.81234">
        <ele>246</ele>
        <time>2017-08-11T09:20:30Z</time>
      </trkpt>
      <trkpt lat="45.94155" lon="4.81246">
        <ele>247</ele>
        <time>2017-08-11T09:20:33Z</time>
      </trkpt>
      <trkpt lat="45.94157" lon="4.81251">
        <ele>248</ele>
        <time>2017-08-11T09:20:34Z</time>
      </trkpt>
      <trkpt lat="45.94159" lon="4.81263">
        <ele>248</ele>
        <time>2017-08-11T09:20:37Z</time>
      </trkpt>
      <trkpt lat="45.94159" lon="4.81267">
        <ele>247</ele>
        <time>2017-08-11T09:20:38Z</time>
      </trkpt>
      <trkpt lat="45.94159" lon="4.81279">
        <ele>247</ele>
        <time>2017-08-11T09:20:41Z</time>
      </trkpt>
      <trkpt lat="45.94159" lon="4.81283">
        <ele>247</ele>
        <time>2017-08-11T09:20:42Z</time>
      </trkpt>
      <trkpt lat="45.94163" lon="4.81291">
        <ele>247</ele>
        <time>2017-08-11T09:20:44Z</time>
      </trkpt>
      <trkpt lat="45.94163" lon="4.81294">
        <ele>247</ele>
        <time>2017-08-11T09:20:45Z</time>
      </trkpt>
      <trkpt lat="45.94161" lon="4.81306">
        <ele>248</ele>
        <time>2017-08-11T09:20:49Z</time>
      </trkpt>
      <trkpt lat="45.9416" lon="4.81308">
        <ele>248</ele>
        <time>2017-08-11T09:20:50Z</time>
      </trkpt>
      <trkpt lat="45.94158" lon="4.81319">
        <ele>249</ele>
        <time>2017-08-11T09:20:55Z</time>
      </trkpt>
      <trkpt lat="45.94157" lon="4.81321">
        <ele>249</ele>
        <time>2017-08-11T09:20:56Z</time>
      </trkpt>
      <trkpt lat="45.94156" lon="4.81332">
        <ele>249</ele>
        <time>2017-08-11T09:21:00Z</time>
      </trkpt>
      <trkpt lat="45.94155" lon="4.81335">
        <ele>251</ele>
        <time>2017-08-11T09:21:01Z</time>
      </trkpt>
      <trkpt lat="45.94152" lon="4.81346">
        <ele>250</ele>
        <time>2017-08-11T09:21:05Z</time>
      </trkpt>
      <trkpt lat="45.94152" lon="4.81349">
        <ele>250</ele>
        <time>2017-08-11T09:21:06Z</time>
      </trkpt>
      <trkpt lat="45.94151" lon="4.81362">
        <ele>250</ele>
        <time>2017-08-11T09:21:10Z</time>
      </trkpt>
      <trkpt lat="45.94151" lon="4.81365">
        <ele>250</ele>
        <time>2017-08-11T09:21:11Z</time>
      </trkpt>
      <trkpt lat="45.94149" lon="4.81375">
        <ele>250</ele>
        <time>2017-08-11T09:21:14Z</time>
      </trkpt>
      <trkpt lat="45.94148" lon="4.81379">
        <ele>250</ele>
        <time>2017-08-11T09:21:15Z</time>
      </trkpt>
      <trkpt lat="45.94146" lon="4.81389">
        <ele>251</ele>
        <time>2017-08-11T09:21:18Z</time>
      </trkpt>
      <trkpt lat="45.94146" lon="4.81393">
        <ele>251</ele>
        <time>2017-08-11T09:21:19Z</time>
      </trkpt>
      <trkpt lat="45.94143" lon="4.81402">
        <ele>251</ele>
        <time>2017-08-11T09:21:22Z</time>
      </trkpt>
      <trkpt lat="45.94142" lon="4.81406">
        <ele>251</ele>
        <time>2017-08-11T09:21:23Z</time>
      </trkpt>
      <trkpt lat="45.9414" lon="4.81416">
        <ele>251</ele>
        <time>2017-08-11T09:21:26Z</time>
      </trkpt>
      <trkpt lat="45.94141" lon="4.8142">
        <ele>255</ele>
        <time>2017-08-11T09:21:27Z</time>
      </trkpt>
      <trkpt lat="45.94143" lon="4.81428">
        <ele>256</ele>
        <time>2017-08-11T09:21:29Z</time>
      </trkpt>
      <trkpt lat="45.94144" lon="4.81433">
        <ele>256</ele>
        <time>2017-08-11T09:21:30Z</time>
      </trkpt>
      <trkpt lat="45.94145" lon="4.81442">
        <ele>256</ele>
        <time>2017-08-11T09:21:32Z</time>
      </trkpt>
      <trkpt lat="45.94144" lon="4.81446">
        <ele>256</ele>
        <time>2017-08-11T09:21:33Z</time>
      </trkpt>
      <trkpt lat="45.94146" lon="4.81457">
        <ele>257</ele>
        <time>2017-08-11T09:21:35Z</time>
      </trkpt>
      <trkpt lat="45.94146" lon="4.81463">
        <ele>257</ele>
        <time>2017-08-11T09:21:36Z</time>
      </trkpt>
      <trkpt lat="45.94146" lon="4.81471">
        <ele>258</ele>
        <time>2017-08-11T09:21:38Z</time>
      </trkpt>
      <trkpt lat="45.94146" lon="4.81478">
        <ele>258</ele>
        <time>2017-08-11T09:21:39Z</time>
      </trkpt>
      <trkpt lat="45.94143" lon="4.81489">
        <ele>259</ele>
        <time>2017-08-11T09:21:42Z</time>
      </trkpt>
      <trkpt lat="45.94144" lon="4.81493">
        <ele>259</ele>
        <time>2017-08-11T09:21:43Z</time>
      </trkpt>
      <trkpt lat="45.94144" lon="4.81501">
        <ele>263</ele>
        <time>2017-08-11T09:21:45Z</time>
      </trkpt>
      <trkpt lat="45.94146" lon="4.81507">
        <ele>263</ele>
        <time>2017-08-11T09:21:46Z</time>
      </trkpt>
      <trkpt lat="45.94149" lon="4.81515">
        <ele>263</ele>
        <time>2017-08-11T09:21:47Z</time>
      </trkpt>
      <trkpt lat="45.94149" lon="4.81522">
        <ele>263</ele>
        <time>2017-08-11T09:21:48Z</time>
      </trkpt>
      <trkpt lat="45.94149" lon="4.81532">
        <ele>264</ele>
        <time>2017-08-11T09:21:50Z</time>
      </trkpt>
      <trkpt lat="45.94147" lon="4.81536">
        <ele>264</ele>
        <time>2017-08-11T09:21:51Z</time>
      </trkpt>
      <trkpt lat="45.94148" lon="4.81549">
        <ele>264</ele>
        <time>2017-08-11T09:21:55Z</time>
      </trkpt>
      <trkpt lat="45.94148" lon="4.81553">
        <ele>264</ele>
        <time>2017-08-11T09:21:56Z</time>
      </trkpt>
      <trkpt lat="45.94148" lon="4.81564">
        <ele>265</ele>
        <time>2017-08-11T09:21:59Z</time>
      </trkpt>
      <trkpt lat="45.94148" lon="4.81568">
        <ele>265</ele>
        <time>2017-08-11T09:22:00Z</time>
      </trkpt>
      <trkpt lat="45.9415" lon="4.81577">
        <ele>265</ele>
        <time>2017-08-11T09:22:02Z</time>
      </trkpt>
      <trkpt lat="45.94151" lon="4.81581">
        <ele>265</ele>
        <time>2017-08-11T09:22:03Z</time>
      </trkpt>
      <trkpt lat="45.94152" lon="4.8159">
        <ele>267</ele>
        <time>2017-08-11T09:22:05Z</time>
      </trkpt>
      <trkpt lat="45.94153" lon="4.81598">
        <ele>267</ele>
        <time>2017-08-11T09:22:06Z</time>
      </trkpt>
      <trkpt lat="45.94156" lon="4.81609">
        <ele>267</ele>
        <time>2017-08-11T09:22:08Z</time>
      </trkpt>
      <trkpt lat="45.94158" lon="4.81614">
        <ele>267</ele>
        <time>2017-08-11T09:22:09Z</time>
      </trkpt>
      <trkpt lat="45.9416" lon="4.81623">
        <ele>268</ele>
        <time>2017-08-11T09:22:11Z</time>
      </trkpt>
      <trkpt lat="45.94161" lon="4.81626">
        <ele>268</ele>
        <time>2017-08-11T09:22:12Z</time>
      </trkpt>
      <trkpt lat="45.94163" lon="4.81633">
        <ele>268</ele>
        <time>2017-08-11T09:22:14Z</time>
      </trkpt>
      <trkpt lat="45.94166" lon="4.81641">
        <ele>268</ele>
        <time>2017-08-11T09:22:15Z</time>
      </trkpt>
      <trkpt lat="45.94166" lon="4.81652">
        <ele>268</ele>
        <time>2017-08-11T09:22:18Z</time>
      </trkpt>
      <trkpt lat="45.94167" lon="4.81658">
        <ele>268</ele>
        <time>2017-08-11T09:22:19Z</time>
      </trkpt>
      <trkpt lat="45.94168" lon="4.81664">
        <ele>269</ele>
        <time>2017-08-11T09:22:20Z</time>
      </trkpt>
      <trkpt lat="45.94167" lon="4.81677">
        <ele>268</ele>
        <time>2017-08-11T09:22:21Z</time>
      </trkpt>
      <trkpt lat="45.94168" lon="4.81686">
        <ele>268</ele>
        <time>2017-08-11T09:22:22Z</time>
      </trkpt>
      <trkpt lat="45.94168" lon="4.8169">
        <ele>268</ele>
        <time>2017-08-11T09:22:23Z</time>
      </trkpt>
      <trkpt lat="45.9417" lon="4.81702">
        <ele>267</ele>
        <time>2017-08-11T09:22:26Z</time>
      </trkpt>
      <trkpt lat="45.9417" lon="4.81706">
        <ele>267</ele>
        <time>2017-08-11T09:22:27Z</time>
      </trkpt>
      <trkpt lat="45.94171" lon="4.81716">
        <ele>267</ele>
        <time>2017-08-11T09:22:30Z</time>
      </trkpt>
      <trkpt lat="45.94172" lon="4.8172">
        <ele>267</ele>
        <time>2017-08-11T09:22:31Z</time>
      </trkpt>
      <trkpt lat="45.94175" lon="4.81731">
        <ele>267</ele>
        <time>2017-08-11T09:22:33Z</time>
      </trkpt>
      <trkpt lat="45.94176" lon="4.81735">
        <ele>267</ele>
        <time>2017-08-11T09:22:34Z</time>
      </trkpt>
      <trkpt lat="45.94181" lon="4.81746">
        <ele>267</ele>
        <time>2017-08-11T09:22:36Z</time>
      </trkpt>
      <trkpt lat="45.94182" lon="4.81751">
        <ele>267</ele>
        <time>2017-08-11T09:22:37Z</time>
      </trkpt>
      <trkpt lat="45.94184" lon="4.8176">
        <ele>267</ele>
        <time>2017-08-11T09:22:39Z</time>
      </trkpt>
      <trkpt lat="45.94185" lon="4.81764">
        <ele>266</ele>
        <time>2017-08-11T09:22:40Z</time>
      </trkpt>
      <trkpt lat="45.94186" lon="4.81772">
        <ele>266</ele>
        <time>2017-08-11T09:22:42Z</time>
      </trkpt>
      <trkpt lat="45.94186" lon="4.81777">
        <ele>266</ele>
        <time>2017-08-11T09:22:43Z</time>
      </trkpt>
      <trkpt lat="45.94186" lon="4.81788">
        <ele>266</ele>
        <time>2017-08-11T09:22:45Z</time>
      </trkpt>
      <trkpt lat="45.94187" lon="4.81793">
        <ele>266</ele>
        <time>2017-08-11T09:22:46Z</time>
      </trkpt>
      <trkpt lat="45.94188" lon="4.81799">
        <ele>266</ele>
        <time>2017-08-11T09:22:47Z</time>
      </trkpt>
      <trkpt lat="45.94189" lon="4.81808">
        <ele>266</ele>
        <time>2017-08-11T09:22:48Z</time>
      </trkpt>
      <trkpt lat="45.94192" lon="4.81817">
        <ele>266</ele>
        <time>2017-08-11T09:22:50Z</time>
      </trkpt>
      <trkpt lat="45.94193" lon="4.81821">
        <ele>266</ele>
        <time>2017-08-11T09:22:51Z</time>
      </trkpt>
      <trkpt lat="45.94195" lon="4.81829">
        <ele>266</ele>
        <time>2017-08-11T09:22:53Z</time>
      </trkpt>
      <trkpt lat="45.94196" lon="4.81834">
        <ele>266</ele>
        <time>2017-08-11T09:22:54Z</time>
      </trkpt>
      <trkpt lat="45.94198" lon="4.81844">
        <ele>266</ele>
        <time>2017-08-11T09:22:56Z</time>
      </trkpt>
      <trkpt lat="45.942" lon="4.8185">
        <ele>266</ele>
        <time>2017-08-11T09:22:57Z</time>
      </trkpt>
      <trkpt lat="45.94202" lon="4.81861">
        <ele>266</ele>
        <time>2017-08-11T09:22:59Z</time>
      </trkpt>
      <trkpt lat="45.94203" lon="4.81867">
        <ele>266</ele>
        <time>2017-08-11T09:23:00Z</time>
      </trkpt>
      <trkpt lat="45.94205" lon="4.81878">
        <ele>265</ele>
        <time>2017-08-11T09:23:02Z</time>
      </trkpt>
      <trkpt lat="45.94206" lon="4.81883">
        <ele>265</ele>
        <time>2017-08-11T09:23:03Z</time>
      </trkpt>
      <trkpt lat="45.94208" lon="4.81895">
        <ele>265</ele>
        <time>2017-08-11T09:23:05Z</time>
      </trkpt>
      <trkpt lat="45.94209" lon="4.81901">
        <ele>265</ele>
        <time>2017-08-11T09:23:06Z</time>
      </trkpt>
      <trkpt lat="45.9421" lon="4.81907">
        <ele>265</ele>
        <time>2017-08-11T09:23:07Z</time>
      </trkpt>
      <trkpt lat="45.94211" lon="4.81915">
        <ele>265</ele>
        <time>2017-08-11T09:23:08Z</time>
      </trkpt>
      <trkpt lat="45.94212" lon="4.81922">
        <ele>264</ele>
        <time>2017-08-11T09:23:09Z</time>
      </trkpt>
      <trkpt lat="45.94214" lon="4.81929">
        <ele>264</ele>
        <time>2017-08-11T09:23:10Z</time>
      </trkpt>
      <trkpt lat="45.94215" lon="4.81936">
        <ele>264</ele>
        <time>2017-08-11T09:23:11Z</time>
      </trkpt>
      <trkpt lat="45.94217" lon="4.81943">
        <ele>264</ele>
        <time>2017-08-11T09:23:12Z</time>
      </trkpt>
      <trkpt lat="45.94219" lon="4.8195">
        <ele>264</ele>
        <time>2017-08-11T09:23:13Z</time>
      </trkpt>
      <trkpt lat="45.9422" lon="4.81956">
        <ele>264</ele>
        <time>2017-08-11T09:23:14Z</time>
      </trkpt>
      <trkpt lat="45.94222" lon="4.81963">
        <ele>264</ele>
        <time>2017-08-11T09:23:15Z</time>
      </trkpt>
      <trkpt lat="45.94223" lon="4.81969">
        <ele>264</ele>
        <time>2017-08-11T09:23:16Z</time>
      </trkpt>
      <trkpt lat="45.94225" lon="4.81981">
        <ele>264</ele>
        <time>2017-08-11T09:23:18Z</time>
      </trkpt>
      <trkpt lat="45.94227" lon="4.81988">
        <ele>264</ele>
        <time>2017-08-11T09:23:19Z</time>
      </trkpt>
      <trkpt lat="45.9423" lon="4.82">
        <ele>263</ele>
        <time>2017-08-11T09:23:21Z</time>
      </trkpt>
      <trkpt lat="45.94231" lon="4.82006">
        <ele>263</ele>
        <time>2017-08-11T09:23:22Z</time>
      </trkpt>
      <trkpt lat="45.94235" lon="4.82017">
        <ele>263</ele>
        <time>2017-08-11T09:23:24Z</time>
      </trkpt>
      <trkpt lat="45.94236" lon="4.82023">
        <ele>263</ele>
        <time>2017-08-11T09:23:25Z</time>
      </trkpt>
      <trkpt lat="45.94237" lon="4.8203">
        <ele>263</ele>
        <time>2017-08-11T09:23:26Z</time>
      </trkpt>
      <trkpt lat="45.94239" lon="4.82036">
        <ele>263</ele>
        <time>2017-08-11T09:23:27Z</time>
      </trkpt>
      <trkpt lat="45.94241" lon="4.82043">
        <ele>263</ele>
        <time>2017-08-11T09:23:28Z</time>
      </trkpt>
      <trkpt lat="45.94243" lon="4.8205">
        <ele>263</ele>
        <time>2017-08-11T09:23:29Z</time>
      </trkpt>
      <trkpt lat="45.94244" lon="4.82056">
        <ele>263</ele>
        <time>2017-08-11T09:23:30Z</time>
      </trkpt>
      <trkpt lat="45.94245" lon="4.82062">
        <ele>263</ele>
        <time>2017-08-11T09:23:31Z</time>
      </trkpt>
      <trkpt lat="45.94247" lon="4.82074">
        <ele>263</ele>
        <time>2017-08-11T09:23:33Z</time>
      </trkpt>
      <trkpt lat="45.94248" lon="4.82079">
        <ele>262</ele>
        <time>2017-08-11T09:23:34Z</time>
      </trkpt>
      <trkpt lat="45.9425" lon="4.8209">
        <ele>262</ele>
        <time>2017-08-11T09:23:36Z</time>
      </trkpt>
      <trkpt lat="45.94251" lon="4.82095">
        <ele>262</ele>
        <time>2017-08-11T09:23:37Z</time>
      </trkpt>
      <trkpt lat="45.94252" lon="4.82101">
        <ele>262</ele>
        <time>2017-08-11T09:23:38Z</time>
      </trkpt>
      <trkpt lat="45.94254" lon="4.82107">
        <ele>262</ele>
        <time>2017-08-11T09:23:39Z</time>
      </trkpt>
      <trkpt lat="45.94255" lon="4.82114">
        <ele>263</ele>
        <time>2017-08-11T09:23:40Z</time>
      </trkpt>
      <trkpt lat="45.94257" lon="4.82122">
        <ele>263</ele>
        <time>2017-08-11T09:23:41Z</time>
      </trkpt>
      <trkpt lat="45.94258" lon="4.82129">
        <ele>263</ele>
        <time>2017-08-11T09:23:42Z</time>
      </trkpt>
      <trkpt lat="45.94259" lon="4.82136">
        <ele>263</ele>
        <time>2017-08-11T09:23:43Z</time>
      </trkpt>
      <trkpt lat="45.9426" lon="4.82143">
        <ele>263</ele>
        <time>2017-08-11T09:23:44Z</time>
      </trkpt>
      <trkpt lat="45.94262" lon="4.8215">
        <ele>263</ele>
        <time>2017-08-11T09:23:45Z</time>
      </trkpt>
      <trkpt lat="45.94263" lon="4.82157">
        <ele>263</ele>
        <time>2017-08-11T09:23:46Z</time>
      </trkpt>
      <trkpt lat="45.94264" lon="4.82163">
        <ele>263</ele>
        <time>2017-08-11T09:23:47Z</time>
      </trkpt>
      <trkpt lat="45.94265" lon="4.82174">
        <ele>263</ele>
        <time>2017-08-11T09:23:49Z</time>
      </trkpt>
      <trkpt lat="45.94267" lon="4.8218">
        <ele>264</ele>
        <time>2017-08-11T09:23:50Z</time>
      </trkpt>
      <trkpt lat="45.94268" lon="4.82191">
        <ele>264</ele>
        <time>2017-08-11T09:23:52Z</time>
      </trkpt>
      <trkpt lat="45.9427" lon="4.82197">
        <ele>264</ele>
        <time>2017-08-11T09:23:53Z</time>
      </trkpt>
      <trkpt lat="45.94271" lon="4.82203">
        <ele>264</ele>
        <time>2017-08-11T09:23:54Z</time>
      </trkpt>
      <trkpt lat="45.94272" lon="4.82209">
        <ele>264</ele>
        <time>2017-08-11T09:23:55Z</time>
      </trkpt>
      <trkpt lat="45.94272" lon="4.82216">
        <ele>264</ele>
        <time>2017-08-11T09:23:56Z</time>
      </trkpt>
      <trkpt lat="45.94273" lon="4.82222">
        <ele>264</ele>
        <time>2017-08-11T09:23:57Z</time>
      </trkpt>
      <trkpt lat="45.94274" lon="4.8223">
        <ele>264</ele>
        <time>2017-08-11T09:23:58Z</time>
      </trkpt>
      <trkpt lat="45.94274" lon="4.82237">
        <ele>264</ele>
        <time>2017-08-11T09:23:59Z</time>
      </trkpt>
      <trkpt lat="45.94275" lon="4.82244">
        <ele>264</ele>
        <time>2017-08-11T09:24:00Z</time>
      </trkpt>
      <trkpt lat="45.94276" lon="4.82251">
        <ele>265</ele>
        <time>2017-08-11T09:24:01Z</time>
      </trkpt>
      <trkpt lat="45.94276" lon="4.82259">
        <ele>265</ele>
        <time>2017-08-11T09:24:02Z</time>
      </trkpt>
      <trkpt lat="45.94277" lon="4.82266">
        <ele>265</ele>
        <time>2017-08-11T09:24:03Z</time>
      </trkpt>
      <trkpt lat="45.94277" lon="4.82274">
        <ele>265</ele>
        <time>2017-08-11T09:24:04Z</time>
      </trkpt>
      <trkpt lat="45.94277" lon="4.82283">
        <ele>265</ele>
        <time>2017-08-11T09:24:05Z</time>
      </trkpt>
      <trkpt lat="45.94278" lon="4.82291">
        <ele>265</ele>
        <time>2017-08-11T09:24:06Z</time>
      </trkpt>
      <trkpt lat="45.94278" lon="4.82299">
        <ele>265</ele>
        <time>2017-08-11T09:24:07Z</time>
      </trkpt>
      <trkpt lat="45.94279" lon="4.82306">
        <ele>265</ele>
        <time>2017-08-11T09:24:08Z</time>
      </trkpt>
      <trkpt lat="45.9428" lon="4.82314">
        <ele>265</ele>
        <time>2017-08-11T09:24:09Z</time>
      </trkpt>
      <trkpt lat="45.94281" lon="4.82321">
        <ele>265</ele>
        <time>2017-08-11T09:24:10Z</time>
      </trkpt>
      <trkpt lat="45.94281" lon="4.82327">
        <ele>265</ele>
        <time>2017-08-11T09:24:11Z</time>
      </trkpt>
      <trkpt lat="45.94282" lon="4.82339">
        <ele>264</ele>
        <time>2017-08-11T09:24:13Z</time>
      </trkpt>
      <trkpt lat="45.94282" lon="4.82344">
        <ele>264</ele>
        <time>2017-08-11T09:24:14Z</time>
      </trkpt>
      <trkpt lat="45.94283" lon="4.82356">
        <ele>264</ele>
        <time>2017-08-11T09:24:16Z</time>
      </trkpt>
      <trkpt lat="45.94283" lon="4.82362">
        <ele>264</ele>
        <time>2017-08-11T09:24:17Z</time>
      </trkpt>
      <trkpt lat="45.94283" lon="4.8237">
        <ele>264</ele>
        <time>2017-08-11T09:24:18Z</time>
      </trkpt>
      <trkpt lat="45.94284" lon="4.82377">
        <ele>264</ele>
        <time>2017-08-11T09:24:19Z</time>
      </trkpt>
      <trkpt lat="45.94284" lon="4.82384">
        <ele>264</ele>
        <time>2017-08-11T09:24:20Z</time>
      </trkpt>
      <trkpt lat="45.94284" lon="4.82393">
        <ele>264</ele>
        <time>2017-08-11T09:24:21Z</time>
      </trkpt>
      <trkpt lat="45.94284" lon="4.824">
        <ele>264</ele>
        <time>2017-08-11T09:24:22Z</time>
      </trkpt>
      <trkpt lat="45.94284" lon="4.82407">
        <ele>264</ele>
        <time>2017-08-11T09:24:23Z</time>
      </trkpt>
      <trkpt lat="45.94284" lon="4.82419">
        <ele>264</ele>
        <time>2017-08-11T09:24:25Z</time>
      </trkpt>
      <trkpt lat="45.94284" lon="4.82426">
        <ele>264</ele>
        <time>2017-08-11T09:24:26Z</time>
      </trkpt>
      <trkpt lat="45.94284" lon="4.82432">
        <ele>264</ele>
        <time>2017-08-11T09:24:27Z</time>
      </trkpt>
      <trkpt lat="45.94285" lon="4.82439">
        <ele>264</ele>
        <time>2017-08-11T09:24:28Z</time>
      </trkpt>
      <trkpt lat="45.94285" lon="4.82446">
        <ele>264</ele>
        <time>2017-08-11T09:24:29Z</time>
      </trkpt>
      <trkpt lat="45.94286" lon="4.82453">
        <ele>264</ele>
        <time>2017-08-11T09:24:30Z</time>
      </trkpt>
      <trkpt lat="45.94286" lon="4.82461">
        <ele>264</ele>
        <time>2017-08-11T09:24:31Z</time>
      </trkpt>
      <trkpt lat="45.94286" lon="4.82468">
        <ele>264</ele>
        <time>2017-08-11T09:24:32Z</time>
      </trkpt>
      <trkpt lat="45.94286" lon="4.82475">
        <ele>264</ele>
        <time>2017-08-11T09:24:33Z</time>
      </trkpt>
      <trkpt lat="45.94286" lon="4.82482">
        <ele>264</ele>
        <time>2017-08-11T09:24:34Z</time>
      </trkpt>
      <trkpt lat="45.94287" lon="4.82489">
        <ele>264</ele>
        <time>2017-08-11T09:24:35Z</time>
      </trkpt>
      <trkpt lat="45.94288" lon="4.82495">
        <ele>264</ele>
        <time>2017-08-11T09:24:36Z</time>
      </trkpt>
      <trkpt lat="45.94288" lon="4.82507">
        <ele>264</ele>
        <time>2017-08-11T09:24:38Z</time>
      </trkpt>
      <trkpt lat="45.94288" lon="4.82512">
        <ele>264</ele>
        <time>2017-08-11T09:24:39Z</time>
      </trkpt>
      <trkpt lat="45.94287" lon="4.82524">
        <ele>264</ele>
        <time>2017-08-11T09:24:41Z</time>
      </trkpt>
      <trkpt lat="45.94287" lon="4.82531">
        <ele>264</ele>
        <time>2017-08-11T09:24:42Z</time>
      </trkpt>
      <trkpt lat="45.94287" lon="4.82538">
        <ele>264</ele>
        <time>2017-08-11T09:24:43Z</time>
      </trkpt>
      <trkpt lat="45.94287" lon="4.82545">
        <ele>264</ele>
        <time>2017-08-11T09:24:44Z</time>
      </trkpt>
      <trkpt lat="45.94286" lon="4.82552">
        <ele>264</ele>
        <time>2017-08-11T09:24:45Z</time>
      </trkpt>
      <trkpt lat="45.94286" lon="4.82559">
        <ele>264</ele>
        <time>2017-08-11T09:24:46Z</time>
      </trkpt>
      <trkpt lat="45.94286" lon="4.82566">
        <ele>265</ele>
        <time>2017-08-11T09:24:47Z</time>
      </trkpt>
      <trkpt lat="45.94287" lon="4.82573">
        <ele>265</ele>
        <time>2017-08-11T09:24:48Z</time>
      </trkpt>
      <trkpt lat="45.94288" lon="4.82585">
        <ele>265</ele>
        <time>2017-08-11T09:24:50Z</time>
      </trkpt>
      <trkpt lat="45.94288" lon="4.82592">
        <ele>265</ele>
        <time>2017-08-11T09:24:51Z</time>
      </trkpt>
      <trkpt lat="45.94289" lon="4.82598">
        <ele>265</ele>
        <time>2017-08-11T09:24:52Z</time>
      </trkpt>
      <trkpt lat="45.94289" lon="4.82605">
        <ele>265</ele>
        <time>2017-08-11T09:24:53Z</time>
      </trkpt>
      <trkpt lat="45.94289" lon="4.82612">
        <ele>265</ele>
        <time>2017-08-11T09:24:54Z</time>
      </trkpt>
      <trkpt lat="45.94289" lon="4.82619">
        <ele>265</ele>
        <time>2017-08-11T09:24:55Z</time>
      </trkpt>
      <trkpt lat="45.94289" lon="4.82626">
        <ele>265</ele>
        <time>2017-08-11T09:24:56Z</time>
      </trkpt>
      <trkpt lat="45.94289" lon="4.82634">
        <ele>265</ele>
        <time>2017-08-11T09:24:57Z</time>
      </trkpt>
      <trkpt lat="45.94288" lon="4.82642">
        <ele>265</ele>
        <time>2017-08-11T09:24:58Z</time>
      </trkpt>
      <trkpt lat="45.94288" lon="4.8265">
        <ele>265</ele>
        <time>2017-08-11T09:24:59Z</time>
      </trkpt>
      <trkpt lat="45.94288" lon="4.82657">
        <ele>265</ele>
        <time>2017-08-11T09:25:00Z</time>
      </trkpt>
      <trkpt lat="45.94288" lon="4.82665">
        <ele>265</ele>
        <time>2017-08-11T09:25:01Z</time>
      </trkpt>
      <trkpt lat="45.94288" lon="4.82672">
        <ele>265</ele>
        <time>2017-08-11T09:25:02Z</time>
      </trkpt>
      <trkpt lat="45.94289" lon="4.82679">
        <ele>265</ele>
        <time>2017-08-11T09:25:03Z</time>
      </trkpt>
      <trkpt lat="45.94289" lon="4.82686">
        <ele>265</ele>
        <time>2017-08-11T09:25:04Z</time>
      </trkpt>
      <trkpt lat="45.94289" lon="4.82693">
        <ele>265</ele>
        <time>2017-08-11T09:25:05Z</time>
      </trkpt>
      <trkpt lat="45.94289" lon="4.82705">
        <ele>265</ele>
        <time>2017-08-11T09:25:07Z</time>
      </trkpt>
      <trkpt lat="45.94289" lon="4.82712">
        <ele>265</ele>
        <time>2017-08-11T09:25:08Z</time>
      </trkpt>
      <trkpt lat="45.94288" lon="4.82718">
        <ele>265</ele>
        <time>2017-08-11T09:25:09Z</time>
      </trkpt>
      <trkpt lat="45.94288" lon="4.82724">
        <ele>265</ele>
        <time>2017-08-11T09:25:10Z</time>
      </trkpt>
      <trkpt lat="45.94287" lon="4.82731">
        <ele>265</ele>
        <time>2017-08-11T09:25:11Z</time>
      </trkpt>
      <trkpt lat="45.94287" lon="4.82739">
        <ele>265</ele>
        <time>2017-08-11T09:25:12Z</time>
      </trkpt>
      <trkpt lat="45.94287" lon="4.82746">
        <ele>265</ele>
        <time>2017-08-11T09:25:13Z</time>
      </trkpt>
      <trkpt lat="45.94287" lon="4.82754">
        <ele>265</ele>
        <time>2017-08-11T09:25:14Z</time>
      </trkpt>
      <trkpt lat="45.94287" lon="4.82762">
        <ele>265</ele>
        <time>2017-08-11T09:25:15Z</time>
      </trkpt>
      <trkpt lat="45.94286" lon="4.82769">
        <ele>265</ele>
        <time>2017-08-11T09:25:16Z</time>
      </trkpt>
      <trkpt lat="45.94287" lon="4.82776">
        <ele>265</ele>
        <time>2017-08-11T09:25:17Z</time>
      </trkpt>
      <trkpt lat="45.94287" lon="4.82783">
        <ele>265</ele>
        <time>2017-08-11T09:25:18Z</time>
      </trkpt>
      <trkpt lat="45.94286" lon="4.82789">
        <ele>265</ele>
        <time>2017-08-11T09:25:19Z</time>
      </trkpt>
      <trkpt lat="45.94286" lon="4.82796">
        <ele>265</ele>
        <time>2017-08-11T09:25:20Z</time>
      </trkpt>
      <trkpt lat="45.94286" lon="4.82808">
        <ele>265</ele>
        <time>2017-08-11T09:25:22Z</time>
      </trkpt>
      <trkpt lat="45.94286" lon="4.82814">
        <ele>265</ele>
        <time>2017-08-11T09:25:23Z</time>
      </trkpt>
      <trkpt lat="45.94286" lon="4.82821">
        <ele>265</ele>
        <time>2017-08-11T09:25:24Z</time>
      </trkpt>
      <trkpt lat="45.94286" lon="4.82828">
        <ele>265</ele>
        <time>2017-08-11T09:25:25Z</time>
      </trkpt>
      <trkpt lat="45.94286" lon="4.82835">
        <ele>265</ele>
        <time>2017-08-11T09:25:26Z</time>
      </trkpt>
      <trkpt lat="45.94285" lon="4.82842">
        <ele>265</ele>
        <time>2017-08-11T09:25:27Z</time>
      </trkpt>
      <trkpt lat="45.94285" lon="4.82849">
        <ele>265</ele>
        <time>2017-08-11T09:25:28Z</time>
      </trkpt>
      <trkpt lat="45.94286" lon="4.82856">
        <ele>265</ele>
        <time>2017-08-11T09:25:29Z</time>
      </trkpt>
      <trkpt lat="45.94285" lon="4.82868">
        <ele>265</ele>
        <time>2017-08-11T09:25:31Z</time>
      </trkpt>
      <trkpt lat="45.94285" lon="4.82874">
        <ele>265</ele>
        <time>2017-08-11T09:25:32Z</time>
      </trkpt>
      <trkpt lat="45.94284" lon="4.82884">
        <ele>265</ele>
        <time>2017-08-11T09:25:34Z</time>
      </trkpt>
      <trkpt lat="45.94284" lon="4.82889">
        <ele>265</ele>
        <time>2017-08-11T09:25:35Z</time>
      </trkpt>
      <trkpt lat="45.94283" lon="4.82899">
        <ele>265</ele>
        <time>2017-08-11T09:25:37Z</time>
      </trkpt>
      <trkpt lat="45.94283" lon="4.82905">
        <ele>265</ele>
        <time>2017-08-11T09:25:38Z</time>
      </trkpt>
      <trkpt lat="45.94283" lon="4.82911">
        <ele>265</ele>
        <time>2017-08-11T09:25:39Z</time>
      </trkpt>
      <trkpt lat="45.94283" lon="4.82918">
        <ele>265</ele>
        <time>2017-08-11T09:25:40Z</time>
      </trkpt>
      <trkpt lat="45.94282" lon="4.82925">
        <ele>265</ele>
        <time>2017-08-11T09:25:41Z</time>
      </trkpt>
      <trkpt lat="45.9428" lon="4.82932">
        <ele>265</ele>
        <time>2017-08-11T09:25:42Z</time>
      </trkpt>
      <trkpt lat="45.94279" lon="4.82938">
        <ele>265</ele>
        <time>2017-08-11T09:25:43Z</time>
      </trkpt>
      <trkpt lat="45.94279" lon="4.82945">
        <ele>265</ele>
        <time>2017-08-11T09:25:44Z</time>
      </trkpt>
      <trkpt lat="45.9428" lon="4.82952">
        <ele>265</ele>
        <time>2017-08-11T09:25:45Z</time>
      </trkpt>
      <trkpt lat="45.94281" lon="4.82959">
        <ele>265</ele>
        <time>2017-08-11T09:25:46Z</time>
      </trkpt>
      <trkpt lat="45.94283" lon="4.82967">
        <ele>265</ele>
        <time>2017-08-11T09:25:47Z</time>
      </trkpt>
      <trkpt lat="45.94285" lon="4.82974">
        <ele>265</ele>
        <time>2017-08-11T09:25:48Z</time>
      </trkpt>
      <trkpt lat="45.94287" lon="4.82981">
        <ele>265</ele>
        <time>2017-08-11T09:25:49Z</time>
      </trkpt>
      <trkpt lat="45.94288" lon="4.82989">
        <ele>265</ele>
        <time>2017-08-11T09:25:50Z</time>
      </trkpt>
      <trkpt lat="45.9429" lon="4.82997">
        <ele>265</ele>
        <time>2017-08-11T09:25:51Z</time>
      </trkpt>
      <trkpt lat="45.94291" lon="4.83004">
        <ele>266</ele>
        <time>2017-08-11T09:25:52Z</time>
      </trkpt>
      <trkpt lat="45.94293" lon="4.83011">
        <ele>266</ele>
        <time>2017-08-11T09:25:53Z</time>
      </trkpt>
      <trkpt lat="45.94295" lon="4.83018">
        <ele>266</ele>
        <time>2017-08-11T09:25:54Z</time>
      </trkpt>
      <trkpt lat="45.94297" lon="4.83025">
        <ele>266</ele>
        <time>2017-08-11T09:25:55Z</time>
      </trkpt>
      <trkpt lat="45.94298" lon="4.83031">
        <ele>266</ele>
        <time>2017-08-11T09:25:56Z</time>
      </trkpt>
      <trkpt lat="45.94301" lon="4.83037">
        <ele>266</ele>
        <time>2017-08-11T09:25:57Z</time>
      </trkpt>
      <trkpt lat="45.94302" lon="4.83043">
        <ele>266</ele>
        <time>2017-08-11T09:25:58Z</time>
      </trkpt>
      <trkpt lat="45.94303" lon="4.83049">
        <ele>266</ele>
        <time>2017-08-11T09:25:59Z</time>
      </trkpt>
      <trkpt lat="45.94305" lon="4.83056">
        <ele>266</ele>
        <time>2017-08-11T09:26:00Z</time>
      </trkpt>
      <trkpt lat="45.94306" lon="4.83063">
        <ele>266</ele>
        <time>2017-08-11T09:26:01Z</time>
      </trkpt>
      <trkpt lat="45.94307" lon="4.8307">
        <ele>266</ele>
        <time>2017-08-11T09:26:02Z</time>
      </trkpt>
      <trkpt lat="45.94309" lon="4.83078">
        <ele>266</ele>
        <time>2017-08-11T09:26:03Z</time>
      </trkpt>
      <trkpt lat="45.94311" lon="4.83085">
        <ele>266</ele>
        <time>2017-08-11T09:26:04Z</time>
      </trkpt>
      <trkpt lat="45.94313" lon="4.83092">
        <ele>266</ele>
        <time>2017-08-11T09:26:05Z</time>
      </trkpt>
      <trkpt lat="45.94315" lon="4.83099">
        <ele>266</ele>
        <time>2017-08-11T09:26:06Z</time>
      </trkpt>
      <trkpt lat="45.94316" lon="4.83105">
        <ele>266</ele>
        <time>2017-08-11T09:26:07Z</time>
      </trkpt>
      <trkpt lat="45.94318" lon="4.83112">
        <ele>266</ele>
        <time>2017-08-11T09:26:08Z</time>
      </trkpt>
      <trkpt lat="45.9432" lon="4.83118">
        <ele>266</ele>
        <time>2017-08-11T09:26:09Z</time>
      </trkpt>
      <trkpt lat="45.94322" lon="4.83124">
        <ele>266</ele>
        <time>2017-08-11T09:26:10Z</time>
      </trkpt>
      <trkpt lat="45.94326" lon="4.83136">
        <ele>266</ele>
        <time>2017-08-11T09:26:12Z</time>
      </trkpt>
      <trkpt lat="45.94328" lon="4.83142">
        <ele>266</ele>
        <time>2017-08-11T09:26:13Z</time>
      </trkpt>
      <trkpt lat="45.9433" lon="4.83149">
        <ele>266</ele>
        <time>2017-08-11T09:26:14Z</time>
      </trkpt>
      <trkpt lat="45.94332" lon="4.83155">
        <ele>266</ele>
        <time>2017-08-11T09:26:15Z</time>
      </trkpt>
      <trkpt lat="45.94335" lon="4.83161">
        <ele>266</ele>
        <time>2017-08-11T09:26:16Z</time>
      </trkpt>
      <trkpt lat="45.94338" lon="4.83168">
        <ele>266</ele>
        <time>2017-08-11T09:26:17Z</time>
      </trkpt>
      <trkpt lat="45.94341" lon="4.83174">
        <ele>266</ele>
        <time>2017-08-11T09:26:18Z</time>
      </trkpt>
      <trkpt lat="45.94343" lon="4.83181">
        <ele>266</ele>
        <time>2017-08-11T09:26:19Z</time>
      </trkpt>
      <trkpt lat="45.94345" lon="4.83188">
        <ele>266</ele>
        <time>2017-08-11T09:26:20Z</time>
      </trkpt>
      <trkpt lat="45.94347" lon="4.83194">
        <ele>266</ele>
        <time>2017-08-11T09:26:21Z</time>
      </trkpt>
      <trkpt lat="45.9435" lon="4.832">
        <ele>266</ele>
        <time>2017-08-11T09:26:22Z</time>
      </trkpt>
      <trkpt lat="45.94352" lon="4.83207">
        <ele>266</ele>
        <time>2017-08-11T09:26:23Z</time>
      </trkpt>
      <trkpt lat="45.94354" lon="4.83213">
        <ele>266</ele>
        <time>2017-08-11T09:26:24Z</time>
      </trkpt>
      <trkpt lat="45.94357" lon="4.83219">
        <ele>266</ele>
        <time>2017-08-11T09:26:25Z</time>
      </trkpt>
      <trkpt lat="45.94361" lon="4.8323">
        <ele>266</ele>
        <time>2017-08-11T09:26:27Z</time>
      </trkpt>
      <trkpt lat="45.94363" lon="4.83236">
        <ele>265</ele>
        <time>2017-08-11T09:26:28Z</time>
      </trkpt>
      <trkpt lat="45.94365" lon="4.83242">
        <ele>265</ele>
        <time>2017-08-11T09:26:29Z</time>
      </trkpt>
      <trkpt lat="45.94368" lon="4.83249">
        <ele>265</ele>
        <time>2017-08-11T09:26:30Z</time>
      </trkpt>
      <trkpt lat="45.94371" lon="4.83257">
        <ele>265</ele>
        <time>2017-08-11T09:26:31Z</time>
      </trkpt>
      <trkpt lat="45.94373" lon="4.83264">
        <ele>264</ele>
        <time>2017-08-11T09:26:32Z</time>
      </trkpt>
      <trkpt lat="45.94376" lon="4.83271">
        <ele>264</ele>
        <time>2017-08-11T09:26:33Z</time>
      </trkpt>
      <trkpt lat="45.94379" lon="4.83278">
        <ele>264</ele>
        <time>2017-08-11T09:26:34Z</time>
      </trkpt>
      <trkpt lat="45.94381" lon="4.83286">
        <ele>264</ele>
        <time>2017-08-11T09:26:35Z</time>
      </trkpt>
      <trkpt lat="45.94383" lon="4.83293">
        <ele>264</ele>
        <time>2017-08-11T09:26:36Z</time>
      </trkpt>
      <trkpt lat="45.94386" lon="4.833">
        <ele>264</ele>
        <time>2017-08-11T09:26:37Z</time>
      </trkpt>
      <trkpt lat="45.94389" lon="4.83307">
        <ele>264</ele>
        <time>2017-08-11T09:26:38Z</time>
      </trkpt>
      <trkpt lat="45.94391" lon="4.83314">
        <ele>264</ele>
        <time>2017-08-11T09:26:39Z</time>
      </trkpt>
      <trkpt lat="45.94394" lon="4.83321">
        <ele>264</ele>
        <time>2017-08-11T09:26:40Z</time>
      </trkpt>
      <trkpt lat="45.94397" lon="4.83328">
        <ele>264</ele>
        <time>2017-08-11T09:26:41Z</time>
      </trkpt>
      <trkpt lat="45.94399" lon="4.83335">
        <ele>263</ele>
        <time>2017-08-11T09:26:42Z</time>
      </trkpt>
      <trkpt lat="45.94401" lon="4.83341">
        <ele>263</ele>
        <time>2017-08-11T09:26:43Z</time>
      </trkpt>
      <trkpt lat="45.94404" lon="4.83348">
        <ele>263</ele>
        <time>2017-08-11T09:26:44Z</time>
      </trkpt>
      <trkpt lat="45.94406" lon="4.83355">
        <ele>263</ele>
        <time>2017-08-11T09:26:45Z</time>
      </trkpt>
      <trkpt lat="45.94409" lon="4.83361">
        <ele>264</ele>
        <time>2017-08-11T09:26:46Z</time>
      </trkpt>
      <trkpt lat="45.94412" lon="4.83367">
        <ele>264</ele>
        <time>2017-08-11T09:26:47Z</time>
      </trkpt>
      <trkpt lat="45.94414" lon="4.83373">
        <ele>264</ele>
        <time>2017-08-11T09:26:48Z</time>
      </trkpt>
      <trkpt lat="45.94417" lon="4.83379">
        <ele>264</ele>
        <time>2017-08-11T09:26:49Z</time>
      </trkpt>
      <trkpt lat="45.94419" lon="4.83385">
        <ele>264</ele>
        <time>2017-08-11T09:26:50Z</time>
      </trkpt>
      <trkpt lat="45.94421" lon="4.83391">
        <ele>264</ele>
        <time>2017-08-11T09:26:51Z</time>
      </trkpt>
      <trkpt lat="45.94424" lon="4.83398">
        <ele>264</ele>
        <time>2017-08-11T09:26:52Z</time>
      </trkpt>
      <trkpt lat="45.94427" lon="4.83404">
        <ele>264</ele>
        <time>2017-08-11T09:26:53Z</time>
      </trkpt>
      <trkpt lat="45.9443" lon="4.83411">
        <ele>264</ele>
        <time>2017-08-11T09:26:54Z</time>
      </trkpt>
      <trkpt lat="45.94433" lon="4.83417">
        <ele>264</ele>
        <time>2017-08-11T09:26:55Z</time>
      </trkpt>
      <trkpt lat="45.94436" lon="4.83423">
        <ele>264</ele>
        <time>2017-08-11T09:26:56Z</time>
      </trkpt>
      <trkpt lat="45.94439" lon="4.83429">
        <ele>264</ele>
        <time>2017-08-11T09:26:57Z</time>
      </trkpt>
      <trkpt lat="45.94442" lon="4.83435">
        <ele>263</ele>
        <time>2017-08-11T09:26:58Z</time>
      </trkpt>
      <trkpt lat="45.94445" lon="4.83441">
        <ele>263</ele>
        <time>2017-08-11T09:26:59Z</time>
      </trkpt>
      <trkpt lat="45.94448" lon="4.83447">
        <ele>263</ele>
        <time>2017-08-11T09:27:00Z</time>
      </trkpt>
      <trkpt lat="45.94452" lon="4.83453">
        <ele>263</ele>
        <time>2017-08-11T09:27:01Z</time>
      </trkpt>
      <trkpt lat="45.94456" lon="4.8346">
        <ele>263</ele>
        <time>2017-08-11T09:27:02Z</time>
      </trkpt>
      <trkpt lat="45.94459" lon="4.83467">
        <ele>263</ele>
        <time>2017-08-11T09:27:03Z</time>
      </trkpt>
      <trkpt lat="45.94463" lon="4.83473">
        <ele>263</ele>
        <time>2017-08-11T09:27:04Z</time>
      </trkpt>
      <trkpt lat="45.94466" lon="4.8348">
        <ele>263</ele>
        <time>2017-08-11T09:27:05Z</time>
      </trkpt>
      <trkpt lat="45.9447" lon="4.83487">
        <ele>263</ele>
        <time>2017-08-11T09:27:06Z</time>
      </trkpt>
      <trkpt lat="45.94474" lon="4.83493">
        <ele>263</ele>
        <time>2017-08-11T09:27:07Z</time>
      </trkpt>
      <trkpt lat="45.94478" lon="4.835">
        <ele>263</ele>
        <time>2017-08-11T09:27:08Z</time>
      </trkpt>
      <trkpt lat="45.94482" lon="4.83506">
        <ele>262</ele>
        <time>2017-08-11T09:27:09Z</time>
      </trkpt>
      <trkpt lat="45.94486" lon="4.83511">
        <ele>262</ele>
        <time>2017-08-11T09:27:10Z</time>
      </trkpt>
      <trkpt lat="45.9449" lon="4.83517">
        <ele>262</ele>
        <time>2017-08-11T09:27:11Z</time>
      </trkpt>
      <trkpt lat="45.94494" lon="4.83523">
        <ele>262</ele>
        <time>2017-08-11T09:27:12Z</time>
      </trkpt>
      <trkpt lat="45.94497" lon="4.83529">
        <ele>262</ele>
        <time>2017-08-11T09:27:13Z</time>
      </trkpt>
      <trkpt lat="45.945" lon="4.83535">
        <ele>262</ele>
        <time>2017-08-11T09:27:14Z</time>
      </trkpt>
      <trkpt lat="45.94503" lon="4.83541">
        <ele>262</ele>
        <time>2017-08-11T09:27:15Z</time>
      </trkpt>
      <trkpt lat="45.94506" lon="4.83547">
        <ele>261</ele>
        <time>2017-08-11T09:27:16Z</time>
      </trkpt>
      <trkpt lat="45.9451" lon="4.83553">
        <ele>261</ele>
        <time>2017-08-11T09:27:17Z</time>
      </trkpt>
      <trkpt lat="45.94512" lon="4.83559">
        <ele>261</ele>
        <time>2017-08-11T09:27:18Z</time>
      </trkpt>
      <trkpt lat="45.94515" lon="4.83566">
        <ele>261</ele>
        <time>2017-08-11T09:27:19Z</time>
      </trkpt>
      <trkpt lat="45.94518" lon="4.83573">
        <ele>261</ele>
        <time>2017-08-11T09:27:20Z</time>
      </trkpt>
      <trkpt lat="45.94521" lon="4.83581">
        <ele>261</ele>
        <time>2017-08-11T09:27:21Z</time>
      </trkpt>
      <trkpt lat="45.94523" lon="4.83589">
        <ele>261</ele>
        <time>2017-08-11T09:27:22Z</time>
      </trkpt>
      <trkpt lat="45.94525" lon="4.83598">
        <ele>261</ele>
        <time>2017-08-11T09:27:23Z</time>
      </trkpt>
      <trkpt lat="45.94527" lon="4.83607">
        <ele>261</ele>
        <time>2017-08-11T09:27:24Z</time>
      </trkpt>
      <trkpt lat="45.94529" lon="4.83616">
        <ele>261</ele>
        <time>2017-08-11T09:27:25Z</time>
      </trkpt>
      <trkpt lat="45.94531" lon="4.83626">
        <ele>261</ele>
        <time>2017-08-11T09:27:26Z</time>
      </trkpt>
      <trkpt lat="45.94531" lon="4.83634">
        <ele>261</ele>
        <time>2017-08-11T09:27:27Z</time>
      </trkpt>
      <trkpt lat="45.94533" lon="4.83644">
        <ele>261</ele>
        <time>2017-08-11T09:27:28Z</time>
      </trkpt>
      <trkpt lat="45.94534" lon="4.83653">
        <ele>261</ele>
        <time>2017-08-11T09:27:29Z</time>
      </trkpt>
      <trkpt lat="45.94535" lon="4.83662">
        <ele>261</ele>
        <time>2017-08-11T09:27:30Z</time>
      </trkpt>
      <trkpt lat="45.94537" lon="4.83671">
        <ele>262</ele>
        <time>2017-08-11T09:27:31Z</time>
      </trkpt>
      <trkpt lat="45.94539" lon="4.8368">
        <ele>262</ele>
        <time>2017-08-11T09:27:32Z</time>
      </trkpt>
      <trkpt lat="45.9454" lon="4.83688">
        <ele>262</ele>
        <time>2017-08-11T09:27:33Z</time>
      </trkpt>
      <trkpt lat="45.94542" lon="4.83696">
        <ele>262</ele>
        <time>2017-08-11T09:27:34Z</time>
      </trkpt>
      <trkpt lat="45.94544" lon="4.83704">
        <ele>262</ele>
        <time>2017-08-11T09:27:35Z</time>
      </trkpt>
      <trkpt lat="45.94545" lon="4.83711">
        <ele>262</ele>
        <time>2017-08-11T09:27:36Z</time>
      </trkpt>
      <trkpt lat="45.94546" lon="4.83718">
        <ele>262</ele>
        <time>2017-08-11T09:27:37Z</time>
      </trkpt>
      <trkpt lat="45.94547" lon="4.83726">
        <ele>262</ele>
        <time>2017-08-11T09:27:38Z</time>
      </trkpt>
      <trkpt lat="45.94548" lon="4.83733">
        <ele>262</ele>
        <time>2017-08-11T09:27:39Z</time>
      </trkpt>
      <trkpt lat="45.94549" lon="4.83741">
        <ele>262</ele>
        <time>2017-08-11T09:27:40Z</time>
      </trkpt>
      <trkpt lat="45.9455" lon="4.8375">
        <ele>262</ele>
        <time>2017-08-11T09:27:41Z</time>
      </trkpt>
      <trkpt lat="45.94552" lon="4.83758">
        <ele>263</ele>
        <time>2017-08-11T09:27:42Z</time>
      </trkpt>
      <trkpt lat="45.94554" lon="4.83767">
        <ele>263</ele>
        <time>2017-08-11T09:27:43Z</time>
      </trkpt>
      <trkpt lat="45.94555" lon="4.83776">
        <ele>264</ele>
        <time>2017-08-11T09:27:44Z</time>
      </trkpt>
      <trkpt lat="45.94556" lon="4.83785">
        <ele>264</ele>
        <time>2017-08-11T09:27:45Z</time>
      </trkpt>
      <trkpt lat="45.94558" lon="4.83794">
        <ele>264</ele>
        <time>2017-08-11T09:27:46Z</time>
      </trkpt>
      <trkpt lat="45.94559" lon="4.83803">
        <ele>264</ele>
        <time>2017-08-11T09:27:47Z</time>
      </trkpt>
      <trkpt lat="45.9456" lon="4.83811">
        <ele>264</ele>
        <time>2017-08-11T09:27:48Z</time>
      </trkpt>
      <trkpt lat="45.94561" lon="4.83819">
        <ele>264</ele>
        <time>2017-08-11T09:27:49Z</time>
      </trkpt>
      <trkpt lat="45.94562" lon="4.83826">
        <ele>264</ele>
        <time>2017-08-11T09:27:50Z</time>
      </trkpt>
      <trkpt lat="45.94562" lon="4.83833">
        <ele>265</ele>
        <time>2017-08-11T09:27:51Z</time>
      </trkpt>
      <trkpt lat="45.94563" lon="4.8384">
        <ele>266</ele>
        <time>2017-08-11T09:27:52Z</time>
      </trkpt>
      <trkpt lat="45.94565" lon="4.83847">
        <ele>266</ele>
        <time>2017-08-11T09:27:53Z</time>
      </trkpt>
      <trkpt lat="45.94566" lon="4.83854">
        <ele>266</ele>
        <time>2017-08-11T09:27:54Z</time>
      </trkpt>
      <trkpt lat="45.94567" lon="4.83861">
        <ele>267</ele>
        <time>2017-08-11T09:27:55Z</time>
      </trkpt>
      <trkpt lat="45.94568" lon="4.83868">
        <ele>267</ele>
        <time>2017-08-11T09:27:56Z</time>
      </trkpt>
      <trkpt lat="45.94569" lon="4.83875">
        <ele>267</ele>
        <time>2017-08-11T09:27:57Z</time>
      </trkpt>
      <trkpt lat="45.9457" lon="4.83883">
        <ele>267</ele>
        <time>2017-08-11T09:27:58Z</time>
      </trkpt>
      <trkpt lat="45.94571" lon="4.83891">
        <ele>267</ele>
        <time>2017-08-11T09:27:59Z</time>
      </trkpt>
      <trkpt lat="45.94572" lon="4.83899">
        <ele>268</ele>
        <time>2017-08-11T09:28:00Z</time>
      </trkpt>
      <trkpt lat="45.94573" lon="4.83907">
        <ele>268</ele>
        <time>2017-08-11T09:28:01Z</time>
      </trkpt>
      <trkpt lat="45.94574" lon="4.83914">
        <ele>268</ele>
        <time>2017-08-11T09:28:02Z</time>
      </trkpt>
      <trkpt lat="45.94576" lon="4.83921">
        <ele>268</ele>
        <time>2017-08-11T09:28:03Z</time>
      </trkpt>
      <trkpt lat="45.94577" lon="4.83929">
        <ele>268</ele>
        <time>2017-08-11T09:28:04Z</time>
      </trkpt>
      <trkpt lat="45.94578" lon="4.83937">
        <ele>269</ele>
        <time>2017-08-11T09:28:05Z</time>
      </trkpt>
      <trkpt lat="45.94579" lon="4.83945">
        <ele>269</ele>
        <time>2017-08-11T09:28:06Z</time>
      </trkpt>
      <trkpt lat="45.9458" lon="4.83953">
        <ele>269</ele>
        <time>2017-08-11T09:28:07Z</time>
      </trkpt>
      <trkpt lat="45.94581" lon="4.83961">
        <ele>269</ele>
        <time>2017-08-11T09:28:08Z</time>
      </trkpt>
      <trkpt lat="45.94582" lon="4.83968">
        <ele>269</ele>
        <time>2017-08-11T09:28:09Z</time>
      </trkpt>
      <trkpt lat="45.94583" lon="4.83976">
        <ele>269</ele>
        <time>2017-08-11T09:28:10Z</time>
      </trkpt>
      <trkpt lat="45.94583" lon="4.83983">
        <ele>269</ele>
        <time>2017-08-11T09:28:11Z</time>
      </trkpt>
      <trkpt lat="45.94585" lon="4.83991">
        <ele>269</ele>
        <time>2017-08-11T09:28:12Z</time>
      </trkpt>
      <trkpt lat="45.94587" lon="4.83998">
        <ele>269</ele>
        <time>2017-08-11T09:28:13Z</time>
      </trkpt>
      <trkpt lat="45.94588" lon="4.84006">
        <ele>269</ele>
        <time>2017-08-11T09:28:14Z</time>
      </trkpt>
      <trkpt lat="45.94589" lon="4.84012">
        <ele>269</ele>
        <time>2017-08-11T09:28:15Z</time>
      </trkpt>
      <trkpt lat="45.9459" lon="4.84019">
        <ele>269</ele>
        <time>2017-08-11T09:28:16Z</time>
      </trkpt>
      <trkpt lat="45.94591" lon="4.84026">
        <ele>269</ele>
        <time>2017-08-11T09:28:17Z</time>
      </trkpt>
      <trkpt lat="45.94592" lon="4.84033">
        <ele>269</ele>
        <time>2017-08-11T09:28:18Z</time>
      </trkpt>
      <trkpt lat="45.94593" lon="4.84039">
        <ele>269</ele>
        <time>2017-08-11T09:28:19Z</time>
      </trkpt>
      <trkpt lat="45.94595" lon="4.84046">
        <ele>269</ele>
        <time>2017-08-11T09:28:20Z</time>
      </trkpt>
      <trkpt lat="45.94596" lon="4.84053">
        <ele>269</ele>
        <time>2017-08-11T09:28:21Z</time>
      </trkpt>
      <trkpt lat="45.94597" lon="4.84059">
        <ele>269</ele>
        <time>2017-08-11T09:28:22Z</time>
      </trkpt>
      <trkpt lat="45.946" lon="4.84071">
        <ele>269</ele>
        <time>2017-08-11T09:28:24Z</time>
      </trkpt>
      <trkpt lat="45.94601" lon="4.84078">
        <ele>269</ele>
        <time>2017-08-11T09:28:25Z</time>
      </trkpt>
      <trkpt lat="45.94602" lon="4.84085">
        <ele>269</ele>
        <time>2017-08-11T09:28:26Z</time>
      </trkpt>
      <trkpt lat="45.94603" lon="4.84092">
        <ele>269</ele>
        <time>2017-08-11T09:28:27Z</time>
      </trkpt>
      <trkpt lat="45.94604" lon="4.84099">
        <ele>269</ele>
        <time>2017-08-11T09:28:28Z</time>
      </trkpt>
      <trkpt lat="45.94604" lon="4.84108">
        <ele>269</ele>
        <time>2017-08-11T09:28:29Z</time>
      </trkpt>
      <trkpt lat="45.94606" lon="4.84115">
        <ele>269</ele>
        <time>2017-08-11T09:28:30Z</time>
      </trkpt>
      <trkpt lat="45.94607" lon="4.84122">
        <ele>269</ele>
        <time>2017-08-11T09:28:31Z</time>
      </trkpt>
      <trkpt lat="45.94609" lon="4.84129">
        <ele>269</ele>
        <time>2017-08-11T09:28:32Z</time>
      </trkpt>
      <trkpt lat="45.9461" lon="4.84136">
        <ele>269</ele>
        <time>2017-08-11T09:28:33Z</time>
      </trkpt>
      <trkpt lat="45.94612" lon="4.84143">
        <ele>269</ele>
        <time>2017-08-11T09:28:34Z</time>
      </trkpt>
      <trkpt lat="45.94612" lon="4.84149">
        <ele>269</ele>
        <time>2017-08-11T09:28:35Z</time>
      </trkpt>
      <trkpt lat="45.94613" lon="4.84156">
        <ele>269</ele>
        <time>2017-08-11T09:28:36Z</time>
      </trkpt>
      <trkpt lat="45.94614" lon="4.84162">
        <ele>269</ele>
        <time>2017-08-11T09:28:37Z</time>
      </trkpt>
      <trkpt lat="45.94615" lon="4.84169">
        <ele>269</ele>
        <time>2017-08-11T09:28:38Z</time>
      </trkpt>
      <trkpt lat="45.94616" lon="4.84175">
        <ele>269</ele>
        <time>2017-08-11T09:28:39Z</time>
      </trkpt>
      <trkpt lat="45.94617" lon="4.84182">
        <ele>269</ele>
        <time>2017-08-11T09:28:40Z</time>
      </trkpt>
      <trkpt lat="45.94619" lon="4.84189">
        <ele>269</ele>
        <time>2017-08-11T09:28:41Z</time>
      </trkpt>
      <trkpt lat="45.9462" lon="4.84197">
        <ele>269</ele>
        <time>2017-08-11T09:28:42Z</time>
      </trkpt>
      <trkpt lat="45.94621" lon="4.84205">
        <ele>269</ele>
        <time>2017-08-11T09:28:43Z</time>
      </trkpt>
      <trkpt lat="45.94622" lon="4.84212">
        <ele>269</ele>
        <time>2017-08-11T09:28:44Z</time>
      </trkpt>
      <trkpt lat="45.94623" lon="4.84219">
        <ele>269</ele>
        <time>2017-08-11T09:28:45Z</time>
      </trkpt>
      <trkpt lat="45.94624" lon="4.84226">
        <ele>269</ele>
        <time>2017-08-11T09:28:46Z</time>
      </trkpt>
      <trkpt lat="45.94625" lon="4.84233">
        <ele>269</ele>
        <time>2017-08-11T09:28:47Z</time>
      </trkpt>
      <trkpt lat="45.94626" lon="4.8424">
        <ele>269</ele>
        <time>2017-08-11T09:28:48Z</time>
      </trkpt>
      <trkpt lat="45.94627" lon="4.84247">
        <ele>269</ele>
        <time>2017-08-11T09:28:49Z</time>
      </trkpt>
      <trkpt lat="45.94627" lon="4.84254">
        <ele>269</ele>
        <time>2017-08-11T09:28:50Z</time>
      </trkpt>
      <trkpt lat="45.94628" lon="4.84261">
        <ele>269</ele>
        <time>2017-08-11T09:28:51Z</time>
      </trkpt>
      <trkpt lat="45.9463" lon="4.84268">
        <ele>269</ele>
        <time>2017-08-11T09:28:52Z</time>
      </trkpt>
      <trkpt lat="45.94631" lon="4.84276">
        <ele>269</ele>
        <time>2017-08-11T09:28:53Z</time>
      </trkpt>
      <trkpt lat="45.94632" lon="4.84284">
        <ele>269</ele>
        <time>2017-08-11T09:28:54Z</time>
      </trkpt>
      <trkpt lat="45.94634" lon="4.84292">
        <ele>269</ele>
        <time>2017-08-11T09:28:55Z</time>
      </trkpt>
      <trkpt lat="45.94635" lon="4.843">
        <ele>269</ele>
        <time>2017-08-11T09:28:56Z</time>
      </trkpt>
      <trkpt lat="45.94636" lon="4.84307">
        <ele>269</ele>
        <time>2017-08-11T09:28:57Z</time>
      </trkpt>
      <trkpt lat="45.94637" lon="4.84315">
        <ele>269</ele>
        <time>2017-08-11T09:28:58Z</time>
      </trkpt>
      <trkpt lat="45.94638" lon="4.84322">
        <ele>269</ele>
        <time>2017-08-11T09:28:59Z</time>
      </trkpt>
      <trkpt lat="45.94639" lon="4.84329">
        <ele>269</ele>
        <time>2017-08-11T09:29:00Z</time>
      </trkpt>
      <trkpt lat="45.94641" lon="4.84336">
        <ele>268</ele>
        <time>2017-08-11T09:29:01Z</time>
      </trkpt>
      <trkpt lat="45.94641" lon="4.84343">
        <ele>268</ele>
        <time>2017-08-11T09:29:02Z</time>
      </trkpt>
      <trkpt lat="45.94641" lon="4.84349">
        <ele>268</ele>
        <time>2017-08-11T09:29:03Z</time>
      </trkpt>
      <trkpt lat="45.94642" lon="4.84355">
        <ele>268</ele>
        <time>2017-08-11T09:29:04Z</time>
      </trkpt>
      <trkpt lat="45.94642" lon="4.84362">
        <ele>268</ele>
        <time>2017-08-11T09:29:05Z</time>
      </trkpt>
      <trkpt lat="45.94643" lon="4.84369">
        <ele>268</ele>
        <time>2017-08-11T09:29:06Z</time>
      </trkpt>
      <trkpt lat="45.94644" lon="4.84376">
        <ele>268</ele>
        <time>2017-08-11T09:29:07Z</time>
      </trkpt>
      <trkpt lat="45.94645" lon="4.84384">
        <ele>268</ele>
        <time>2017-08-11T09:29:08Z</time>
      </trkpt>
      <trkpt lat="45.94645" lon="4.84392">
        <ele>268</ele>
        <time>2017-08-11T09:29:09Z</time>
      </trkpt>
      <trkpt lat="45.94646" lon="4.84399">
        <ele>268</ele>
        <time>2017-08-11T09:29:10Z</time>
      </trkpt>
      <trkpt lat="45.94647" lon="4.84406">
        <ele>268</ele>
        <time>2017-08-11T09:29:11Z</time>
      </trkpt>
      <trkpt lat="45.94647" lon="4.84414">
        <ele>268</ele>
        <time>2017-08-11T09:29:12Z</time>
      </trkpt>
      <trkpt lat="45.94648" lon="4.8442">
        <ele>268</ele>
        <time>2017-08-11T09:29:13Z</time>
      </trkpt>
      <trkpt lat="45.94649" lon="4.84427">
        <ele>268</ele>
        <time>2017-08-11T09:29:14Z</time>
      </trkpt>
      <trkpt lat="45.9465" lon="4.84433">
        <ele>268</ele>
        <time>2017-08-11T09:29:15Z</time>
      </trkpt>
      <trkpt lat="45.9465" lon="4.8444">
        <ele>268</ele>
        <time>2017-08-11T09:29:16Z</time>
      </trkpt>
      <trkpt lat="45.94651" lon="4.84447">
        <ele>268</ele>
        <time>2017-08-11T09:29:17Z</time>
      </trkpt>
      <trkpt lat="45.94652" lon="4.84453">
        <ele>268</ele>
        <time>2017-08-11T09:29:18Z</time>
      </trkpt>
      <trkpt lat="45.94652" lon="4.84461">
        <ele>268</ele>
        <time>2017-08-11T09:29:19Z</time>
      </trkpt>
      <trkpt lat="45.94653" lon="4.84468">
        <ele>268</ele>
        <time>2017-08-11T09:29:20Z</time>
      </trkpt>
      <trkpt lat="45.94654" lon="4.84476">
        <ele>268</ele>
        <time>2017-08-11T09:29:21Z</time>
      </trkpt>
      <trkpt lat="45.94655" lon="4.84485">
        <ele>268</ele>
        <time>2017-08-11T09:29:22Z</time>
      </trkpt>
      <trkpt lat="45.94656" lon="4.84493">
        <ele>268</ele>
        <time>2017-08-11T09:29:23Z</time>
      </trkpt>
      <trkpt lat="45.94656" lon="4.84501">
        <ele>268</ele>
        <time>2017-08-11T09:29:24Z</time>
      </trkpt>
      <trkpt lat="45.94657" lon="4.84509">
        <ele>268</ele>
        <time>2017-08-11T09:29:25Z</time>
      </trkpt>
      <trkpt lat="45.94658" lon="4.84517">
        <ele>268</ele>
        <time>2017-08-11T09:29:26Z</time>
      </trkpt>
      <trkpt lat="45.94659" lon="4.84525">
        <ele>268</ele>
        <time>2017-08-11T09:29:27Z</time>
      </trkpt>
      <trkpt lat="45.9466" lon="4.84533">
        <ele>268</ele>
        <time>2017-08-11T09:29:28Z</time>
      </trkpt>
      <trkpt lat="45.94661" lon="4.8454">
        <ele>268</ele>
        <time>2017-08-11T09:29:29Z</time>
      </trkpt>
      <trkpt lat="45.94661" lon="4.84548">
        <ele>268</ele>
        <time>2017-08-11T09:29:30Z</time>
      </trkpt>
      <trkpt lat="45.94662" lon="4.84555">
        <ele>268</ele>
        <time>2017-08-11T09:29:31Z</time>
      </trkpt>
      <trkpt lat="45.94662" lon="4.84562">
        <ele>268</ele>
        <time>2017-08-11T09:29:32Z</time>
      </trkpt>
      <trkpt lat="45.94663" lon="4.84569">
        <ele>268</ele>
        <time>2017-08-11T09:29:33Z</time>
      </trkpt>
      <trkpt lat="45.94663" lon="4.84576">
        <ele>268</ele>
        <time>2017-08-11T09:29:34Z</time>
      </trkpt>
      <trkpt lat="45.94663" lon="4.84584">
        <ele>268</ele>
        <time>2017-08-11T09:29:35Z</time>
      </trkpt>
      <trkpt lat="45.94663" lon="4.84591">
        <ele>268</ele>
        <time>2017-08-11T09:29:36Z</time>
      </trkpt>
      <trkpt lat="45.94664" lon="4.84599">
        <ele>268</ele>
        <time>2017-08-11T09:29:37Z</time>
      </trkpt>
      <trkpt lat="45.94664" lon="4.84607">
        <ele>268</ele>
        <time>2017-08-11T09:29:38Z</time>
      </trkpt>
      <trkpt lat="45.94664" lon="4.84616">
        <ele>268</ele>
        <time>2017-08-11T09:29:39Z</time>
      </trkpt>
      <trkpt lat="45.94665" lon="4.84624">
        <ele>268</ele>
        <time>2017-08-11T09:29:40Z</time>
      </trkpt>
      <trkpt lat="45.94665" lon="4.84632">
        <ele>268</ele>
        <time>2017-08-11T09:29:41Z</time>
      </trkpt>
      <trkpt lat="45.94665" lon="4.8464">
        <ele>268</ele>
        <time>2017-08-11T09:29:42Z</time>
      </trkpt>
      <trkpt lat="45.94665" lon="4.84648">
        <ele>268</ele>
        <time>2017-08-11T09:29:43Z</time>
      </trkpt>
      <trkpt lat="45.94666" lon="4.84655">
        <ele>269</ele>
        <time>2017-08-11T09:29:44Z</time>
      </trkpt>
      <trkpt lat="45.94666" lon="4.84663">
        <ele>269</ele>
        <time>2017-08-11T09:29:45Z</time>
      </trkpt>
      <trkpt lat="45.94666" lon="4.8467">
        <ele>269</ele>
        <time>2017-08-11T09:29:46Z</time>
      </trkpt>
      <trkpt lat="45.94667" lon="4.84677">
        <ele>269</ele>
        <time>2017-08-11T09:29:47Z</time>
      </trkpt>
      <trkpt lat="45.94667" lon="4.84683">
        <ele>269</ele>
        <time>2017-08-11T09:29:48Z</time>
      </trkpt>
      <trkpt lat="45.94667" lon="4.8469">
        <ele>269</ele>
        <time>2017-08-11T09:29:49Z</time>
      </trkpt>
      <trkpt lat="45.94668" lon="4.84703">
        <ele>269</ele>
        <time>2017-08-11T09:29:51Z</time>
      </trkpt>
      <trkpt lat="45.94668" lon="4.8471">
        <ele>269</ele>
        <time>2017-08-11T09:29:52Z</time>
      </trkpt>
      <trkpt lat="45.94668" lon="4.84717">
        <ele>269</ele>
        <time>2017-08-11T09:29:53Z</time>
      </trkpt>
      <trkpt lat="45.94668" lon="4.84725">
        <ele>269</ele>
        <time>2017-08-11T09:29:54Z</time>
      </trkpt>
      <trkpt lat="45.94668" lon="4.84733">
        <ele>269</ele>
        <time>2017-08-11T09:29:55Z</time>
      </trkpt>
      <trkpt lat="45.94668" lon="4.84741">
        <ele>269</ele>
        <time>2017-08-11T09:29:56Z</time>
      </trkpt>
      <trkpt lat="45.94668" lon="4.84749">
        <ele>269</ele>
        <time>2017-08-11T09:29:57Z</time>
      </trkpt>
      <trkpt lat="45.94669" lon="4.84758">
        <ele>269</ele>
        <time>2017-08-11T09:29:58Z</time>
      </trkpt>
      <trkpt lat="45.9467" lon="4.84767">
        <ele>269</ele>
        <time>2017-08-11T09:29:59Z</time>
      </trkpt>
      <trkpt lat="45.9467" lon="4.84776">
        <ele>269</ele>
        <time>2017-08-11T09:30:00Z</time>
      </trkpt>
      <trkpt lat="45.94671" lon="4.84786">
        <ele>269</ele>
        <time>2017-08-11T09:30:01Z</time>
      </trkpt>
      <trkpt lat="45.94672" lon="4.84796">
        <ele>268</ele>
        <time>2017-08-11T09:30:02Z</time>
      </trkpt>
      <trkpt lat="45.94673" lon="4.84806">
        <ele>268</ele>
        <time>2017-08-11T09:30:03Z</time>
      </trkpt>
      <trkpt lat="45.94674" lon="4.84815">
        <ele>268</ele>
        <time>2017-08-11T09:30:04Z</time>
      </trkpt>
      <trkpt lat="45.94674" lon="4.84825">
        <ele>268</ele>
        <time>2017-08-11T09:30:05Z</time>
      </trkpt>
      <trkpt lat="45.94675" lon="4.84834">
        <ele>268</ele>
        <time>2017-08-11T09:30:06Z</time>
      </trkpt>
      <trkpt lat="45.94676" lon="4.84844">
        <ele>268</ele>
        <time>2017-08-11T09:30:07Z</time>
      </trkpt>
      <trkpt lat="45.94677" lon="4.84852">
        <ele>268</ele>
        <time>2017-08-11T09:30:08Z</time>
      </trkpt>
      <trkpt lat="45.94679" lon="4.84861">
        <ele>268</ele>
        <time>2017-08-11T09:30:09Z</time>
      </trkpt>
      <trkpt lat="45.94679" lon="4.84869">
        <ele>268</ele>
        <time>2017-08-11T09:30:10Z</time>
      </trkpt>
      <trkpt lat="45.9468" lon="4.84877">
        <ele>268</ele>
        <time>2017-08-11T09:30:11Z</time>
      </trkpt>
      <trkpt lat="45.94681" lon="4.84885">
        <ele>268</ele>
        <time>2017-08-11T09:30:12Z</time>
      </trkpt>
      <trkpt lat="45.94682" lon="4.84892">
        <ele>268</ele>
        <time>2017-08-11T09:30:13Z</time>
      </trkpt>
      <trkpt lat="45.94683" lon="4.84899">
        <ele>269</ele>
        <time>2017-08-11T09:30:14Z</time>
      </trkpt>
      <trkpt lat="45.94684" lon="4.84906">
        <ele>269</ele>
        <time>2017-08-11T09:30:15Z</time>
      </trkpt>
      <trkpt lat="45.94684" lon="4.84913">
        <ele>269</ele>
        <time>2017-08-11T09:30:16Z</time>
      </trkpt>
      <trkpt lat="45.94685" lon="4.84921">
        <ele>269</ele>
        <time>2017-08-11T09:30:17Z</time>
      </trkpt>
      <trkpt lat="45.94686" lon="4.84929">
        <ele>269</ele>
        <time>2017-08-11T09:30:18Z</time>
      </trkpt>
      <trkpt lat="45.94686" lon="4.84937">
        <ele>269</ele>
        <time>2017-08-11T09:30:19Z</time>
      </trkpt>
      <trkpt lat="45.94687" lon="4.84945">
        <ele>269</ele>
        <time>2017-08-11T09:30:20Z</time>
      </trkpt>
      <trkpt lat="45.94687" lon="4.84954">
        <ele>269</ele>
        <time>2017-08-11T09:30:21Z</time>
      </trkpt>
      <trkpt lat="45.94688" lon="4.84963">
        <ele>269</ele>
        <time>2017-08-11T09:30:22Z</time>
      </trkpt>
      <trkpt lat="45.94689" lon="4.84971">
        <ele>269</ele>
        <time>2017-08-11T09:30:23Z</time>
      </trkpt>
      <trkpt lat="45.9469" lon="4.8498">
        <ele>269</ele>
        <time>2017-08-11T09:30:24Z</time>
      </trkpt>
      <trkpt lat="45.94691" lon="4.84988">
        <ele>269</ele>
        <time>2017-08-11T09:30:25Z</time>
      </trkpt>
      <trkpt lat="45.94691" lon="4.84996">
        <ele>269</ele>
        <time>2017-08-11T09:30:26Z</time>
      </trkpt>
      <trkpt lat="45.94692" lon="4.85004">
        <ele>269</ele>
        <time>2017-08-11T09:30:27Z</time>
      </trkpt>
      <trkpt lat="45.94694" lon="4.85011">
        <ele>269</ele>
        <time>2017-08-11T09:30:28Z</time>
      </trkpt>
      <trkpt lat="45.94695" lon="4.85019">
        <ele>269</ele>
        <time>2017-08-11T09:30:29Z</time>
      </trkpt>
      <trkpt lat="45.94696" lon="4.85026">
        <ele>269</ele>
        <time>2017-08-11T09:30:30Z</time>
      </trkpt>
      <trkpt lat="45.94697" lon="4.85034">
        <ele>269</ele>
        <time>2017-08-11T09:30:31Z</time>
      </trkpt>
      <trkpt lat="45.94698" lon="4.85041">
        <ele>269</ele>
        <time>2017-08-11T09:30:32Z</time>
      </trkpt>
      <trkpt lat="45.94698" lon="4.8505">
        <ele>269</ele>
        <time>2017-08-11T09:30:33Z</time>
      </trkpt>
      <trkpt lat="45.94699" lon="4.85059">
        <ele>269</ele>
        <time>2017-08-11T09:30:34Z</time>
      </trkpt>
      <trkpt lat="45.947" lon="4.85067">
        <ele>269</ele>
        <time>2017-08-11T09:30:35Z</time>
      </trkpt>
      <trkpt lat="45.94701" lon="4.85076">
        <ele>269</ele>
        <time>2017-08-11T09:30:36Z</time>
      </trkpt>
      <trkpt lat="45.94702" lon="4.85084">
        <ele>269</ele>
        <time>2017-08-11T09:30:37Z</time>
      </trkpt>
      <trkpt lat="45.94704" lon="4.85093">
        <ele>269</ele>
        <time>2017-08-11T09:30:38Z</time>
      </trkpt>
      <trkpt lat="45.94705" lon="4.85101">
        <ele>269</ele>
        <time>2017-08-11T09:30:39Z</time>
      </trkpt>
      <trkpt lat="45.94706" lon="4.85109">
        <ele>269</ele>
        <time>2017-08-11T09:30:40Z</time>
      </trkpt>
      <trkpt lat="45.94707" lon="4.85117">
        <ele>269</ele>
        <time>2017-08-11T09:30:41Z</time>
      </trkpt>
      <trkpt lat="45.94707" lon="4.85125">
        <ele>269</ele>
        <time>2017-08-11T09:30:42Z</time>
      </trkpt>
      <trkpt lat="45.94709" lon="4.85132">
        <ele>269</ele>
        <time>2017-08-11T09:30:43Z</time>
      </trkpt>
      <trkpt lat="45.9471" lon="4.85139">
        <ele>269</ele>
        <time>2017-08-11T09:30:44Z</time>
      </trkpt>
      <trkpt lat="45.9471" lon="4.85146">
        <ele>269</ele>
        <time>2017-08-11T09:30:45Z</time>
      </trkpt>
      <trkpt lat="45.94711" lon="4.85153">
        <ele>269</ele>
        <time>2017-08-11T09:30:46Z</time>
      </trkpt>
      <trkpt lat="45.94713" lon="4.85165">
        <ele>269</ele>
        <time>2017-08-11T09:30:48Z</time>
      </trkpt>
      <trkpt lat="45.94714" lon="4.85171">
        <ele>269</ele>
        <time>2017-08-11T09:30:49Z</time>
      </trkpt>
      <trkpt lat="45.94715" lon="4.85178">
        <ele>269</ele>
        <time>2017-08-11T09:30:50Z</time>
      </trkpt>
      <trkpt lat="45.94715" lon="4.85184">
        <ele>269</ele>
        <time>2017-08-11T09:30:51Z</time>
      </trkpt>
      <trkpt lat="45.94715" lon="4.85192">
        <ele>269</ele>
        <time>2017-08-11T09:30:52Z</time>
      </trkpt>
      <trkpt lat="45.94716" lon="4.852">
        <ele>269</ele>
        <time>2017-08-11T09:30:53Z</time>
      </trkpt>
      <trkpt lat="45.94717" lon="4.85208">
        <ele>269</ele>
        <time>2017-08-11T09:30:54Z</time>
      </trkpt>
      <trkpt lat="45.94718" lon="4.85216">
        <ele>269</ele>
        <time>2017-08-11T09:30:55Z</time>
      </trkpt>
      <trkpt lat="45.94719" lon="4.85225">
        <ele>269</ele>
        <time>2017-08-11T09:30:56Z</time>
      </trkpt>
      <trkpt lat="45.9472" lon="4.85233">
        <ele>269</ele>
        <time>2017-08-11T09:30:57Z</time>
      </trkpt>
      <trkpt lat="45.94721" lon="4.85241">
        <ele>269</ele>
        <time>2017-08-11T09:30:58Z</time>
      </trkpt>
      <trkpt lat="45.94722" lon="4.85248">
        <ele>269</ele>
        <time>2017-08-11T09:30:59Z</time>
      </trkpt>
      <trkpt lat="45.94723" lon="4.85256">
        <ele>269</ele>
        <time>2017-08-11T09:31:00Z</time>
      </trkpt>
      <trkpt lat="45.94723" lon="4.85263">
        <ele>269</ele>
        <time>2017-08-11T09:31:01Z</time>
      </trkpt>
      <trkpt lat="45.94724" lon="4.85269">
        <ele>269</ele>
        <time>2017-08-11T09:31:02Z</time>
      </trkpt>
      <trkpt lat="45.94725" lon="4.85276">
        <ele>269</ele>
        <time>2017-08-11T09:31:03Z</time>
      </trkpt>
      <trkpt lat="45.94727" lon="4.85282">
        <ele>269</ele>
        <time>2017-08-11T09:31:04Z</time>
      </trkpt>
      <trkpt lat="45.94727" lon="4.85288">
        <ele>269</ele>
        <time>2017-08-11T09:31:05Z</time>
      </trkpt>
      <trkpt lat="45.94728" lon="4.85296">
        <ele>270</ele>
        <time>2017-08-11T09:31:06Z</time>
      </trkpt>
      <trkpt lat="45.94729" lon="4.85303">
        <ele>270</ele>
        <time>2017-08-11T09:31:07Z</time>
      </trkpt>
      <trkpt lat="45.9473" lon="4.85311">
        <ele>270</ele>
        <time>2017-08-11T09:31:08Z</time>
      </trkpt>
      <trkpt lat="45.94731" lon="4.8532">
        <ele>270</ele>
        <time>2017-08-11T09:31:09Z</time>
      </trkpt>
      <trkpt lat="45.94731" lon="4.85329">
        <ele>270</ele>
        <time>2017-08-11T09:31:10Z</time>
      </trkpt>
      <trkpt lat="45.94732" lon="4.85337">
        <ele>271</ele>
        <time>2017-08-11T09:31:11Z</time>
      </trkpt>
      <trkpt lat="45.94733" lon="4.85345">
        <ele>271</ele>
        <time>2017-08-11T09:31:12Z</time>
      </trkpt>
      <trkpt lat="45.94733" lon="4.85353">
        <ele>271</ele>
        <time>2017-08-11T09:31:13Z</time>
      </trkpt>
      <trkpt lat="45.94734" lon="4.8536">
        <ele>271</ele>
        <time>2017-08-11T09:31:14Z</time>
      </trkpt>
      <trkpt lat="45.94735" lon="4.85367">
        <ele>271</ele>
        <time>2017-08-11T09:31:15Z</time>
      </trkpt>
      <trkpt lat="45.94735" lon="4.85374">
        <ele>271</ele>
        <time>2017-08-11T09:31:16Z</time>
      </trkpt>
      <trkpt lat="45.94736" lon="4.8538">
        <ele>271</ele>
        <time>2017-08-11T09:31:17Z</time>
      </trkpt>
      <trkpt lat="45.94736" lon="4.85387">
        <ele>272</ele>
        <time>2017-08-11T09:31:18Z</time>
      </trkpt>
      <trkpt lat="45.94736" lon="4.85394">
        <ele>272</ele>
        <time>2017-08-11T09:31:19Z</time>
      </trkpt>
      <trkpt lat="45.94737" lon="4.85402">
        <ele>272</ele>
        <time>2017-08-11T09:31:20Z</time>
      </trkpt>
      <trkpt lat="45.94738" lon="4.85409">
        <ele>272</ele>
        <time>2017-08-11T09:31:21Z</time>
      </trkpt>
      <trkpt lat="45.94738" lon="4.85416">
        <ele>272</ele>
        <time>2017-08-11T09:31:22Z</time>
      </trkpt>
      <trkpt lat="45.94739" lon="4.85424">
        <ele>273</ele>
        <time>2017-08-11T09:31:23Z</time>
      </trkpt>
      <trkpt lat="45.94739" lon="4.85431">
        <ele>273</ele>
        <time>2017-08-11T09:31:24Z</time>
      </trkpt>
      <trkpt lat="45.94739" lon="4.85438">
        <ele>274</ele>
        <time>2017-08-11T09:31:25Z</time>
      </trkpt>
      <trkpt lat="45.9474" lon="4.85446">
        <ele>274</ele>
        <time>2017-08-11T09:31:26Z</time>
      </trkpt>
      <trkpt lat="45.94741" lon="4.85453">
        <ele>274</ele>
        <time>2017-08-11T09:31:27Z</time>
      </trkpt>
      <trkpt lat="45.94742" lon="4.8546">
        <ele>274</ele>
        <time>2017-08-11T09:31:28Z</time>
      </trkpt>
      <trkpt lat="45.94742" lon="4.85468">
        <ele>274</ele>
        <time>2017-08-11T09:31:29Z</time>
      </trkpt>
      <trkpt lat="45.94743" lon="4.85475">
        <ele>274</ele>
        <time>2017-08-11T09:31:30Z</time>
      </trkpt>
      <trkpt lat="45.94743" lon="4.85482">
        <ele>275</ele>
        <time>2017-08-11T09:31:31Z</time>
      </trkpt>
      <trkpt lat="45.94744" lon="4.85489">
        <ele>275</ele>
        <time>2017-08-11T09:31:32Z</time>
      </trkpt>
      <trkpt lat="45.94745" lon="4.85497">
        <ele>276</ele>
        <time>2017-08-11T09:31:33Z</time>
      </trkpt>
      <trkpt lat="45.94746" lon="4.85504">
        <ele>276</ele>
        <time>2017-08-11T09:31:34Z</time>
      </trkpt>
      <trkpt lat="45.94747" lon="4.85512">
        <ele>276</ele>
        <time>2017-08-11T09:31:35Z</time>
      </trkpt>
      <trkpt lat="45.94748" lon="4.8552">
        <ele>276</ele>
        <time>2017-08-11T09:31:36Z</time>
      </trkpt>
      <trkpt lat="45.94749" lon="4.85527">
        <ele>276</ele>
        <time>2017-08-11T09:31:37Z</time>
      </trkpt>
      <trkpt lat="45.94751" lon="4.85535">
        <ele>278</ele>
        <time>2017-08-11T09:31:38Z</time>
      </trkpt>
      <trkpt lat="45.94753" lon="4.85542">
        <ele>278</ele>
        <time>2017-08-11T09:31:39Z</time>
      </trkpt>
      <trkpt lat="45.94754" lon="4.85549">
        <ele>278</ele>
        <time>2017-08-11T09:31:40Z</time>
      </trkpt>
      <trkpt lat="45.94755" lon="4.85556">
        <ele>278</ele>
        <time>2017-08-11T09:31:41Z</time>
      </trkpt>
      <trkpt lat="45.94757" lon="4.85564">
        <ele>279</ele>
        <time>2017-08-11T09:31:42Z</time>
      </trkpt>
      <trkpt lat="45.94759" lon="4.85571">
        <ele>279</ele>
        <time>2017-08-11T09:31:43Z</time>
      </trkpt>
      <trkpt lat="45.94761" lon="4.85579">
        <ele>279</ele>
        <time>2017-08-11T09:31:44Z</time>
      </trkpt>
      <trkpt lat="45.94762" lon="4.85586">
        <ele>280</ele>
        <time>2017-08-11T09:31:45Z</time>
      </trkpt>
      <trkpt lat="45.94764" lon="4.85594">
        <ele>280</ele>
        <time>2017-08-11T09:31:46Z</time>
      </trkpt>
      <trkpt lat="45.94765" lon="4.85601">
        <ele>280</ele>
        <time>2017-08-11T09:31:47Z</time>
      </trkpt>
      <trkpt lat="45.94767" lon="4.85609">
        <ele>280</ele>
        <time>2017-08-11T09:31:48Z</time>
      </trkpt>
      <trkpt lat="45.94768" lon="4.85616">
        <ele>280</ele>
        <time>2017-08-11T09:31:49Z</time>
      </trkpt>
      <trkpt lat="45.9477" lon="4.85624">
        <ele>280</ele>
        <time>2017-08-11T09:31:50Z</time>
      </trkpt>
      <trkpt lat="45.94772" lon="4.85631">
        <ele>280</ele>
        <time>2017-08-11T09:31:51Z</time>
      </trkpt>
      <trkpt lat="45.94773" lon="4.85638">
        <ele>281</ele>
        <time>2017-08-11T09:31:52Z</time>
      </trkpt>
      <trkpt lat="45.94775" lon="4.85645">
        <ele>281</ele>
        <time>2017-08-11T09:31:53Z</time>
      </trkpt>
      <trkpt lat="45.94777" lon="4.85652">
        <ele>281</ele>
        <time>2017-08-11T09:31:54Z</time>
      </trkpt>
      <trkpt lat="45.94778" lon="4.85658">
        <ele>281</ele>
        <time>2017-08-11T09:31:55Z</time>
      </trkpt>
      <trkpt lat="45.9478" lon="4.85664">
        <ele>281</ele>
        <time>2017-08-11T09:31:56Z</time>
      </trkpt>
      <trkpt lat="45.94782" lon="4.8567">
        <ele>280</ele>
        <time>2017-08-11T09:31:57Z</time>
      </trkpt>
      <trkpt lat="45.94785" lon="4.85681">
        <ele>280</ele>
        <time>2017-08-11T09:31:59Z</time>
      </trkpt>
      <trkpt lat="45.94786" lon="4.85687">
        <ele>280</ele>
        <time>2017-08-11T09:32:00Z</time>
      </trkpt>
      <trkpt lat="45.94788" lon="4.85693">
        <ele>280</ele>
        <time>2017-08-11T09:32:01Z</time>
      </trkpt>
      <trkpt lat="45.9479" lon="4.85699">
        <ele>280</ele>
        <time>2017-08-11T09:32:02Z</time>
      </trkpt>
      <trkpt lat="45.94792" lon="4.85706">
        <ele>280</ele>
        <time>2017-08-11T09:32:03Z</time>
      </trkpt>
      <trkpt lat="45.94793" lon="4.85712">
        <ele>280</ele>
        <time>2017-08-11T09:32:04Z</time>
      </trkpt>
      <trkpt lat="45.94795" lon="4.85718">
        <ele>280</ele>
        <time>2017-08-11T09:32:05Z</time>
      </trkpt>
      <trkpt lat="45.94797" lon="4.85725">
        <ele>280</ele>
        <time>2017-08-11T09:32:06Z</time>
      </trkpt>
      <trkpt lat="45.94799" lon="4.85731">
        <ele>280</ele>
        <time>2017-08-11T09:32:07Z</time>
      </trkpt>
      <trkpt lat="45.94801" lon="4.85737">
        <ele>280</ele>
        <time>2017-08-11T09:32:08Z</time>
      </trkpt>
      <trkpt lat="45.94803" lon="4.85744">
        <ele>279</ele>
        <time>2017-08-11T09:32:09Z</time>
      </trkpt>
      <trkpt lat="45.94805" lon="4.8575">
        <ele>278</ele>
        <time>2017-08-11T09:32:10Z</time>
      </trkpt>
      <trkpt lat="45.94807" lon="4.85757">
        <ele>278</ele>
        <time>2017-08-11T09:32:11Z</time>
      </trkpt>
      <trkpt lat="45.94808" lon="4.85765">
        <ele>278</ele>
        <time>2017-08-11T09:32:12Z</time>
      </trkpt>
      <trkpt lat="45.9481" lon="4.85772">
        <ele>278</ele>
        <time>2017-08-11T09:32:13Z</time>
      </trkpt>
      <trkpt lat="45.94812" lon="4.8578">
        <ele>278</ele>
        <time>2017-08-11T09:32:14Z</time>
      </trkpt>
      <trkpt lat="45.94814" lon="4.85787">
        <ele>278</ele>
        <time>2017-08-11T09:32:15Z</time>
      </trkpt>
      <trkpt lat="45.94816" lon="4.85795">
        <ele>278</ele>
        <time>2017-08-11T09:32:16Z</time>
      </trkpt>
      <trkpt lat="45.94818" lon="4.85802">
        <ele>278</ele>
        <time>2017-08-11T09:32:17Z</time>
      </trkpt>
      <trkpt lat="45.9482" lon="4.85809">
        <ele>278</ele>
        <time>2017-08-11T09:32:18Z</time>
      </trkpt>
      <trkpt lat="45.94822" lon="4.85817">
        <ele>278</ele>
        <time>2017-08-11T09:32:19Z</time>
      </trkpt>
      <trkpt lat="45.94824" lon="4.85824">
        <ele>278</ele>
        <time>2017-08-11T09:32:20Z</time>
      </trkpt>
      <trkpt lat="45.94826" lon="4.85831">
        <ele>277</ele>
        <time>2017-08-11T09:32:21Z</time>
      </trkpt>
      <trkpt lat="45.94828" lon="4.85838">
        <ele>277</ele>
        <time>2017-08-11T09:32:22Z</time>
      </trkpt>
      <trkpt lat="45.9483" lon="4.85845">
        <ele>277</ele>
        <time>2017-08-11T09:32:23Z</time>
      </trkpt>
      <trkpt lat="45.94832" lon="4.85853">
        <ele>277</ele>
        <time>2017-08-11T09:32:24Z</time>
      </trkpt>
      <trkpt lat="45.94834" lon="4.8586">
        <ele>276</ele>
        <time>2017-08-11T09:32:25Z</time>
      </trkpt>
      <trkpt lat="45.94836" lon="4.85867">
        <ele>276</ele>
        <time>2017-08-11T09:32:26Z</time>
      </trkpt>
      <trkpt lat="45.94837" lon="4.85874">
        <ele>276</ele>
        <time>2017-08-11T09:32:27Z</time>
      </trkpt>
      <trkpt lat="45.94839" lon="4.85881">
        <ele>276</ele>
        <time>2017-08-11T09:32:28Z</time>
      </trkpt>
      <trkpt lat="45.94841" lon="4.85889">
        <ele>276</ele>
        <time>2017-08-11T09:32:29Z</time>
      </trkpt>
      <trkpt lat="45.94843" lon="4.85896">
        <ele>276</ele>
        <time>2017-08-11T09:32:30Z</time>
      </trkpt>
      <trkpt lat="45.94844" lon="4.85903">
        <ele>276</ele>
        <time>2017-08-11T09:32:31Z</time>
      </trkpt>
      <trkpt lat="45.94846" lon="4.85911">
        <ele>275</ele>
        <time>2017-08-11T09:32:32Z</time>
      </trkpt>
      <trkpt lat="45.94848" lon="4.85918">
        <ele>275</ele>
        <time>2017-08-11T09:32:33Z</time>
      </trkpt>
      <trkpt lat="45.9485" lon="4.85925">
        <ele>275</ele>
        <time>2017-08-11T09:32:34Z</time>
      </trkpt>
      <trkpt lat="45.94852" lon="4.85932">
        <ele>275</ele>
        <time>2017-08-11T09:32:35Z</time>
      </trkpt>
      <trkpt lat="45.94854" lon="4.8594">
        <ele>275</ele>
        <time>2017-08-11T09:32:36Z</time>
      </trkpt>
      <trkpt lat="45.94856" lon="4.85946">
        <ele>275</ele>
        <time>2017-08-11T09:32:37Z</time>
      </trkpt>
      <trkpt lat="45.94858" lon="4.85953">
        <ele>275</ele>
        <time>2017-08-11T09:32:38Z</time>
      </trkpt>
      <trkpt lat="45.94859" lon="4.8596">
        <ele>275</ele>
        <time>2017-08-11T09:32:39Z</time>
      </trkpt>
      <trkpt lat="45.94861" lon="4.85968">
        <ele>275</ele>
        <time>2017-08-11T09:32:40Z</time>
      </trkpt>
      <trkpt lat="45.94863" lon="4.85975">
        <ele>275</ele>
        <time>2017-08-11T09:32:41Z</time>
      </trkpt>
      <trkpt lat="45.94865" lon="4.85983">
        <ele>275</ele>
        <time>2017-08-11T09:32:42Z</time>
      </trkpt>
      <trkpt lat="45.94867" lon="4.85991">
        <ele>275</ele>
        <time>2017-08-11T09:32:43Z</time>
      </trkpt>
      <trkpt lat="45.94869" lon="4.86">
        <ele>275</ele>
        <time>2017-08-11T09:32:44Z</time>
      </trkpt>
      <trkpt lat="45.94871" lon="4.86008">
        <ele>274</ele>
        <time>2017-08-11T09:32:45Z</time>
      </trkpt>
      <trkpt lat="45.94874" lon="4.86016">
        <ele>274</ele>
        <time>2017-08-11T09:32:46Z</time>
      </trkpt>
      <trkpt lat="45.94875" lon="4.86024">
        <ele>274</ele>
        <time>2017-08-11T09:32:47Z</time>
      </trkpt>
      <trkpt lat="45.94877" lon="4.86031">
        <ele>274</ele>
        <time>2017-08-11T09:32:48Z</time>
      </trkpt>
      <trkpt lat="45.94878" lon="4.86039">
        <ele>274</ele>
        <time>2017-08-11T09:32:49Z</time>
      </trkpt>
      <trkpt lat="45.9488" lon="4.86046">
        <ele>274</ele>
        <time>2017-08-11T09:32:50Z</time>
      </trkpt>
      <trkpt lat="45.94882" lon="4.86052">
        <ele>274</ele>
        <time>2017-08-11T09:32:51Z</time>
      </trkpt>
      <trkpt lat="45.94884" lon="4.86059">
        <ele>274</ele>
        <time>2017-08-11T09:32:52Z</time>
      </trkpt>
      <trkpt lat="45.94886" lon="4.86065">
        <ele>274</ele>
        <time>2017-08-11T09:32:53Z</time>
      </trkpt>
      <trkpt lat="45.94888" lon="4.86071">
        <ele>274</ele>
        <time>2017-08-11T09:32:54Z</time>
      </trkpt>
      <trkpt lat="45.9489" lon="4.86078">
        <ele>274</ele>
        <time>2017-08-11T09:32:55Z</time>
      </trkpt>
      <trkpt lat="45.94893" lon="4.86085">
        <ele>274</ele>
        <time>2017-08-11T09:32:56Z</time>
      </trkpt>
      <trkpt lat="45.94895" lon="4.86093">
        <ele>274</ele>
        <time>2017-08-11T09:32:57Z</time>
      </trkpt>
      <trkpt lat="45.94897" lon="4.861">
        <ele>274</ele>
        <time>2017-08-11T09:32:58Z</time>
      </trkpt>
      <trkpt lat="45.949" lon="4.86107">
        <ele>274</ele>
        <time>2017-08-11T09:32:59Z</time>
      </trkpt>
      <trkpt lat="45.94903" lon="4.86114">
        <ele>274</ele>
        <time>2017-08-11T09:33:00Z</time>
      </trkpt>
      <trkpt lat="45.94906" lon="4.8612">
        <ele>274</ele>
        <time>2017-08-11T09:33:01Z</time>
      </trkpt>
      <trkpt lat="45.9491" lon="4.86126">
        <ele>274</ele>
        <time>2017-08-11T09:33:02Z</time>
      </trkpt>
      <trkpt lat="45.94913" lon="4.86132">
        <ele>274</ele>
        <time>2017-08-11T09:33:03Z</time>
      </trkpt>
      <trkpt lat="45.94916" lon="4.86139">
        <ele>274</ele>
        <time>2017-08-11T09:33:04Z</time>
      </trkpt>
      <trkpt lat="45.9492" lon="4.86144">
        <ele>273</ele>
        <time>2017-08-11T09:33:05Z</time>
      </trkpt>
      <trkpt lat="45.94924" lon="4.8615">
        <ele>273</ele>
        <time>2017-08-11T09:33:06Z</time>
      </trkpt>
      <trkpt lat="45.94928" lon="4.86155">
        <ele>273</ele>
        <time>2017-08-11T09:33:07Z</time>
      </trkpt>
      <trkpt lat="45.94932" lon="4.86161">
        <ele>273</ele>
        <time>2017-08-11T09:33:08Z</time>
      </trkpt>
      <trkpt lat="45.94936" lon="4.86167">
        <ele>273</ele>
        <time>2017-08-11T09:33:09Z</time>
      </trkpt>
      <trkpt lat="45.94941" lon="4.86172">
        <ele>273</ele>
        <time>2017-08-11T09:33:10Z</time>
      </trkpt>
      <trkpt lat="45.94946" lon="4.86177">
        <ele>273</ele>
        <time>2017-08-11T09:33:11Z</time>
      </trkpt>
      <trkpt lat="45.9495" lon="4.86181">
        <ele>273</ele>
        <time>2017-08-11T09:33:12Z</time>
      </trkpt>
      <trkpt lat="45.94955" lon="4.86186">
        <ele>273</ele>
        <time>2017-08-11T09:33:13Z</time>
      </trkpt>
      <trkpt lat="45.94959" lon="4.86191">
        <ele>272</ele>
        <time>2017-08-11T09:33:14Z</time>
      </trkpt>
      <trkpt lat="45.94963" lon="4.86196">
        <ele>272</ele>
        <time>2017-08-11T09:33:15Z</time>
      </trkpt>
      <trkpt lat="45.94967" lon="4.86201">
        <ele>272</ele>
        <time>2017-08-11T09:33:16Z</time>
      </trkpt>
      <trkpt lat="45.9497" lon="4.86207">
        <ele>272</ele>
        <time>2017-08-11T09:33:17Z</time>
      </trkpt>
      <trkpt lat="45.94975" lon="4.86213">
        <ele>272</ele>
        <time>2017-08-11T09:33:18Z</time>
      </trkpt>
      <trkpt lat="45.9498" lon="4.86218">
        <ele>272</ele>
        <time>2017-08-11T09:33:19Z</time>
      </trkpt>
      <trkpt lat="45.94985" lon="4.86225">
        <ele>272</ele>
        <time>2017-08-11T09:33:20Z</time>
      </trkpt>
      <trkpt lat="45.9499" lon="4.86231">
        <ele>272</ele>
        <time>2017-08-11T09:33:21Z</time>
      </trkpt>
      <trkpt lat="45.94995" lon="4.86237">
        <ele>272</ele>
        <time>2017-08-11T09:33:22Z</time>
      </trkpt>
      <trkpt lat="45.95" lon="4.86244">
        <ele>272</ele>
        <time>2017-08-11T09:33:23Z</time>
      </trkpt>
      <trkpt lat="45.95005" lon="4.86249">
        <ele>272</ele>
        <time>2017-08-11T09:33:24Z</time>
      </trkpt>
      <trkpt lat="45.9501" lon="4.86255">
        <ele>272</ele>
        <time>2017-08-11T09:33:25Z</time>
      </trkpt>
      <trkpt lat="45.95015" lon="4.86261">
        <ele>272</ele>
        <time>2017-08-11T09:33:26Z</time>
      </trkpt>
      <trkpt lat="45.9502" lon="4.86267">
        <ele>271</ele>
        <time>2017-08-11T09:33:27Z</time>
      </trkpt>
      <trkpt lat="45.95025" lon="4.86273">
        <ele>271</ele>
        <time>2017-08-11T09:33:28Z</time>
      </trkpt>
      <trkpt lat="45.9503" lon="4.86279">
        <ele>271</ele>
        <time>2017-08-11T09:33:29Z</time>
      </trkpt>
      <trkpt lat="45.95035" lon="4.86286">
        <ele>271</ele>
        <time>2017-08-11T09:33:30Z</time>
      </trkpt>
      <trkpt lat="45.9504" lon="4.86292">
        <ele>271</ele>
        <time>2017-08-11T09:33:31Z</time>
      </trkpt>
      <trkpt lat="45.95045" lon="4.86298">
        <ele>271</ele>
        <time>2017-08-11T09:33:32Z</time>
      </trkpt>
      <trkpt lat="45.9505" lon="4.86305">
        <ele>271</ele>
        <time>2017-08-11T09:33:33Z</time>
      </trkpt>
      <trkpt lat="45.95055" lon="4.86311">
        <ele>271</ele>
        <time>2017-08-11T09:33:34Z</time>
      </trkpt>
      <trkpt lat="45.9506" lon="4.86317">
        <ele>270</ele>
        <time>2017-08-11T09:33:35Z</time>
      </trkpt>
      <trkpt lat="45.95065" lon="4.86323">
        <ele>270</ele>
        <time>2017-08-11T09:33:36Z</time>
      </trkpt>
      <trkpt lat="45.9507" lon="4.86329">
        <ele>270</ele>
        <time>2017-08-11T09:33:37Z</time>
      </trkpt>
      <trkpt lat="45.95075" lon="4.86336">
        <ele>270</ele>
        <time>2017-08-11T09:33:38Z</time>
      </trkpt>
      <trkpt lat="45.9508" lon="4.86341">
        <ele>270</ele>
        <time>2017-08-11T09:33:39Z</time>
      </trkpt>
      <trkpt lat="45.95085" lon="4.86347">
        <ele>269</ele>
        <time>2017-08-11T09:33:40Z</time>
      </trkpt>
      <trkpt lat="45.9509" lon="4.86352">
        <ele>269</ele>
        <time>2017-08-11T09:33:41Z</time>
      </trkpt>
      <trkpt lat="45.95094" lon="4.86358">
        <ele>269</ele>
        <time>2017-08-11T09:33:42Z</time>
      </trkpt>
      <trkpt lat="45.95099" lon="4.86364">
        <ele>269</ele>
        <time>2017-08-11T09:33:43Z</time>
      </trkpt>
      <trkpt lat="45.95104" lon="4.86369">
        <ele>269</ele>
        <time>2017-08-11T09:33:44Z</time>
      </trkpt>
      <trkpt lat="45.95108" lon="4.86375">
        <ele>269</ele>
        <time>2017-08-11T09:33:45Z</time>
      </trkpt>
      <trkpt lat="45.95112" lon="4.8638">
        <ele>269</ele>
        <time>2017-08-11T09:33:46Z</time>
      </trkpt>
      <trkpt lat="45.95116" lon="4.86386">
        <ele>269</ele>
        <time>2017-08-11T09:33:47Z</time>
      </trkpt>
      <trkpt lat="45.9512" lon="4.86391">
        <ele>269</ele>
        <time>2017-08-11T09:33:48Z</time>
      </trkpt>
      <trkpt lat="45.95124" lon="4.86396">
        <ele>269</ele>
        <time>2017-08-11T09:33:49Z</time>
      </trkpt>
      <trkpt lat="45.95128" lon="4.86401">
        <ele>268</ele>
        <time>2017-08-11T09:33:50Z</time>
      </trkpt>
      <trkpt lat="45.95132" lon="4.86406">
        <ele>268</ele>
        <time>2017-08-11T09:33:51Z</time>
      </trkpt>
      <trkpt lat="45.95136" lon="4.86411">
        <ele>268</ele>
        <time>2017-08-11T09:33:52Z</time>
      </trkpt>
      <trkpt lat="45.95141" lon="4.86416">
        <ele>268</ele>
        <time>2017-08-11T09:33:53Z</time>
      </trkpt>
      <trkpt lat="45.95145" lon="4.8642">
        <ele>268</ele>
        <time>2017-08-11T09:33:54Z</time>
      </trkpt>
      <trkpt lat="45.95149" lon="4.86425">
        <ele>268</ele>
        <time>2017-08-11T09:33:55Z</time>
      </trkpt>
      <trkpt lat="45.95154" lon="4.8643">
        <ele>268</ele>
        <time>2017-08-11T09:33:56Z</time>
      </trkpt>
      <trkpt lat="45.95159" lon="4.86436">
        <ele>268</ele>
        <time>2017-08-11T09:33:57Z</time>
      </trkpt>
      <trkpt lat="45.95163" lon="4.86442">
        <ele>268</ele>
        <time>2017-08-11T09:33:58Z</time>
      </trkpt>
      <trkpt lat="45.95168" lon="4.86448">
        <ele>268</ele>
        <time>2017-08-11T09:33:59Z</time>
      </trkpt>
      <trkpt lat="45.95173" lon="4.86454">
        <ele>268</ele>
        <time>2017-08-11T09:34:00Z</time>
      </trkpt>
      <trkpt lat="45.95177" lon="4.8646">
        <ele>268</ele>
        <time>2017-08-11T09:34:01Z</time>
      </trkpt>
      <trkpt lat="45.95182" lon="4.86466">
        <ele>268</ele>
        <time>2017-08-11T09:34:02Z</time>
      </trkpt>
      <trkpt lat="45.95187" lon="4.86472">
        <ele>268</ele>
        <time>2017-08-11T09:34:03Z</time>
      </trkpt>
      <trkpt lat="45.95193" lon="4.86478">
        <ele>268</ele>
        <time>2017-08-11T09:34:04Z</time>
      </trkpt>
      <trkpt lat="45.95198" lon="4.86484">
        <ele>268</ele>
        <time>2017-08-11T09:34:05Z</time>
      </trkpt>
      <trkpt lat="45.95203" lon="4.86491">
        <ele>268</ele>
        <time>2017-08-11T09:34:06Z</time>
      </trkpt>
      <trkpt lat="45.95209" lon="4.86498">
        <ele>268</ele>
        <time>2017-08-11T09:34:07Z</time>
      </trkpt>
      <trkpt lat="45.95215" lon="4.86504">
        <ele>268</ele>
        <time>2017-08-11T09:34:08Z</time>
      </trkpt>
      <trkpt lat="45.9522" lon="4.86511">
        <ele>268</ele>
        <time>2017-08-11T09:34:09Z</time>
      </trkpt>
      <trkpt lat="45.95226" lon="4.86516">
        <ele>268</ele>
        <time>2017-08-11T09:34:10Z</time>
      </trkpt>
      <trkpt lat="45.95231" lon="4.86523">
        <ele>268</ele>
        <time>2017-08-11T09:34:11Z</time>
      </trkpt>
      <trkpt lat="45.95237" lon="4.86529">
        <ele>268</ele>
        <time>2017-08-11T09:34:12Z</time>
      </trkpt>
      <trkpt lat="45.95243" lon="4.86536">
        <ele>268</ele>
        <time>2017-08-11T09:34:13Z</time>
      </trkpt>
      <trkpt lat="45.95248" lon="4.86542">
        <ele>268</ele>
        <time>2017-08-11T09:34:14Z</time>
      </trkpt>
      <trkpt lat="45.95252" lon="4.86548">
        <ele>267</ele>
        <time>2017-08-11T09:34:15Z</time>
      </trkpt>
      <trkpt lat="45.95256" lon="4.86553">
        <ele>267</ele>
        <time>2017-08-11T09:34:16Z</time>
      </trkpt>
      <trkpt lat="45.95259" lon="4.86565">
        <ele>267</ele>
        <time>2017-08-11T09:34:18Z</time>
      </trkpt>
      <trkpt lat="45.95258" lon="4.86572">
        <ele>267</ele>
        <time>2017-08-11T09:34:19Z</time>
      </trkpt>
      <trkpt lat="45.95255" lon="4.86579">
        <ele>268</ele>
        <time>2017-08-11T09:34:20Z</time>
      </trkpt>
      <trkpt lat="45.9525" lon="4.86582">
        <ele>268</ele>
        <time>2017-08-11T09:34:21Z</time>
      </trkpt>
      <trkpt lat="45.95242" lon="4.86584">
        <ele>268</ele>
        <time>2017-08-11T09:34:23Z</time>
      </trkpt>
      <trkpt lat="45.95238" lon="4.86583">
        <ele>268</ele>
        <time>2017-08-11T09:34:24Z</time>
      </trkpt>
      <trkpt lat="45.95229" lon="4.86581">
        <ele>268</ele>
        <time>2017-08-11T09:34:26Z</time>
      </trkpt>
      <trkpt lat="45.95224" lon="4.8658">
        <ele>268</ele>
        <time>2017-08-11T09:34:27Z</time>
      </trkpt>
      <trkpt lat="45.9522" lon="4.8658">
        <ele>268</ele>
        <time>2017-08-11T09:34:28Z</time>
      </trkpt>
      <trkpt lat="45.95215" lon="4.86579">
        <ele>268</ele>
        <time>2017-08-11T09:34:29Z</time>
      </trkpt>
      <trkpt lat="45.95211" lon="4.86578">
        <ele>268</ele>
        <time>2017-08-11T09:34:30Z</time>
      </trkpt>
      <trkpt lat="45.95206" lon="4.86577">
        <ele>268</ele>
        <time>2017-08-11T09:34:31Z</time>
      </trkpt>
      <trkpt lat="45.95201" lon="4.86576">
        <ele>268</ele>
        <time>2017-08-11T09:34:32Z</time>
      </trkpt>
      <trkpt lat="45.95196" lon="4.86576">
        <ele>268</ele>
        <time>2017-08-11T09:34:33Z</time>
      </trkpt>
      <trkpt lat="45.95191" lon="4.86576">
        <ele>269</ele>
        <time>2017-08-11T09:34:34Z</time>
      </trkpt>
      <trkpt lat="45.95185" lon="4.86576">
        <ele>269</ele>
        <time>2017-08-11T09:34:35Z</time>
      </trkpt>
      <trkpt lat="45.9518" lon="4.86576">
        <ele>269</ele>
        <time>2017-08-11T09:34:36Z</time>
      </trkpt>
      <trkpt lat="45.95175" lon="4.86577">
        <ele>269</ele>
        <time>2017-08-11T09:34:37Z</time>
      </trkpt>
      <trkpt lat="45.9517" lon="4.86577">
        <ele>269</ele>
        <time>2017-08-11T09:34:38Z</time>
      </trkpt>
      <trkpt lat="45.95164" lon="4.86578">
        <ele>269</ele>
        <time>2017-08-11T09:34:39Z</time>
      </trkpt>
      <trkpt lat="45.95159" lon="4.86579">
        <ele>269</ele>
        <time>2017-08-11T09:34:40Z</time>
      </trkpt>
      <trkpt lat="45.95154" lon="4.86579">
        <ele>269</ele>
        <time>2017-08-11T09:34:41Z</time>
      </trkpt>
      <trkpt lat="45.95148" lon="4.86579">
        <ele>270</ele>
        <time>2017-08-11T09:34:42Z</time>
      </trkpt>
      <trkpt lat="45.95143" lon="4.86579">
        <ele>270</ele>
        <time>2017-08-11T09:34:43Z</time>
      </trkpt>
      <trkpt lat="45.95134" lon="4.86579">
        <ele>270</ele>
        <time>2017-08-11T09:34:45Z</time>
      </trkpt>
      <trkpt lat="45.9513" lon="4.8658">
        <ele>270</ele>
        <time>2017-08-11T09:34:46Z</time>
      </trkpt>
      <trkpt lat="45.95125" lon="4.86581">
        <ele>270</ele>
        <time>2017-08-11T09:34:47Z</time>
      </trkpt>
      <trkpt lat="45.95121" lon="4.86582">
        <ele>270</ele>
        <time>2017-08-11T09:34:48Z</time>
      </trkpt>
      <trkpt lat="45.95116" lon="4.86583">
        <ele>270</ele>
        <time>2017-08-11T09:34:49Z</time>
      </trkpt>
      <trkpt lat="45.95112" lon="4.86584">
        <ele>271</ele>
        <time>2017-08-11T09:34:50Z</time>
      </trkpt>
      <trkpt lat="45.95107" lon="4.86585">
        <ele>271</ele>
        <time>2017-08-11T09:34:51Z</time>
      </trkpt>
      <trkpt lat="45.95102" lon="4.86587">
        <ele>271</ele>
        <time>2017-08-11T09:34:52Z</time>
      </trkpt>
      <trkpt lat="45.95094" lon="4.86588">
        <ele>271</ele>
        <time>2017-08-11T09:34:54Z</time>
      </trkpt>
      <trkpt lat="45.95089" lon="4.86589">
        <ele>271</ele>
        <time>2017-08-11T09:34:55Z</time>
      </trkpt>
      <trkpt lat="45.95084" lon="4.86591">
        <ele>271</ele>
        <time>2017-08-11T09:34:56Z</time>
      </trkpt>
      <trkpt lat="45.9508" lon="4.86592">
        <ele>271</ele>
        <time>2017-08-11T09:34:57Z</time>
      </trkpt>
      <trkpt lat="45.95075" lon="4.86593">
        <ele>272</ele>
        <time>2017-08-11T09:34:58Z</time>
      </trkpt>
      <trkpt lat="45.9507" lon="4.86595">
        <ele>272</ele>
        <time>2017-08-11T09:34:59Z</time>
      </trkpt>
      <trkpt lat="45.95066" lon="4.86597">
        <ele>272</ele>
        <time>2017-08-11T09:35:00Z</time>
      </trkpt>
      <trkpt lat="45.95061" lon="4.86599">
        <ele>272</ele>
        <time>2017-08-11T09:35:01Z</time>
      </trkpt>
      <trkpt lat="45.95053" lon="4.86602">
        <ele>272</ele>
        <time>2017-08-11T09:35:03Z</time>
      </trkpt>
      <trkpt lat="45.95049" lon="4.86602">
        <ele>272</ele>
        <time>2017-08-11T09:35:04Z</time>
      </trkpt>
      <trkpt lat="45.95041" lon="4.86605">
        <ele>273</ele>
        <time>2017-08-11T09:35:06Z</time>
      </trkpt>
      <trkpt lat="45.95037" lon="4.86606">
        <ele>273</ele>
        <time>2017-08-11T09:35:07Z</time>
      </trkpt>
      <trkpt lat="45.95029" lon="4.86608">
        <ele>273</ele>
        <time>2017-08-11T09:35:09Z</time>
      </trkpt>
      <trkpt lat="45.95025" lon="4.86609">
        <ele>273</ele>
        <time>2017-08-11T09:35:10Z</time>
      </trkpt>
      <trkpt lat="45.95016" lon="4.86609">
        <ele>273</ele>
        <time>2017-08-11T09:35:12Z</time>
      </trkpt>
      <trkpt lat="45.95012" lon="4.86609">
        <ele>273</ele>
        <time>2017-08-11T09:35:13Z</time>
      </trkpt>
      <trkpt lat="45.95004" lon="4.86611">
        <ele>273</ele>
        <time>2017-08-11T09:35:15Z</time>
      </trkpt>
      <trkpt lat="45.95" lon="4.86612">
        <ele>275</ele>
        <time>2017-08-11T09:35:16Z</time>
      </trkpt>
      <trkpt lat="45.94991" lon="4.86614">
        <ele>275</ele>
        <time>2017-08-11T09:35:18Z</time>
      </trkpt>
      <trkpt lat="45.94987" lon="4.86615">
        <ele>275</ele>
        <time>2017-08-11T09:35:19Z</time>
      </trkpt>
      <trkpt lat="45.94979" lon="4.86617">
        <ele>275</ele>
        <time>2017-08-11T09:35:21Z</time>
      </trkpt>
      <trkpt lat="45.94976" lon="4.86618">
        <ele>275</ele>
        <time>2017-08-11T09:35:22Z</time>
      </trkpt>
      <trkpt lat="45.94969" lon="4.86621">
        <ele>275</ele>
        <time>2017-08-11T09:35:24Z</time>
      </trkpt>
      <trkpt lat="45.94966" lon="4.86623">
        <ele>275</ele>
        <time>2017-08-11T09:35:25Z</time>
      </trkpt>
      <trkpt lat="45.94959" lon="4.86629">
        <ele>275</ele>
        <time>2017-08-11T09:35:27Z</time>
      </trkpt>
      <trkpt lat="45.94956" lon="4.86632">
        <ele>276</ele>
        <time>2017-08-11T09:35:28Z</time>
      </trkpt>
      <trkpt lat="45.94949" lon="4.8664">
        <ele>276</ele>
        <time>2017-08-11T09:35:30Z</time>
      </trkpt>
      <trkpt lat="45.94946" lon="4.86645">
        <ele>276</ele>
        <time>2017-08-11T09:35:31Z</time>
      </trkpt>
      <trkpt lat="45.94942" lon="4.86656">
        <ele>276</ele>
        <time>2017-08-11T09:35:33Z</time>
      </trkpt>
      <trkpt lat="45.94941" lon="4.86661">
        <ele>276</ele>
        <time>2017-08-11T09:35:34Z</time>
      </trkpt>
      <trkpt lat="45.9494" lon="4.86672">
        <ele>276</ele>
        <time>2017-08-11T09:35:36Z</time>
      </trkpt>
      <trkpt lat="45.9494" lon="4.86677">
        <ele>276</ele>
        <time>2017-08-11T09:35:37Z</time>
      </trkpt>
      <trkpt lat="45.94941" lon="4.86688">
        <ele>276</ele>
        <time>2017-08-11T09:35:39Z</time>
      </trkpt>
      <trkpt lat="45.94942" lon="4.86693">
        <ele>276</ele>
        <time>2017-08-11T09:35:40Z</time>
      </trkpt>
      <trkpt lat="45.94944" lon="4.86704">
        <ele>275</ele>
        <time>2017-08-11T09:35:42Z</time>
      </trkpt>
      <trkpt lat="45.94946" lon="4.86709">
        <ele>275</ele>
        <time>2017-08-11T09:35:43Z</time>
      </trkpt>
      <trkpt lat="45.94947" lon="4.86715">
        <ele>275</ele>
        <time>2017-08-11T09:35:44Z</time>
      </trkpt>
      <trkpt lat="45.94949" lon="4.86721">
        <ele>275</ele>
        <time>2017-08-11T09:35:45Z</time>
      </trkpt>
      <trkpt lat="45.94952" lon="4.86728">
        <ele>275</ele>
        <time>2017-08-11T09:35:46Z</time>
      </trkpt>
      <trkpt lat="45.94954" lon="4.86734">
        <ele>275</ele>
        <time>2017-08-11T09:35:47Z</time>
      </trkpt>
      <trkpt lat="45.94956" lon="4.86741">
        <ele>275</ele>
        <time>2017-08-11T09:35:48Z</time>
      </trkpt>
      <trkpt lat="45.94959" lon="4.86747">
        <ele>275</ele>
        <time>2017-08-11T09:35:49Z</time>
      </trkpt>
      <trkpt lat="45.94962" lon="4.86752">
        <ele>275</ele>
        <time>2017-08-11T09:35:50Z</time>
      </trkpt>
      <trkpt lat="45.94964" lon="4.86758">
        <ele>275</ele>
        <time>2017-08-11T09:35:51Z</time>
      </trkpt>
      <trkpt lat="45.9497" lon="4.86767">
        <ele>275</ele>
        <time>2017-08-11T09:35:53Z</time>
      </trkpt>
      <trkpt lat="45.94972" lon="4.86772">
        <ele>275</ele>
        <time>2017-08-11T09:35:54Z</time>
      </trkpt>
      <trkpt lat="45.94975" lon="4.86778">
        <ele>275</ele>
        <time>2017-08-11T09:35:55Z</time>
      </trkpt>
      <trkpt lat="45.94978" lon="4.86783">
        <ele>275</ele>
        <time>2017-08-11T09:35:56Z</time>
      </trkpt>
      <trkpt lat="45.94981" lon="4.86788">
        <ele>276</ele>
        <time>2017-08-11T09:35:57Z</time>
      </trkpt>
      <trkpt lat="45.94984" lon="4.86794">
        <ele>276</ele>
        <time>2017-08-11T09:35:58Z</time>
      </trkpt>
      <trkpt lat="45.94987" lon="4.86799">
        <ele>276</ele>
        <time>2017-08-11T09:35:59Z</time>
      </trkpt>
      <trkpt lat="45.9499" lon="4.86805">
        <ele>276</ele>
        <time>2017-08-11T09:36:00Z</time>
      </trkpt>
      <trkpt lat="45.94993" lon="4.8681">
        <ele>276</ele>
        <time>2017-08-11T09:36:01Z</time>
      </trkpt>
      <trkpt lat="45.94995" lon="4.86816">
        <ele>276</ele>
        <time>2017-08-11T09:36:02Z</time>
      </trkpt>
      <trkpt lat="45.94998" lon="4.86822">
        <ele>276</ele>
        <time>2017-08-11T09:36:03Z</time>
      </trkpt>
      <trkpt lat="45.95001" lon="4.86828">
        <ele>276</ele>
        <time>2017-08-11T09:36:04Z</time>
      </trkpt>
      <trkpt lat="45.95004" lon="4.86834">
        <ele>276</ele>
        <time>2017-08-11T09:36:05Z</time>
      </trkpt>
      <trkpt lat="45.95006" lon="4.86839">
        <ele>276</ele>
        <time>2017-08-11T09:36:06Z</time>
      </trkpt>
      <trkpt lat="45.95008" lon="4.86845">
        <ele>276</ele>
        <time>2017-08-11T09:36:07Z</time>
      </trkpt>
      <trkpt lat="45.9501" lon="4.86851">
        <ele>275</ele>
        <time>2017-08-11T09:36:08Z</time>
      </trkpt>
      <trkpt lat="45.95012" lon="4.86857">
        <ele>275</ele>
        <time>2017-08-11T09:36:09Z</time>
      </trkpt>
      <trkpt lat="45.95015" lon="4.86863">
        <ele>275</ele>
        <time>2017-08-11T09:36:10Z</time>
      </trkpt>
      <trkpt lat="45.95017" lon="4.86869">
        <ele>275</ele>
        <time>2017-08-11T09:36:11Z</time>
      </trkpt>
      <trkpt lat="45.95019" lon="4.86875">
        <ele>275</ele>
        <time>2017-08-11T09:36:12Z</time>
      </trkpt>
      <trkpt lat="45.95023" lon="4.86886">
        <ele>275</ele>
        <time>2017-08-11T09:36:14Z</time>
      </trkpt>
      <trkpt lat="45.95024" lon="4.86892">
        <ele>275</ele>
        <time>2017-08-11T09:36:15Z</time>
      </trkpt>
      <trkpt lat="45.95026" lon="4.86899">
        <ele>275</ele>
        <time>2017-08-11T09:36:16Z</time>
      </trkpt>
      <trkpt lat="45.95029" lon="4.86906">
        <ele>275</ele>
        <time>2017-08-11T09:36:17Z</time>
      </trkpt>
      <trkpt lat="45.95031" lon="4.86914">
        <ele>275</ele>
        <time>2017-08-11T09:36:18Z</time>
      </trkpt>
      <trkpt lat="45.95033" lon="4.86921">
        <ele>276</ele>
        <time>2017-08-11T09:36:19Z</time>
      </trkpt>
      <trkpt lat="45.95035" lon="4.86929">
        <ele>276</ele>
        <time>2017-08-11T09:36:20Z</time>
      </trkpt>
      <trkpt lat="45.95038" lon="4.86936">
        <ele>276</ele>
        <time>2017-08-11T09:36:21Z</time>
      </trkpt>
      <trkpt lat="45.9504" lon="4.86943">
        <ele>276</ele>
        <time>2017-08-11T09:36:22Z</time>
      </trkpt>
      <trkpt lat="45.95041" lon="4.8695">
        <ele>276</ele>
        <time>2017-08-11T09:36:23Z</time>
      </trkpt>
      <trkpt lat="45.95045" lon="4.86961">
        <ele>276</ele>
        <time>2017-08-11T09:36:25Z</time>
      </trkpt>
      <trkpt lat="45.95047" lon="4.86967">
        <ele>276</ele>
        <time>2017-08-11T09:36:26Z</time>
      </trkpt>
      <trkpt lat="45.9505" lon="4.86978">
        <ele>276</ele>
        <time>2017-08-11T09:36:28Z</time>
      </trkpt>
      <trkpt lat="45.95052" lon="4.86984">
        <ele>276</ele>
        <time>2017-08-11T09:36:29Z</time>
      </trkpt>
      <trkpt lat="45.95055" lon="4.8699">
        <ele>276</ele>
        <time>2017-08-11T09:36:30Z</time>
      </trkpt>
      <trkpt lat="45.95059" lon="4.86997">
        <ele>276</ele>
        <time>2017-08-11T09:36:31Z</time>
      </trkpt>
      <trkpt lat="45.95064" lon="4.87007">
        <ele>277</ele>
        <time>2017-08-11T09:36:33Z</time>
      </trkpt>
      <trkpt lat="45.95066" lon="4.87012">
        <ele>277</ele>
        <time>2017-08-11T09:36:34Z</time>
      </trkpt>
      <trkpt lat="45.9507" lon="4.87021">
        <ele>277</ele>
        <time>2017-08-11T09:36:36Z</time>
      </trkpt>
      <trkpt lat="45.95073" lon="4.87026">
        <ele>277</ele>
        <time>2017-08-11T09:36:37Z</time>
      </trkpt>
      <trkpt lat="45.95076" lon="4.87032">
        <ele>277</ele>
        <time>2017-08-11T09:36:38Z</time>
      </trkpt>
      <trkpt lat="45.95079" lon="4.87038">
        <ele>277</ele>
        <time>2017-08-11T09:36:39Z</time>
      </trkpt>
      <trkpt lat="45.95082" lon="4.87043">
        <ele>277</ele>
        <time>2017-08-11T09:36:40Z</time>
      </trkpt>
      <trkpt lat="45.95084" lon="4.87049">
        <ele>277</ele>
        <time>2017-08-11T09:36:41Z</time>
      </trkpt>
      <trkpt lat="45.95089" lon="4.8706">
        <ele>277</ele>
        <time>2017-08-11T09:36:43Z</time>
      </trkpt>
      <trkpt lat="45.95091" lon="4.87065">
        <ele>277</ele>
        <time>2017-08-11T09:36:44Z</time>
      </trkpt>
      <trkpt lat="45.95093" lon="4.87072">
        <ele>277</ele>
        <time>2017-08-11T09:36:45Z</time>
      </trkpt>
      <trkpt lat="45.95095" lon="4.87077">
        <ele>277</ele>
        <time>2017-08-11T09:36:46Z</time>
      </trkpt>
      <trkpt lat="45.951" lon="4.87087">
        <ele>277</ele>
        <time>2017-08-11T09:36:48Z</time>
      </trkpt>
      <trkpt lat="45.95102" lon="4.87093">
        <ele>277</ele>
        <time>2017-08-11T09:36:49Z</time>
      </trkpt>
      <trkpt lat="45.95104" lon="4.87099">
        <ele>277</ele>
        <time>2017-08-11T09:36:50Z</time>
      </trkpt>
      <trkpt lat="45.95106" lon="4.87106">
        <ele>277</ele>
        <time>2017-08-11T09:36:51Z</time>
      </trkpt>
      <trkpt lat="45.95109" lon="4.87117">
        <ele>277</ele>
        <time>2017-08-11T09:36:53Z</time>
      </trkpt>
      <trkpt lat="45.9511" lon="4.87123">
        <ele>277</ele>
        <time>2017-08-11T09:36:54Z</time>
      </trkpt>
      <trkpt lat="45.95113" lon="4.87134">
        <ele>277</ele>
        <time>2017-08-11T09:36:56Z</time>
      </trkpt>
      <trkpt lat="45.95115" lon="4.87141">
        <ele>277</ele>
        <time>2017-08-11T09:36:57Z</time>
      </trkpt>
      <trkpt lat="45.95117" lon="4.87147">
        <ele>277</ele>
        <time>2017-08-11T09:36:58Z</time>
      </trkpt>
      <trkpt lat="45.95119" lon="4.87153">
        <ele>277</ele>
        <time>2017-08-11T09:36:59Z</time>
      </trkpt>
      <trkpt lat="45.9512" lon="4.8716">
        <ele>277</ele>
        <time>2017-08-11T09:37:00Z</time>
      </trkpt>
      <trkpt lat="45.95121" lon="4.87167">
        <ele>277</ele>
        <time>2017-08-11T09:37:01Z</time>
      </trkpt>
      <trkpt lat="45.95122" lon="4.87174">
        <ele>276</ele>
        <time>2017-08-11T09:37:02Z</time>
      </trkpt>
      <trkpt lat="45.95124" lon="4.8718">
        <ele>276</ele>
        <time>2017-08-11T09:37:03Z</time>
      </trkpt>
      <trkpt lat="45.95125" lon="4.87187">
        <ele>276</ele>
        <time>2017-08-11T09:37:04Z</time>
      </trkpt>
      <trkpt lat="45.95128" lon="4.87193">
        <ele>276</ele>
        <time>2017-08-11T09:37:05Z</time>
      </trkpt>
      <trkpt lat="45.95129" lon="4.872">
        <ele>276</ele>
        <time>2017-08-11T09:37:06Z</time>
      </trkpt>
      <trkpt lat="45.95132" lon="4.87207">
        <ele>276</ele>
        <time>2017-08-11T09:37:07Z</time>
      </trkpt>
      <trkpt lat="45.95134" lon="4.87216">
        <ele>276</ele>
        <time>2017-08-11T09:37:08Z</time>
      </trkpt>
      <trkpt lat="45.95135" lon="4.87225">
        <ele>276</ele>
        <time>2017-08-11T09:37:09Z</time>
      </trkpt>
      <trkpt lat="45.95137" lon="4.87234">
        <ele>276</ele>
        <time>2017-08-11T09:37:10Z</time>
      </trkpt>
      <trkpt lat="45.9514" lon="4.87244">
        <ele>275</ele>
        <time>2017-08-11T09:37:11Z</time>
      </trkpt>
      <trkpt lat="45.95143" lon="4.87254">
        <ele>274</ele>
        <time>2017-08-11T09:37:12Z</time>
      </trkpt>
      <trkpt lat="45.95144" lon="4.87264">
        <ele>274</ele>
        <time>2017-08-11T09:37:13Z</time>
      </trkpt>
      <trkpt lat="45.95146" lon="4.87275">
        <ele>274</ele>
        <time>2017-08-11T09:37:14Z</time>
      </trkpt>
      <trkpt lat="45.95148" lon="4.87287">
        <ele>274</ele>
        <time>2017-08-11T09:37:15Z</time>
      </trkpt>
      <trkpt lat="45.95149" lon="4.87298">
        <ele>274</ele>
        <time>2017-08-11T09:37:16Z</time>
      </trkpt>
      <trkpt lat="45.9515" lon="4.87309">
        <ele>274</ele>
        <time>2017-08-11T09:37:17Z</time>
      </trkpt>
      <trkpt lat="45.95152" lon="4.8732">
        <ele>273</ele>
        <time>2017-08-11T09:37:18Z</time>
      </trkpt>
      <trkpt lat="45.95155" lon="4.8733">
        <ele>272</ele>
        <time>2017-08-11T09:37:19Z</time>
      </trkpt>
      <trkpt lat="45.95156" lon="4.87342">
        <ele>272</ele>
        <time>2017-08-11T09:37:20Z</time>
      </trkpt>
      <trkpt lat="45.95158" lon="4.87352">
        <ele>272</ele>
        <time>2017-08-11T09:37:21Z</time>
      </trkpt>
      <trkpt lat="45.9516" lon="4.87361">
        <ele>272</ele>
        <time>2017-08-11T09:37:22Z</time>
      </trkpt>
      <trkpt lat="45.95162" lon="4.8737">
        <ele>272</ele>
        <time>2017-08-11T09:37:23Z</time>
      </trkpt>
      <trkpt lat="45.95165" lon="4.87378">
        <ele>272</ele>
        <time>2017-08-11T09:37:24Z</time>
      </trkpt>
      <trkpt lat="45.95169" lon="4.87386">
        <ele>271</ele>
        <time>2017-08-11T09:37:25Z</time>
      </trkpt>
      <trkpt lat="45.95171" lon="4.87394">
        <ele>271</ele>
        <time>2017-08-11T09:37:26Z</time>
      </trkpt>
      <trkpt lat="45.95173" lon="4.87402">
        <ele>271</ele>
        <time>2017-08-11T09:37:27Z</time>
      </trkpt>
      <trkpt lat="45.95175" lon="4.87409">
        <ele>271</ele>
        <time>2017-08-11T09:37:28Z</time>
      </trkpt>
      <trkpt lat="45.95177" lon="4.87417">
        <ele>271</ele>
        <time>2017-08-11T09:37:29Z</time>
      </trkpt>
      <trkpt lat="45.95179" lon="4.87426">
        <ele>271</ele>
        <time>2017-08-11T09:37:30Z</time>
      </trkpt>
      <trkpt lat="45.95182" lon="4.87434">
        <ele>271</ele>
        <time>2017-08-11T09:37:31Z</time>
      </trkpt>
      <trkpt lat="45.95184" lon="4.87441">
        <ele>272</ele>
        <time>2017-08-11T09:37:32Z</time>
      </trkpt>
      <trkpt lat="45.95186" lon="4.87449">
        <ele>272</ele>
        <time>2017-08-11T09:37:33Z</time>
      </trkpt>
      <trkpt lat="45.95188" lon="4.87456">
        <ele>272</ele>
        <time>2017-08-11T09:37:34Z</time>
      </trkpt>
      <trkpt lat="45.95189" lon="4.87463">
        <ele>272</ele>
        <time>2017-08-11T09:37:35Z</time>
      </trkpt>
      <trkpt lat="45.9519" lon="4.87469">
        <ele>272</ele>
        <time>2017-08-11T09:37:36Z</time>
      </trkpt>
      <trkpt lat="45.95192" lon="4.87475">
        <ele>272</ele>
        <time>2017-08-11T09:37:37Z</time>
      </trkpt>
      <trkpt lat="45.95193" lon="4.87481">
        <ele>272</ele>
        <time>2017-08-11T09:37:38Z</time>
      </trkpt>
      <trkpt lat="45.95195" lon="4.87487">
        <ele>272</ele>
        <time>2017-08-11T09:37:39Z</time>
      </trkpt>
      <trkpt lat="45.95196" lon="4.87494">
        <ele>272</ele>
        <time>2017-08-11T09:37:40Z</time>
      </trkpt>
      <trkpt lat="45.95197" lon="4.87501">
        <ele>273</ele>
        <time>2017-08-11T09:37:41Z</time>
      </trkpt>
      <trkpt lat="45.95199" lon="4.87508">
        <ele>273</ele>
        <time>2017-08-11T09:37:42Z</time>
      </trkpt>
      <trkpt lat="45.952" lon="4.87515">
        <ele>273</ele>
        <time>2017-08-11T09:37:43Z</time>
      </trkpt>
      <trkpt lat="45.95201" lon="4.87522">
        <ele>274</ele>
        <time>2017-08-11T09:37:44Z</time>
      </trkpt>
      <trkpt lat="45.95202" lon="4.8753">
        <ele>274</ele>
        <time>2017-08-11T09:37:45Z</time>
      </trkpt>
      <trkpt lat="45.95204" lon="4.87538">
        <ele>274</ele>
        <time>2017-08-11T09:37:46Z</time>
      </trkpt>
      <trkpt lat="45.95206" lon="4.87546">
        <ele>274</ele>
        <time>2017-08-11T09:37:47Z</time>
      </trkpt>
      <trkpt lat="45.95206" lon="4.87554">
        <ele>274</ele>
        <time>2017-08-11T09:37:48Z</time>
      </trkpt>
      <trkpt lat="45.95207" lon="4.8756">
        <ele>274</ele>
        <time>2017-08-11T09:37:49Z</time>
      </trkpt>
      <trkpt lat="45.95207" lon="4.87571">
        <ele>274</ele>
        <time>2017-08-11T09:37:51Z</time>
      </trkpt>
      <trkpt lat="45.95208" lon="4.87577">
        <ele>274</ele>
        <time>2017-08-11T09:37:52Z</time>
      </trkpt>
      <trkpt lat="45.95207" lon="4.87588">
        <ele>276</ele>
        <time>2017-08-11T09:37:54Z</time>
      </trkpt>
      <trkpt lat="45.95208" lon="4.87595">
        <ele>276</ele>
        <time>2017-08-11T09:37:55Z</time>
      </trkpt>
      <trkpt lat="45.95208" lon="4.87602">
        <ele>276</ele>
        <time>2017-08-11T09:37:56Z</time>
      </trkpt>
      <trkpt lat="45.95208" lon="4.87609">
        <ele>276</ele>
        <time>2017-08-11T09:37:57Z</time>
      </trkpt>
      <trkpt lat="45.95209" lon="4.87615">
        <ele>276</ele>
        <time>2017-08-11T09:37:58Z</time>
      </trkpt>
      <trkpt lat="45.9521" lon="4.87622">
        <ele>276</ele>
        <time>2017-08-11T09:37:59Z</time>
      </trkpt>
      <trkpt lat="45.95212" lon="4.87629">
        <ele>276</ele>
        <time>2017-08-11T09:38:00Z</time>
      </trkpt>
      <trkpt lat="45.95213" lon="4.87636">
        <ele>276</ele>
        <time>2017-08-11T09:38:01Z</time>
      </trkpt>
      <trkpt lat="45.95215" lon="4.87643">
        <ele>276</ele>
        <time>2017-08-11T09:38:02Z</time>
      </trkpt>
      <trkpt lat="45.95216" lon="4.87649">
        <ele>276</ele>
        <time>2017-08-11T09:38:03Z</time>
      </trkpt>
      <trkpt lat="45.95218" lon="4.87661">
        <ele>276</ele>
        <time>2017-08-11T09:38:05Z</time>
      </trkpt>
      <trkpt lat="45.95219" lon="4.87667">
        <ele>276</ele>
        <time>2017-08-11T09:38:06Z</time>
      </trkpt>
      <trkpt lat="45.9522" lon="4.87673">
        <ele>278</ele>
        <time>2017-08-11T09:38:07Z</time>
      </trkpt>
      <trkpt lat="45.95221" lon="4.8768">
        <ele>279</ele>
        <time>2017-08-11T09:38:08Z</time>
      </trkpt>
      <trkpt lat="45.95222" lon="4.87686">
        <ele>279</ele>
        <time>2017-08-11T09:38:09Z</time>
      </trkpt>
      <trkpt lat="45.95223" lon="4.87692">
        <ele>279</ele>
        <time>2017-08-11T09:38:10Z</time>
      </trkpt>
      <trkpt lat="45.95224" lon="4.87705">
        <ele>279</ele>
        <time>2017-08-11T09:38:12Z</time>
      </trkpt>
      <trkpt lat="45.95224" lon="4.87711">
        <ele>279</ele>
        <time>2017-08-11T09:38:13Z</time>
      </trkpt>
      <trkpt lat="45.95226" lon="4.87723">
        <ele>280</ele>
        <time>2017-08-11T09:38:15Z</time>
      </trkpt>
      <trkpt lat="45.95227" lon="4.87728">
        <ele>280</ele>
        <time>2017-08-11T09:38:16Z</time>
      </trkpt>
      <trkpt lat="45.95227" lon="4.87734">
        <ele>280</ele>
        <time>2017-08-11T09:38:17Z</time>
      </trkpt>
      <trkpt lat="45.95227" lon="4.87743">
        <ele>280</ele>
        <time>2017-08-11T09:38:18Z</time>
      </trkpt>
      <trkpt lat="45.95228" lon="4.87751">
        <ele>282</ele>
        <time>2017-08-11T09:38:19Z</time>
      </trkpt>
      <trkpt lat="45.9523" lon="4.87758">
        <ele>282</ele>
        <time>2017-08-11T09:38:20Z</time>
      </trkpt>
      <trkpt lat="45.95233" lon="4.87769">
        <ele>282</ele>
        <time>2017-08-11T09:38:22Z</time>
      </trkpt>
      <trkpt lat="45.95234" lon="4.87774">
        <ele>282</ele>
        <time>2017-08-11T09:38:23Z</time>
      </trkpt>
      <trkpt lat="45.95236" lon="4.87785">
        <ele>282</ele>
        <time>2017-08-11T09:38:25Z</time>
      </trkpt>
      <trkpt lat="45.95237" lon="4.87792">
        <ele>282</ele>
        <time>2017-08-11T09:38:26Z</time>
      </trkpt>
      <trkpt lat="45.95239" lon="4.87804">
        <ele>282</ele>
        <time>2017-08-11T09:38:28Z</time>
      </trkpt>
      <trkpt lat="45.9524" lon="4.8781">
        <ele>282</ele>
        <time>2017-08-11T09:38:29Z</time>
      </trkpt>
      <trkpt lat="45.95241" lon="4.87817">
        <ele>282</ele>
        <time>2017-08-11T09:38:30Z</time>
      </trkpt>
      <trkpt lat="45.95243" lon="4.87824">
        <ele>282</ele>
        <time>2017-08-11T09:38:31Z</time>
      </trkpt>
      <trkpt lat="45.95245" lon="4.87834">
        <ele>282</ele>
        <time>2017-08-11T09:38:33Z</time>
      </trkpt>
      <trkpt lat="45.95246" lon="4.8784">
        <ele>283</ele>
        <time>2017-08-11T09:38:34Z</time>
      </trkpt>
      <trkpt lat="45.95249" lon="4.87851">
        <ele>283</ele>
        <time>2017-08-11T09:38:35Z</time>
      </trkpt>
      <trkpt lat="45.95251" lon="4.87862">
        <ele>281</ele>
        <time>2017-08-11T09:38:36Z</time>
      </trkpt>
      <trkpt lat="45.95252" lon="4.8787">
        <ele>281</ele>
        <time>2017-08-11T09:38:37Z</time>
      </trkpt>
      <trkpt lat="45.95254" lon="4.87876">
        <ele>281</ele>
        <time>2017-08-11T09:38:38Z</time>
      </trkpt>
      <trkpt lat="45.95255" lon="4.87883">
        <ele>281</ele>
        <time>2017-08-11T09:38:39Z</time>
      </trkpt>
      <trkpt lat="45.95256" lon="4.8789">
        <ele>281</ele>
        <time>2017-08-11T09:38:40Z</time>
      </trkpt>
      <trkpt lat="45.95257" lon="4.87896">
        <ele>281</ele>
        <time>2017-08-11T09:38:41Z</time>
      </trkpt>
      <trkpt lat="45.95258" lon="4.87903">
        <ele>281</ele>
        <time>2017-08-11T09:38:42Z</time>
      </trkpt>
      <trkpt lat="45.95258" lon="4.87909">
        <ele>282</ele>
        <time>2017-08-11T09:38:43Z</time>
      </trkpt>
      <trkpt lat="45.95258" lon="4.87916">
        <ele>282</ele>
        <time>2017-08-11T09:38:44Z</time>
      </trkpt>
      <trkpt lat="45.95257" lon="4.87927">
        <ele>281</ele>
        <time>2017-08-11T09:38:46Z</time>
      </trkpt>
      <trkpt lat="45.95256" lon="4.87933">
        <ele>281</ele>
        <time>2017-08-11T09:38:47Z</time>
      </trkpt>
      <trkpt lat="45.95252" lon="4.87944">
        <ele>280</ele>
        <time>2017-08-11T09:38:49Z</time>
      </trkpt>
      <trkpt lat="45.9525" lon="4.87949">
        <ele>282</ele>
        <time>2017-08-11T09:38:50Z</time>
      </trkpt>
      <trkpt lat="45.95246" lon="4.87958">
        <ele>282</ele>
        <time>2017-08-11T09:38:52Z</time>
      </trkpt>
      <trkpt lat="45.95244" lon="4.87962">
        <ele>282</ele>
        <time>2017-08-11T09:38:53Z</time>
      </trkpt>
      <trkpt lat="45.95238" lon="4.87971">
        <ele>282</ele>
        <time>2017-08-11T09:38:55Z</time>
      </trkpt>
      <trkpt lat="45.95235" lon="4.87976">
        <ele>282</ele>
        <time>2017-08-11T09:38:56Z</time>
      </trkpt>
      <trkpt lat="45.95232" lon="4.87981">
        <ele>282</ele>
        <time>2017-08-11T09:38:57Z</time>
      </trkpt>
      <trkpt lat="45.95229" lon="4.87986">
        <ele>282</ele>
        <time>2017-08-11T09:38:58Z</time>
      </trkpt>
      <trkpt lat="45.95225" lon="4.87992">
        <ele>282</ele>
        <time>2017-08-11T09:38:59Z</time>
      </trkpt>
      <trkpt lat="45.95221" lon="4.87997">
        <ele>282</ele>
        <time>2017-08-11T09:39:00Z</time>
      </trkpt>
      <trkpt lat="45.95217" lon="4.88002">
        <ele>281</ele>
        <time>2017-08-11T09:39:01Z</time>
      </trkpt>
      <trkpt lat="45.95214" lon="4.88007">
        <ele>281</ele>
        <time>2017-08-11T09:39:02Z</time>
      </trkpt>
      <trkpt lat="45.9521" lon="4.88013">
        <ele>281</ele>
        <time>2017-08-11T09:39:03Z</time>
      </trkpt>
      <trkpt lat="45.95207" lon="4.88018">
        <ele>281</ele>
        <time>2017-08-11T09:39:04Z</time>
      </trkpt>
      <trkpt lat="45.95204" lon="4.88023">
        <ele>281</ele>
        <time>2017-08-11T09:39:05Z</time>
      </trkpt>
      <trkpt lat="45.95201" lon="4.88028">
        <ele>281</ele>
        <time>2017-08-11T09:39:06Z</time>
      </trkpt>
      <trkpt lat="45.95195" lon="4.88037">
        <ele>281</ele>
        <time>2017-08-11T09:39:08Z</time>
      </trkpt>
      <trkpt lat="45.95193" lon="4.88042">
        <ele>281</ele>
        <time>2017-08-11T09:39:09Z</time>
      </trkpt>
      <trkpt lat="45.95189" lon="4.88052">
        <ele>281</ele>
        <time>2017-08-11T09:39:11Z</time>
      </trkpt>
      <trkpt lat="45.95188" lon="4.88059">
        <ele>281</ele>
        <time>2017-08-11T09:39:12Z</time>
      </trkpt>
      <trkpt lat="45.95186" lon="4.88066">
        <ele>281</ele>
        <time>2017-08-11T09:39:13Z</time>
      </trkpt>
      <trkpt lat="45.95184" lon="4.88072">
        <ele>281</ele>
        <time>2017-08-11T09:39:14Z</time>
      </trkpt>
      <trkpt lat="45.95182" lon="4.88079">
        <ele>281</ele>
        <time>2017-08-11T09:39:15Z</time>
      </trkpt>
      <trkpt lat="45.95181" lon="4.88086">
        <ele>282</ele>
        <time>2017-08-11T09:39:16Z</time>
      </trkpt>
      <trkpt lat="45.9518" lon="4.88092">
        <ele>282</ele>
        <time>2017-08-11T09:39:17Z</time>
      </trkpt>
      <trkpt lat="45.95178" lon="4.88098">
        <ele>282</ele>
        <time>2017-08-11T09:39:18Z</time>
      </trkpt>
      <trkpt lat="45.95176" lon="4.88111">
        <ele>282</ele>
        <time>2017-08-11T09:39:20Z</time>
      </trkpt>
      <trkpt lat="45.95175" lon="4.88116">
        <ele>282</ele>
        <time>2017-08-11T09:39:21Z</time>
      </trkpt>
      <trkpt lat="45.95172" lon="4.88127">
        <ele>282</ele>
        <time>2017-08-11T09:39:23Z</time>
      </trkpt>
      <trkpt lat="45.95171" lon="4.88133">
        <ele>283</ele>
        <time>2017-08-11T09:39:24Z</time>
      </trkpt>
      <trkpt lat="45.95167" lon="4.88144">
        <ele>283</ele>
        <time>2017-08-11T09:39:26Z</time>
      </trkpt>
      <trkpt lat="45.95166" lon="4.8815">
        <ele>285</ele>
        <time>2017-08-11T09:39:27Z</time>
      </trkpt>
      <trkpt lat="45.95168" lon="4.88161">
        <ele>284</ele>
        <time>2017-08-11T09:39:29Z</time>
      </trkpt>
      <trkpt lat="45.95171" lon="4.88165">
        <ele>284</ele>
        <time>2017-08-11T09:39:30Z</time>
      </trkpt>
      <trkpt lat="45.95179" lon="4.8817">
        <ele>285</ele>
        <time>2017-08-11T09:39:32Z</time>
      </trkpt>
      <trkpt lat="45.95183" lon="4.88169">
        <ele>285</ele>
        <time>2017-08-11T09:39:33Z</time>
      </trkpt>
      <trkpt lat="45.95192" lon="4.88168">
        <ele>285</ele>
        <time>2017-08-11T09:39:35Z</time>
      </trkpt>
      <trkpt lat="45.95197" lon="4.88168">
        <ele>285</ele>
        <time>2017-08-11T09:39:36Z</time>
      </trkpt>
      <trkpt lat="45.95202" lon="4.88169">
        <ele>285</ele>
        <time>2017-08-11T09:39:37Z</time>
      </trkpt>
      <trkpt lat="45.95208" lon="4.8817">
        <ele>284</ele>
        <time>2017-08-11T09:39:38Z</time>
      </trkpt>
      <trkpt lat="45.95213" lon="4.88171">
        <ele>284</ele>
        <time>2017-08-11T09:39:39Z</time>
      </trkpt>
      <trkpt lat="45.95219" lon="4.88171">
        <ele>284</ele>
        <time>2017-08-11T09:39:40Z</time>
      </trkpt>
      <trkpt lat="45.95225" lon="4.88171">
        <ele>284</ele>
        <time>2017-08-11T09:39:41Z</time>
      </trkpt>
      <trkpt lat="45.9523" lon="4.88172">
        <ele>283</ele>
        <time>2017-08-11T09:39:42Z</time>
      </trkpt>
      <trkpt lat="45.95236" lon="4.88173">
        <ele>283</ele>
        <time>2017-08-11T09:39:43Z</time>
      </trkpt>
      <trkpt lat="45.95241" lon="4.88173">
        <ele>282</ele>
        <time>2017-08-11T09:39:44Z</time>
      </trkpt>
      <trkpt lat="45.95248" lon="4.88173">
        <ele>282</ele>
        <time>2017-08-11T09:39:45Z</time>
      </trkpt>
      <trkpt lat="45.95255" lon="4.88174">
        <ele>281</ele>
        <time>2017-08-11T09:39:46Z</time>
      </trkpt>
      <trkpt lat="45.95262" lon="4.88174">
        <ele>281</ele>
        <time>2017-08-11T09:39:47Z</time>
      </trkpt>
      <trkpt lat="45.95268" lon="4.88175">
        <ele>281</ele>
        <time>2017-08-11T09:39:48Z</time>
      </trkpt>
      <trkpt lat="45.95275" lon="4.88176">
        <ele>281</ele>
        <time>2017-08-11T09:39:49Z</time>
      </trkpt>
      <trkpt lat="45.95282" lon="4.88176">
        <ele>281</ele>
        <time>2017-08-11T09:39:50Z</time>
      </trkpt>
      <trkpt lat="45.95289" lon="4.88177">
        <ele>281</ele>
        <time>2017-08-11T09:39:51Z</time>
      </trkpt>
      <trkpt lat="45.95296" lon="4.88177">
        <ele>281</ele>
        <time>2017-08-11T09:39:52Z</time>
      </trkpt>
      <trkpt lat="45.95303" lon="4.88177">
        <ele>281</ele>
        <time>2017-08-11T09:39:53Z</time>
      </trkpt>
      <trkpt lat="45.9531" lon="4.88177">
        <ele>280</ele>
        <time>2017-08-11T09:39:54Z</time>
      </trkpt>
      <trkpt lat="45.95319" lon="4.88177">
        <ele>280</ele>
        <time>2017-08-11T09:39:55Z</time>
      </trkpt>
      <trkpt lat="45.95327" lon="4.88177">
        <ele>279</ele>
        <time>2017-08-11T09:39:56Z</time>
      </trkpt>
      <trkpt lat="45.95335" lon="4.88176">
        <ele>278</ele>
        <time>2017-08-11T09:39:57Z</time>
      </trkpt>
      <trkpt lat="45.95343" lon="4.88175">
        <ele>278</ele>
        <time>2017-08-11T09:39:58Z</time>
      </trkpt>
      <trkpt lat="45.95351" lon="4.88175">
        <ele>278</ele>
        <time>2017-08-11T09:39:59Z</time>
      </trkpt>
      <trkpt lat="45.95359" lon="4.88174">
        <ele>278</ele>
        <time>2017-08-11T09:40:00Z</time>
      </trkpt>
      <trkpt lat="45.95366" lon="4.88172">
        <ele>278</ele>
        <time>2017-08-11T09:40:01Z</time>
      </trkpt>
      <trkpt lat="45.95374" lon="4.8817">
        <ele>278</ele>
        <time>2017-08-11T09:40:02Z</time>
      </trkpt>
      <trkpt lat="45.95381" lon="4.88168">
        <ele>278</ele>
        <time>2017-08-11T09:40:03Z</time>
      </trkpt>
      <trkpt lat="45.95388" lon="4.88166">
        <ele>276</ele>
        <time>2017-08-11T09:40:04Z</time>
      </trkpt>
      <trkpt lat="45.95395" lon="4.88164">
        <ele>276</ele>
        <time>2017-08-11T09:40:05Z</time>
      </trkpt>
      <trkpt lat="45.95401" lon="4.88162">
        <ele>276</ele>
        <time>2017-08-11T09:40:06Z</time>
      </trkpt>
      <trkpt lat="45.95407" lon="4.8816">
        <ele>276</ele>
        <time>2017-08-11T09:40:07Z</time>
      </trkpt>
      <trkpt lat="45.95413" lon="4.88158">
        <ele>276</ele>
        <time>2017-08-11T09:40:08Z</time>
      </trkpt>
      <trkpt lat="45.95417" lon="4.88156">
        <ele>276</ele>
        <time>2017-08-11T09:40:09Z</time>
      </trkpt>
      <trkpt lat="45.95422" lon="4.88154">
        <ele>276</ele>
        <time>2017-08-11T09:40:10Z</time>
      </trkpt>
      <trkpt lat="45.95427" lon="4.88152">
        <ele>276</ele>
        <time>2017-08-11T09:40:11Z</time>
      </trkpt>
      <trkpt lat="45.95432" lon="4.8815">
        <ele>276</ele>
        <time>2017-08-11T09:40:12Z</time>
      </trkpt>
      <trkpt lat="45.95436" lon="4.88148">
        <ele>276</ele>
        <time>2017-08-11T09:40:13Z</time>
      </trkpt>
      <trkpt lat="45.95441" lon="4.88146">
        <ele>276</ele>
        <time>2017-08-11T09:40:14Z</time>
      </trkpt>
      <trkpt lat="45.95445" lon="4.88144">
        <ele>276</ele>
        <time>2017-08-11T09:40:15Z</time>
      </trkpt>
      <trkpt lat="45.9545" lon="4.88142">
        <ele>276</ele>
        <time>2017-08-11T09:40:16Z</time>
      </trkpt>
      <trkpt lat="45.95454" lon="4.8814">
        <ele>276</ele>
        <time>2017-08-11T09:40:17Z</time>
      </trkpt>
      <trkpt lat="45.95459" lon="4.88138">
        <ele>276</ele>
        <time>2017-08-11T09:40:18Z</time>
      </trkpt>
      <trkpt lat="45.95464" lon="4.88135">
        <ele>276</ele>
        <time>2017-08-11T09:40:19Z</time>
      </trkpt>
      <trkpt lat="45.95469" lon="4.88133">
        <ele>276</ele>
        <time>2017-08-11T09:40:20Z</time>
      </trkpt>
      <trkpt lat="45.95475" lon="4.88131">
        <ele>276</ele>
        <time>2017-08-11T09:40:21Z</time>
      </trkpt>
      <trkpt lat="45.9548" lon="4.88128">
        <ele>276</ele>
        <time>2017-08-11T09:40:22Z</time>
      </trkpt>
      <trkpt lat="45.95486" lon="4.88125">
        <ele>276</ele>
        <time>2017-08-11T09:40:23Z</time>
      </trkpt>
      <trkpt lat="45.95492" lon="4.88123">
        <ele>276</ele>
        <time>2017-08-11T09:40:24Z</time>
      </trkpt>
      <trkpt lat="45.95497" lon="4.8812">
        <ele>276</ele>
        <time>2017-08-11T09:40:25Z</time>
      </trkpt>
      <trkpt lat="45.95502" lon="4.88118">
        <ele>276</ele>
        <time>2017-08-11T09:40:26Z</time>
      </trkpt>
      <trkpt lat="45.95507" lon="4.88115">
        <ele>276</ele>
        <time>2017-08-11T09:40:27Z</time>
      </trkpt>
      <trkpt lat="45.95511" lon="4.88113">
        <ele>276</ele>
        <time>2017-08-11T09:40:28Z</time>
      </trkpt>
      <trkpt lat="45.95516" lon="4.88111">
        <ele>276</ele>
        <time>2017-08-11T09:40:29Z</time>
      </trkpt>
      <trkpt lat="45.9552" lon="4.88109">
        <ele>277</ele>
        <time>2017-08-11T09:40:30Z</time>
      </trkpt>
      <trkpt lat="45.95525" lon="4.88106">
        <ele>277</ele>
        <time>2017-08-11T09:40:31Z</time>
      </trkpt>
      <trkpt lat="45.9553" lon="4.88104">
        <ele>277</ele>
        <time>2017-08-11T09:40:32Z</time>
      </trkpt>
      <trkpt lat="45.95534" lon="4.88102">
        <ele>277</ele>
        <time>2017-08-11T09:40:33Z</time>
      </trkpt>
      <trkpt lat="45.95539" lon="4.88099">
        <ele>277</ele>
        <time>2017-08-11T09:40:34Z</time>
      </trkpt>
      <trkpt lat="45.95544" lon="4.88097">
        <ele>277</ele>
        <time>2017-08-11T09:40:35Z</time>
      </trkpt>
      <trkpt lat="45.95549" lon="4.88095">
        <ele>277</ele>
        <time>2017-08-11T09:40:36Z</time>
      </trkpt>
      <trkpt lat="45.95553" lon="4.88092">
        <ele>277</ele>
        <time>2017-08-11T09:40:37Z</time>
      </trkpt>
      <trkpt lat="45.95558" lon="4.8809">
        <ele>277</ele>
        <time>2017-08-11T09:40:38Z</time>
      </trkpt>
      <trkpt lat="45.95563" lon="4.88087">
        <ele>277</ele>
        <time>2017-08-11T09:40:39Z</time>
      </trkpt>
      <trkpt lat="45.95568" lon="4.88085">
        <ele>277</ele>
        <time>2017-08-11T09:40:40Z</time>
      </trkpt>
      <trkpt lat="45.95573" lon="4.88082">
        <ele>277</ele>
        <time>2017-08-11T09:40:41Z</time>
      </trkpt>
      <trkpt lat="45.95578" lon="4.88079">
        <ele>277</ele>
        <time>2017-08-11T09:40:42Z</time>
      </trkpt>
      <trkpt lat="45.95582" lon="4.88076">
        <ele>277</ele>
        <time>2017-08-11T09:40:43Z</time>
      </trkpt>
      <trkpt lat="45.95587" lon="4.88072">
        <ele>278</ele>
        <time>2017-08-11T09:40:44Z</time>
      </trkpt>
      <trkpt lat="45.95592" lon="4.88068">
        <ele>278</ele>
        <time>2017-08-11T09:40:45Z</time>
      </trkpt>
      <trkpt lat="45.95597" lon="4.88064">
        <ele>278</ele>
        <time>2017-08-11T09:40:46Z</time>
      </trkpt>
      <trkpt lat="45.95601" lon="4.8806">
        <ele>278</ele>
        <time>2017-08-11T09:40:47Z</time>
      </trkpt>
      <trkpt lat="45.95606" lon="4.88056">
        <ele>278</ele>
        <time>2017-08-11T09:40:48Z</time>
      </trkpt>
      <trkpt lat="45.9561" lon="4.88051">
        <ele>278</ele>
        <time>2017-08-11T09:40:49Z</time>
      </trkpt>
      <trkpt lat="45.95614" lon="4.88047">
        <ele>278</ele>
        <time>2017-08-11T09:40:50Z</time>
      </trkpt>
      <trkpt lat="45.95621" lon="4.88041">
        <ele>278</ele>
        <time>2017-08-11T09:40:52Z</time>
      </trkpt>
      <trkpt lat="45.95625" lon="4.88038">
        <ele>278</ele>
        <time>2017-08-11T09:40:53Z</time>
      </trkpt>
      <trkpt lat="45.95628" lon="4.88034">
        <ele>279</ele>
        <time>2017-08-11T09:40:54Z</time>
      </trkpt>
      <trkpt lat="45.95632" lon="4.8803">
        <ele>279</ele>
        <time>2017-08-11T09:40:55Z</time>
      </trkpt>
      <trkpt lat="45.95636" lon="4.88026">
        <ele>279</ele>
        <time>2017-08-11T09:40:56Z</time>
      </trkpt>
      <trkpt lat="45.95641" lon="4.88023">
        <ele>279</ele>
        <time>2017-08-11T09:40:57Z</time>
      </trkpt>
      <trkpt lat="45.95645" lon="4.88019">
        <ele>279</ele>
        <time>2017-08-11T09:40:58Z</time>
      </trkpt>
      <trkpt lat="45.95649" lon="4.88016">
        <ele>279</ele>
        <time>2017-08-11T09:40:59Z</time>
      </trkpt>
      <trkpt lat="45.95654" lon="4.88012">
        <ele>280</ele>
        <time>2017-08-11T09:41:00Z</time>
      </trkpt>
      <trkpt lat="45.95658" lon="4.88008">
        <ele>280</ele>
        <time>2017-08-11T09:41:01Z</time>
      </trkpt>
      <trkpt lat="45.95662" lon="4.88004">
        <ele>280</ele>
        <time>2017-08-11T09:41:02Z</time>
      </trkpt>
      <trkpt lat="45.95667" lon="4.87999">
        <ele>281</ele>
        <time>2017-08-11T09:41:03Z</time>
      </trkpt>
      <trkpt lat="45.95672" lon="4.87995">
        <ele>281</ele>
        <time>2017-08-11T09:41:04Z</time>
      </trkpt>
      <trkpt lat="45.95676" lon="4.87992">
        <ele>282</ele>
        <time>2017-08-11T09:41:05Z</time>
      </trkpt>
      <trkpt lat="45.95683" lon="4.87985">
        <ele>282</ele>
        <time>2017-08-11T09:41:07Z</time>
      </trkpt>
      <trkpt lat="45.95687" lon="4.87982">
        <ele>282</ele>
        <time>2017-08-11T09:41:08Z</time>
      </trkpt>
      <trkpt lat="45.95694" lon="4.87976">
        <ele>282</ele>
        <time>2017-08-11T09:41:10Z</time>
      </trkpt>
      <trkpt lat="45.95697" lon="4.87973">
        <ele>282</ele>
        <time>2017-08-11T09:41:11Z</time>
      </trkpt>
      <trkpt lat="45.95703" lon="4.87968">
        <ele>283</ele>
        <time>2017-08-11T09:41:13Z</time>
      </trkpt>
      <trkpt lat="45.95706" lon="4.87965">
        <ele>283</ele>
        <time>2017-08-11T09:41:14Z</time>
      </trkpt>
      <trkpt lat="45.95713" lon="4.87959">
        <ele>283</ele>
        <time>2017-08-11T09:41:16Z</time>
      </trkpt>
      <trkpt lat="45.95717" lon="4.87956">
        <ele>283</ele>
        <time>2017-08-11T09:41:17Z</time>
      </trkpt>
      <trkpt lat="45.95724" lon="4.87949">
        <ele>283</ele>
        <time>2017-08-11T09:41:19Z</time>
      </trkpt>
      <trkpt lat="45.95728" lon="4.87946">
        <ele>283</ele>
        <time>2017-08-11T09:41:20Z</time>
      </trkpt>
      <trkpt lat="45.95736" lon="4.87939">
        <ele>284</ele>
        <time>2017-08-11T09:41:22Z</time>
      </trkpt>
      <trkpt lat="45.9574" lon="4.87936">
        <ele>284</ele>
        <time>2017-08-11T09:41:23Z</time>
      </trkpt>
      <trkpt lat="45.95747" lon="4.87929">
        <ele>284</ele>
        <time>2017-08-11T09:41:25Z</time>
      </trkpt>
      <trkpt lat="45.95751" lon="4.87925">
        <ele>286</ele>
        <time>2017-08-11T09:41:26Z</time>
      </trkpt>
      <trkpt lat="45.95758" lon="4.87921">
        <ele>286</ele>
        <time>2017-08-11T09:41:28Z</time>
      </trkpt>
      <trkpt lat="45.95761" lon="4.87919">
        <ele>286</ele>
        <time>2017-08-11T09:41:29Z</time>
      </trkpt>
      <trkpt lat="45.95768" lon="4.87915">
        <ele>286</ele>
        <time>2017-08-11T09:41:31Z</time>
      </trkpt>
      <trkpt lat="45.95771" lon="4.87914">
        <ele>286</ele>
        <time>2017-08-11T09:41:32Z</time>
      </trkpt>
      <trkpt lat="45.95778" lon="4.8791">
        <ele>286</ele>
        <time>2017-08-11T09:41:34Z</time>
      </trkpt>
      <trkpt lat="45.95782" lon="4.87908">
        <ele>286</ele>
        <time>2017-08-11T09:41:35Z</time>
      </trkpt>
      <trkpt lat="45.95788" lon="4.87904">
        <ele>286</ele>
        <time>2017-08-11T09:41:37Z</time>
      </trkpt>
      <trkpt lat="45.95791" lon="4.87902">
        <ele>286</ele>
        <time>2017-08-11T09:41:38Z</time>
      </trkpt>
      <trkpt lat="45.95799" lon="4.87897">
        <ele>287</ele>
        <time>2017-08-11T09:41:40Z</time>
      </trkpt>
      <trkpt lat="45.95802" lon="4.87895">
        <ele>287</ele>
        <time>2017-08-11T09:41:41Z</time>
      </trkpt>
      <trkpt lat="45.95808" lon="4.87892">
        <ele>287</ele>
        <time>2017-08-11T09:41:43Z</time>
      </trkpt>
      <trkpt lat="45.95812" lon="4.87892">
        <ele>287</ele>
        <time>2017-08-11T09:41:44Z</time>
      </trkpt>
      <trkpt lat="45.95818" lon="4.87889">
        <ele>287</ele>
        <time>2017-08-11T09:41:46Z</time>
      </trkpt>
      <trkpt lat="45.95822" lon="4.87888">
        <ele>287</ele>
        <time>2017-08-11T09:41:47Z</time>
      </trkpt>
      <trkpt lat="45.95831" lon="4.87886">
        <ele>287</ele>
        <time>2017-08-11T09:41:50Z</time>
      </trkpt>
      <trkpt lat="45.95834" lon="4.87885">
        <ele>289</ele>
        <time>2017-08-11T09:41:51Z</time>
      </trkpt>
      <trkpt lat="45.95839" lon="4.87882">
        <ele>289</ele>
        <time>2017-08-11T09:41:53Z</time>
      </trkpt>
      <trkpt lat="45.95842" lon="4.87879">
        <ele>289</ele>
        <time>2017-08-11T09:41:54Z</time>
      </trkpt>
      <trkpt lat="45.9585" lon="4.87871">
        <ele>289</ele>
        <time>2017-08-11T09:41:56Z</time>
      </trkpt>
      <trkpt lat="45.95852" lon="4.87867">
        <ele>289</ele>
        <time>2017-08-11T09:41:57Z</time>
      </trkpt>
      <trkpt lat="45.95858" lon="4.8786">
        <ele>289</ele>
        <time>2017-08-11T09:41:59Z</time>
      </trkpt>
      <trkpt lat="45.95861" lon="4.87857">
        <ele>289</ele>
        <time>2017-08-11T09:42:00Z</time>
      </trkpt>
      <trkpt lat="45.95867" lon="4.87851">
        <ele>289</ele>
        <time>2017-08-11T09:42:02Z</time>
      </trkpt>
      <trkpt lat="45.9587" lon="4.87848">
        <ele>289</ele>
        <time>2017-08-11T09:42:03Z</time>
      </trkpt>
      <trkpt lat="45.95877" lon="4.87841">
        <ele>289</ele>
        <time>2017-08-11T09:42:05Z</time>
      </trkpt>
      <trkpt lat="45.9588" lon="4.87838">
        <ele>289</ele>
        <time>2017-08-11T09:42:06Z</time>
      </trkpt>
      <trkpt lat="45.95884" lon="4.87833">
        <ele>288</ele>
        <time>2017-08-11T09:42:07Z</time>
      </trkpt>
      <trkpt lat="45.95888" lon="4.87829">
        <ele>288</ele>
        <time>2017-08-11T09:42:08Z</time>
      </trkpt>
      <trkpt lat="45.95891" lon="4.87825">
        <ele>288</ele>
        <time>2017-08-11T09:42:09Z</time>
      </trkpt>
      <trkpt lat="45.95895" lon="4.8782">
        <ele>288</ele>
        <time>2017-08-11T09:42:10Z</time>
      </trkpt>
      <trkpt lat="45.95899" lon="4.87815">
        <ele>288</ele>
        <time>2017-08-11T09:42:11Z</time>
      </trkpt>
      <trkpt lat="45.95902" lon="4.87809">
        <ele>288</ele>
        <time>2017-08-11T09:42:12Z</time>
      </trkpt>
      <trkpt lat="45.95905" lon="4.87804">
        <ele>288</ele>
        <time>2017-08-11T09:42:13Z</time>
      </trkpt>
      <trkpt lat="45.95908" lon="4.87799">
        <ele>288</ele>
        <time>2017-08-11T09:42:14Z</time>
      </trkpt>
      <trkpt lat="45.95914" lon="4.87789">
        <ele>288</ele>
        <time>2017-08-11T09:42:16Z</time>
      </trkpt>
      <trkpt lat="45.95917" lon="4.87784">
        <ele>289</ele>
        <time>2017-08-11T09:42:17Z</time>
      </trkpt>
      <trkpt lat="45.9592" lon="4.87779">
        <ele>289</ele>
        <time>2017-08-11T09:42:18Z</time>
      </trkpt>
      <trkpt lat="45.95924" lon="4.87774">
        <ele>289</ele>
        <time>2017-08-11T09:42:19Z</time>
      </trkpt>
      <trkpt lat="45.9593" lon="4.87765">
        <ele>289</ele>
        <time>2017-08-11T09:42:21Z</time>
      </trkpt>
      <trkpt lat="45.95932" lon="4.8776">
        <ele>289</ele>
        <time>2017-08-11T09:42:22Z</time>
      </trkpt>
      <trkpt lat="45.95938" lon="4.8775">
        <ele>288</ele>
        <time>2017-08-11T09:42:24Z</time>
      </trkpt>
      <trkpt lat="45.95941" lon="4.87745">
        <ele>288</ele>
        <time>2017-08-11T09:42:25Z</time>
      </trkpt>
      <trkpt lat="45.95944" lon="4.87739">
        <ele>289</ele>
        <time>2017-08-11T09:42:26Z</time>
      </trkpt>
      <trkpt lat="45.95948" lon="4.87733">
        <ele>289</ele>
        <time>2017-08-11T09:42:27Z</time>
      </trkpt>
      <trkpt lat="45.95951" lon="4.87728">
        <ele>289</ele>
        <time>2017-08-11T09:42:28Z</time>
      </trkpt>
      <trkpt lat="45.95954" lon="4.87723">
        <ele>289</ele>
        <time>2017-08-11T09:42:29Z</time>
      </trkpt>
      <trkpt lat="45.95961" lon="4.87716">
        <ele>289</ele>
        <time>2017-08-11T09:42:31Z</time>
      </trkpt>
      <trkpt lat="45.95964" lon="4.87712">
        <ele>289</ele>
        <time>2017-08-11T09:42:32Z</time>
      </trkpt>
      <trkpt lat="45.9597" lon="4.87704">
        <ele>289</ele>
        <time>2017-08-11T09:42:34Z</time>
      </trkpt>
      <trkpt lat="45.95974" lon="4.877">
        <ele>289</ele>
        <time>2017-08-11T09:42:35Z</time>
      </trkpt>
      <trkpt lat="45.95981" lon="4.87692">
        <ele>289</ele>
        <time>2017-08-11T09:42:37Z</time>
      </trkpt>
      <trkpt lat="45.95984" lon="4.87688">
        <ele>289</ele>
        <time>2017-08-11T09:42:38Z</time>
      </trkpt>
      <trkpt lat="45.95988" lon="4.87683">
        <ele>289</ele>
        <time>2017-08-11T09:42:39Z</time>
      </trkpt>
      <trkpt lat="45.95992" lon="4.87679">
        <ele>289</ele>
        <time>2017-08-11T09:42:40Z</time>
      </trkpt>
      <trkpt lat="45.95996" lon="4.87675">
        <ele>290</ele>
        <time>2017-08-11T09:42:41Z</time>
      </trkpt>
      <trkpt lat="45.96" lon="4.87671">
        <ele>290</ele>
        <time>2017-08-11T09:42:42Z</time>
      </trkpt>
      <trkpt lat="45.96007" lon="4.87665">
        <ele>290</ele>
        <time>2017-08-11T09:42:44Z</time>
      </trkpt>
      <trkpt lat="45.9601" lon="4.87661">
        <ele>290</ele>
        <time>2017-08-11T09:42:45Z</time>
      </trkpt>
      <trkpt lat="45.96017" lon="4.87653">
        <ele>289</ele>
        <time>2017-08-11T09:42:47Z</time>
      </trkpt>
      <trkpt lat="45.9602" lon="4.87649">
        <ele>289</ele>
        <time>2017-08-11T09:42:48Z</time>
      </trkpt>
      <trkpt lat="45.96027" lon="4.87642">
        <ele>289</ele>
        <time>2017-08-11T09:42:50Z</time>
      </trkpt>
      <trkpt lat="45.9603" lon="4.87638">
        <ele>289</ele>
        <time>2017-08-11T09:42:51Z</time>
      </trkpt>
      <trkpt lat="45.96034" lon="4.87634">
        <ele>289</ele>
        <time>2017-08-11T09:42:52Z</time>
      </trkpt>
      <trkpt lat="45.96037" lon="4.87629">
        <ele>289</ele>
        <time>2017-08-11T09:42:53Z</time>
      </trkpt>
      <trkpt lat="45.96041" lon="4.87625">
        <ele>289</ele>
        <time>2017-08-11T09:42:54Z</time>
      </trkpt>
      <trkpt lat="45.96045" lon="4.87622">
        <ele>289</ele>
        <time>2017-08-11T09:42:55Z</time>
      </trkpt>
      <trkpt lat="45.96051" lon="4.87614">
        <ele>289</ele>
        <time>2017-08-11T09:42:57Z</time>
      </trkpt>
      <trkpt lat="45.96055" lon="4.8761">
        <ele>289</ele>
        <time>2017-08-11T09:42:58Z</time>
      </trkpt>
      <trkpt lat="45.96062" lon="4.87602">
        <ele>288</ele>
        <time>2017-08-11T09:43:00Z</time>
      </trkpt>
      <trkpt lat="45.96065" lon="4.87598">
        <ele>288</ele>
        <time>2017-08-11T09:43:01Z</time>
      </trkpt>
      <trkpt lat="45.96071" lon="4.87591">
        <ele>288</ele>
        <time>2017-08-11T09:43:03Z</time>
      </trkpt>
      <trkpt lat="45.96075" lon="4.87586">
        <ele>288</ele>
        <time>2017-08-11T09:43:04Z</time>
      </trkpt>
      <trkpt lat="45.96079" lon="4.87581">
        <ele>288</ele>
        <time>2017-08-11T09:43:05Z</time>
      </trkpt>
      <trkpt lat="45.96083" lon="4.87576">
        <ele>288</ele>
        <time>2017-08-11T09:43:06Z</time>
      </trkpt>
      <trkpt lat="45.96087" lon="4.87572">
        <ele>287</ele>
        <time>2017-08-11T09:43:07Z</time>
      </trkpt>
      <trkpt lat="45.96091" lon="4.87567">
        <ele>287</ele>
        <time>2017-08-11T09:43:08Z</time>
      </trkpt>
      <trkpt lat="45.96095" lon="4.87562">
        <ele>287</ele>
        <time>2017-08-11T09:43:09Z</time>
      </trkpt>
      <trkpt lat="45.96099" lon="4.87558">
        <ele>287</ele>
        <time>2017-08-11T09:43:10Z</time>
      </trkpt>
      <trkpt lat="45.96103" lon="4.87553">
        <ele>287</ele>
        <time>2017-08-11T09:43:11Z</time>
      </trkpt>
      <trkpt lat="45.96107" lon="4.87549">
        <ele>287</ele>
        <time>2017-08-11T09:43:12Z</time>
      </trkpt>
      <trkpt lat="45.96111" lon="4.87545">
        <ele>287</ele>
        <time>2017-08-11T09:43:13Z</time>
      </trkpt>
      <trkpt lat="45.96115" lon="4.87541">
        <ele>287</ele>
        <time>2017-08-11T09:43:14Z</time>
      </trkpt>
      <trkpt lat="45.9612" lon="4.87536">
        <ele>287</ele>
        <time>2017-08-11T09:43:15Z</time>
      </trkpt>
      <trkpt lat="45.96124" lon="4.87532">
        <ele>286</ele>
        <time>2017-08-11T09:43:16Z</time>
      </trkpt>
      <trkpt lat="45.96128" lon="4.87528">
        <ele>286</ele>
        <time>2017-08-11T09:43:17Z</time>
      </trkpt>
      <trkpt lat="45.96133" lon="4.87523">
        <ele>286</ele>
        <time>2017-08-11T09:43:18Z</time>
      </trkpt>
      <trkpt lat="45.96137" lon="4.87518">
        <ele>286</ele>
        <time>2017-08-11T09:43:19Z</time>
      </trkpt>
      <trkpt lat="45.96141" lon="4.87513">
        <ele>286</ele>
        <time>2017-08-11T09:43:20Z</time>
      </trkpt>
      <trkpt lat="45.96146" lon="4.87508">
        <ele>286</ele>
        <time>2017-08-11T09:43:21Z</time>
      </trkpt>
      <trkpt lat="45.9615" lon="4.87503">
        <ele>286</ele>
        <time>2017-08-11T09:43:22Z</time>
      </trkpt>
      <trkpt lat="45.96154" lon="4.87499">
        <ele>285</ele>
        <time>2017-08-11T09:43:23Z</time>
      </trkpt>
      <trkpt lat="45.96159" lon="4.87494">
        <ele>285</ele>
        <time>2017-08-11T09:43:24Z</time>
      </trkpt>
      <trkpt lat="45.96163" lon="4.87489">
        <ele>285</ele>
        <time>2017-08-11T09:43:25Z</time>
      </trkpt>
      <trkpt lat="45.96167" lon="4.87484">
        <ele>285</ele>
        <time>2017-08-11T09:43:26Z</time>
      </trkpt>
      <trkpt lat="45.96171" lon="4.87479">
        <ele>285</ele>
        <time>2017-08-11T09:43:27Z</time>
      </trkpt>
      <trkpt lat="45.96175" lon="4.87473">
        <ele>284</ele>
        <time>2017-08-11T09:43:28Z</time>
      </trkpt>
      <trkpt lat="45.96179" lon="4.87469">
        <ele>284</ele>
        <time>2017-08-11T09:43:29Z</time>
      </trkpt>
      <trkpt lat="45.96183" lon="4.87464">
        <ele>284</ele>
        <time>2017-08-11T09:43:30Z</time>
      </trkpt>
      <trkpt lat="45.96186" lon="4.87459">
        <ele>284</ele>
        <time>2017-08-11T09:43:31Z</time>
      </trkpt>
      <trkpt lat="45.9619" lon="4.87454">
        <ele>284</ele>
        <time>2017-08-11T09:43:32Z</time>
      </trkpt>
      <trkpt lat="45.96194" lon="4.87449">
        <ele>284</ele>
        <time>2017-08-11T09:43:33Z</time>
      </trkpt>
      <trkpt lat="45.96198" lon="4.87444">
        <ele>284</ele>
        <time>2017-08-11T09:43:34Z</time>
      </trkpt>
      <trkpt lat="45.96201" lon="4.87438">
        <ele>284</ele>
        <time>2017-08-11T09:43:35Z</time>
      </trkpt>
      <trkpt lat="45.96205" lon="4.87433">
        <ele>284</ele>
        <time>2017-08-11T09:43:36Z</time>
      </trkpt>
      <trkpt lat="45.96209" lon="4.87427">
        <ele>284</ele>
        <time>2017-08-11T09:43:37Z</time>
      </trkpt>
      <trkpt lat="45.96214" lon="4.87422">
        <ele>284</ele>
        <time>2017-08-11T09:43:38Z</time>
      </trkpt>
      <trkpt lat="45.96218" lon="4.87416">
        <ele>283</ele>
        <time>2017-08-11T09:43:39Z</time>
      </trkpt>
      <trkpt lat="45.96223" lon="4.87411">
        <ele>283</ele>
        <time>2017-08-11T09:43:40Z</time>
      </trkpt>
      <trkpt lat="45.96228" lon="4.87406">
        <ele>283</ele>
        <time>2017-08-11T09:43:41Z</time>
      </trkpt>
      <trkpt lat="45.96232" lon="4.87401">
        <ele>283</ele>
        <time>2017-08-11T09:43:42Z</time>
      </trkpt>
      <trkpt lat="45.96237" lon="4.87397">
        <ele>283</ele>
        <time>2017-08-11T09:43:43Z</time>
      </trkpt>
      <trkpt lat="45.96241" lon="4.87392">
        <ele>283</ele>
        <time>2017-08-11T09:43:44Z</time>
      </trkpt>
      <trkpt lat="45.96245" lon="4.87388">
        <ele>283</ele>
        <time>2017-08-11T09:43:45Z</time>
      </trkpt>
      <trkpt lat="45.96249" lon="4.87383">
        <ele>283</ele>
        <time>2017-08-11T09:43:46Z</time>
      </trkpt>
      <trkpt lat="45.96253" lon="4.87379">
        <ele>283</ele>
        <time>2017-08-11T09:43:47Z</time>
      </trkpt>
      <trkpt lat="45.96257" lon="4.87374">
        <ele>283</ele>
        <time>2017-08-11T09:43:48Z</time>
      </trkpt>
      <trkpt lat="45.96261" lon="4.8737">
        <ele>283</ele>
        <time>2017-08-11T09:43:49Z</time>
      </trkpt>
      <trkpt lat="45.96265" lon="4.87365">
        <ele>284</ele>
        <time>2017-08-11T09:43:50Z</time>
      </trkpt>
      <trkpt lat="45.96269" lon="4.87361">
        <ele>284</ele>
        <time>2017-08-11T09:43:51Z</time>
      </trkpt>
      <trkpt lat="45.96273" lon="4.87356">
        <ele>284</ele>
        <time>2017-08-11T09:43:52Z</time>
      </trkpt>
      <trkpt lat="45.96278" lon="4.8735">
        <ele>284</ele>
        <time>2017-08-11T09:43:53Z</time>
      </trkpt>
      <trkpt lat="45.96282" lon="4.87344">
        <ele>284</ele>
        <time>2017-08-11T09:43:54Z</time>
      </trkpt>
      <trkpt lat="45.96286" lon="4.87339">
        <ele>284</ele>
        <time>2017-08-11T09:43:55Z</time>
      </trkpt>
      <trkpt lat="45.9629" lon="4.87334">
        <ele>284</ele>
        <time>2017-08-11T09:43:56Z</time>
      </trkpt>
      <trkpt lat="45.96294" lon="4.87329">
        <ele>283</ele>
        <time>2017-08-11T09:43:57Z</time>
      </trkpt>
      <trkpt lat="45.96298" lon="4.87323">
        <ele>283</ele>
        <time>2017-08-11T09:43:58Z</time>
      </trkpt>
      <trkpt lat="45.96303" lon="4.87319">
        <ele>283</ele>
        <time>2017-08-11T09:43:59Z</time>
      </trkpt>
      <trkpt lat="45.96307" lon="4.87314">
        <ele>283</ele>
        <time>2017-08-11T09:44:00Z</time>
      </trkpt>
      <trkpt lat="45.96311" lon="4.87309">
        <ele>283</ele>
        <time>2017-08-11T09:44:01Z</time>
      </trkpt>
      <trkpt lat="45.96315" lon="4.87305">
        <ele>283</ele>
        <time>2017-08-11T09:44:02Z</time>
      </trkpt>
      <trkpt lat="45.96319" lon="4.873">
        <ele>283</ele>
        <time>2017-08-11T09:44:03Z</time>
      </trkpt>
      <trkpt lat="45.96323" lon="4.87293">
        <ele>283</ele>
        <time>2017-08-11T09:44:04Z</time>
      </trkpt>
      <trkpt lat="45.96326" lon="4.87288">
        <ele>283</ele>
        <time>2017-08-11T09:44:05Z</time>
      </trkpt>
      <trkpt lat="45.9633" lon="4.87282">
        <ele>283</ele>
        <time>2017-08-11T09:44:06Z</time>
      </trkpt>
      <trkpt lat="45.96334" lon="4.87277">
        <ele>283</ele>
        <time>2017-08-11T09:44:07Z</time>
      </trkpt>
      <trkpt lat="45.96338" lon="4.87272">
        <ele>283</ele>
        <time>2017-08-11T09:44:08Z</time>
      </trkpt>
      <trkpt lat="45.96343" lon="4.87265">
        <ele>283</ele>
        <time>2017-08-11T09:44:09Z</time>
      </trkpt>
      <trkpt lat="45.96347" lon="4.8726">
        <ele>283</ele>
        <time>2017-08-11T09:44:10Z</time>
      </trkpt>
      <trkpt lat="45.96351" lon="4.87254">
        <ele>283</ele>
        <time>2017-08-11T09:44:11Z</time>
      </trkpt>
      <trkpt lat="45.96356" lon="4.87249">
        <ele>282</ele>
        <time>2017-08-11T09:44:12Z</time>
      </trkpt>
      <trkpt lat="45.9636" lon="4.87244">
        <ele>282</ele>
        <time>2017-08-11T09:44:13Z</time>
      </trkpt>
      <trkpt lat="45.96364" lon="4.87239">
        <ele>282</ele>
        <time>2017-08-11T09:44:14Z</time>
      </trkpt>
      <trkpt lat="45.96367" lon="4.87234">
        <ele>282</ele>
        <time>2017-08-11T09:44:15Z</time>
      </trkpt>
      <trkpt lat="45.96371" lon="4.87229">
        <ele>282</ele>
        <time>2017-08-11T09:44:16Z</time>
      </trkpt>
      <trkpt lat="45.96375" lon="4.87224">
        <ele>282</ele>
        <time>2017-08-11T09:44:17Z</time>
      </trkpt>
      <trkpt lat="45.96378" lon="4.87219">
        <ele>282</ele>
        <time>2017-08-11T09:44:18Z</time>
      </trkpt>
      <trkpt lat="45.96382" lon="4.87214">
        <ele>282</ele>
        <time>2017-08-11T09:44:19Z</time>
      </trkpt>
      <trkpt lat="45.96386" lon="4.87209">
        <ele>282</ele>
        <time>2017-08-11T09:44:20Z</time>
      </trkpt>
      <trkpt lat="45.9639" lon="4.87204">
        <ele>282</ele>
        <time>2017-08-11T09:44:21Z</time>
      </trkpt>
      <trkpt lat="45.96393" lon="4.87199">
        <ele>282</ele>
        <time>2017-08-11T09:44:22Z</time>
      </trkpt>
      <trkpt lat="45.96397" lon="4.87195">
        <ele>282</ele>
        <time>2017-08-11T09:44:23Z</time>
      </trkpt>
      <trkpt lat="45.964" lon="4.87191">
        <ele>282</ele>
        <time>2017-08-11T09:44:24Z</time>
      </trkpt>
      <trkpt lat="45.96405" lon="4.87185">
        <ele>282</ele>
        <time>2017-08-11T09:44:25Z</time>
      </trkpt>
      <trkpt lat="45.96409" lon="4.87179">
        <ele>281</ele>
        <time>2017-08-11T09:44:26Z</time>
      </trkpt>
      <trkpt lat="45.96413" lon="4.87173">
        <ele>281</ele>
        <time>2017-08-11T09:44:27Z</time>
      </trkpt>
      <trkpt lat="45.96417" lon="4.87167">
        <ele>281</ele>
        <time>2017-08-11T09:44:28Z</time>
      </trkpt>
      <trkpt lat="45.96421" lon="4.87162">
        <ele>281</ele>
        <time>2017-08-11T09:44:29Z</time>
      </trkpt>
      <trkpt lat="45.96426" lon="4.87156">
        <ele>281</ele>
        <time>2017-08-11T09:44:30Z</time>
      </trkpt>
      <trkpt lat="45.96429" lon="4.87151">
        <ele>281</ele>
        <time>2017-08-11T09:44:31Z</time>
      </trkpt>
      <trkpt lat="45.96432" lon="4.87146">
        <ele>281</ele>
        <time>2017-08-11T09:44:32Z</time>
      </trkpt>
      <trkpt lat="45.96435" lon="4.87141">
        <ele>281</ele>
        <time>2017-08-11T09:44:33Z</time>
      </trkpt>
      <trkpt lat="45.96439" lon="4.87137">
        <ele>281</ele>
        <time>2017-08-11T09:44:34Z</time>
      </trkpt>
      <trkpt lat="45.96443" lon="4.87132">
        <ele>281</ele>
        <time>2017-08-11T09:44:35Z</time>
      </trkpt>
      <trkpt lat="45.96446" lon="4.87128">
        <ele>281</ele>
        <time>2017-08-11T09:44:36Z</time>
      </trkpt>
      <trkpt lat="45.9645" lon="4.87123">
        <ele>281</ele>
        <time>2017-08-11T09:44:37Z</time>
      </trkpt>
      <trkpt lat="45.96454" lon="4.87117">
        <ele>281</ele>
        <time>2017-08-11T09:44:38Z</time>
      </trkpt>
      <trkpt lat="45.96457" lon="4.87113">
        <ele>281</ele>
        <time>2017-08-11T09:44:39Z</time>
      </trkpt>
      <trkpt lat="45.96461" lon="4.87108">
        <ele>282</ele>
        <time>2017-08-11T09:44:40Z</time>
      </trkpt>
      <trkpt lat="45.96464" lon="4.87104">
        <ele>282</ele>
        <time>2017-08-11T09:44:41Z</time>
      </trkpt>
      <trkpt lat="45.96468" lon="4.871">
        <ele>282</ele>
        <time>2017-08-11T09:44:42Z</time>
      </trkpt>
      <trkpt lat="45.96471" lon="4.87096">
        <ele>282</ele>
        <time>2017-08-11T09:44:43Z</time>
      </trkpt>
      <trkpt lat="45.96475" lon="4.87092">
        <ele>282</ele>
        <time>2017-08-11T09:44:44Z</time>
      </trkpt>
      <trkpt lat="45.96479" lon="4.87088">
        <ele>282</ele>
        <time>2017-08-11T09:44:45Z</time>
      </trkpt>
      <trkpt lat="45.96482" lon="4.87083">
        <ele>282</ele>
        <time>2017-08-11T09:44:46Z</time>
      </trkpt>
      <trkpt lat="45.96485" lon="4.87077">
        <ele>282</ele>
        <time>2017-08-11T09:44:47Z</time>
      </trkpt>
      <trkpt lat="45.96489" lon="4.87072">
        <ele>282</ele>
        <time>2017-08-11T09:44:48Z</time>
      </trkpt>
      <trkpt lat="45.96493" lon="4.87067">
        <ele>282</ele>
        <time>2017-08-11T09:44:49Z</time>
      </trkpt>
      <trkpt lat="45.96497" lon="4.87062">
        <ele>282</ele>
        <time>2017-08-11T09:44:50Z</time>
      </trkpt>
      <trkpt lat="45.965" lon="4.87057">
        <ele>282</ele>
        <time>2017-08-11T09:44:51Z</time>
      </trkpt>
      <trkpt lat="45.96503" lon="4.87053">
        <ele>282</ele>
        <time>2017-08-11T09:44:52Z</time>
      </trkpt>
      <trkpt lat="45.96511" lon="4.87048">
        <ele>283</ele>
        <time>2017-08-11T09:44:54Z</time>
      </trkpt>
      <trkpt lat="45.96514" lon="4.87049">
        <ele>283</ele>
        <time>2017-08-11T09:44:55Z</time>
      </trkpt>
      <trkpt lat="45.9652" lon="4.87058">
        <ele>283</ele>
        <time>2017-08-11T09:44:58Z</time>
      </trkpt>
      <trkpt lat="45.96521" lon="4.87061">
        <ele>283</ele>
        <time>2017-08-11T09:44:59Z</time>
      </trkpt>
      <trkpt lat="45.96527" lon="4.87068">
        <ele>283</ele>
        <time>2017-08-11T09:45:02Z</time>
      </trkpt>
      <trkpt lat="45.9653" lon="4.87069">
        <ele>283</ele>
        <time>2017-08-11T09:45:03Z</time>
      </trkpt>
      <trkpt lat="45.96537" lon="4.87062">
        <ele>283</ele>
        <time>2017-08-11T09:45:07Z</time>
      </trkpt>
      <trkpt lat="45.96538" lon="4.8706">
        <ele>283</ele>
        <time>2017-08-11T09:45:08Z</time>
      </trkpt>
      <trkpt lat="45.96539" lon="4.87073">
        <ele>283</ele>
        <time>2017-08-11T09:45:13Z</time>
      </trkpt>
      <trkpt lat="45.96541" lon="4.87075">
        <ele>283</ele>
        <time>2017-08-11T09:45:14Z</time>
      </trkpt>
      <trkpt lat="45.96549" lon="4.87077">
        <ele>283</ele>
        <time>2017-08-11T09:45:19Z</time>
      </trkpt>
      <trkpt lat="45.96551" lon="4.87078">
        <ele>283</ele>
        <time>2017-08-11T09:45:20Z</time>
      </trkpt>
      <trkpt lat="45.96558" lon="4.87073">
        <ele>283</ele>
        <time>2017-08-11T09:45:23Z</time>
      </trkpt>
      <trkpt lat="45.96559" lon="4.8707">
        <ele>283</ele>
        <time>2017-08-11T09:45:24Z</time>
      </trkpt>
      <trkpt lat="45.9656" lon="4.87061">
        <ele>283</ele>
        <time>2017-08-11T09:45:26Z</time>
      </trkpt>
      <trkpt lat="45.9656" lon="4.87056">
        <ele>283</ele>
        <time>2017-08-11T09:45:27Z</time>
      </trkpt>
      <trkpt lat="45.9656" lon="4.87047">
        <ele>283</ele>
        <time>2017-08-11T09:45:29Z</time>
      </trkpt>
      <trkpt lat="45.9656" lon="4.87043">
        <ele>283</ele>
        <time>2017-08-11T09:45:30Z</time>
      </trkpt>
      <trkpt lat="45.96558" lon="4.8703">
        <ele>283</ele>
        <time>2017-08-11T09:45:33Z</time>
      </trkpt>
      <trkpt lat="45.96557" lon="4.87028">
        <ele>283</ele>
        <time>2017-08-11T09:45:34Z</time>
      </trkpt>
      <trkpt lat="45.96549" lon="4.87024">
        <ele>283</ele>
        <time>2017-08-11T09:45:37Z</time>
      </trkpt>
      <trkpt lat="45.96546" lon="4.87024">
        <ele>283</ele>
        <time>2017-08-11T09:45:38Z</time>
      </trkpt>
      <trkpt lat="45.96548" lon="4.87028">
        <ele>283</ele>
        <time>2017-08-11T09:45:42Z</time>
      </trkpt>
      <trkpt lat="45.96549" lon="4.87029">
        <ele>283</ele>
        <time>2017-08-11T09:45:43Z</time>
      </trkpt>
      <trkpt lat="45.96548" lon="4.87028">
        <ele>283</ele>
        <time>2017-08-11T09:50:51Z</time>
      </trkpt>
      <trkpt lat="45.96547" lon="4.87027">
        <ele>283</ele>
        <time>2017-08-11T09:50:52Z</time>
      </trkpt>
      <trkpt lat="45.96546" lon="4.87017">
        <ele>283</ele>
        <time>2017-08-11T09:50:56Z</time>
      </trkpt>
      <trkpt lat="45.96545" lon="4.87014">
        <ele>283</ele>
        <time>2017-08-11T09:50:57Z</time>
      </trkpt>
      <trkpt lat="45.96545" lon="4.87003">
        <ele>283</ele>
        <time>2017-08-11T09:50:59Z</time>
      </trkpt>
      <trkpt lat="45.96546" lon="4.86997">
        <ele>283</ele>
        <time>2017-08-11T09:51:00Z</time>
      </trkpt>
      <trkpt lat="45.96549" lon="4.86988">
        <ele>283</ele>
        <time>2017-08-11T09:51:02Z</time>
      </trkpt>
      <trkpt lat="45.96551" lon="4.86985">
        <ele>283</ele>
        <time>2017-08-11T09:51:03Z</time>
      </trkpt>
      <trkpt lat="45.96556" lon="4.86978">
        <ele>283</ele>
        <time>2017-08-11T09:51:05Z</time>
      </trkpt>
      <trkpt lat="45.96558" lon="4.86974">
        <ele>283</ele>
        <time>2017-08-11T09:51:06Z</time>
      </trkpt>
      <trkpt lat="45.96564" lon="4.86966">
        <ele>284</ele>
        <time>2017-08-11T09:51:08Z</time>
      </trkpt>
      <trkpt lat="45.96567" lon="4.86961">
        <ele>284</ele>
        <time>2017-08-11T09:51:09Z</time>
      </trkpt>
      <trkpt lat="45.96572" lon="4.86951">
        <ele>284</ele>
        <time>2017-08-11T09:51:11Z</time>
      </trkpt>
      <trkpt lat="45.96575" lon="4.86946">
        <ele>284</ele>
        <time>2017-08-11T09:51:12Z</time>
      </trkpt>
      <trkpt lat="45.96578" lon="4.86941">
        <ele>284</ele>
        <time>2017-08-11T09:51:13Z</time>
      </trkpt>
      <trkpt lat="45.96581" lon="4.86936">
        <ele>284</ele>
        <time>2017-08-11T09:51:14Z</time>
      </trkpt>
      <trkpt lat="45.96584" lon="4.86931">
        <ele>286</ele>
        <time>2017-08-11T09:51:15Z</time>
      </trkpt>
      <trkpt lat="45.96586" lon="4.86926">
        <ele>285</ele>
        <time>2017-08-11T09:51:16Z</time>
      </trkpt>
      <trkpt lat="45.96589" lon="4.86921">
        <ele>285</ele>
        <time>2017-08-11T09:51:17Z</time>
      </trkpt>
      <trkpt lat="45.96593" lon="4.86915">
        <ele>286</ele>
        <time>2017-08-11T09:51:18Z</time>
      </trkpt>
      <trkpt lat="45.96596" lon="4.8691">
        <ele>286</ele>
        <time>2017-08-11T09:51:19Z</time>
      </trkpt>
      <trkpt lat="45.96599" lon="4.86904">
        <ele>286</ele>
        <time>2017-08-11T09:51:20Z</time>
      </trkpt>
      <trkpt lat="45.96604" lon="4.86895">
        <ele>286</ele>
        <time>2017-08-11T09:51:22Z</time>
      </trkpt>
      <trkpt lat="45.96607" lon="4.86891">
        <ele>287</ele>
        <time>2017-08-11T09:51:23Z</time>
      </trkpt>
      <trkpt lat="45.96611" lon="4.86884">
        <ele>287</ele>
        <time>2017-08-11T09:51:25Z</time>
      </trkpt>
      <trkpt lat="45.96613" lon="4.86881">
        <ele>287</ele>
        <time>2017-08-11T09:51:26Z</time>
      </trkpt>
      <trkpt lat="45.96618" lon="4.86873">
        <ele>287</ele>
        <time>2017-08-11T09:51:28Z</time>
      </trkpt>
      <trkpt lat="45.96621" lon="4.86869">
        <ele>287</ele>
        <time>2017-08-11T09:51:29Z</time>
      </trkpt>
      <trkpt lat="45.96626" lon="4.86859">
        <ele>287</ele>
        <time>2017-08-11T09:51:31Z</time>
      </trkpt>
      <trkpt lat="45.96629" lon="4.86854">
        <ele>287</ele>
        <time>2017-08-11T09:51:32Z</time>
      </trkpt>
      <trkpt lat="45.96635" lon="4.86845">
        <ele>287</ele>
        <time>2017-08-11T09:51:34Z</time>
      </trkpt>
      <trkpt lat="45.96638" lon="4.8684">
        <ele>287</ele>
        <time>2017-08-11T09:51:35Z</time>
      </trkpt>
      <trkpt lat="45.96641" lon="4.86835">
        <ele>287</ele>
        <time>2017-08-11T09:51:36Z</time>
      </trkpt>
      <trkpt lat="45.96644" lon="4.86829">
        <ele>288</ele>
        <time>2017-08-11T09:51:37Z</time>
      </trkpt>
      <trkpt lat="45.9665" lon="4.8682">
        <ele>288</ele>
        <time>2017-08-11T09:51:39Z</time>
      </trkpt>
      <trkpt lat="45.96652" lon="4.86815">
        <ele>288</ele>
        <time>2017-08-11T09:51:40Z</time>
      </trkpt>
      <trkpt lat="45.96655" lon="4.86811">
        <ele>288</ele>
        <time>2017-08-11T09:51:41Z</time>
      </trkpt>
      <trkpt lat="45.96658" lon="4.86805">
        <ele>288</ele>
        <time>2017-08-11T09:51:42Z</time>
      </trkpt>
      <trkpt lat="45.96661" lon="4.868">
        <ele>288</ele>
        <time>2017-08-11T09:51:43Z</time>
      </trkpt>
      <trkpt lat="45.96664" lon="4.86796">
        <ele>288</ele>
        <time>2017-08-11T09:51:44Z</time>
      </trkpt>
      <trkpt lat="45.9667" lon="4.86786">
        <ele>289</ele>
        <time>2017-08-11T09:51:46Z</time>
      </trkpt>
      <trkpt lat="45.96672" lon="4.86782">
        <ele>289</ele>
        <time>2017-08-11T09:51:47Z</time>
      </trkpt>
      <trkpt lat="45.96678" lon="4.86774">
        <ele>289</ele>
        <time>2017-08-11T09:51:49Z</time>
      </trkpt>
      <trkpt lat="45.96681" lon="4.8677">
        <ele>289</ele>
        <time>2017-08-11T09:51:50Z</time>
      </trkpt>
      <trkpt lat="45.96684" lon="4.86765">
        <ele>289</ele>
        <time>2017-08-11T09:51:51Z</time>
      </trkpt>
      <trkpt lat="45.96687" lon="4.8676">
        <ele>289</ele>
        <time>2017-08-11T09:51:52Z</time>
      </trkpt>
      <trkpt lat="45.9669" lon="4.86756">
        <ele>289</ele>
        <time>2017-08-11T09:51:53Z</time>
      </trkpt>
      <trkpt lat="45.96693" lon="4.8675">
        <ele>289</ele>
        <time>2017-08-11T09:51:54Z</time>
      </trkpt>
      <trkpt lat="45.96696" lon="4.86745">
        <ele>289</ele>
        <time>2017-08-11T09:51:55Z</time>
      </trkpt>
      <trkpt lat="45.96699" lon="4.8674">
        <ele>289</ele>
        <time>2017-08-11T09:51:56Z</time>
      </trkpt>
      <trkpt lat="45.96703" lon="4.86734">
        <ele>289</ele>
        <time>2017-08-11T09:51:57Z</time>
      </trkpt>
      <trkpt lat="45.96706" lon="4.86728">
        <ele>289</ele>
        <time>2017-08-11T09:51:58Z</time>
      </trkpt>
      <trkpt lat="45.9671" lon="4.86723">
        <ele>289</ele>
        <time>2017-08-11T09:51:59Z</time>
      </trkpt>
      <trkpt lat="45.96713" lon="4.86718">
        <ele>289</ele>
        <time>2017-08-11T09:52:00Z</time>
      </trkpt>
      <trkpt lat="45.96718" lon="4.86708">
        <ele>289</ele>
        <time>2017-08-11T09:52:02Z</time>
      </trkpt>
      <trkpt lat="45.96721" lon="4.86703">
        <ele>289</ele>
        <time>2017-08-11T09:52:03Z</time>
      </trkpt>
      <trkpt lat="45.96724" lon="4.86698">
        <ele>289</ele>
        <time>2017-08-11T09:52:04Z</time>
      </trkpt>
      <trkpt lat="45.96727" lon="4.86693">
        <ele>289</ele>
        <time>2017-08-11T09:52:05Z</time>
      </trkpt>
      <trkpt lat="45.9673" lon="4.86688">
        <ele>289</ele>
        <time>2017-08-11T09:52:06Z</time>
      </trkpt>
      <trkpt lat="45.96733" lon="4.86683">
        <ele>290</ele>
        <time>2017-08-11T09:52:07Z</time>
      </trkpt>
      <trkpt lat="45.96736" lon="4.86678">
        <ele>290</ele>
        <time>2017-08-11T09:52:08Z</time>
      </trkpt>
      <trkpt lat="45.96739" lon="4.86673">
        <ele>290</ele>
        <time>2017-08-11T09:52:09Z</time>
      </trkpt>
      <trkpt lat="45.96745" lon="4.86663">
        <ele>290</ele>
        <time>2017-08-11T09:52:11Z</time>
      </trkpt>
      <trkpt lat="45.96748" lon="4.86658">
        <ele>290</ele>
        <time>2017-08-11T09:52:12Z</time>
      </trkpt>
      <trkpt lat="45.96753" lon="4.86649">
        <ele>290</ele>
        <time>2017-08-11T09:52:14Z</time>
      </trkpt>
      <trkpt lat="45.96756" lon="4.86644">
        <ele>290</ele>
        <time>2017-08-11T09:52:15Z</time>
      </trkpt>
      <trkpt lat="45.96762" lon="4.86635">
        <ele>289</ele>
        <time>2017-08-11T09:52:17Z</time>
      </trkpt>
      <trkpt lat="45.96765" lon="4.8663">
        <ele>289</ele>
        <time>2017-08-11T09:52:18Z</time>
      </trkpt>
      <trkpt lat="45.96771" lon="4.8662">
        <ele>289</ele>
        <time>2017-08-11T09:52:20Z</time>
      </trkpt>
      <trkpt lat="45.96773" lon="4.86616">
        <ele>289</ele>
        <time>2017-08-11T09:52:21Z</time>
      </trkpt>
      <trkpt lat="45.96779" lon="4.86607">
        <ele>289</ele>
        <time>2017-08-11T09:52:23Z</time>
      </trkpt>
      <trkpt lat="45.96781" lon="4.86602">
        <ele>289</ele>
        <time>2017-08-11T09:52:24Z</time>
      </trkpt>
      <trkpt lat="45.96787" lon="4.86593">
        <ele>289</ele>
        <time>2017-08-11T09:52:26Z</time>
      </trkpt>
      <trkpt lat="45.9679" lon="4.86588">
        <ele>289</ele>
        <time>2017-08-11T09:52:27Z</time>
      </trkpt>
      <trkpt lat="45.96794" lon="4.86583">
        <ele>290</ele>
        <time>2017-08-11T09:52:28Z</time>
      </trkpt>
      <trkpt lat="45.96797" lon="4.86577">
        <ele>290</ele>
        <time>2017-08-11T09:52:29Z</time>
      </trkpt>
      <trkpt lat="45.96799" lon="4.86572">
        <ele>290</ele>
        <time>2017-08-11T09:52:30Z</time>
      </trkpt>
      <trkpt lat="45.96802" lon="4.86566">
        <ele>290</ele>
        <time>2017-08-11T09:52:31Z</time>
      </trkpt>
      <trkpt lat="45.96808" lon="4.86557">
        <ele>290</ele>
        <time>2017-08-11T09:52:33Z</time>
      </trkpt>
      <trkpt lat="45.9681" lon="4.86552">
        <ele>290</ele>
        <time>2017-08-11T09:52:34Z</time>
      </trkpt>
      <trkpt lat="45.96815" lon="4.86544">
        <ele>290</ele>
        <time>2017-08-11T09:52:36Z</time>
      </trkpt>
      <trkpt lat="45.96818" lon="4.86539">
        <ele>290</ele>
        <time>2017-08-11T09:52:37Z</time>
      </trkpt>
      <trkpt lat="45.96823" lon="4.8653">
        <ele>289</ele>
        <time>2017-08-11T09:52:39Z</time>
      </trkpt>
      <trkpt lat="45.96826" lon="4.86525">
        <ele>289</ele>
        <time>2017-08-11T09:52:40Z</time>
      </trkpt>
      <trkpt lat="45.96829" lon="4.8652">
        <ele>289</ele>
        <time>2017-08-11T09:52:41Z</time>
      </trkpt>
      <trkpt lat="45.96832" lon="4.86515">
        <ele>289</ele>
        <time>2017-08-11T09:52:42Z</time>
      </trkpt>
      <trkpt lat="45.96835" lon="4.8651">
        <ele>289</ele>
        <time>2017-08-11T09:52:43Z</time>
      </trkpt>
      <trkpt lat="45.96838" lon="4.86504">
        <ele>289</ele>
        <time>2017-08-11T09:52:44Z</time>
      </trkpt>
      <trkpt lat="45.9684" lon="4.86498">
        <ele>289</ele>
        <time>2017-08-11T09:52:45Z</time>
      </trkpt>
      <trkpt lat="45.96843" lon="4.86492">
        <ele>289</ele>
        <time>2017-08-11T09:52:46Z</time>
      </trkpt>
      <trkpt lat="45.96845" lon="4.86487">
        <ele>289</ele>
        <time>2017-08-11T09:52:47Z</time>
      </trkpt>
      <trkpt lat="45.96847" lon="4.86481">
        <ele>289</ele>
        <time>2017-08-11T09:52:48Z</time>
      </trkpt>
      <trkpt lat="45.96849" lon="4.86475">
        <ele>289</ele>
        <time>2017-08-11T09:52:49Z</time>
      </trkpt>
      <trkpt lat="45.96851" lon="4.86469">
        <ele>289</ele>
        <time>2017-08-11T09:52:50Z</time>
      </trkpt>
      <trkpt lat="45.96854" lon="4.86457">
        <ele>289</ele>
        <time>2017-08-11T09:52:52Z</time>
      </trkpt>
      <trkpt lat="45.96855" lon="4.86452">
        <ele>289</ele>
        <time>2017-08-11T09:52:53Z</time>
      </trkpt>
      <trkpt lat="45.96858" lon="4.86441">
        <ele>289</ele>
        <time>2017-08-11T09:52:55Z</time>
      </trkpt>
      <trkpt lat="45.96859" lon="4.86436">
        <ele>290</ele>
        <time>2017-08-11T09:52:56Z</time>
      </trkpt>
      <trkpt lat="45.96861" lon="4.86426">
        <ele>290</ele>
        <time>2017-08-11T09:52:58Z</time>
      </trkpt>
      <trkpt lat="45.96862" lon="4.8642">
        <ele>290</ele>
        <time>2017-08-11T09:52:59Z</time>
      </trkpt>
      <trkpt lat="45.96864" lon="4.86407">
        <ele>290</ele>
        <time>2017-08-11T09:53:01Z</time>
      </trkpt>
      <trkpt lat="45.96864" lon="4.86402">
        <ele>290</ele>
        <time>2017-08-11T09:53:02Z</time>
      </trkpt>
      <trkpt lat="45.96866" lon="4.8639">
        <ele>290</ele>
        <time>2017-08-11T09:53:04Z</time>
      </trkpt>
      <trkpt lat="45.96867" lon="4.86385">
        <ele>290</ele>
        <time>2017-08-11T09:53:05Z</time>
      </trkpt>
      <trkpt lat="45.96868" lon="4.86374">
        <ele>290</ele>
        <time>2017-08-11T09:53:07Z</time>
      </trkpt>
      <trkpt lat="45.96869" lon="4.86369">
        <ele>290</ele>
        <time>2017-08-11T09:53:08Z</time>
      </trkpt>
      <trkpt lat="45.9687" lon="4.86356">
        <ele>290</ele>
        <time>2017-08-11T09:53:10Z</time>
      </trkpt>
      <trkpt lat="45.96871" lon="4.86349">
        <ele>290</ele>
        <time>2017-08-11T09:53:11Z</time>
      </trkpt>
      <trkpt lat="45.96872" lon="4.86343">
        <ele>290</ele>
        <time>2017-08-11T09:53:12Z</time>
      </trkpt>
      <trkpt lat="45.96873" lon="4.86336">
        <ele>290</ele>
        <time>2017-08-11T09:53:13Z</time>
      </trkpt>
      <trkpt lat="45.96874" lon="4.86325">
        <ele>289</ele>
        <time>2017-08-11T09:53:15Z</time>
      </trkpt>
      <trkpt lat="45.96875" lon="4.86321">
        <ele>289</ele>
        <time>2017-08-11T09:53:16Z</time>
      </trkpt>
      <trkpt lat="45.96877" lon="4.86312">
        <ele>289</ele>
        <time>2017-08-11T09:53:18Z</time>
      </trkpt>
      <trkpt lat="45.96877" lon="4.86308">
        <ele>289</ele>
        <time>2017-08-11T09:53:19Z</time>
      </trkpt>
      <trkpt lat="45.96879" lon="4.86298">
        <ele>289</ele>
        <time>2017-08-11T09:53:21Z</time>
      </trkpt>
      <trkpt lat="45.9688" lon="4.86293">
        <ele>289</ele>
        <time>2017-08-11T09:53:22Z</time>
      </trkpt>
      <trkpt lat="45.96881" lon="4.86284">
        <ele>289</ele>
        <time>2017-08-11T09:53:24Z</time>
      </trkpt>
      <trkpt lat="45.96881" lon="4.8628">
        <ele>289</ele>
        <time>2017-08-11T09:53:25Z</time>
      </trkpt>
      <trkpt lat="45.96883" lon="4.86268">
        <ele>288</ele>
        <time>2017-08-11T09:53:28Z</time>
      </trkpt>
      <trkpt lat="45.96884" lon="4.86263">
        <ele>288</ele>
        <time>2017-08-11T09:53:29Z</time>
      </trkpt>
      <trkpt lat="45.96885" lon="4.86254">
        <ele>288</ele>
        <time>2017-08-11T09:53:31Z</time>
      </trkpt>
      <trkpt lat="45.96885" lon="4.86249">
        <ele>288</ele>
        <time>2017-08-11T09:53:32Z</time>
      </trkpt>
      <trkpt lat="45.96887" lon="4.86239">
        <ele>288</ele>
        <time>2017-08-11T09:53:34Z</time>
      </trkpt>
      <trkpt lat="45.96888" lon="4.86234">
        <ele>288</ele>
        <time>2017-08-11T09:53:35Z</time>
      </trkpt>
      <trkpt lat="45.9689" lon="4.86227">
        <ele>288</ele>
        <time>2017-08-11T09:53:37Z</time>
      </trkpt>
      <trkpt lat="45.9689" lon="4.86226">
        <ele>288</ele>
        <time>2017-08-11T09:53:38Z</time>
      </trkpt>
      <trkpt lat="45.9689" lon="4.86226">
        <ele>288</ele>
        <time>2017-08-11T09:54:13Z</time>
      </trkpt>
      <trkpt lat="45.9689" lon="4.86226">
        <ele>288</ele>
        <time>2017-08-11T09:54:14Z</time>
      </trkpt>
      <trkpt lat="45.96891" lon="4.86214">
        <ele>289</ele>
        <time>2017-08-11T09:54:18Z</time>
      </trkpt>
      <trkpt lat="45.96891" lon="4.86209">
        <ele>289</ele>
        <time>2017-08-11T09:54:19Z</time>
      </trkpt>
      <trkpt lat="45.96893" lon="4.86197">
        <ele>289</ele>
        <time>2017-08-11T09:54:22Z</time>
      </trkpt>
      <trkpt lat="45.96893" lon="4.86192">
        <ele>289</ele>
        <time>2017-08-11T09:54:23Z</time>
      </trkpt>
      <trkpt lat="45.96894" lon="4.86185">
        <ele>289</ele>
        <time>2017-08-11T09:54:24Z</time>
      </trkpt>
      <trkpt lat="45.96895" lon="4.86178">
        <ele>288</ele>
        <time>2017-08-11T09:54:25Z</time>
      </trkpt>
      <trkpt lat="45.96895" lon="4.86171">
        <ele>288</ele>
        <time>2017-08-11T09:54:26Z</time>
      </trkpt>
      <trkpt lat="45.96896" lon="4.86164">
        <ele>289</ele>
        <time>2017-08-11T09:54:27Z</time>
      </trkpt>
      <trkpt lat="45.96897" lon="4.86157">
        <ele>289</ele>
        <time>2017-08-11T09:54:28Z</time>
      </trkpt>
      <trkpt lat="45.96898" lon="4.8615">
        <ele>289</ele>
        <time>2017-08-11T09:54:29Z</time>
      </trkpt>
      <trkpt lat="45.96898" lon="4.86142">
        <ele>289</ele>
        <time>2017-08-11T09:54:30Z</time>
      </trkpt>
      <trkpt lat="45.96899" lon="4.86135">
        <ele>289</ele>
        <time>2017-08-11T09:54:31Z</time>
      </trkpt>
      <trkpt lat="45.96899" lon="4.86128">
        <ele>289</ele>
        <time>2017-08-11T09:54:32Z</time>
      </trkpt>
      <trkpt lat="45.969" lon="4.8612">
        <ele>289</ele>
        <time>2017-08-11T09:54:33Z</time>
      </trkpt>
      <trkpt lat="45.96901" lon="4.86113">
        <ele>289</ele>
        <time>2017-08-11T09:54:34Z</time>
      </trkpt>
      <trkpt lat="45.96902" lon="4.86106">
        <ele>289</ele>
        <time>2017-08-11T09:54:35Z</time>
      </trkpt>
      <trkpt lat="45.96903" lon="4.86098">
        <ele>288</ele>
        <time>2017-08-11T09:54:36Z</time>
      </trkpt>
      <trkpt lat="45.96903" lon="4.86091">
        <ele>288</ele>
        <time>2017-08-11T09:54:37Z</time>
      </trkpt>
      <trkpt lat="45.96904" lon="4.86084">
        <ele>288</ele>
        <time>2017-08-11T09:54:38Z</time>
      </trkpt>
      <trkpt lat="45.96905" lon="4.86076">
        <ele>288</ele>
        <time>2017-08-11T09:54:39Z</time>
      </trkpt>
      <trkpt lat="45.96906" lon="4.86069">
        <ele>288</ele>
        <time>2017-08-11T09:54:40Z</time>
      </trkpt>
      <trkpt lat="45.96906" lon="4.86061">
        <ele>288</ele>
        <time>2017-08-11T09:54:41Z</time>
      </trkpt>
      <trkpt lat="45.96907" lon="4.86054">
        <ele>289</ele>
        <time>2017-08-11T09:54:42Z</time>
      </trkpt>
      <trkpt lat="45.96907" lon="4.86046">
        <ele>289</ele>
        <time>2017-08-11T09:54:43Z</time>
      </trkpt>
      <trkpt lat="45.96909" lon="4.86037">
        <ele>289</ele>
        <time>2017-08-11T09:54:44Z</time>
      </trkpt>
      <trkpt lat="45.9691" lon="4.8603">
        <ele>289</ele>
        <time>2017-08-11T09:54:45Z</time>
      </trkpt>
      <trkpt lat="45.96912" lon="4.86021">
        <ele>289</ele>
        <time>2017-08-11T09:54:46Z</time>
      </trkpt>
      <trkpt lat="45.96913" lon="4.86013">
        <ele>288</ele>
        <time>2017-08-11T09:54:47Z</time>
      </trkpt>
      <trkpt lat="45.96915" lon="4.86005">
        <ele>288</ele>
        <time>2017-08-11T09:54:48Z</time>
      </trkpt>
      <trkpt lat="45.96916" lon="4.85996">
        <ele>288</ele>
        <time>2017-08-11T09:54:49Z</time>
      </trkpt>
      <trkpt lat="45.96917" lon="4.85988">
        <ele>287</ele>
        <time>2017-08-11T09:54:50Z</time>
      </trkpt>
      <trkpt lat="45.96919" lon="4.8598">
        <ele>287</ele>
        <time>2017-08-11T09:54:51Z</time>
      </trkpt>
      <trkpt lat="45.9692" lon="4.85972">
        <ele>287</ele>
        <time>2017-08-11T09:54:52Z</time>
      </trkpt>
      <trkpt lat="45.96922" lon="4.85964">
        <ele>287</ele>
        <time>2017-08-11T09:54:53Z</time>
      </trkpt>
      <trkpt lat="45.96924" lon="4.85957">
        <ele>287</ele>
        <time>2017-08-11T09:54:54Z</time>
      </trkpt>
      <trkpt lat="45.96926" lon="4.8595">
        <ele>287</ele>
        <time>2017-08-11T09:54:55Z</time>
      </trkpt>
      <trkpt lat="45.96928" lon="4.85943">
        <ele>286</ele>
        <time>2017-08-11T09:54:56Z</time>
      </trkpt>
      <trkpt lat="45.9693" lon="4.85936">
        <ele>286</ele>
        <time>2017-08-11T09:54:57Z</time>
      </trkpt>
      <trkpt lat="45.96932" lon="4.85929">
        <ele>286</ele>
        <time>2017-08-11T09:54:58Z</time>
      </trkpt>
      <trkpt lat="45.96934" lon="4.85921">
        <ele>286</ele>
        <time>2017-08-11T09:54:59Z</time>
      </trkpt>
      <trkpt lat="45.96936" lon="4.85914">
        <ele>286</ele>
        <time>2017-08-11T09:55:00Z</time>
      </trkpt>
      <trkpt lat="45.96937" lon="4.85907">
        <ele>286</ele>
        <time>2017-08-11T09:55:01Z</time>
      </trkpt>
      <trkpt lat="45.96939" lon="4.859">
        <ele>285</ele>
        <time>2017-08-11T09:55:02Z</time>
      </trkpt>
      <trkpt lat="45.96941" lon="4.85893">
        <ele>285</ele>
        <time>2017-08-11T09:55:03Z</time>
      </trkpt>
      <trkpt lat="45.96944" lon="4.85885">
        <ele>285</ele>
        <time>2017-08-11T09:55:04Z</time>
      </trkpt>
      <trkpt lat="45.96946" lon="4.85877">
        <ele>285</ele>
        <time>2017-08-11T09:55:05Z</time>
      </trkpt>
      <trkpt lat="45.96948" lon="4.85868">
        <ele>285</ele>
        <time>2017-08-11T09:55:06Z</time>
      </trkpt>
      <trkpt lat="45.9695" lon="4.8586">
        <ele>285</ele>
        <time>2017-08-11T09:55:07Z</time>
      </trkpt>
      <trkpt lat="45.96953" lon="4.85851">
        <ele>285</ele>
        <time>2017-08-11T09:55:08Z</time>
      </trkpt>
      <trkpt lat="45.96955" lon="4.85841">
        <ele>285</ele>
        <time>2017-08-11T09:55:09Z</time>
      </trkpt>
      <trkpt lat="45.96958" lon="4.85832">
        <ele>285</ele>
        <time>2017-08-11T09:55:10Z</time>
      </trkpt>
      <trkpt lat="45.9696" lon="4.85823">
        <ele>285</ele>
        <time>2017-08-11T09:55:11Z</time>
      </trkpt>
      <trkpt lat="45.96963" lon="4.85814">
        <ele>285</ele>
        <time>2017-08-11T09:55:12Z</time>
      </trkpt>
      <trkpt lat="45.96965" lon="4.85806">
        <ele>285</ele>
        <time>2017-08-11T09:55:13Z</time>
      </trkpt>
      <trkpt lat="45.96967" lon="4.85797">
        <ele>285</ele>
        <time>2017-08-11T09:55:14Z</time>
      </trkpt>
      <trkpt lat="45.96969" lon="4.8579">
        <ele>285</ele>
        <time>2017-08-11T09:55:15Z</time>
      </trkpt>
      <trkpt lat="45.96971" lon="4.85782">
        <ele>285</ele>
        <time>2017-08-11T09:55:16Z</time>
      </trkpt>
      <trkpt lat="45.96974" lon="4.85774">
        <ele>285</ele>
        <time>2017-08-11T09:55:17Z</time>
      </trkpt>
      <trkpt lat="45.96976" lon="4.85767">
        <ele>285</ele>
        <time>2017-08-11T09:55:18Z</time>
      </trkpt>
      <trkpt lat="45.96978" lon="4.8576">
        <ele>285</ele>
        <time>2017-08-11T09:55:19Z</time>
      </trkpt>
      <trkpt lat="45.9698" lon="4.85752">
        <ele>285</ele>
        <time>2017-08-11T09:55:20Z</time>
      </trkpt>
      <trkpt lat="45.96982" lon="4.85745">
        <ele>285</ele>
        <time>2017-08-11T09:55:21Z</time>
      </trkpt>
      <trkpt lat="45.96984" lon="4.85738">
        <ele>285</ele>
        <time>2017-08-11T09:55:22Z</time>
      </trkpt>
      <trkpt lat="45.96986" lon="4.8573">
        <ele>285</ele>
        <time>2017-08-11T09:55:23Z</time>
      </trkpt>
      <trkpt lat="45.96989" lon="4.85723">
        <ele>285</ele>
        <time>2017-08-11T09:55:24Z</time>
      </trkpt>
      <trkpt lat="45.96991" lon="4.85715">
        <ele>285</ele>
        <time>2017-08-11T09:55:25Z</time>
      </trkpt>
      <trkpt lat="45.96993" lon="4.85706">
        <ele>285</ele>
        <time>2017-08-11T09:55:26Z</time>
      </trkpt>
      <trkpt lat="45.96995" lon="4.85698">
        <ele>285</ele>
        <time>2017-08-11T09:55:27Z</time>
      </trkpt>
      <trkpt lat="45.96997" lon="4.8569">
        <ele>285</ele>
        <time>2017-08-11T09:55:28Z</time>
      </trkpt>
      <trkpt lat="45.96999" lon="4.85683">
        <ele>286</ele>
        <time>2017-08-11T09:55:29Z</time>
      </trkpt>
      <trkpt lat="45.97001" lon="4.85675">
        <ele>285</ele>
        <time>2017-08-11T09:55:30Z</time>
      </trkpt>
      <trkpt lat="45.97003" lon="4.85667">
        <ele>286</ele>
        <time>2017-08-11T09:55:31Z</time>
      </trkpt>
      <trkpt lat="45.97005" lon="4.8566">
        <ele>285</ele>
        <time>2017-08-11T09:55:32Z</time>
      </trkpt>
      <trkpt lat="45.97007" lon="4.85652">
        <ele>285</ele>
        <time>2017-08-11T09:55:33Z</time>
      </trkpt>
      <trkpt lat="45.97009" lon="4.85644">
        <ele>284</ele>
        <time>2017-08-11T09:55:34Z</time>
      </trkpt>
      <trkpt lat="45.97011" lon="4.85635">
        <ele>284</ele>
        <time>2017-08-11T09:55:35Z</time>
      </trkpt>
      <trkpt lat="45.97013" lon="4.85627">
        <ele>284</ele>
        <time>2017-08-11T09:55:36Z</time>
      </trkpt>
      <trkpt lat="45.97016" lon="4.85619">
        <ele>284</ele>
        <time>2017-08-11T09:55:37Z</time>
      </trkpt>
      <trkpt lat="45.97018" lon="4.8561">
        <ele>284</ele>
        <time>2017-08-11T09:55:38Z</time>
      </trkpt>
      <trkpt lat="45.9702" lon="4.85602">
        <ele>284</ele>
        <time>2017-08-11T09:55:39Z</time>
      </trkpt>
      <trkpt lat="45.97023" lon="4.85594">
        <ele>284</ele>
        <time>2017-08-11T09:55:40Z</time>
      </trkpt>
      <trkpt lat="45.97026" lon="4.85585">
        <ele>284</ele>
        <time>2017-08-11T09:55:41Z</time>
      </trkpt>
      <trkpt lat="45.97028" lon="4.85577">
        <ele>283</ele>
        <time>2017-08-11T09:55:42Z</time>
      </trkpt>
      <trkpt lat="45.97031" lon="4.85568">
        <ele>283</ele>
        <time>2017-08-11T09:55:43Z</time>
      </trkpt>
      <trkpt lat="45.97034" lon="4.8556">
        <ele>283</ele>
        <time>2017-08-11T09:55:44Z</time>
      </trkpt>
      <trkpt lat="45.97036" lon="4.85551">
        <ele>282</ele>
        <time>2017-08-11T09:55:45Z</time>
      </trkpt>
      <trkpt lat="45.97039" lon="4.85543">
        <ele>282</ele>
        <time>2017-08-11T09:55:46Z</time>
      </trkpt>
      <trkpt lat="45.97041" lon="4.85534">
        <ele>282</ele>
        <time>2017-08-11T09:55:47Z</time>
      </trkpt>
      <trkpt lat="45.97043" lon="4.85526">
        <ele>282</ele>
        <time>2017-08-11T09:55:48Z</time>
      </trkpt>
      <trkpt lat="45.97046" lon="4.85518">
        <ele>282</ele>
        <time>2017-08-11T09:55:49Z</time>
      </trkpt>
      <trkpt lat="45.97048" lon="4.8551">
        <ele>282</ele>
        <time>2017-08-11T09:55:50Z</time>
      </trkpt>
      <trkpt lat="45.9705" lon="4.85502">
        <ele>282</ele>
        <time>2017-08-11T09:55:51Z</time>
      </trkpt>
      <trkpt lat="45.97053" lon="4.85494">
        <ele>281</ele>
        <time>2017-08-11T09:55:52Z</time>
      </trkpt>
      <trkpt lat="45.97055" lon="4.85487">
        <ele>281</ele>
        <time>2017-08-11T09:55:53Z</time>
      </trkpt>
      <trkpt lat="45.97058" lon="4.85479">
        <ele>281</ele>
        <time>2017-08-11T09:55:54Z</time>
      </trkpt>
      <trkpt lat="45.9706" lon="4.85471">
        <ele>281</ele>
        <time>2017-08-11T09:55:55Z</time>
      </trkpt>
      <trkpt lat="45.97063" lon="4.85463">
        <ele>281</ele>
        <time>2017-08-11T09:55:56Z</time>
      </trkpt>
      <trkpt lat="45.97066" lon="4.85455">
        <ele>281</ele>
        <time>2017-08-11T09:55:57Z</time>
      </trkpt>
      <trkpt lat="45.97068" lon="4.85446">
        <ele>281</ele>
        <time>2017-08-11T09:55:58Z</time>
      </trkpt>
      <trkpt lat="45.97071" lon="4.85438">
        <ele>281</ele>
        <time>2017-08-11T09:55:59Z</time>
      </trkpt>
      <trkpt lat="45.97074" lon="4.85429">
        <ele>281</ele>
        <time>2017-08-11T09:56:00Z</time>
      </trkpt>
      <trkpt lat="45.97076" lon="4.85421">
        <ele>280</ele>
        <time>2017-08-11T09:56:01Z</time>
      </trkpt>
      <trkpt lat="45.97078" lon="4.85413">
        <ele>280</ele>
        <time>2017-08-11T09:56:02Z</time>
      </trkpt>
      <trkpt lat="45.97081" lon="4.85405">
        <ele>281</ele>
        <time>2017-08-11T09:56:03Z</time>
      </trkpt>
      <trkpt lat="45.97084" lon="4.85397">
        <ele>280</ele>
        <time>2017-08-11T09:56:04Z</time>
      </trkpt>
      <trkpt lat="45.97086" lon="4.8539">
        <ele>280</ele>
        <time>2017-08-11T09:56:05Z</time>
      </trkpt>
      <trkpt lat="45.97088" lon="4.85383">
        <ele>280</ele>
        <time>2017-08-11T09:56:06Z</time>
      </trkpt>
      <trkpt lat="45.97091" lon="4.85375">
        <ele>280</ele>
        <time>2017-08-11T09:56:07Z</time>
      </trkpt>
      <trkpt lat="45.97093" lon="4.85368">
        <ele>280</ele>
        <time>2017-08-11T09:56:08Z</time>
      </trkpt>
      <trkpt lat="45.97095" lon="4.85362">
        <ele>280</ele>
        <time>2017-08-11T09:56:09Z</time>
      </trkpt>
      <trkpt lat="45.97097" lon="4.85355">
        <ele>280</ele>
        <time>2017-08-11T09:56:10Z</time>
      </trkpt>
      <trkpt lat="45.971" lon="4.85348">
        <ele>280</ele>
        <time>2017-08-11T09:56:11Z</time>
      </trkpt>
      <trkpt lat="45.97102" lon="4.85341">
        <ele>280</ele>
        <time>2017-08-11T09:56:12Z</time>
      </trkpt>
      <trkpt lat="45.97104" lon="4.85334">
        <ele>280</ele>
        <time>2017-08-11T09:56:13Z</time>
      </trkpt>
      <trkpt lat="45.97107" lon="4.85328">
        <ele>280</ele>
        <time>2017-08-11T09:56:14Z</time>
      </trkpt>
      <trkpt lat="45.97109" lon="4.85321">
        <ele>280</ele>
        <time>2017-08-11T09:56:15Z</time>
      </trkpt>
      <trkpt lat="45.97112" lon="4.85315">
        <ele>280</ele>
        <time>2017-08-11T09:56:16Z</time>
      </trkpt>
      <trkpt lat="45.97115" lon="4.85308">
        <ele>280</ele>
        <time>2017-08-11T09:56:17Z</time>
      </trkpt>
      <trkpt lat="45.97118" lon="4.85301">
        <ele>280</ele>
        <time>2017-08-11T09:56:18Z</time>
      </trkpt>
      <trkpt lat="45.97121" lon="4.85293">
        <ele>280</ele>
        <time>2017-08-11T09:56:19Z</time>
      </trkpt>
      <trkpt lat="45.97124" lon="4.85286">
        <ele>280</ele>
        <time>2017-08-11T09:56:20Z</time>
      </trkpt>
      <trkpt lat="45.97128" lon="4.85278">
        <ele>279</ele>
        <time>2017-08-11T09:56:21Z</time>
      </trkpt>
      <trkpt lat="45.97132" lon="4.85271">
        <ele>279</ele>
        <time>2017-08-11T09:56:22Z</time>
      </trkpt>
      <trkpt lat="45.97136" lon="4.85263">
        <ele>279</ele>
        <time>2017-08-11T09:56:23Z</time>
      </trkpt>
      <trkpt lat="45.9714" lon="4.85255">
        <ele>279</ele>
        <time>2017-08-11T09:56:24Z</time>
      </trkpt>
      <trkpt lat="45.97143" lon="4.85247">
        <ele>279</ele>
        <time>2017-08-11T09:56:25Z</time>
      </trkpt>
      <trkpt lat="45.97147" lon="4.8524">
        <ele>279</ele>
        <time>2017-08-11T09:56:26Z</time>
      </trkpt>
      <trkpt lat="45.97151" lon="4.85233">
        <ele>279</ele>
        <time>2017-08-11T09:56:27Z</time>
      </trkpt>
      <trkpt lat="45.97154" lon="4.85226">
        <ele>279</ele>
        <time>2017-08-11T09:56:28Z</time>
      </trkpt>
      <trkpt lat="45.97157" lon="4.85219">
        <ele>279</ele>
        <time>2017-08-11T09:56:29Z</time>
      </trkpt>
      <trkpt lat="45.97161" lon="4.85212">
        <ele>279</ele>
        <time>2017-08-11T09:56:30Z</time>
      </trkpt>
      <trkpt lat="45.97164" lon="4.85205">
        <ele>279</ele>
        <time>2017-08-11T09:56:31Z</time>
      </trkpt>
      <trkpt lat="45.97167" lon="4.85198">
        <ele>279</ele>
        <time>2017-08-11T09:56:32Z</time>
      </trkpt>
      <trkpt lat="45.97169" lon="4.85192">
        <ele>278</ele>
        <time>2017-08-11T09:56:33Z</time>
      </trkpt>
      <trkpt lat="45.97172" lon="4.85185">
        <ele>278</ele>
        <time>2017-08-11T09:56:34Z</time>
      </trkpt>
      <trkpt lat="45.97176" lon="4.85179">
        <ele>278</ele>
        <time>2017-08-11T09:56:35Z</time>
      </trkpt>
      <trkpt lat="45.97179" lon="4.85173">
        <ele>278</ele>
        <time>2017-08-11T09:56:36Z</time>
      </trkpt>
      <trkpt lat="45.97183" lon="4.85166">
        <ele>278</ele>
        <time>2017-08-11T09:56:37Z</time>
      </trkpt>
      <trkpt lat="45.97187" lon="4.85159">
        <ele>278</ele>
        <time>2017-08-11T09:56:38Z</time>
      </trkpt>
      <trkpt lat="45.9719" lon="4.85152">
        <ele>278</ele>
        <time>2017-08-11T09:56:39Z</time>
      </trkpt>
      <trkpt lat="45.97194" lon="4.85144">
        <ele>278</ele>
        <time>2017-08-11T09:56:40Z</time>
      </trkpt>
      <trkpt lat="45.97198" lon="4.85136">
        <ele>278</ele>
        <time>2017-08-11T09:56:41Z</time>
      </trkpt>
      <trkpt lat="45.97201" lon="4.85128">
        <ele>278</ele>
        <time>2017-08-11T09:56:42Z</time>
      </trkpt>
      <trkpt lat="45.97205" lon="4.8512">
        <ele>278</ele>
        <time>2017-08-11T09:56:43Z</time>
      </trkpt>
      <trkpt lat="45.97208" lon="4.85112">
        <ele>278</ele>
        <time>2017-08-11T09:56:44Z</time>
      </trkpt>
      <trkpt lat="45.97212" lon="4.85105">
        <ele>278</ele>
        <time>2017-08-11T09:56:45Z</time>
      </trkpt>
      <trkpt lat="45.97215" lon="4.85098">
        <ele>278</ele>
        <time>2017-08-11T09:56:46Z</time>
      </trkpt>
      <trkpt lat="45.97218" lon="4.85091">
        <ele>278</ele>
        <time>2017-08-11T09:56:47Z</time>
      </trkpt>
      <trkpt lat="45.97221" lon="4.85084">
        <ele>278</ele>
        <time>2017-08-11T09:56:48Z</time>
      </trkpt>
      <trkpt lat="45.97224" lon="4.85078">
        <ele>278</ele>
        <time>2017-08-11T09:56:49Z</time>
      </trkpt>
      <trkpt lat="45.97227" lon="4.85071">
        <ele>278</ele>
        <time>2017-08-11T09:56:50Z</time>
      </trkpt>
      <trkpt lat="45.9723" lon="4.85065">
        <ele>278</ele>
        <time>2017-08-11T09:56:51Z</time>
      </trkpt>
      <trkpt lat="45.97232" lon="4.85058">
        <ele>279</ele>
        <time>2017-08-11T09:56:52Z</time>
      </trkpt>
      <trkpt lat="45.97236" lon="4.85051">
        <ele>279</ele>
        <time>2017-08-11T09:56:53Z</time>
      </trkpt>
      <trkpt lat="45.97239" lon="4.85044">
        <ele>279</ele>
        <time>2017-08-11T09:56:54Z</time>
      </trkpt>
      <trkpt lat="45.97242" lon="4.85036">
        <ele>279</ele>
        <time>2017-08-11T09:56:55Z</time>
      </trkpt>
      <trkpt lat="45.97246" lon="4.85029">
        <ele>279</ele>
        <time>2017-08-11T09:56:56Z</time>
      </trkpt>
      <trkpt lat="45.97249" lon="4.85022">
        <ele>279</ele>
        <time>2017-08-11T09:56:57Z</time>
      </trkpt>
      <trkpt lat="45.97252" lon="4.85015">
        <ele>279</ele>
        <time>2017-08-11T09:56:58Z</time>
      </trkpt>
      <trkpt lat="45.97255" lon="4.85008">
        <ele>279</ele>
        <time>2017-08-11T09:56:59Z</time>
      </trkpt>
      <trkpt lat="45.97258" lon="4.85002">
        <ele>279</ele>
        <time>2017-08-11T09:57:00Z</time>
      </trkpt>
      <trkpt lat="45.97261" lon="4.84995">
        <ele>279</ele>
        <time>2017-08-11T09:57:01Z</time>
      </trkpt>
      <trkpt lat="45.97264" lon="4.84989">
        <ele>279</ele>
        <time>2017-08-11T09:57:02Z</time>
      </trkpt>
      <trkpt lat="45.97267" lon="4.84983">
        <ele>279</ele>
        <time>2017-08-11T09:57:03Z</time>
      </trkpt>
      <trkpt lat="45.9727" lon="4.84977">
        <ele>279</ele>
        <time>2017-08-11T09:57:04Z</time>
      </trkpt>
      <trkpt lat="45.97273" lon="4.84971">
        <ele>278</ele>
        <time>2017-08-11T09:57:05Z</time>
      </trkpt>
      <trkpt lat="45.97276" lon="4.84964">
        <ele>278</ele>
        <time>2017-08-11T09:57:06Z</time>
      </trkpt>
      <trkpt lat="45.9728" lon="4.84958">
        <ele>278</ele>
        <time>2017-08-11T09:57:07Z</time>
      </trkpt>
      <trkpt lat="45.97283" lon="4.84952">
        <ele>278</ele>
        <time>2017-08-11T09:57:08Z</time>
      </trkpt>
      <trkpt lat="45.97286" lon="4.84945">
        <ele>278</ele>
        <time>2017-08-11T09:57:09Z</time>
      </trkpt>
      <trkpt lat="45.9729" lon="4.84939">
        <ele>278</ele>
        <time>2017-08-11T09:57:10Z</time>
      </trkpt>
      <trkpt lat="45.97294" lon="4.84932">
        <ele>278</ele>
        <time>2017-08-11T09:57:11Z</time>
      </trkpt>
      <trkpt lat="45.97298" lon="4.84925">
        <ele>278</ele>
        <time>2017-08-11T09:57:12Z</time>
      </trkpt>
      <trkpt lat="45.97302" lon="4.84919">
        <ele>278</ele>
        <time>2017-08-11T09:57:13Z</time>
      </trkpt>
      <trkpt lat="45.97306" lon="4.84913">
        <ele>278</ele>
        <time>2017-08-11T09:57:14Z</time>
      </trkpt>
      <trkpt lat="45.9731" lon="4.84907">
        <ele>278</ele>
        <time>2017-08-11T09:57:15Z</time>
      </trkpt>
      <trkpt lat="45.97313" lon="4.84902">
        <ele>278</ele>
        <time>2017-08-11T09:57:16Z</time>
      </trkpt>
      <trkpt lat="45.97317" lon="4.84896">
        <ele>278</ele>
        <time>2017-08-11T09:57:17Z</time>
      </trkpt>
      <trkpt lat="45.97321" lon="4.8489">
        <ele>278</ele>
        <time>2017-08-11T09:57:18Z</time>
      </trkpt>
      <trkpt lat="45.97324" lon="4.84885">
        <ele>278</ele>
        <time>2017-08-11T09:57:19Z</time>
      </trkpt>
      <trkpt lat="45.97327" lon="4.8488">
        <ele>278</ele>
        <time>2017-08-11T09:57:20Z</time>
      </trkpt>
      <trkpt lat="45.9733" lon="4.84874">
        <ele>278</ele>
        <time>2017-08-11T09:57:21Z</time>
      </trkpt>
      <trkpt lat="45.97335" lon="4.84864">
        <ele>277</ele>
        <time>2017-08-11T09:57:23Z</time>
      </trkpt>
      <trkpt lat="45.97338" lon="4.84858">
        <ele>277</ele>
        <time>2017-08-11T09:57:24Z</time>
      </trkpt>
      <trkpt lat="45.97341" lon="4.84852">
        <ele>277</ele>
        <time>2017-08-11T09:57:25Z</time>
      </trkpt>
      <trkpt lat="45.97343" lon="4.84846">
        <ele>277</ele>
        <time>2017-08-11T09:57:26Z</time>
      </trkpt>
      <trkpt lat="45.97347" lon="4.84839">
        <ele>277</ele>
        <time>2017-08-11T09:57:27Z</time>
      </trkpt>
      <trkpt lat="45.9735" lon="4.84832">
        <ele>278</ele>
        <time>2017-08-11T09:57:28Z</time>
      </trkpt>
      <trkpt lat="45.97353" lon="4.84825">
        <ele>278</ele>
        <time>2017-08-11T09:57:29Z</time>
      </trkpt>
      <trkpt lat="45.97357" lon="4.84818">
        <ele>278</ele>
        <time>2017-08-11T09:57:30Z</time>
      </trkpt>
      <trkpt lat="45.9736" lon="4.84811">
        <ele>278</ele>
        <time>2017-08-11T09:57:31Z</time>
      </trkpt>
      <trkpt lat="45.97363" lon="4.84803">
        <ele>278</ele>
        <time>2017-08-11T09:57:32Z</time>
      </trkpt>
      <trkpt lat="45.97366" lon="4.84794">
        <ele>278</ele>
        <time>2017-08-11T09:57:33Z</time>
      </trkpt>
      <trkpt lat="45.97369" lon="4.84786">
        <ele>278</ele>
        <time>2017-08-11T09:57:34Z</time>
      </trkpt>
      <trkpt lat="45.97371" lon="4.84778">
        <ele>278</ele>
        <time>2017-08-11T09:57:35Z</time>
      </trkpt>
      <trkpt lat="45.97374" lon="4.8477">
        <ele>278</ele>
        <time>2017-08-11T09:57:36Z</time>
      </trkpt>
      <trkpt lat="45.97376" lon="4.84763">
        <ele>278</ele>
        <time>2017-08-11T09:57:37Z</time>
      </trkpt>
      <trkpt lat="45.97379" lon="4.84756">
        <ele>278</ele>
        <time>2017-08-11T09:57:38Z</time>
      </trkpt>
      <trkpt lat="45.97382" lon="4.8475">
        <ele>278</ele>
        <time>2017-08-11T09:57:39Z</time>
      </trkpt>
      <trkpt lat="45.97386" lon="4.84744">
        <ele>278</ele>
        <time>2017-08-11T09:57:40Z</time>
      </trkpt>
      <trkpt lat="45.9739" lon="4.84738">
        <ele>278</ele>
        <time>2017-08-11T09:57:41Z</time>
      </trkpt>
      <trkpt lat="45.97393" lon="4.84734">
        <ele>278</ele>
        <time>2017-08-11T09:57:42Z</time>
      </trkpt>
      <trkpt lat="45.97398" lon="4.84729">
        <ele>278</ele>
        <time>2017-08-11T09:57:43Z</time>
      </trkpt>
      <trkpt lat="45.97402" lon="4.84725">
        <ele>278</ele>
        <time>2017-08-11T09:57:44Z</time>
      </trkpt>
      <trkpt lat="45.97407" lon="4.84721">
        <ele>278</ele>
        <time>2017-08-11T09:57:45Z</time>
      </trkpt>
      <trkpt lat="45.97413" lon="4.84717">
        <ele>278</ele>
        <time>2017-08-11T09:57:46Z</time>
      </trkpt>
      <trkpt lat="45.97418" lon="4.84713">
        <ele>276</ele>
        <time>2017-08-11T09:57:47Z</time>
      </trkpt>
      <trkpt lat="45.97423" lon="4.84709">
        <ele>276</ele>
        <time>2017-08-11T09:57:48Z</time>
      </trkpt>
      <trkpt lat="45.97429" lon="4.84705">
        <ele>276</ele>
        <time>2017-08-11T09:57:49Z</time>
      </trkpt>
      <trkpt lat="45.97434" lon="4.84701">
        <ele>276</ele>
        <time>2017-08-11T09:57:50Z</time>
      </trkpt>
      <trkpt lat="45.9744" lon="4.84698">
        <ele>276</ele>
        <time>2017-08-11T09:57:51Z</time>
      </trkpt>
      <trkpt lat="45.97445" lon="4.84695">
        <ele>276</ele>
        <time>2017-08-11T09:57:52Z</time>
      </trkpt>
      <trkpt lat="45.9745" lon="4.84691">
        <ele>276</ele>
        <time>2017-08-11T09:57:53Z</time>
      </trkpt>
      <trkpt lat="45.97456" lon="4.84687">
        <ele>276</ele>
        <time>2017-08-11T09:57:54Z</time>
      </trkpt>
      <trkpt lat="45.9746" lon="4.84683">
        <ele>276</ele>
        <time>2017-08-11T09:57:55Z</time>
      </trkpt>
      <trkpt lat="45.97465" lon="4.8468">
        <ele>276</ele>
        <time>2017-08-11T09:57:56Z</time>
      </trkpt>
      <trkpt lat="45.9747" lon="4.84677">
        <ele>276</ele>
        <time>2017-08-11T09:57:57Z</time>
      </trkpt>
      <trkpt lat="45.97475" lon="4.84673">
        <ele>276</ele>
        <time>2017-08-11T09:57:58Z</time>
      </trkpt>
      <trkpt lat="45.9748" lon="4.84669">
        <ele>276</ele>
        <time>2017-08-11T09:57:59Z</time>
      </trkpt>
      <trkpt lat="45.97485" lon="4.84666">
        <ele>275</ele>
        <time>2017-08-11T09:58:00Z</time>
      </trkpt>
      <trkpt lat="45.97491" lon="4.84662">
        <ele>275</ele>
        <time>2017-08-11T09:58:01Z</time>
      </trkpt>
      <trkpt lat="45.97497" lon="4.84658">
        <ele>275</ele>
        <time>2017-08-11T09:58:02Z</time>
      </trkpt>
      <trkpt lat="45.97503" lon="4.84654">
        <ele>275</ele>
        <time>2017-08-11T09:58:03Z</time>
      </trkpt>
      <trkpt lat="45.97508" lon="4.84651">
        <ele>275</ele>
        <time>2017-08-11T09:58:04Z</time>
      </trkpt>
      <trkpt lat="45.97514" lon="4.84647">
        <ele>275</ele>
        <time>2017-08-11T09:58:05Z</time>
      </trkpt>
      <trkpt lat="45.9752" lon="4.84643">
        <ele>275</ele>
        <time>2017-08-11T09:58:06Z</time>
      </trkpt>
      <trkpt lat="45.97525" lon="4.84639">
        <ele>275</ele>
        <time>2017-08-11T09:58:07Z</time>
      </trkpt>
      <trkpt lat="45.9753" lon="4.84635">
        <ele>275</ele>
        <time>2017-08-11T09:58:08Z</time>
      </trkpt>
      <trkpt lat="45.97534" lon="4.84631">
        <ele>275</ele>
        <time>2017-08-11T09:58:09Z</time>
      </trkpt>
      <trkpt lat="45.97539" lon="4.84628">
        <ele>275</ele>
        <time>2017-08-11T09:58:10Z</time>
      </trkpt>
      <trkpt lat="45.97543" lon="4.84624">
        <ele>274</ele>
        <time>2017-08-11T09:58:11Z</time>
      </trkpt>
      <trkpt lat="45.97548" lon="4.8462">
        <ele>274</ele>
        <time>2017-08-11T09:58:12Z</time>
      </trkpt>
      <trkpt lat="45.97552" lon="4.84616">
        <ele>274</ele>
        <time>2017-08-11T09:58:13Z</time>
      </trkpt>
      <trkpt lat="45.97556" lon="4.84612">
        <ele>274</ele>
        <time>2017-08-11T09:58:14Z</time>
      </trkpt>
      <trkpt lat="45.9756" lon="4.84608">
        <ele>274</ele>
        <time>2017-08-11T09:58:15Z</time>
      </trkpt>
      <trkpt lat="45.97565" lon="4.84604">
        <ele>274</ele>
        <time>2017-08-11T09:58:16Z</time>
      </trkpt>
      <trkpt lat="45.97569" lon="4.84599">
        <ele>274</ele>
        <time>2017-08-11T09:58:17Z</time>
      </trkpt>
      <trkpt lat="45.97573" lon="4.84594">
        <ele>274</ele>
        <time>2017-08-11T09:58:18Z</time>
      </trkpt>
      <trkpt lat="45.97578" lon="4.84588">
        <ele>274</ele>
        <time>2017-08-11T09:58:19Z</time>
      </trkpt>
      <trkpt lat="45.97583" lon="4.84582">
        <ele>274</ele>
        <time>2017-08-11T09:58:20Z</time>
      </trkpt>
      <trkpt lat="45.97588" lon="4.84577">
        <ele>274</ele>
        <time>2017-08-11T09:58:21Z</time>
      </trkpt>
      <trkpt lat="45.97593" lon="4.8457">
        <ele>274</ele>
        <time>2017-08-11T09:58:22Z</time>
      </trkpt>
      <trkpt lat="45.97598" lon="4.84564">
        <ele>274</ele>
        <time>2017-08-11T09:58:23Z</time>
      </trkpt>
      <trkpt lat="45.97603" lon="4.84557">
        <ele>275</ele>
        <time>2017-08-11T09:58:24Z</time>
      </trkpt>
      <trkpt lat="45.97608" lon="4.84551">
        <ele>275</ele>
        <time>2017-08-11T09:58:25Z</time>
      </trkpt>
      <trkpt lat="45.97613" lon="4.84545">
        <ele>275</ele>
        <time>2017-08-11T09:58:26Z</time>
      </trkpt>
      <trkpt lat="45.97617" lon="4.84538">
        <ele>275</ele>
        <time>2017-08-11T09:58:27Z</time>
      </trkpt>
      <trkpt lat="45.97621" lon="4.84532">
        <ele>275</ele>
        <time>2017-08-11T09:58:28Z</time>
      </trkpt>
      <trkpt lat="45.97626" lon="4.84527">
        <ele>275</ele>
        <time>2017-08-11T09:58:29Z</time>
      </trkpt>
      <trkpt lat="45.97631" lon="4.84523">
        <ele>275</ele>
        <time>2017-08-11T09:58:30Z</time>
      </trkpt>
      <trkpt lat="45.97635" lon="4.84518">
        <ele>275</ele>
        <time>2017-08-11T09:58:31Z</time>
      </trkpt>
      <trkpt lat="45.97639" lon="4.84513">
        <ele>275</ele>
        <time>2017-08-11T09:58:32Z</time>
      </trkpt>
      <trkpt lat="45.97643" lon="4.84508">
        <ele>275</ele>
        <time>2017-08-11T09:58:33Z</time>
      </trkpt>
      <trkpt lat="45.97647" lon="4.84503">
        <ele>275</ele>
        <time>2017-08-11T09:58:34Z</time>
      </trkpt>
      <trkpt lat="45.97652" lon="4.84498">
        <ele>275</ele>
        <time>2017-08-11T09:58:35Z</time>
      </trkpt>
      <trkpt lat="45.97656" lon="4.84493">
        <ele>275</ele>
        <time>2017-08-11T09:58:36Z</time>
      </trkpt>
      <trkpt lat="45.97661" lon="4.84488">
        <ele>275</ele>
        <time>2017-08-11T09:58:37Z</time>
      </trkpt>
      <trkpt lat="45.97667" lon="4.84483">
        <ele>275</ele>
        <time>2017-08-11T09:58:38Z</time>
      </trkpt>
      <trkpt lat="45.97672" lon="4.84479">
        <ele>276</ele>
        <time>2017-08-11T09:58:39Z</time>
      </trkpt>
      <trkpt lat="45.97677" lon="4.84475">
        <ele>276</ele>
        <time>2017-08-11T09:58:40Z</time>
      </trkpt>
      <trkpt lat="45.97682" lon="4.84471">
        <ele>277</ele>
        <time>2017-08-11T09:58:41Z</time>
      </trkpt>
      <trkpt lat="45.97687" lon="4.84468">
        <ele>277</ele>
        <time>2017-08-11T09:58:42Z</time>
      </trkpt>
      <trkpt lat="45.97691" lon="4.84465">
        <ele>277</ele>
        <time>2017-08-11T09:58:43Z</time>
      </trkpt>
      <trkpt lat="45.97696" lon="4.84462">
        <ele>277</ele>
        <time>2017-08-11T09:58:44Z</time>
      </trkpt>
      <trkpt lat="45.97701" lon="4.8446">
        <ele>277</ele>
        <time>2017-08-11T09:58:45Z</time>
      </trkpt>
      <trkpt lat="45.97706" lon="4.84458">
        <ele>277</ele>
        <time>2017-08-11T09:58:46Z</time>
      </trkpt>
      <trkpt lat="45.97711" lon="4.84456">
        <ele>277</ele>
        <time>2017-08-11T09:58:47Z</time>
      </trkpt>
      <trkpt lat="45.97715" lon="4.84453">
        <ele>277</ele>
        <time>2017-08-11T09:58:48Z</time>
      </trkpt>
      <trkpt lat="45.9772" lon="4.84451">
        <ele>277</ele>
        <time>2017-08-11T09:58:49Z</time>
      </trkpt>
      <trkpt lat="45.97725" lon="4.84449">
        <ele>277</ele>
        <time>2017-08-11T09:58:50Z</time>
      </trkpt>
      <trkpt lat="45.97731" lon="4.84447">
        <ele>277</ele>
        <time>2017-08-11T09:58:51Z</time>
      </trkpt>
      <trkpt lat="45.97736" lon="4.84446">
        <ele>277</ele>
        <time>2017-08-11T09:58:52Z</time>
      </trkpt>
      <trkpt lat="45.97742" lon="4.84443">
        <ele>277</ele>
        <time>2017-08-11T09:58:53Z</time>
      </trkpt>
      <trkpt lat="45.97747" lon="4.84441">
        <ele>277</ele>
        <time>2017-08-11T09:58:54Z</time>
      </trkpt>
      <trkpt lat="45.97752" lon="4.8444">
        <ele>277</ele>
        <time>2017-08-11T09:58:55Z</time>
      </trkpt>
      <trkpt lat="45.97758" lon="4.84438">
        <ele>277</ele>
        <time>2017-08-11T09:58:56Z</time>
      </trkpt>
      <trkpt lat="45.97763" lon="4.84435">
        <ele>277</ele>
        <time>2017-08-11T09:58:57Z</time>
      </trkpt>
      <trkpt lat="45.97768" lon="4.84433">
        <ele>277</ele>
        <time>2017-08-11T09:58:58Z</time>
      </trkpt>
      <trkpt lat="45.97772" lon="4.84432">
        <ele>277</ele>
        <time>2017-08-11T09:58:59Z</time>
      </trkpt>
      <trkpt lat="45.97777" lon="4.8443">
        <ele>277</ele>
        <time>2017-08-11T09:59:00Z</time>
      </trkpt>
      <trkpt lat="45.97782" lon="4.84429">
        <ele>277</ele>
        <time>2017-08-11T09:59:01Z</time>
      </trkpt>
      <trkpt lat="45.97787" lon="4.84427">
        <ele>277</ele>
        <time>2017-08-11T09:59:02Z</time>
      </trkpt>
      <trkpt lat="45.97793" lon="4.84425">
        <ele>277</ele>
        <time>2017-08-11T09:59:03Z</time>
      </trkpt>
      <trkpt lat="45.97798" lon="4.84422">
        <ele>277</ele>
        <time>2017-08-11T09:59:04Z</time>
      </trkpt>
      <trkpt lat="45.97803" lon="4.8442">
        <ele>277</ele>
        <time>2017-08-11T09:59:05Z</time>
      </trkpt>
      <trkpt lat="45.97808" lon="4.84417">
        <ele>277</ele>
        <time>2017-08-11T09:59:06Z</time>
      </trkpt>
      <trkpt lat="45.97813" lon="4.84414">
        <ele>276</ele>
        <time>2017-08-11T09:59:07Z</time>
      </trkpt>
      <trkpt lat="45.97818" lon="4.84411">
        <ele>276</ele>
        <time>2017-08-11T09:59:08Z</time>
      </trkpt>
      <trkpt lat="45.97822" lon="4.84408">
        <ele>276</ele>
        <time>2017-08-11T09:59:09Z</time>
      </trkpt>
      <trkpt lat="45.97827" lon="4.84406">
        <ele>276</ele>
        <time>2017-08-11T09:59:10Z</time>
      </trkpt>
      <trkpt lat="45.97831" lon="4.84402">
        <ele>276</ele>
        <time>2017-08-11T09:59:11Z</time>
      </trkpt>
      <trkpt lat="45.97835" lon="4.84399">
        <ele>276</ele>
        <time>2017-08-11T09:59:12Z</time>
      </trkpt>
      <trkpt lat="45.9784" lon="4.84395">
        <ele>276</ele>
        <time>2017-08-11T09:59:13Z</time>
      </trkpt>
      <trkpt lat="45.97845" lon="4.8439">
        <ele>276</ele>
        <time>2017-08-11T09:59:14Z</time>
      </trkpt>
      <trkpt lat="45.97849" lon="4.84385">
        <ele>276</ele>
        <time>2017-08-11T09:59:15Z</time>
      </trkpt>
      <trkpt lat="45.97853" lon="4.8438">
        <ele>276</ele>
        <time>2017-08-11T09:59:16Z</time>
      </trkpt>
      <trkpt lat="45.97857" lon="4.84374">
        <ele>276</ele>
        <time>2017-08-11T09:59:17Z</time>
      </trkpt>
      <trkpt lat="45.9786" lon="4.84369">
        <ele>276</ele>
        <time>2017-08-11T09:59:18Z</time>
      </trkpt>
      <trkpt lat="45.97864" lon="4.84364">
        <ele>276</ele>
        <time>2017-08-11T09:59:19Z</time>
      </trkpt>
      <trkpt lat="45.97868" lon="4.84359">
        <ele>276</ele>
        <time>2017-08-11T09:59:20Z</time>
      </trkpt>
      <trkpt lat="45.97871" lon="4.84355">
        <ele>276</ele>
        <time>2017-08-11T09:59:21Z</time>
      </trkpt>
      <trkpt lat="45.97874" lon="4.8435">
        <ele>276</ele>
        <time>2017-08-11T09:59:22Z</time>
      </trkpt>
      <trkpt lat="45.97877" lon="4.84346">
        <ele>275</ele>
        <time>2017-08-11T09:59:23Z</time>
      </trkpt>
      <trkpt lat="45.97881" lon="4.84341">
        <ele>275</ele>
        <time>2017-08-11T09:59:24Z</time>
      </trkpt>
      <trkpt lat="45.97884" lon="4.84336">
        <ele>275</ele>
        <time>2017-08-11T09:59:25Z</time>
      </trkpt>
      <trkpt lat="45.97887" lon="4.8433">
        <ele>275</ele>
        <time>2017-08-11T09:59:26Z</time>
      </trkpt>
      <trkpt lat="45.97889" lon="4.84324">
        <ele>275</ele>
        <time>2017-08-11T09:59:27Z</time>
      </trkpt>
      <trkpt lat="45.97893" lon="4.84318">
        <ele>275</ele>
        <time>2017-08-11T09:59:28Z</time>
      </trkpt>
      <trkpt lat="45.97896" lon="4.84314">
        <ele>275</ele>
        <time>2017-08-11T09:59:29Z</time>
      </trkpt>
      <trkpt lat="45.97899" lon="4.84309">
        <ele>275</ele>
        <time>2017-08-11T09:59:30Z</time>
      </trkpt>
      <trkpt lat="45.97903" lon="4.84305">
        <ele>275</ele>
        <time>2017-08-11T09:59:31Z</time>
      </trkpt>
      <trkpt lat="45.97906" lon="4.843">
        <ele>275</ele>
        <time>2017-08-11T09:59:32Z</time>
      </trkpt>
      <trkpt lat="45.97912" lon="4.84291">
        <ele>275</ele>
        <time>2017-08-11T09:59:34Z</time>
      </trkpt>
      <trkpt lat="45.97916" lon="4.84287">
        <ele>275</ele>
        <time>2017-08-11T09:59:35Z</time>
      </trkpt>
      <trkpt lat="45.97919" lon="4.84283">
        <ele>275</ele>
        <time>2017-08-11T09:59:36Z</time>
      </trkpt>
      <trkpt lat="45.97923" lon="4.84278">
        <ele>275</ele>
        <time>2017-08-11T09:59:37Z</time>
      </trkpt>
      <trkpt lat="45.97927" lon="4.84274">
        <ele>275</ele>
        <time>2017-08-11T09:59:38Z</time>
      </trkpt>
      <trkpt lat="45.97931" lon="4.84269">
        <ele>275</ele>
        <time>2017-08-11T09:59:39Z</time>
      </trkpt>
      <trkpt lat="45.97935" lon="4.84265">
        <ele>275</ele>
        <time>2017-08-11T09:59:40Z</time>
      </trkpt>
      <trkpt lat="45.97938" lon="4.84261">
        <ele>275</ele>
        <time>2017-08-11T09:59:41Z</time>
      </trkpt>
      <trkpt lat="45.97942" lon="4.84257">
        <ele>275</ele>
        <time>2017-08-11T09:59:42Z</time>
      </trkpt>
      <trkpt lat="45.97946" lon="4.84253">
        <ele>275</ele>
        <time>2017-08-11T09:59:43Z</time>
      </trkpt>
      <trkpt lat="45.9795" lon="4.8425">
        <ele>275</ele>
        <time>2017-08-11T09:59:44Z</time>
      </trkpt>
      <trkpt lat="45.97954" lon="4.84246">
        <ele>275</ele>
        <time>2017-08-11T09:59:45Z</time>
      </trkpt>
      <trkpt lat="45.97958" lon="4.84242">
        <ele>275</ele>
        <time>2017-08-11T09:59:46Z</time>
      </trkpt>
      <trkpt lat="45.97963" lon="4.84238">
        <ele>274</ele>
        <time>2017-08-11T09:59:47Z</time>
      </trkpt>
      <trkpt lat="45.97968" lon="4.84233">
        <ele>274</ele>
        <time>2017-08-11T09:59:48Z</time>
      </trkpt>
      <trkpt lat="45.97973" lon="4.84229">
        <ele>274</ele>
        <time>2017-08-11T09:59:49Z</time>
      </trkpt>
      <trkpt lat="45.97978" lon="4.84224">
        <ele>274</ele>
        <time>2017-08-11T09:59:50Z</time>
      </trkpt>
      <trkpt lat="45.97983" lon="4.8422">
        <ele>274</ele>
        <time>2017-08-11T09:59:51Z</time>
      </trkpt>
      <trkpt lat="45.97987" lon="4.84215">
        <ele>274</ele>
        <time>2017-08-11T09:59:52Z</time>
      </trkpt>
      <trkpt lat="45.97992" lon="4.84211">
        <ele>274</ele>
        <time>2017-08-11T09:59:53Z</time>
      </trkpt>
      <trkpt lat="45.97996" lon="4.84206">
        <ele>274</ele>
        <time>2017-08-11T09:59:54Z</time>
      </trkpt>
      <trkpt lat="45.98001" lon="4.84202">
        <ele>274</ele>
        <time>2017-08-11T09:59:55Z</time>
      </trkpt>
      <trkpt lat="45.98005" lon="4.84198">
        <ele>274</ele>
        <time>2017-08-11T09:59:56Z</time>
      </trkpt>
      <trkpt lat="45.9801" lon="4.84194">
        <ele>274</ele>
        <time>2017-08-11T09:59:57Z</time>
      </trkpt>
      <trkpt lat="45.98014" lon="4.8419">
        <ele>274</ele>
        <time>2017-08-11T09:59:58Z</time>
      </trkpt>
      <trkpt lat="45.98019" lon="4.84186">
        <ele>274</ele>
        <time>2017-08-11T09:59:59Z</time>
      </trkpt>
      <trkpt lat="45.98023" lon="4.84181">
        <ele>274</ele>
        <time>2017-08-11T10:00:00Z</time>
      </trkpt>
      <trkpt lat="45.98028" lon="4.84177">
        <ele>274</ele>
        <time>2017-08-11T10:00:01Z</time>
      </trkpt>
      <trkpt lat="45.98032" lon="4.84172">
        <ele>273</ele>
        <time>2017-08-11T10:00:02Z</time>
      </trkpt>
      <trkpt lat="45.98037" lon="4.84168">
        <ele>273</ele>
        <time>2017-08-11T10:00:03Z</time>
      </trkpt>
      <trkpt lat="45.98042" lon="4.84163">
        <ele>273</ele>
        <time>2017-08-11T10:00:04Z</time>
      </trkpt>
      <trkpt lat="45.98046" lon="4.84158">
        <ele>273</ele>
        <time>2017-08-11T10:00:05Z</time>
      </trkpt>
      <trkpt lat="45.98051" lon="4.84154">
        <ele>273</ele>
        <time>2017-08-11T10:00:06Z</time>
      </trkpt>
      <trkpt lat="45.98055" lon="4.8415">
        <ele>273</ele>
        <time>2017-08-11T10:00:07Z</time>
      </trkpt>
      <trkpt lat="45.98059" lon="4.84146">
        <ele>273</ele>
        <time>2017-08-11T10:00:08Z</time>
      </trkpt>
      <trkpt lat="45.98063" lon="4.84142">
        <ele>273</ele>
        <time>2017-08-11T10:00:09Z</time>
      </trkpt>
      <trkpt lat="45.98067" lon="4.84139">
        <ele>273</ele>
        <time>2017-08-11T10:00:10Z</time>
      </trkpt>
      <trkpt lat="45.98071" lon="4.84135">
        <ele>273</ele>
        <time>2017-08-11T10:00:11Z</time>
      </trkpt>
      <trkpt lat="45.98075" lon="4.84131">
        <ele>273</ele>
        <time>2017-08-11T10:00:12Z</time>
      </trkpt>
      <trkpt lat="45.98079" lon="4.84127">
        <ele>273</ele>
        <time>2017-08-11T10:00:13Z</time>
      </trkpt>
      <trkpt lat="45.98083" lon="4.84123">
        <ele>273</ele>
        <time>2017-08-11T10:00:14Z</time>
      </trkpt>
      <trkpt lat="45.98088" lon="4.84119">
        <ele>273</ele>
        <time>2017-08-11T10:00:15Z</time>
      </trkpt>
      <trkpt lat="45.98093" lon="4.84114">
        <ele>273</ele>
        <time>2017-08-11T10:00:16Z</time>
      </trkpt>
      <trkpt lat="45.98098" lon="4.8411">
        <ele>273</ele>
        <time>2017-08-11T10:00:17Z</time>
      </trkpt>
      <trkpt lat="45.98103" lon="4.84104">
        <ele>273</ele>
        <time>2017-08-11T10:00:18Z</time>
      </trkpt>
      <trkpt lat="45.98108" lon="4.84099">
        <ele>273</ele>
        <time>2017-08-11T10:00:19Z</time>
      </trkpt>
      <trkpt lat="45.98114" lon="4.84094">
        <ele>273</ele>
        <time>2017-08-11T10:00:20Z</time>
      </trkpt>
      <trkpt lat="45.98119" lon="4.8409">
        <ele>273</ele>
        <time>2017-08-11T10:00:21Z</time>
      </trkpt>
      <trkpt lat="45.98123" lon="4.84085">
        <ele>273</ele>
        <time>2017-08-11T10:00:22Z</time>
      </trkpt>
      <trkpt lat="45.98128" lon="4.8408">
        <ele>273</ele>
        <time>2017-08-11T10:00:23Z</time>
      </trkpt>
      <trkpt lat="45.98132" lon="4.84075">
        <ele>273</ele>
        <time>2017-08-11T10:00:24Z</time>
      </trkpt>
      <trkpt lat="45.98137" lon="4.8407">
        <ele>273</ele>
        <time>2017-08-11T10:00:25Z</time>
      </trkpt>
      <trkpt lat="45.98141" lon="4.84066">
        <ele>273</ele>
        <time>2017-08-11T10:00:26Z</time>
      </trkpt>
      <trkpt lat="45.98145" lon="4.8406">
        <ele>273</ele>
        <time>2017-08-11T10:00:27Z</time>
      </trkpt>
      <trkpt lat="45.98148" lon="4.84055">
        <ele>273</ele>
        <time>2017-08-11T10:00:28Z</time>
      </trkpt>
      <trkpt lat="45.98153" lon="4.84049">
        <ele>273</ele>
        <time>2017-08-11T10:00:29Z</time>
      </trkpt>
      <trkpt lat="45.98156" lon="4.84043">
        <ele>273</ele>
        <time>2017-08-11T10:00:30Z</time>
      </trkpt>
      <trkpt lat="45.9816" lon="4.84037">
        <ele>273</ele>
        <time>2017-08-11T10:00:31Z</time>
      </trkpt>
      <trkpt lat="45.98164" lon="4.8403">
        <ele>273</ele>
        <time>2017-08-11T10:00:32Z</time>
      </trkpt>
      <trkpt lat="45.98168" lon="4.84023">
        <ele>273</ele>
        <time>2017-08-11T10:00:33Z</time>
      </trkpt>
      <trkpt lat="45.98171" lon="4.84016">
        <ele>273</ele>
        <time>2017-08-11T10:00:34Z</time>
      </trkpt>
      <trkpt lat="45.98175" lon="4.84009">
        <ele>273</ele>
        <time>2017-08-11T10:00:35Z</time>
      </trkpt>
      <trkpt lat="45.98178" lon="4.84003">
        <ele>273</ele>
        <time>2017-08-11T10:00:36Z</time>
      </trkpt>
      <trkpt lat="45.98181" lon="4.83996">
        <ele>273</ele>
        <time>2017-08-11T10:00:37Z</time>
      </trkpt>
      <trkpt lat="45.98184" lon="4.83989">
        <ele>273</ele>
        <time>2017-08-11T10:00:38Z</time>
      </trkpt>
      <trkpt lat="45.98186" lon="4.83983">
        <ele>273</ele>
        <time>2017-08-11T10:00:39Z</time>
      </trkpt>
      <trkpt lat="45.98189" lon="4.83976">
        <ele>273</ele>
        <time>2017-08-11T10:00:40Z</time>
      </trkpt>
      <trkpt lat="45.98191" lon="4.83969">
        <ele>273</ele>
        <time>2017-08-11T10:00:41Z</time>
      </trkpt>
      <trkpt lat="45.98194" lon="4.83963">
        <ele>273</ele>
        <time>2017-08-11T10:00:42Z</time>
      </trkpt>
      <trkpt lat="45.98196" lon="4.83955">
        <ele>273</ele>
        <time>2017-08-11T10:00:43Z</time>
      </trkpt>
      <trkpt lat="45.98199" lon="4.83948">
        <ele>273</ele>
        <time>2017-08-11T10:00:44Z</time>
      </trkpt>
      <trkpt lat="45.98202" lon="4.8394">
        <ele>273</ele>
        <time>2017-08-11T10:00:45Z</time>
      </trkpt>
      <trkpt lat="45.98204" lon="4.83933">
        <ele>273</ele>
        <time>2017-08-11T10:00:46Z</time>
      </trkpt>
      <trkpt lat="45.98207" lon="4.83925">
        <ele>273</ele>
        <time>2017-08-11T10:00:47Z</time>
      </trkpt>
      <trkpt lat="45.98209" lon="4.83918">
        <ele>273</ele>
        <time>2017-08-11T10:00:48Z</time>
      </trkpt>
      <trkpt lat="45.98212" lon="4.83911">
        <ele>273</ele>
        <time>2017-08-11T10:00:49Z</time>
      </trkpt>
      <trkpt lat="45.98214" lon="4.83904">
        <ele>273</ele>
        <time>2017-08-11T10:00:50Z</time>
      </trkpt>
      <trkpt lat="45.98216" lon="4.83898">
        <ele>273</ele>
        <time>2017-08-11T10:00:51Z</time>
      </trkpt>
      <trkpt lat="45.98219" lon="4.83892">
        <ele>272</ele>
        <time>2017-08-11T10:00:52Z</time>
      </trkpt>
      <trkpt lat="45.98221" lon="4.83886">
        <ele>272</ele>
        <time>2017-08-11T10:00:53Z</time>
      </trkpt>
      <trkpt lat="45.98223" lon="4.8388">
        <ele>272</ele>
        <time>2017-08-11T10:00:54Z</time>
      </trkpt>
      <trkpt lat="45.98225" lon="4.83873">
        <ele>272</ele>
        <time>2017-08-11T10:00:55Z</time>
      </trkpt>
      <trkpt lat="45.98227" lon="4.83866">
        <ele>272</ele>
        <time>2017-08-11T10:00:56Z</time>
      </trkpt>
      <trkpt lat="45.9823" lon="4.83859">
        <ele>272</ele>
        <time>2017-08-11T10:00:57Z</time>
      </trkpt>
      <trkpt lat="45.98232" lon="4.83852">
        <ele>272</ele>
        <time>2017-08-11T10:00:58Z</time>
      </trkpt>
      <trkpt lat="45.98235" lon="4.83844">
        <ele>272</ele>
        <time>2017-08-11T10:00:59Z</time>
      </trkpt>
      <trkpt lat="45.98238" lon="4.83837">
        <ele>272</ele>
        <time>2017-08-11T10:01:00Z</time>
      </trkpt>
      <trkpt lat="45.9824" lon="4.8383">
        <ele>272</ele>
        <time>2017-08-11T10:01:01Z</time>
      </trkpt>
      <trkpt lat="45.98243" lon="4.83822">
        <ele>272</ele>
        <time>2017-08-11T10:01:02Z</time>
      </trkpt>
      <trkpt lat="45.98245" lon="4.83816">
        <ele>272</ele>
        <time>2017-08-11T10:01:03Z</time>
      </trkpt>
      <trkpt lat="45.98247" lon="4.83809">
        <ele>272</ele>
        <time>2017-08-11T10:01:04Z</time>
      </trkpt>
      <trkpt lat="45.9825" lon="4.83802">
        <ele>272</ele>
        <time>2017-08-11T10:01:05Z</time>
      </trkpt>
      <trkpt lat="45.98252" lon="4.83796">
        <ele>272</ele>
        <time>2017-08-11T10:01:06Z</time>
      </trkpt>
      <trkpt lat="45.98254" lon="4.83789">
        <ele>272</ele>
        <time>2017-08-11T10:01:07Z</time>
      </trkpt>
      <trkpt lat="45.98257" lon="4.83783">
        <ele>272</ele>
        <time>2017-08-11T10:01:08Z</time>
      </trkpt>
      <trkpt lat="45.98259" lon="4.83776">
        <ele>272</ele>
        <time>2017-08-11T10:01:09Z</time>
      </trkpt>
      <trkpt lat="45.98261" lon="4.8377">
        <ele>272</ele>
        <time>2017-08-11T10:01:10Z</time>
      </trkpt>
      <trkpt lat="45.98264" lon="4.83763">
        <ele>272</ele>
        <time>2017-08-11T10:01:11Z</time>
      </trkpt>
      <trkpt lat="45.98267" lon="4.83755">
        <ele>272</ele>
        <time>2017-08-11T10:01:12Z</time>
      </trkpt>
      <trkpt lat="45.98269" lon="4.83747">
        <ele>272</ele>
        <time>2017-08-11T10:01:13Z</time>
      </trkpt>
      <trkpt lat="45.98272" lon="4.83739">
        <ele>272</ele>
        <time>2017-08-11T10:01:14Z</time>
      </trkpt>
      <trkpt lat="45.98274" lon="4.83732">
        <ele>272</ele>
        <time>2017-08-11T10:01:15Z</time>
      </trkpt>
      <trkpt lat="45.98277" lon="4.83724">
        <ele>272</ele>
        <time>2017-08-11T10:01:16Z</time>
      </trkpt>
      <trkpt lat="45.98279" lon="4.83717">
        <ele>272</ele>
        <time>2017-08-11T10:01:17Z</time>
      </trkpt>
      <trkpt lat="45.98282" lon="4.8371">
        <ele>272</ele>
        <time>2017-08-11T10:01:18Z</time>
      </trkpt>
      <trkpt lat="45.98284" lon="4.83704">
        <ele>272</ele>
        <time>2017-08-11T10:01:19Z</time>
      </trkpt>
      <trkpt lat="45.98287" lon="4.83697">
        <ele>272</ele>
        <time>2017-08-11T10:01:20Z</time>
      </trkpt>
      <trkpt lat="45.98289" lon="4.83691">
        <ele>272</ele>
        <time>2017-08-11T10:01:21Z</time>
      </trkpt>
      <trkpt lat="45.98291" lon="4.83685">
        <ele>272</ele>
        <time>2017-08-11T10:01:22Z</time>
      </trkpt>
      <trkpt lat="45.98293" lon="4.83679">
        <ele>272</ele>
        <time>2017-08-11T10:01:23Z</time>
      </trkpt>
      <trkpt lat="45.98295" lon="4.83673">
        <ele>272</ele>
        <time>2017-08-11T10:01:24Z</time>
      </trkpt>
      <trkpt lat="45.98297" lon="4.83668">
        <ele>272</ele>
        <time>2017-08-11T10:01:25Z</time>
      </trkpt>
      <trkpt lat="45.983" lon="4.83662">
        <ele>271</ele>
        <time>2017-08-11T10:01:26Z</time>
      </trkpt>
      <trkpt lat="45.98303" lon="4.83655">
        <ele>271</ele>
        <time>2017-08-11T10:01:27Z</time>
      </trkpt>
      <trkpt lat="45.98306" lon="4.83648">
        <ele>271</ele>
        <time>2017-08-11T10:01:28Z</time>
      </trkpt>
      <trkpt lat="45.98309" lon="4.83641">
        <ele>271</ele>
        <time>2017-08-11T10:01:29Z</time>
      </trkpt>
      <trkpt lat="45.98312" lon="4.83635">
        <ele>271</ele>
        <time>2017-08-11T10:01:30Z</time>
      </trkpt>
      <trkpt lat="45.98314" lon="4.83629">
        <ele>271</ele>
        <time>2017-08-11T10:01:31Z</time>
      </trkpt>
      <trkpt lat="45.98318" lon="4.83622">
        <ele>271</ele>
        <time>2017-08-11T10:01:32Z</time>
      </trkpt>
      <trkpt lat="45.98321" lon="4.83617">
        <ele>271</ele>
        <time>2017-08-11T10:01:33Z</time>
      </trkpt>
      <trkpt lat="45.98325" lon="4.83611">
        <ele>271</ele>
        <time>2017-08-11T10:01:34Z</time>
      </trkpt>
      <trkpt lat="45.98328" lon="4.83606">
        <ele>271</ele>
        <time>2017-08-11T10:01:35Z</time>
      </trkpt>
      <trkpt lat="45.98331" lon="4.83602">
        <ele>271</ele>
        <time>2017-08-11T10:01:36Z</time>
      </trkpt>
      <trkpt lat="45.98335" lon="4.83597">
        <ele>270</ele>
        <time>2017-08-11T10:01:37Z</time>
      </trkpt>
      <trkpt lat="45.98338" lon="4.83592">
        <ele>270</ele>
        <time>2017-08-11T10:01:38Z</time>
      </trkpt>
      <trkpt lat="45.98342" lon="4.83586">
        <ele>270</ele>
        <time>2017-08-11T10:01:39Z</time>
      </trkpt>
      <trkpt lat="45.98347" lon="4.83581">
        <ele>270</ele>
        <time>2017-08-11T10:01:40Z</time>
      </trkpt>
      <trkpt lat="45.98351" lon="4.83575">
        <ele>269</ele>
        <time>2017-08-11T10:01:41Z</time>
      </trkpt>
      <trkpt lat="45.98356" lon="4.83569">
        <ele>269</ele>
        <time>2017-08-11T10:01:42Z</time>
      </trkpt>
      <trkpt lat="45.98361" lon="4.83563">
        <ele>269</ele>
        <time>2017-08-11T10:01:43Z</time>
      </trkpt>
      <trkpt lat="45.98365" lon="4.83556">
        <ele>269</ele>
        <time>2017-08-11T10:01:44Z</time>
      </trkpt>
      <trkpt lat="45.98369" lon="4.8355">
        <ele>269</ele>
        <time>2017-08-11T10:01:45Z</time>
      </trkpt>
      <trkpt lat="45.98374" lon="4.83544">
        <ele>269</ele>
        <time>2017-08-11T10:01:46Z</time>
      </trkpt>
      <trkpt lat="45.98378" lon="4.83538">
        <ele>269</ele>
        <time>2017-08-11T10:01:47Z</time>
      </trkpt>
      <trkpt lat="45.98382" lon="4.83533">
        <ele>269</ele>
        <time>2017-08-11T10:01:48Z</time>
      </trkpt>
      <trkpt lat="45.98386" lon="4.83527">
        <ele>269</ele>
        <time>2017-08-11T10:01:49Z</time>
      </trkpt>
      <trkpt lat="45.98391" lon="4.83521">
        <ele>269</ele>
        <time>2017-08-11T10:01:50Z</time>
      </trkpt>
      <trkpt lat="45.98395" lon="4.83516">
        <ele>269</ele>
        <time>2017-08-11T10:01:51Z</time>
      </trkpt>
      <trkpt lat="45.98399" lon="4.8351">
        <ele>269</ele>
        <time>2017-08-11T10:01:52Z</time>
      </trkpt>
      <trkpt lat="45.98403" lon="4.83505">
        <ele>268</ele>
        <time>2017-08-11T10:01:53Z</time>
      </trkpt>
      <trkpt lat="45.98407" lon="4.83499">
        <ele>268</ele>
        <time>2017-08-11T10:01:54Z</time>
      </trkpt>
      <trkpt lat="45.98412" lon="4.83493">
        <ele>268</ele>
        <time>2017-08-11T10:01:55Z</time>
      </trkpt>
      <trkpt lat="45.98416" lon="4.83487">
        <ele>269</ele>
        <time>2017-08-11T10:01:56Z</time>
      </trkpt>
      <trkpt lat="45.9842" lon="4.83481">
        <ele>268</ele>
        <time>2017-08-11T10:01:57Z</time>
      </trkpt>
      <trkpt lat="45.98424" lon="4.83474">
        <ele>268</ele>
        <time>2017-08-11T10:01:58Z</time>
      </trkpt>
      <trkpt lat="45.98428" lon="4.83469">
        <ele>268</ele>
        <time>2017-08-11T10:01:59Z</time>
      </trkpt>
      <trkpt lat="45.98433" lon="4.83464">
        <ele>268</ele>
        <time>2017-08-11T10:02:00Z</time>
      </trkpt>
      <trkpt lat="45.98437" lon="4.83459">
        <ele>268</ele>
        <time>2017-08-11T10:02:01Z</time>
      </trkpt>
      <trkpt lat="45.9844" lon="4.83454">
        <ele>268</ele>
        <time>2017-08-11T10:02:02Z</time>
      </trkpt>
      <trkpt lat="45.98444" lon="4.83449">
        <ele>268</ele>
        <time>2017-08-11T10:02:03Z</time>
      </trkpt>
      <trkpt lat="45.98447" lon="4.83444">
        <ele>268</ele>
        <time>2017-08-11T10:02:04Z</time>
      </trkpt>
      <trkpt lat="45.98451" lon="4.83439">
        <ele>268</ele>
        <time>2017-08-11T10:02:05Z</time>
      </trkpt>
      <trkpt lat="45.98455" lon="4.83433">
        <ele>268</ele>
        <time>2017-08-11T10:02:06Z</time>
      </trkpt>
      <trkpt lat="45.98459" lon="4.83428">
        <ele>268</ele>
        <time>2017-08-11T10:02:07Z</time>
      </trkpt>
      <trkpt lat="45.98464" lon="4.83422">
        <ele>269</ele>
        <time>2017-08-11T10:02:08Z</time>
      </trkpt>
      <trkpt lat="45.98468" lon="4.83416">
        <ele>269</ele>
        <time>2017-08-11T10:02:09Z</time>
      </trkpt>
      <trkpt lat="45.98472" lon="4.8341">
        <ele>269</ele>
        <time>2017-08-11T10:02:10Z</time>
      </trkpt>
      <trkpt lat="45.98476" lon="4.83404">
        <ele>269</ele>
        <time>2017-08-11T10:02:11Z</time>
      </trkpt>
      <trkpt lat="45.9848" lon="4.83399">
        <ele>269</ele>
        <time>2017-08-11T10:02:12Z</time>
      </trkpt>
      <trkpt lat="45.98484" lon="4.83394">
        <ele>269</ele>
        <time>2017-08-11T10:02:13Z</time>
      </trkpt>
      <trkpt lat="45.98487" lon="4.83389">
        <ele>269</ele>
        <time>2017-08-11T10:02:14Z</time>
      </trkpt>
      <trkpt lat="45.98491" lon="4.83385">
        <ele>269</ele>
        <time>2017-08-11T10:02:15Z</time>
      </trkpt>
      <trkpt lat="45.98495" lon="4.8338">
        <ele>269</ele>
        <time>2017-08-11T10:02:16Z</time>
      </trkpt>
      <trkpt lat="45.98499" lon="4.83375">
        <ele>270</ele>
        <time>2017-08-11T10:02:17Z</time>
      </trkpt>
      <trkpt lat="45.98503" lon="4.83369">
        <ele>269</ele>
        <time>2017-08-11T10:02:18Z</time>
      </trkpt>
      <trkpt lat="45.98507" lon="4.83364">
        <ele>269</ele>
        <time>2017-08-11T10:02:19Z</time>
      </trkpt>
      <trkpt lat="45.98511" lon="4.83358">
        <ele>269</ele>
        <time>2017-08-11T10:02:20Z</time>
      </trkpt>
      <trkpt lat="45.98515" lon="4.83352">
        <ele>270</ele>
        <time>2017-08-11T10:02:21Z</time>
      </trkpt>
      <trkpt lat="45.98519" lon="4.83346">
        <ele>270</ele>
        <time>2017-08-11T10:02:22Z</time>
      </trkpt>
      <trkpt lat="45.98523" lon="4.83341">
        <ele>270</ele>
        <time>2017-08-11T10:02:23Z</time>
      </trkpt>
      <trkpt lat="45.98527" lon="4.83335">
        <ele>269</ele>
        <time>2017-08-11T10:02:24Z</time>
      </trkpt>
      <trkpt lat="45.98531" lon="4.8333">
        <ele>269</ele>
        <time>2017-08-11T10:02:25Z</time>
      </trkpt>
      <trkpt lat="45.98535" lon="4.83325">
        <ele>269</ele>
        <time>2017-08-11T10:02:26Z</time>
      </trkpt>
      <trkpt lat="45.98539" lon="4.8332">
        <ele>269</ele>
        <time>2017-08-11T10:02:27Z</time>
      </trkpt>
      <trkpt lat="45.98542" lon="4.83314">
        <ele>269</ele>
        <time>2017-08-11T10:02:28Z</time>
      </trkpt>
      <trkpt lat="45.98546" lon="4.83309">
        <ele>269</ele>
        <time>2017-08-11T10:02:29Z</time>
      </trkpt>
      <trkpt lat="45.9855" lon="4.83305">
        <ele>269</ele>
        <time>2017-08-11T10:02:30Z</time>
      </trkpt>
      <trkpt lat="45.98553" lon="4.833">
        <ele>269</ele>
        <time>2017-08-11T10:02:31Z</time>
      </trkpt>
      <trkpt lat="45.98556" lon="4.83296">
        <ele>269</ele>
        <time>2017-08-11T10:02:32Z</time>
      </trkpt>
      <trkpt lat="45.9856" lon="4.83291">
        <ele>269</ele>
        <time>2017-08-11T10:02:33Z</time>
      </trkpt>
      <trkpt lat="45.98563" lon="4.83286">
        <ele>269</ele>
        <time>2017-08-11T10:02:34Z</time>
      </trkpt>
      <trkpt lat="45.98567" lon="4.83282">
        <ele>269</ele>
        <time>2017-08-11T10:02:35Z</time>
      </trkpt>
      <trkpt lat="45.98573" lon="4.83273">
        <ele>269</ele>
        <time>2017-08-11T10:02:37Z</time>
      </trkpt>
      <trkpt lat="45.98576" lon="4.83269">
        <ele>269</ele>
        <time>2017-08-11T10:02:38Z</time>
      </trkpt>
      <trkpt lat="45.98579" lon="4.83264">
        <ele>269</ele>
        <time>2017-08-11T10:02:39Z</time>
      </trkpt>
      <trkpt lat="45.98583" lon="4.83259">
        <ele>268</ele>
        <time>2017-08-11T10:02:40Z</time>
      </trkpt>
      <trkpt lat="45.98586" lon="4.83254">
        <ele>268</ele>
        <time>2017-08-11T10:02:41Z</time>
      </trkpt>
      <trkpt lat="45.98591" lon="4.83248">
        <ele>268</ele>
        <time>2017-08-11T10:02:42Z</time>
      </trkpt>
      <trkpt lat="45.98595" lon="4.83243">
        <ele>268</ele>
        <time>2017-08-11T10:02:43Z</time>
      </trkpt>
      <trkpt lat="45.986" lon="4.83237">
        <ele>268</ele>
        <time>2017-08-11T10:02:44Z</time>
      </trkpt>
      <trkpt lat="45.98604" lon="4.83232">
        <ele>268</ele>
        <time>2017-08-11T10:02:45Z</time>
      </trkpt>
      <trkpt lat="45.98608" lon="4.83226">
        <ele>267</ele>
        <time>2017-08-11T10:02:46Z</time>
      </trkpt>
      <trkpt lat="45.98612" lon="4.8322">
        <ele>267</ele>
        <time>2017-08-11T10:02:47Z</time>
      </trkpt>
      <trkpt lat="45.98616" lon="4.83215">
        <ele>267</ele>
        <time>2017-08-11T10:02:48Z</time>
      </trkpt>
      <trkpt lat="45.9862" lon="4.83209">
        <ele>267</ele>
        <time>2017-08-11T10:02:49Z</time>
      </trkpt>
      <trkpt lat="45.98624" lon="4.83204">
        <ele>267</ele>
        <time>2017-08-11T10:02:50Z</time>
      </trkpt>
      <trkpt lat="45.98628" lon="4.832">
        <ele>267</ele>
        <time>2017-08-11T10:02:51Z</time>
      </trkpt>
      <trkpt lat="45.98632" lon="4.83195">
        <ele>267</ele>
        <time>2017-08-11T10:02:52Z</time>
      </trkpt>
      <trkpt lat="45.98636" lon="4.8319">
        <ele>267</ele>
        <time>2017-08-11T10:02:53Z</time>
      </trkpt>
      <trkpt lat="45.98641" lon="4.83185">
        <ele>267</ele>
        <time>2017-08-11T10:02:54Z</time>
      </trkpt>
      <trkpt lat="45.98645" lon="4.83181">
        <ele>267</ele>
        <time>2017-08-11T10:02:55Z</time>
      </trkpt>
      <trkpt lat="45.9865" lon="4.83177">
        <ele>267</ele>
        <time>2017-08-11T10:02:56Z</time>
      </trkpt>
      <trkpt lat="45.98654" lon="4.83173">
        <ele>267</ele>
        <time>2017-08-11T10:02:57Z</time>
      </trkpt>
      <trkpt lat="45.98659" lon="4.83169">
        <ele>266</ele>
        <time>2017-08-11T10:02:58Z</time>
      </trkpt>
      <trkpt lat="45.98663" lon="4.83165">
        <ele>266</ele>
        <time>2017-08-11T10:02:59Z</time>
      </trkpt>
      <trkpt lat="45.98668" lon="4.83162">
        <ele>266</ele>
        <time>2017-08-11T10:03:00Z</time>
      </trkpt>
      <trkpt lat="45.98673" lon="4.83159">
        <ele>266</ele>
        <time>2017-08-11T10:03:01Z</time>
      </trkpt>
      <trkpt lat="45.98678" lon="4.83155">
        <ele>266</ele>
        <time>2017-08-11T10:03:02Z</time>
      </trkpt>
      <trkpt lat="45.98682" lon="4.83152">
        <ele>266</ele>
        <time>2017-08-11T10:03:03Z</time>
      </trkpt>
      <trkpt lat="45.98687" lon="4.83148">
        <ele>266</ele>
        <time>2017-08-11T10:03:04Z</time>
      </trkpt>
      <trkpt lat="45.98692" lon="4.83144">
        <ele>266</ele>
        <time>2017-08-11T10:03:05Z</time>
      </trkpt>
      <trkpt lat="45.98698" lon="4.8314">
        <ele>266</ele>
        <time>2017-08-11T10:03:06Z</time>
      </trkpt>
      <trkpt lat="45.98704" lon="4.83136">
        <ele>266</ele>
        <time>2017-08-11T10:03:07Z</time>
      </trkpt>
      <trkpt lat="45.98709" lon="4.83132">
        <ele>266</ele>
        <time>2017-08-11T10:03:08Z</time>
      </trkpt>
      <trkpt lat="45.98714" lon="4.83128">
        <ele>266</ele>
        <time>2017-08-11T10:03:09Z</time>
      </trkpt>
      <trkpt lat="45.98719" lon="4.83124">
        <ele>266</ele>
        <time>2017-08-11T10:03:10Z</time>
      </trkpt>
      <trkpt lat="45.98724" lon="4.83119">
        <ele>266</ele>
        <time>2017-08-11T10:03:11Z</time>
      </trkpt>
      <trkpt lat="45.98729" lon="4.83115">
        <ele>267</ele>
        <time>2017-08-11T10:03:12Z</time>
      </trkpt>
      <trkpt lat="45.98734" lon="4.83111">
        <ele>267</ele>
        <time>2017-08-11T10:03:13Z</time>
      </trkpt>
      <trkpt lat="45.98738" lon="4.83107">
        <ele>267</ele>
        <time>2017-08-11T10:03:14Z</time>
      </trkpt>
      <trkpt lat="45.98743" lon="4.83103">
        <ele>267</ele>
        <time>2017-08-11T10:03:15Z</time>
      </trkpt>
      <trkpt lat="45.98748" lon="4.83099">
        <ele>267</ele>
        <time>2017-08-11T10:03:16Z</time>
      </trkpt>
      <trkpt lat="45.98753" lon="4.83095">
        <ele>266</ele>
        <time>2017-08-11T10:03:17Z</time>
      </trkpt>
      <trkpt lat="45.98758" lon="4.83091">
        <ele>266</ele>
        <time>2017-08-11T10:03:18Z</time>
      </trkpt>
      <trkpt lat="45.98763" lon="4.83087">
        <ele>266</ele>
        <time>2017-08-11T10:03:19Z</time>
      </trkpt>
      <trkpt lat="45.98768" lon="4.83082">
        <ele>266</ele>
        <time>2017-08-11T10:03:20Z</time>
      </trkpt>
      <trkpt lat="45.98773" lon="4.83077">
        <ele>265</ele>
        <time>2017-08-11T10:03:21Z</time>
      </trkpt>
      <trkpt lat="45.98778" lon="4.83072">
        <ele>265</ele>
        <time>2017-08-11T10:03:22Z</time>
      </trkpt>
      <trkpt lat="45.98784" lon="4.83067">
        <ele>265</ele>
        <time>2017-08-11T10:03:23Z</time>
      </trkpt>
      <trkpt lat="45.9879" lon="4.83062">
        <ele>265</ele>
        <time>2017-08-11T10:03:24Z</time>
      </trkpt>
      <trkpt lat="45.98795" lon="4.83056">
        <ele>264</ele>
        <time>2017-08-11T10:03:25Z</time>
      </trkpt>
      <trkpt lat="45.98801" lon="4.83052">
        <ele>264</ele>
        <time>2017-08-11T10:03:26Z</time>
      </trkpt>
      <trkpt lat="45.98807" lon="4.83048">
        <ele>264</ele>
        <time>2017-08-11T10:03:27Z</time>
      </trkpt>
      <trkpt lat="45.98814" lon="4.83043">
        <ele>264</ele>
        <time>2017-08-11T10:03:28Z</time>
      </trkpt>
      <trkpt lat="45.9882" lon="4.83038">
        <ele>264</ele>
        <time>2017-08-11T10:03:29Z</time>
      </trkpt>
      <trkpt lat="45.98826" lon="4.83034">
        <ele>264</ele>
        <time>2017-08-11T10:03:30Z</time>
      </trkpt>
      <trkpt lat="45.98833" lon="4.83029">
        <ele>264</ele>
        <time>2017-08-11T10:03:31Z</time>
      </trkpt>
      <trkpt lat="45.98839" lon="4.83023">
        <ele>261</ele>
        <time>2017-08-11T10:03:32Z</time>
      </trkpt>
      <trkpt lat="45.98846" lon="4.83018">
        <ele>261</ele>
        <time>2017-08-11T10:03:33Z</time>
      </trkpt>
      <trkpt lat="45.98853" lon="4.83013">
        <ele>261</ele>
        <time>2017-08-11T10:03:34Z</time>
      </trkpt>
      <trkpt lat="45.9886" lon="4.83008">
        <ele>260</ele>
        <time>2017-08-11T10:03:35Z</time>
      </trkpt>
      <trkpt lat="45.98868" lon="4.83003">
        <ele>260</ele>
        <time>2017-08-11T10:03:36Z</time>
      </trkpt>
      <trkpt lat="45.98875" lon="4.82997">
        <ele>260</ele>
        <time>2017-08-11T10:03:37Z</time>
      </trkpt>
      <trkpt lat="45.98883" lon="4.82992">
        <ele>259</ele>
        <time>2017-08-11T10:03:38Z</time>
      </trkpt>
      <trkpt lat="45.98891" lon="4.82986">
        <ele>259</ele>
        <time>2017-08-11T10:03:39Z</time>
      </trkpt>
      <trkpt lat="45.98899" lon="4.82979">
        <ele>259</ele>
        <time>2017-08-11T10:03:40Z</time>
      </trkpt>
      <trkpt lat="45.98907" lon="4.82972">
        <ele>259</ele>
        <time>2017-08-11T10:03:41Z</time>
      </trkpt>
      <trkpt lat="45.98915" lon="4.82963">
        <ele>258</ele>
        <time>2017-08-11T10:03:42Z</time>
      </trkpt>
      <trkpt lat="45.98921" lon="4.82952">
        <ele>255</ele>
        <time>2017-08-11T10:03:43Z</time>
      </trkpt>
      <trkpt lat="45.98927" lon="4.8294">
        <ele>255</ele>
        <time>2017-08-11T10:03:44Z</time>
      </trkpt>
      <trkpt lat="45.98933" lon="4.82926">
        <ele>255</ele>
        <time>2017-08-11T10:03:45Z</time>
      </trkpt>
      <trkpt lat="45.98939" lon="4.82911">
        <ele>254</ele>
        <time>2017-08-11T10:03:46Z</time>
      </trkpt>
      <trkpt lat="45.98945" lon="4.82897">
        <ele>253</ele>
        <time>2017-08-11T10:03:47Z</time>
      </trkpt>
      <trkpt lat="45.98951" lon="4.82882">
        <ele>253</ele>
        <time>2017-08-11T10:03:48Z</time>
      </trkpt>
      <trkpt lat="45.98958" lon="4.82867">
        <ele>252</ele>
        <time>2017-08-11T10:03:49Z</time>
      </trkpt>
      <trkpt lat="45.98965" lon="4.82852">
        <ele>252</ele>
        <time>2017-08-11T10:03:50Z</time>
      </trkpt>
      <trkpt lat="45.98971" lon="4.82837">
        <ele>251</ele>
        <time>2017-08-11T10:03:51Z</time>
      </trkpt>
      <trkpt lat="45.98978" lon="4.82821">
        <ele>248</ele>
        <time>2017-08-11T10:03:52Z</time>
      </trkpt>
      <trkpt lat="45.98985" lon="4.82805">
        <ele>248</ele>
        <time>2017-08-11T10:03:53Z</time>
      </trkpt>
      <trkpt lat="45.98992" lon="4.82789">
        <ele>247</ele>
        <time>2017-08-11T10:03:54Z</time>
      </trkpt>
      <trkpt lat="45.98999" lon="4.82772">
        <ele>245</ele>
        <time>2017-08-11T10:03:55Z</time>
      </trkpt>
      <trkpt lat="45.99006" lon="4.82755">
        <ele>241</ele>
        <time>2017-08-11T10:03:56Z</time>
      </trkpt>
      <trkpt lat="45.99013" lon="4.82739">
        <ele>240</ele>
        <time>2017-08-11T10:03:57Z</time>
      </trkpt>
      <trkpt lat="45.9902" lon="4.82723">
        <ele>239</ele>
        <time>2017-08-11T10:03:58Z</time>
      </trkpt>
      <trkpt lat="45.99027" lon="4.82706">
        <ele>238</ele>
        <time>2017-08-11T10:03:59Z</time>
      </trkpt>
      <trkpt lat="45.99034" lon="4.8269">
        <ele>238</ele>
        <time>2017-08-11T10:04:00Z</time>
      </trkpt>
      <trkpt lat="45.99041" lon="4.82675">
        <ele>238</ele>
        <time>2017-08-11T10:04:01Z</time>
      </trkpt>
      <trkpt lat="45.99048" lon="4.8266">
        <ele>236</ele>
        <time>2017-08-11T10:04:02Z</time>
      </trkpt>
      <trkpt lat="45.99054" lon="4.82646">
        <ele>236</ele>
        <time>2017-08-11T10:04:03Z</time>
      </trkpt>
      <trkpt lat="45.9906" lon="4.82633">
        <ele>236</ele>
        <time>2017-08-11T10:04:04Z</time>
      </trkpt>
      <trkpt lat="45.99065" lon="4.82621">
        <ele>236</ele>
        <time>2017-08-11T10:04:05Z</time>
      </trkpt>
      <trkpt lat="45.99069" lon="4.82611">
        <ele>236</ele>
        <time>2017-08-11T10:04:06Z</time>
      </trkpt>
      <trkpt lat="45.99073" lon="4.82603">
        <ele>235</ele>
        <time>2017-08-11T10:04:07Z</time>
      </trkpt>
      <trkpt lat="45.99076" lon="4.82596">
        <ele>235</ele>
        <time>2017-08-11T10:04:08Z</time>
      </trkpt>
      <trkpt lat="45.99077" lon="4.8259">
        <ele>235</ele>
        <time>2017-08-11T10:04:09Z</time>
      </trkpt>
      <trkpt lat="45.99077" lon="4.82583">
        <ele>235</ele>
        <time>2017-08-11T10:04:10Z</time>
      </trkpt>
      <trkpt lat="45.99075" lon="4.82576">
        <ele>235</ele>
        <time>2017-08-11T10:04:11Z</time>
      </trkpt>
      <trkpt lat="45.99071" lon="4.8257">
        <ele>235</ele>
        <time>2017-08-11T10:04:12Z</time>
      </trkpt>
      <trkpt lat="45.99065" lon="4.82566">
        <ele>235</ele>
        <time>2017-08-11T10:04:13Z</time>
      </trkpt>
      <trkpt lat="45.99059" lon="4.82564">
        <ele>235</ele>
        <time>2017-08-11T10:04:14Z</time>
      </trkpt>
      <trkpt lat="45.99054" lon="4.82562">
        <ele>235</ele>
        <time>2017-08-11T10:04:15Z</time>
      </trkpt>
      <trkpt lat="45.99049" lon="4.8256">
        <ele>235</ele>
        <time>2017-08-11T10:04:16Z</time>
      </trkpt>
      <trkpt lat="45.99044" lon="4.82558">
        <ele>235</ele>
        <time>2017-08-11T10:04:17Z</time>
      </trkpt>
      <trkpt lat="45.99039" lon="4.82556">
        <ele>235</ele>
        <time>2017-08-11T10:04:18Z</time>
      </trkpt>
      <trkpt lat="45.99035" lon="4.82554">
        <ele>235</ele>
        <time>2017-08-11T10:04:19Z</time>
      </trkpt>
      <trkpt lat="45.99028" lon="4.82547">
        <ele>235</ele>
        <time>2017-08-11T10:04:21Z</time>
      </trkpt>
      <trkpt lat="45.99024" lon="4.82542">
        <ele>235</ele>
        <time>2017-08-11T10:04:22Z</time>
      </trkpt>
      <trkpt lat="45.99018" lon="4.82535">
        <ele>235</ele>
        <time>2017-08-11T10:04:24Z</time>
      </trkpt>
      <trkpt lat="45.99015" lon="4.82531">
        <ele>235</ele>
        <time>2017-08-11T10:04:25Z</time>
      </trkpt>
      <trkpt lat="45.9901" lon="4.82524">
        <ele>235</ele>
        <time>2017-08-11T10:04:27Z</time>
      </trkpt>
      <trkpt lat="45.99008" lon="4.82521">
        <ele>235</ele>
        <time>2017-08-11T10:04:28Z</time>
      </trkpt>
      <trkpt lat="45.99005" lon="4.82511">
        <ele>235</ele>
        <time>2017-08-11T10:04:30Z</time>
      </trkpt>
      <trkpt lat="45.99004" lon="4.82506">
        <ele>235</ele>
        <time>2017-08-11T10:04:31Z</time>
      </trkpt>
      <trkpt lat="45.99" lon="4.82496">
        <ele>235</ele>
        <time>2017-08-11T10:04:33Z</time>
      </trkpt>
      <trkpt lat="45.98997" lon="4.82491">
        <ele>236</ele>
        <time>2017-08-11T10:04:34Z</time>
      </trkpt>
      <trkpt lat="45.98993" lon="4.82481">
        <ele>236</ele>
        <time>2017-08-11T10:04:36Z</time>
      </trkpt>
      <trkpt lat="45.98991" lon="4.82476">
        <ele>236</ele>
        <time>2017-08-11T10:04:37Z</time>
      </trkpt>
      <trkpt lat="45.98988" lon="4.82464">
        <ele>236</ele>
        <time>2017-08-11T10:04:39Z</time>
      </trkpt>
      <trkpt lat="45.98986" lon="4.82458">
        <ele>236</ele>
        <time>2017-08-11T10:04:40Z</time>
      </trkpt>
      <trkpt lat="45.98984" lon="4.82452">
        <ele>236</ele>
        <time>2017-08-11T10:04:41Z</time>
      </trkpt>
      <trkpt lat="45.98982" lon="4.82445">
        <ele>236</ele>
        <time>2017-08-11T10:04:42Z</time>
      </trkpt>
      <trkpt lat="45.9898" lon="4.82437">
        <ele>236</ele>
        <time>2017-08-11T10:04:43Z</time>
      </trkpt>
      <trkpt lat="45.98978" lon="4.8243">
        <ele>236</ele>
        <time>2017-08-11T10:04:44Z</time>
      </trkpt>
      <trkpt lat="45.98976" lon="4.82422">
        <ele>236</ele>
        <time>2017-08-11T10:04:45Z</time>
      </trkpt>
      <trkpt lat="45.98975" lon="4.82415">
        <ele>235</ele>
        <time>2017-08-11T10:04:46Z</time>
      </trkpt>
      <trkpt lat="45.98974" lon="4.82409">
        <ele>235</ele>
        <time>2017-08-11T10:04:47Z</time>
      </trkpt>
      <trkpt lat="45.98972" lon="4.82402">
        <ele>235</ele>
        <time>2017-08-11T10:04:48Z</time>
      </trkpt>
      <trkpt lat="45.98969" lon="4.8239">
        <ele>235</ele>
        <time>2017-08-11T10:04:50Z</time>
      </trkpt>
      <trkpt lat="45.98968" lon="4.82384">
        <ele>235</ele>
        <time>2017-08-11T10:04:51Z</time>
      </trkpt>
      <trkpt lat="45.98966" lon="4.82378">
        <ele>235</ele>
        <time>2017-08-11T10:04:52Z</time>
      </trkpt>
      <trkpt lat="45.98964" lon="4.82371">
        <ele>235</ele>
        <time>2017-08-11T10:04:53Z</time>
      </trkpt>
      <trkpt lat="45.98962" lon="4.82364">
        <ele>235</ele>
        <time>2017-08-11T10:04:54Z</time>
      </trkpt>
      <trkpt lat="45.98959" lon="4.82357">
        <ele>235</ele>
        <time>2017-08-11T10:04:55Z</time>
      </trkpt>
      <trkpt lat="45.98956" lon="4.82349">
        <ele>235</ele>
        <time>2017-08-11T10:04:56Z</time>
      </trkpt>
      <trkpt lat="45.98953" lon="4.82343">
        <ele>235</ele>
        <time>2017-08-11T10:04:57Z</time>
      </trkpt>
      <trkpt lat="45.9895" lon="4.82336">
        <ele>235</ele>
        <time>2017-08-11T10:04:58Z</time>
      </trkpt>
      <trkpt lat="45.98946" lon="4.82331">
        <ele>234</ele>
        <time>2017-08-11T10:04:59Z</time>
      </trkpt>
      <trkpt lat="45.98942" lon="4.82325">
        <ele>234</ele>
        <time>2017-08-11T10:05:00Z</time>
      </trkpt>
      <trkpt lat="45.98938" lon="4.8232">
        <ele>234</ele>
        <time>2017-08-11T10:05:01Z</time>
      </trkpt>
      <trkpt lat="45.98933" lon="4.82315">
        <ele>235</ele>
        <time>2017-08-11T10:05:02Z</time>
      </trkpt>
      <trkpt lat="45.9893" lon="4.82311">
        <ele>234</ele>
        <time>2017-08-11T10:05:03Z</time>
      </trkpt>
      <trkpt lat="45.98926" lon="4.82307">
        <ele>234</ele>
        <time>2017-08-11T10:05:04Z</time>
      </trkpt>
      <trkpt lat="45.98922" lon="4.82302">
        <ele>234</ele>
        <time>2017-08-11T10:05:05Z</time>
      </trkpt>
      <trkpt lat="45.98915" lon="4.82295">
        <ele>236</ele>
        <time>2017-08-11T10:05:07Z</time>
      </trkpt>
      <trkpt lat="45.98912" lon="4.8229">
        <ele>236</ele>
        <time>2017-08-11T10:05:08Z</time>
      </trkpt>
      <trkpt lat="45.98908" lon="4.82286">
        <ele>236</ele>
        <time>2017-08-11T10:05:09Z</time>
      </trkpt>
      <trkpt lat="45.98904" lon="4.82281">
        <ele>236</ele>
        <time>2017-08-11T10:05:10Z</time>
      </trkpt>
      <trkpt lat="45.989" lon="4.82276">
        <ele>236</ele>
        <time>2017-08-11T10:05:11Z</time>
      </trkpt>
      <trkpt lat="45.98897" lon="4.82269">
        <ele>236</ele>
        <time>2017-08-11T10:05:12Z</time>
      </trkpt>
      <trkpt lat="45.98893" lon="4.82263">
        <ele>236</ele>
        <time>2017-08-11T10:05:13Z</time>
      </trkpt>
      <trkpt lat="45.9889" lon="4.82257">
        <ele>236</ele>
        <time>2017-08-11T10:05:14Z</time>
      </trkpt>
      <trkpt lat="45.98886" lon="4.8225">
        <ele>235</ele>
        <time>2017-08-11T10:05:15Z</time>
      </trkpt>
      <trkpt lat="45.98883" lon="4.82243">
        <ele>236</ele>
        <time>2017-08-11T10:05:16Z</time>
      </trkpt>
      <trkpt lat="45.9888" lon="4.82237">
        <ele>236</ele>
        <time>2017-08-11T10:05:17Z</time>
      </trkpt>
      <trkpt lat="45.98877" lon="4.8223">
        <ele>236</ele>
        <time>2017-08-11T10:05:18Z</time>
      </trkpt>
      <trkpt lat="45.98875" lon="4.82224">
        <ele>236</ele>
        <time>2017-08-11T10:05:19Z</time>
      </trkpt>
      <trkpt lat="45.98872" lon="4.82218">
        <ele>236</ele>
        <time>2017-08-11T10:05:20Z</time>
      </trkpt>
      <trkpt lat="45.98869" lon="4.82212">
        <ele>236</ele>
        <time>2017-08-11T10:05:21Z</time>
      </trkpt>
      <trkpt lat="45.98866" lon="4.82206">
        <ele>236</ele>
        <time>2017-08-11T10:05:22Z</time>
      </trkpt>
      <trkpt lat="45.98864" lon="4.822">
        <ele>236</ele>
        <time>2017-08-11T10:05:23Z</time>
      </trkpt>
      <trkpt lat="45.98862" lon="4.82194">
        <ele>236</ele>
        <time>2017-08-11T10:05:24Z</time>
      </trkpt>
      <trkpt lat="45.9886" lon="4.82188">
        <ele>236</ele>
        <time>2017-08-11T10:05:25Z</time>
      </trkpt>
      <trkpt lat="45.98857" lon="4.82181">
        <ele>236</ele>
        <time>2017-08-11T10:05:26Z</time>
      </trkpt>
      <trkpt lat="45.98855" lon="4.82174">
        <ele>236</ele>
        <time>2017-08-11T10:05:27Z</time>
      </trkpt>
      <trkpt lat="45.98853" lon="4.82166">
        <ele>236</ele>
        <time>2017-08-11T10:05:28Z</time>
      </trkpt>
      <trkpt lat="45.98851" lon="4.82158">
        <ele>236</ele>
        <time>2017-08-11T10:05:29Z</time>
      </trkpt>
      <trkpt lat="45.98849" lon="4.8215">
        <ele>236</ele>
        <time>2017-08-11T10:05:30Z</time>
      </trkpt>
      <trkpt lat="45.98847" lon="4.82143">
        <ele>236</ele>
        <time>2017-08-11T10:05:31Z</time>
      </trkpt>
      <trkpt lat="45.98846" lon="4.82135">
        <ele>236</ele>
        <time>2017-08-11T10:05:32Z</time>
      </trkpt>
      <trkpt lat="45.98844" lon="4.82129">
        <ele>236</ele>
        <time>2017-08-11T10:05:33Z</time>
      </trkpt>
      <trkpt lat="45.98842" lon="4.82122">
        <ele>235</ele>
        <time>2017-08-11T10:05:34Z</time>
      </trkpt>
      <trkpt lat="45.98841" lon="4.82116">
        <ele>235</ele>
        <time>2017-08-11T10:05:35Z</time>
      </trkpt>
      <trkpt lat="45.9884" lon="4.82109">
        <ele>235</ele>
        <time>2017-08-11T10:05:36Z</time>
      </trkpt>
      <trkpt lat="45.98838" lon="4.82096">
        <ele>236</ele>
        <time>2017-08-11T10:05:38Z</time>
      </trkpt>
      <trkpt lat="45.98837" lon="4.8209">
        <ele>236</ele>
        <time>2017-08-11T10:05:39Z</time>
      </trkpt>
      <trkpt lat="45.98836" lon="4.82083">
        <ele>236</ele>
        <time>2017-08-11T10:05:40Z</time>
      </trkpt>
      <trkpt lat="45.98834" lon="4.82077">
        <ele>236</ele>
        <time>2017-08-11T10:05:41Z</time>
      </trkpt>
      <trkpt lat="45.98833" lon="4.8207">
        <ele>237</ele>
        <time>2017-08-11T10:05:42Z</time>
      </trkpt>
      <trkpt lat="45.98832" lon="4.82062">
        <ele>237</ele>
        <time>2017-08-11T10:05:43Z</time>
      </trkpt>
      <trkpt lat="45.98831" lon="4.82054">
        <ele>237</ele>
        <time>2017-08-11T10:05:44Z</time>
      </trkpt>
      <trkpt lat="45.98829" lon="4.82047">
        <ele>238</ele>
        <time>2017-08-11T10:05:45Z</time>
      </trkpt>
      <trkpt lat="45.98828" lon="4.82041">
        <ele>238</ele>
        <time>2017-08-11T10:05:46Z</time>
      </trkpt>
      <trkpt lat="45.98827" lon="4.82034">
        <ele>238</ele>
        <time>2017-08-11T10:05:47Z</time>
      </trkpt>
      <trkpt lat="45.98826" lon="4.82027">
        <ele>238</ele>
        <time>2017-08-11T10:05:48Z</time>
      </trkpt>
      <trkpt lat="45.98824" lon="4.82019">
        <ele>238</ele>
        <time>2017-08-11T10:05:49Z</time>
      </trkpt>
      <trkpt lat="45.98823" lon="4.82011">
        <ele>238</ele>
        <time>2017-08-11T10:05:50Z</time>
      </trkpt>
      <trkpt lat="45.98821" lon="4.82003">
        <ele>238</ele>
        <time>2017-08-11T10:05:51Z</time>
      </trkpt>
      <trkpt lat="45.9882" lon="4.81994">
        <ele>238</ele>
        <time>2017-08-11T10:05:52Z</time>
      </trkpt>
      <trkpt lat="45.98819" lon="4.81987">
        <ele>238</ele>
        <time>2017-08-11T10:05:53Z</time>
      </trkpt>
      <trkpt lat="45.98818" lon="4.81979">
        <ele>239</ele>
        <time>2017-08-11T10:05:54Z</time>
      </trkpt>
      <trkpt lat="45.98817" lon="4.81972">
        <ele>239</ele>
        <time>2017-08-11T10:05:55Z</time>
      </trkpt>
      <trkpt lat="45.98815" lon="4.81965">
        <ele>239</ele>
        <time>2017-08-11T10:05:56Z</time>
      </trkpt>
      <trkpt lat="45.98814" lon="4.81958">
        <ele>239</ele>
        <time>2017-08-11T10:05:57Z</time>
      </trkpt>
      <trkpt lat="45.98814" lon="4.81951">
        <ele>239</ele>
        <time>2017-08-11T10:05:58Z</time>
      </trkpt>
      <trkpt lat="45.98813" lon="4.81945">
        <ele>239</ele>
        <time>2017-08-11T10:05:59Z</time>
      </trkpt>
      <trkpt lat="45.98811" lon="4.81933">
        <ele>239</ele>
        <time>2017-08-11T10:06:01Z</time>
      </trkpt>
      <trkpt lat="45.9881" lon="4.81927">
        <ele>239</ele>
        <time>2017-08-11T10:06:02Z</time>
      </trkpt>
      <trkpt lat="45.9881" lon="4.8192">
        <ele>239</ele>
        <time>2017-08-11T10:06:03Z</time>
      </trkpt>
      <trkpt lat="45.98809" lon="4.81913">
        <ele>239</ele>
        <time>2017-08-11T10:06:04Z</time>
      </trkpt>
      <trkpt lat="45.98808" lon="4.81905">
        <ele>239</ele>
        <time>2017-08-11T10:06:05Z</time>
      </trkpt>
      <trkpt lat="45.98806" lon="4.81898">
        <ele>239</ele>
        <time>2017-08-11T10:06:06Z</time>
      </trkpt>
      <trkpt lat="45.98804" lon="4.8189">
        <ele>239</ele>
        <time>2017-08-11T10:06:07Z</time>
      </trkpt>
      <trkpt lat="45.98802" lon="4.81883">
        <ele>239</ele>
        <time>2017-08-11T10:06:08Z</time>
      </trkpt>
      <trkpt lat="45.988" lon="4.81876">
        <ele>239</ele>
        <time>2017-08-11T10:06:09Z</time>
      </trkpt>
      <trkpt lat="45.98798" lon="4.8187">
        <ele>239</ele>
        <time>2017-08-11T10:06:10Z</time>
      </trkpt>
      <trkpt lat="45.98795" lon="4.81859">
        <ele>239</ele>
        <time>2017-08-11T10:06:12Z</time>
      </trkpt>
      <trkpt lat="45.98793" lon="4.81853">
        <ele>239</ele>
        <time>2017-08-11T10:06:13Z</time>
      </trkpt>
      <trkpt lat="45.98791" lon="4.81847">
        <ele>239</ele>
        <time>2017-08-11T10:06:14Z</time>
      </trkpt>
      <trkpt lat="45.98788" lon="4.81841">
        <ele>239</ele>
        <time>2017-08-11T10:06:15Z</time>
      </trkpt>
      <trkpt lat="45.98784" lon="4.81832">
        <ele>240</ele>
        <time>2017-08-11T10:06:17Z</time>
      </trkpt>
      <trkpt lat="45.98781" lon="4.81828">
        <ele>240</ele>
        <time>2017-08-11T10:06:18Z</time>
      </trkpt>
      <trkpt lat="45.98776" lon="4.81819">
        <ele>240</ele>
        <time>2017-08-11T10:06:20Z</time>
      </trkpt>
      <trkpt lat="45.98774" lon="4.81813">
        <ele>240</ele>
        <time>2017-08-11T10:06:21Z</time>
      </trkpt>
      <trkpt lat="45.98769" lon="4.81803">
        <ele>240</ele>
        <time>2017-08-11T10:06:23Z</time>
      </trkpt>
      <trkpt lat="45.98767" lon="4.81798">
        <ele>240</ele>
        <time>2017-08-11T10:06:24Z</time>
      </trkpt>
      <trkpt lat="45.98762" lon="4.81788">
        <ele>241</ele>
        <time>2017-08-11T10:06:26Z</time>
      </trkpt>
      <trkpt lat="45.98761" lon="4.81784">
        <ele>241</ele>
        <time>2017-08-11T10:06:27Z</time>
      </trkpt>
      <trkpt lat="45.98757" lon="4.81775">
        <ele>241</ele>
        <time>2017-08-11T10:06:29Z</time>
      </trkpt>
      <trkpt lat="45.98755" lon="4.8177">
        <ele>241</ele>
        <time>2017-08-11T10:06:30Z</time>
      </trkpt>
      <trkpt lat="45.9875" lon="4.8176">
        <ele>240</ele>
        <time>2017-08-11T10:06:32Z</time>
      </trkpt>
      <trkpt lat="45.98748" lon="4.81756">
        <ele>241</ele>
        <time>2017-08-11T10:06:33Z</time>
      </trkpt>
      <trkpt lat="45.98743" lon="4.81747">
        <ele>240</ele>
        <time>2017-08-11T10:06:35Z</time>
      </trkpt>
      <trkpt lat="45.9874" lon="4.81743">
        <ele>240</ele>
        <time>2017-08-11T10:06:36Z</time>
      </trkpt>
      <trkpt lat="45.98734" lon="4.81735">
        <ele>240</ele>
        <time>2017-08-11T10:06:38Z</time>
      </trkpt>
      <trkpt lat="45.98731" lon="4.81732">
        <ele>239</ele>
        <time>2017-08-11T10:06:39Z</time>
      </trkpt>
      <trkpt lat="45.98726" lon="4.8173">
        <ele>239</ele>
        <time>2017-08-11T10:06:40Z</time>
      </trkpt>
      <trkpt lat="45.98722" lon="4.81729">
        <ele>239</ele>
        <time>2017-08-11T10:06:41Z</time>
      </trkpt>
      <trkpt lat="45.98717" lon="4.8173">
        <ele>239</ele>
        <time>2017-08-11T10:06:42Z</time>
      </trkpt>
      <trkpt lat="45.98711" lon="4.8173">
        <ele>239</ele>
        <time>2017-08-11T10:06:43Z</time>
      </trkpt>
      <trkpt lat="45.98707" lon="4.81731">
        <ele>239</ele>
        <time>2017-08-11T10:06:44Z</time>
      </trkpt>
      <trkpt lat="45.98701" lon="4.81732">
        <ele>239</ele>
        <time>2017-08-11T10:06:45Z</time>
      </trkpt>
      <trkpt lat="45.98693" lon="4.81735">
        <ele>238</ele>
        <time>2017-08-11T10:06:47Z</time>
      </trkpt>
      <trkpt lat="45.98689" lon="4.81736">
        <ele>238</ele>
        <time>2017-08-11T10:06:48Z</time>
      </trkpt>
      <trkpt lat="45.98682" lon="4.81737">
        <ele>238</ele>
        <time>2017-08-11T10:06:50Z</time>
      </trkpt>
      <trkpt lat="45.98678" lon="4.81738">
        <ele>238</ele>
        <time>2017-08-11T10:06:51Z</time>
      </trkpt>
      <trkpt lat="45.98673" lon="4.81739">
        <ele>238</ele>
        <time>2017-08-11T10:06:52Z</time>
      </trkpt>
      <trkpt lat="45.98668" lon="4.8174">
        <ele>238</ele>
        <time>2017-08-11T10:06:53Z</time>
      </trkpt>
      <trkpt lat="45.98663" lon="4.81741">
        <ele>238</ele>
        <time>2017-08-11T10:06:54Z</time>
      </trkpt>
      <trkpt lat="45.98659" lon="4.81743">
        <ele>237</ele>
        <time>2017-08-11T10:06:55Z</time>
      </trkpt>
      <trkpt lat="45.98654" lon="4.81744">
        <ele>237</ele>
        <time>2017-08-11T10:06:56Z</time>
      </trkpt>
      <trkpt lat="45.98648" lon="4.81745">
        <ele>237</ele>
        <time>2017-08-11T10:06:57Z</time>
      </trkpt>
      <trkpt lat="45.98643" lon="4.81746">
        <ele>237</ele>
        <time>2017-08-11T10:06:58Z</time>
      </trkpt>
      <trkpt lat="45.98638" lon="4.81748">
        <ele>237</ele>
        <time>2017-08-11T10:06:59Z</time>
      </trkpt>
      <trkpt lat="45.98634" lon="4.81749">
        <ele>237</ele>
        <time>2017-08-11T10:07:00Z</time>
      </trkpt>
      <trkpt lat="45.98629" lon="4.81751">
        <ele>238</ele>
        <time>2017-08-11T10:07:01Z</time>
      </trkpt>
      <trkpt lat="45.98624" lon="4.81753">
        <ele>238</ele>
        <time>2017-08-11T10:07:02Z</time>
      </trkpt>
      <trkpt lat="45.98619" lon="4.81754">
        <ele>238</ele>
        <time>2017-08-11T10:07:03Z</time>
      </trkpt>
      <trkpt lat="45.98611" lon="4.81757">
        <ele>238</ele>
        <time>2017-08-11T10:07:05Z</time>
      </trkpt>
      <trkpt lat="45.98606" lon="4.81759">
        <ele>238</ele>
        <time>2017-08-11T10:07:06Z</time>
      </trkpt>
      <trkpt lat="45.98602" lon="4.81761">
        <ele>238</ele>
        <time>2017-08-11T10:07:07Z</time>
      </trkpt>
      <trkpt lat="45.98597" lon="4.81763">
        <ele>238</ele>
        <time>2017-08-11T10:07:08Z</time>
      </trkpt>
      <trkpt lat="45.98592" lon="4.81766">
        <ele>238</ele>
        <time>2017-08-11T10:07:09Z</time>
      </trkpt>
      <trkpt lat="45.98588" lon="4.81769">
        <ele>238</ele>
        <time>2017-08-11T10:07:10Z</time>
      </trkpt>
      <trkpt lat="45.98583" lon="4.81773">
        <ele>237</ele>
        <time>2017-08-11T10:07:11Z</time>
      </trkpt>
      <trkpt lat="45.98579" lon="4.81777">
        <ele>237</ele>
        <time>2017-08-11T10:07:12Z</time>
      </trkpt>
      <trkpt lat="45.98575" lon="4.81782">
        <ele>238</ele>
        <time>2017-08-11T10:07:13Z</time>
      </trkpt>
      <trkpt lat="45.98571" lon="4.81786">
        <ele>238</ele>
        <time>2017-08-11T10:07:14Z</time>
      </trkpt>
      <trkpt lat="45.98567" lon="4.81792">
        <ele>238</ele>
        <time>2017-08-11T10:07:15Z</time>
      </trkpt>
      <trkpt lat="45.98562" lon="4.81796">
        <ele>238</ele>
        <time>2017-08-11T10:07:16Z</time>
      </trkpt>
      <trkpt lat="45.98558" lon="4.81801">
        <ele>238</ele>
        <time>2017-08-11T10:07:17Z</time>
      </trkpt>
      <trkpt lat="45.98555" lon="4.81804">
        <ele>238</ele>
        <time>2017-08-11T10:07:18Z</time>
      </trkpt>
      <trkpt lat="45.98547" lon="4.81808">
        <ele>238</ele>
        <time>2017-08-11T10:07:20Z</time>
      </trkpt>
      <trkpt lat="45.98542" lon="4.81807">
        <ele>238</ele>
        <time>2017-08-11T10:07:21Z</time>
      </trkpt>
      <trkpt lat="45.98537" lon="4.81804">
        <ele>238</ele>
        <time>2017-08-11T10:07:22Z</time>
      </trkpt>
      <trkpt lat="45.98533" lon="4.818">
        <ele>238</ele>
        <time>2017-08-11T10:07:23Z</time>
      </trkpt>
      <trkpt lat="45.98529" lon="4.81795">
        <ele>238</ele>
        <time>2017-08-11T10:07:24Z</time>
      </trkpt>
      <trkpt lat="45.98525" lon="4.81789">
        <ele>238</ele>
        <time>2017-08-11T10:07:25Z</time>
      </trkpt>
      <trkpt lat="45.98521" lon="4.81783">
        <ele>238</ele>
        <time>2017-08-11T10:07:26Z</time>
      </trkpt>
      <trkpt lat="45.98517" lon="4.81778">
        <ele>238</ele>
        <time>2017-08-11T10:07:27Z</time>
      </trkpt>
      <trkpt lat="45.98514" lon="4.81772">
        <ele>238</ele>
        <time>2017-08-11T10:07:28Z</time>
      </trkpt>
      <trkpt lat="45.9851" lon="4.81766">
        <ele>237</ele>
        <time>2017-08-11T10:07:29Z</time>
      </trkpt>
      <trkpt lat="45.98506" lon="4.81761">
        <ele>237</ele>
        <time>2017-08-11T10:07:30Z</time>
      </trkpt>
      <trkpt lat="45.98502" lon="4.81756">
        <ele>237</ele>
        <time>2017-08-11T10:07:31Z</time>
      </trkpt>
      <trkpt lat="45.98498" lon="4.81752">
        <ele>237</ele>
        <time>2017-08-11T10:07:32Z</time>
      </trkpt>
      <trkpt lat="45.98494" lon="4.81748">
        <ele>237</ele>
        <time>2017-08-11T10:07:33Z</time>
      </trkpt>
      <trkpt lat="45.9849" lon="4.81744">
        <ele>238</ele>
        <time>2017-08-11T10:07:34Z</time>
      </trkpt>
      <trkpt lat="45.98487" lon="4.8174">
        <ele>238</ele>
        <time>2017-08-11T10:07:35Z</time>
      </trkpt>
      <trkpt lat="45.98483" lon="4.81736">
        <ele>238</ele>
        <time>2017-08-11T10:07:36Z</time>
      </trkpt>
      <trkpt lat="45.98479" lon="4.81733">
        <ele>238</ele>
        <time>2017-08-11T10:07:37Z</time>
      </trkpt>
      <trkpt lat="45.98475" lon="4.81728">
        <ele>239</ele>
        <time>2017-08-11T10:07:38Z</time>
      </trkpt>
      <trkpt lat="45.98472" lon="4.81724">
        <ele>239</ele>
        <time>2017-08-11T10:07:39Z</time>
      </trkpt>
      <trkpt lat="45.98469" lon="4.81719">
        <ele>239</ele>
        <time>2017-08-11T10:07:40Z</time>
      </trkpt>
      <trkpt lat="45.98465" lon="4.81714">
        <ele>239</ele>
        <time>2017-08-11T10:07:41Z</time>
      </trkpt>
      <trkpt lat="45.98462" lon="4.8171">
        <ele>239</ele>
        <time>2017-08-11T10:07:42Z</time>
      </trkpt>
      <trkpt lat="45.98459" lon="4.81704">
        <ele>239</ele>
        <time>2017-08-11T10:07:43Z</time>
      </trkpt>
      <trkpt lat="45.98454" lon="4.81694">
        <ele>239</ele>
        <time>2017-08-11T10:07:45Z</time>
      </trkpt>
      <trkpt lat="45.98451" lon="4.81689">
        <ele>239</ele>
        <time>2017-08-11T10:07:46Z</time>
      </trkpt>
      <trkpt lat="45.98448" lon="4.81684">
        <ele>239</ele>
        <time>2017-08-11T10:07:47Z</time>
      </trkpt>
      <trkpt lat="45.98444" lon="4.81679">
        <ele>239</ele>
        <time>2017-08-11T10:07:48Z</time>
      </trkpt>
      <trkpt lat="45.98437" lon="4.81672">
        <ele>240</ele>
        <time>2017-08-11T10:07:50Z</time>
      </trkpt>
      <trkpt lat="45.98433" lon="4.8167">
        <ele>240</ele>
        <time>2017-08-11T10:07:51Z</time>
      </trkpt>
      <trkpt lat="45.98425" lon="4.81666">
        <ele>240</ele>
        <time>2017-08-11T10:07:53Z</time>
      </trkpt>
      <trkpt lat="45.9842" lon="4.81665">
        <ele>240</ele>
        <time>2017-08-11T10:07:54Z</time>
      </trkpt>
      <trkpt lat="45.98415" lon="4.81665">
        <ele>241</ele>
        <time>2017-08-11T10:07:55Z</time>
      </trkpt>
      <trkpt lat="45.98409" lon="4.81666">
        <ele>241</ele>
        <time>2017-08-11T10:07:56Z</time>
      </trkpt>
      <trkpt lat="45.98404" lon="4.81666">
        <ele>241</ele>
        <time>2017-08-11T10:07:57Z</time>
      </trkpt>
      <trkpt lat="45.984" lon="4.81667">
        <ele>243</ele>
        <time>2017-08-11T10:07:58Z</time>
      </trkpt>
      <trkpt lat="45.98395" lon="4.81669">
        <ele>243</ele>
        <time>2017-08-11T10:07:59Z</time>
      </trkpt>
      <trkpt lat="45.9839" lon="4.8167">
        <ele>243</ele>
        <time>2017-08-11T10:08:00Z</time>
      </trkpt>
      <trkpt lat="45.98382" lon="4.81673">
        <ele>244</ele>
        <time>2017-08-11T10:08:02Z</time>
      </trkpt>
      <trkpt lat="45.98378" lon="4.81673">
        <ele>244</ele>
        <time>2017-08-11T10:08:03Z</time>
      </trkpt>
      <trkpt lat="45.9837" lon="4.81675">
        <ele>244</ele>
        <time>2017-08-11T10:08:05Z</time>
      </trkpt>
      <trkpt lat="45.98365" lon="4.81676">
        <ele>244</ele>
        <time>2017-08-11T10:08:06Z</time>
      </trkpt>
      <trkpt lat="45.98361" lon="4.81676">
        <ele>244</ele>
        <time>2017-08-11T10:08:07Z</time>
      </trkpt>
      <trkpt lat="45.98356" lon="4.81676">
        <ele>245</ele>
        <time>2017-08-11T10:08:08Z</time>
      </trkpt>
      <trkpt lat="45.98347" lon="4.81675">
        <ele>245</ele>
        <time>2017-08-11T10:08:10Z</time>
      </trkpt>
      <trkpt lat="45.98343" lon="4.81675">
        <ele>245</ele>
        <time>2017-08-11T10:08:11Z</time>
      </trkpt>
      <trkpt lat="45.98336" lon="4.81671">
        <ele>246</ele>
        <time>2017-08-11T10:08:13Z</time>
      </trkpt>
      <trkpt lat="45.98332" lon="4.8167">
        <ele>246</ele>
        <time>2017-08-11T10:08:14Z</time>
      </trkpt>
      <trkpt lat="45.98325" lon="4.81666">
        <ele>246</ele>
        <time>2017-08-11T10:08:16Z</time>
      </trkpt>
      <trkpt lat="45.98321" lon="4.81663">
        <ele>246</ele>
        <time>2017-08-11T10:08:17Z</time>
      </trkpt>
      <trkpt lat="45.98314" lon="4.81655">
        <ele>246</ele>
        <time>2017-08-11T10:08:19Z</time>
      </trkpt>
      <trkpt lat="45.98311" lon="4.81651">
        <ele>246</ele>
        <time>2017-08-11T10:08:20Z</time>
      </trkpt>
      <trkpt lat="45.98304" lon="4.81644">
        <ele>246</ele>
        <time>2017-08-11T10:08:22Z</time>
      </trkpt>
      <trkpt lat="45.983" lon="4.81641">
        <ele>246</ele>
        <time>2017-08-11T10:08:23Z</time>
      </trkpt>
      <trkpt lat="45.98293" lon="4.81633">
        <ele>247</ele>
        <time>2017-08-11T10:08:25Z</time>
      </trkpt>
      <trkpt lat="45.9829" lon="4.81629">
        <ele>247</ele>
        <time>2017-08-11T10:08:26Z</time>
      </trkpt>
      <trkpt lat="45.98286" lon="4.81625">
        <ele>247</ele>
        <time>2017-08-11T10:08:27Z</time>
      </trkpt>
      <trkpt lat="45.98283" lon="4.8162">
        <ele>247</ele>
        <time>2017-08-11T10:08:28Z</time>
      </trkpt>
      <trkpt lat="45.98278" lon="4.81609">
        <ele>247</ele>
        <time>2017-08-11T10:08:30Z</time>
      </trkpt>
      <trkpt lat="45.98277" lon="4.81604">
        <ele>247</ele>
        <time>2017-08-11T10:08:31Z</time>
      </trkpt>
      <trkpt lat="45.98273" lon="4.81593">
        <ele>247</ele>
        <time>2017-08-11T10:08:33Z</time>
      </trkpt>
      <trkpt lat="45.98271" lon="4.81588">
        <ele>247</ele>
        <time>2017-08-11T10:08:34Z</time>
      </trkpt>
      <trkpt lat="45.98267" lon="4.81578">
        <ele>247</ele>
        <time>2017-08-11T10:08:36Z</time>
      </trkpt>
      <trkpt lat="45.98265" lon="4.81572">
        <ele>247</ele>
        <time>2017-08-11T10:08:37Z</time>
      </trkpt>
      <trkpt lat="45.98261" lon="4.8156">
        <ele>247</ele>
        <time>2017-08-11T10:08:39Z</time>
      </trkpt>
      <trkpt lat="45.98259" lon="4.81555">
        <ele>247</ele>
        <time>2017-08-11T10:08:40Z</time>
      </trkpt>
      <trkpt lat="45.98255" lon="4.81545">
        <ele>247</ele>
        <time>2017-08-11T10:08:42Z</time>
      </trkpt>
      <trkpt lat="45.98254" lon="4.81539">
        <ele>247</ele>
        <time>2017-08-11T10:08:43Z</time>
      </trkpt>
      <trkpt lat="45.98251" lon="4.81528">
        <ele>247</ele>
        <time>2017-08-11T10:08:45Z</time>
      </trkpt>
      <trkpt lat="45.98249" lon="4.81522">
        <ele>249</ele>
        <time>2017-08-11T10:08:46Z</time>
      </trkpt>
      <trkpt lat="45.98247" lon="4.81515">
        <ele>249</ele>
        <time>2017-08-11T10:08:47Z</time>
      </trkpt>
      <trkpt lat="45.98245" lon="4.81509">
        <ele>249</ele>
        <time>2017-08-11T10:08:48Z</time>
      </trkpt>
      <trkpt lat="45.98241" lon="4.81498">
        <ele>249</ele>
        <time>2017-08-11T10:08:50Z</time>
      </trkpt>
      <trkpt lat="45.9824" lon="4.81493">
        <ele>249</ele>
        <time>2017-08-11T10:08:51Z</time>
      </trkpt>
      <trkpt lat="45.98237" lon="4.81483">
        <ele>249</ele>
        <time>2017-08-11T10:08:53Z</time>
      </trkpt>
      <trkpt lat="45.98235" lon="4.81477">
        <ele>249</ele>
        <time>2017-08-11T10:08:54Z</time>
      </trkpt>
      <trkpt lat="45.98232" lon="4.81467">
        <ele>249</ele>
        <time>2017-08-11T10:08:56Z</time>
      </trkpt>
      <trkpt lat="45.9823" lon="4.81461">
        <ele>249</ele>
        <time>2017-08-11T10:08:57Z</time>
      </trkpt>
      <trkpt lat="45.98228" lon="4.81454">
        <ele>249</ele>
        <time>2017-08-11T10:08:58Z</time>
      </trkpt>
      <trkpt lat="45.98226" lon="4.81449">
        <ele>249</ele>
        <time>2017-08-11T10:08:59Z</time>
      </trkpt>
      <trkpt lat="45.98222" lon="4.81438">
        <ele>249</ele>
        <time>2017-08-11T10:09:01Z</time>
      </trkpt>
      <trkpt lat="45.98221" lon="4.81433">
        <ele>249</ele>
        <time>2017-08-11T10:09:02Z</time>
      </trkpt>
      <trkpt lat="45.98218" lon="4.81422">
        <ele>249</ele>
        <time>2017-08-11T10:09:04Z</time>
      </trkpt>
      <trkpt lat="45.98216" lon="4.81416">
        <ele>248</ele>
        <time>2017-08-11T10:09:05Z</time>
      </trkpt>
      <trkpt lat="45.98212" lon="4.81405">
        <ele>248</ele>
        <time>2017-08-11T10:09:07Z</time>
      </trkpt>
      <trkpt lat="45.9821" lon="4.814">
        <ele>248</ele>
        <time>2017-08-11T10:09:08Z</time>
      </trkpt>
      <trkpt lat="45.98207" lon="4.81388">
        <ele>248</ele>
        <time>2017-08-11T10:09:10Z</time>
      </trkpt>
      <trkpt lat="45.98205" lon="4.81382">
        <ele>248</ele>
        <time>2017-08-11T10:09:11Z</time>
      </trkpt>
      <trkpt lat="45.98203" lon="4.81376">
        <ele>248</ele>
        <time>2017-08-11T10:09:12Z</time>
      </trkpt>
      <trkpt lat="45.98201" lon="4.8137">
        <ele>248</ele>
        <time>2017-08-11T10:09:13Z</time>
      </trkpt>
      <trkpt lat="45.98199" lon="4.81364">
        <ele>248</ele>
        <time>2017-08-11T10:09:14Z</time>
      </trkpt>
      <trkpt lat="45.98198" lon="4.81358">
        <ele>248</ele>
        <time>2017-08-11T10:09:15Z</time>
      </trkpt>
      <trkpt lat="45.98197" lon="4.81351">
        <ele>248</ele>
        <time>2017-08-11T10:09:16Z</time>
      </trkpt>
      <trkpt lat="45.98196" lon="4.81343">
        <ele>248</ele>
        <time>2017-08-11T10:09:17Z</time>
      </trkpt>
      <trkpt lat="45.98195" lon="4.81336">
        <ele>248</ele>
        <time>2017-08-11T10:09:18Z</time>
      </trkpt>
      <trkpt lat="45.98194" lon="4.81329">
        <ele>247</ele>
        <time>2017-08-11T10:09:19Z</time>
      </trkpt>
      <trkpt lat="45.98192" lon="4.81322">
        <ele>247</ele>
        <time>2017-08-11T10:09:20Z</time>
      </trkpt>
      <trkpt lat="45.9819" lon="4.81315">
        <ele>247</ele>
        <time>2017-08-11T10:09:21Z</time>
      </trkpt>
      <trkpt lat="45.98189" lon="4.81308">
        <ele>247</ele>
        <time>2017-08-11T10:09:22Z</time>
      </trkpt>
      <trkpt lat="45.98187" lon="4.81301">
        <ele>247</ele>
        <time>2017-08-11T10:09:23Z</time>
      </trkpt>
      <trkpt lat="45.98186" lon="4.81294">
        <ele>247</ele>
        <time>2017-08-11T10:09:24Z</time>
      </trkpt>
      <trkpt lat="45.98185" lon="4.81287">
        <ele>247</ele>
        <time>2017-08-11T10:09:25Z</time>
      </trkpt>
      <trkpt lat="45.98184" lon="4.8128">
        <ele>247</ele>
        <time>2017-08-11T10:09:26Z</time>
      </trkpt>
      <trkpt lat="45.98183" lon="4.81273">
        <ele>247</ele>
        <time>2017-08-11T10:09:27Z</time>
      </trkpt>
      <trkpt lat="45.98182" lon="4.81265">
        <ele>247</ele>
        <time>2017-08-11T10:09:28Z</time>
      </trkpt>
      <trkpt lat="45.9818" lon="4.81258">
        <ele>247</ele>
        <time>2017-08-11T10:09:29Z</time>
      </trkpt>
      <trkpt lat="45.98179" lon="4.81249">
        <ele>247</ele>
        <time>2017-08-11T10:09:30Z</time>
      </trkpt>
      <trkpt lat="45.98178" lon="4.81241">
        <ele>247</ele>
        <time>2017-08-11T10:09:31Z</time>
      </trkpt>
      <trkpt lat="45.98177" lon="4.81233">
        <ele>246</ele>
        <time>2017-08-11T10:09:32Z</time>
      </trkpt>
      <trkpt lat="45.98176" lon="4.81224">
        <ele>246</ele>
        <time>2017-08-11T10:09:33Z</time>
      </trkpt>
      <trkpt lat="45.98175" lon="4.81216">
        <ele>246</ele>
        <time>2017-08-11T10:09:34Z</time>
      </trkpt>
      <trkpt lat="45.98174" lon="4.81207">
        <ele>245</ele>
        <time>2017-08-11T10:09:35Z</time>
      </trkpt>
      <trkpt lat="45.98173" lon="4.81199">
        <ele>245</ele>
        <time>2017-08-11T10:09:36Z</time>
      </trkpt>
      <trkpt lat="45.98172" lon="4.8119">
        <ele>245</ele>
        <time>2017-08-11T10:09:37Z</time>
      </trkpt>
      <trkpt lat="45.98171" lon="4.81182">
        <ele>245</ele>
        <time>2017-08-11T10:09:38Z</time>
      </trkpt>
      <trkpt lat="45.98169" lon="4.81175">
        <ele>245</ele>
        <time>2017-08-11T10:09:39Z</time>
      </trkpt>
      <trkpt lat="45.98167" lon="4.81167">
        <ele>245</ele>
        <time>2017-08-11T10:09:40Z</time>
      </trkpt>
      <trkpt lat="45.98164" lon="4.81159">
        <ele>245</ele>
        <time>2017-08-11T10:09:41Z</time>
      </trkpt>
      <trkpt lat="45.98162" lon="4.8115">
        <ele>245</ele>
        <time>2017-08-11T10:09:42Z</time>
      </trkpt>
      <trkpt lat="45.98158" lon="4.81142">
        <ele>245</ele>
        <time>2017-08-11T10:09:43Z</time>
      </trkpt>
      <trkpt lat="45.98155" lon="4.81135">
        <ele>245</ele>
        <time>2017-08-11T10:09:44Z</time>
      </trkpt>
      <trkpt lat="45.98152" lon="4.81128">
        <ele>245</ele>
        <time>2017-08-11T10:09:45Z</time>
      </trkpt>
      <trkpt lat="45.98149" lon="4.8112">
        <ele>245</ele>
        <time>2017-08-11T10:09:46Z</time>
      </trkpt>
      <trkpt lat="45.98146" lon="4.81112">
        <ele>245</ele>
        <time>2017-08-11T10:09:47Z</time>
      </trkpt>
      <trkpt lat="45.98143" lon="4.81104">
        <ele>245</ele>
        <time>2017-08-11T10:09:48Z</time>
      </trkpt>
      <trkpt lat="45.98138" lon="4.81097">
        <ele>245</ele>
        <time>2017-08-11T10:09:49Z</time>
      </trkpt>
      <trkpt lat="45.98134" lon="4.8109">
        <ele>245</ele>
        <time>2017-08-11T10:09:50Z</time>
      </trkpt>
      <trkpt lat="45.98131" lon="4.81083">
        <ele>243</ele>
        <time>2017-08-11T10:09:51Z</time>
      </trkpt>
      <trkpt lat="45.98128" lon="4.81075">
        <ele>243</ele>
        <time>2017-08-11T10:09:52Z</time>
      </trkpt>
      <trkpt lat="45.98124" lon="4.81067">
        <ele>243</ele>
        <time>2017-08-11T10:09:53Z</time>
      </trkpt>
      <trkpt lat="45.98122" lon="4.8106">
        <ele>243</ele>
        <time>2017-08-11T10:09:54Z</time>
      </trkpt>
      <trkpt lat="45.98119" lon="4.81052">
        <ele>243</ele>
        <time>2017-08-11T10:09:55Z</time>
      </trkpt>
      <trkpt lat="45.98117" lon="4.81044">
        <ele>242</ele>
        <time>2017-08-11T10:09:56Z</time>
      </trkpt>
      <trkpt lat="45.98115" lon="4.81037">
        <ele>242</ele>
        <time>2017-08-11T10:09:57Z</time>
      </trkpt>
      <trkpt lat="45.98112" lon="4.81029">
        <ele>242</ele>
        <time>2017-08-11T10:09:58Z</time>
      </trkpt>
      <trkpt lat="45.9811" lon="4.81022">
        <ele>242</ele>
        <time>2017-08-11T10:09:59Z</time>
      </trkpt>
      <trkpt lat="45.98108" lon="4.81016">
        <ele>242</ele>
        <time>2017-08-11T10:10:00Z</time>
      </trkpt>
      <trkpt lat="45.98105" lon="4.81009">
        <ele>242</ele>
        <time>2017-08-11T10:10:01Z</time>
      </trkpt>
      <trkpt lat="45.98102" lon="4.80998">
        <ele>240</ele>
        <time>2017-08-11T10:10:03Z</time>
      </trkpt>
      <trkpt lat="45.981" lon="4.80993">
        <ele>240</ele>
        <time>2017-08-11T10:10:04Z</time>
      </trkpt>
      <trkpt lat="45.98098" lon="4.80983">
        <ele>239</ele>
        <time>2017-08-11T10:10:06Z</time>
      </trkpt>
      <trkpt lat="45.98096" lon="4.80978">
        <ele>239</ele>
        <time>2017-08-11T10:10:07Z</time>
      </trkpt>
      <trkpt lat="45.98095" lon="4.80972">
        <ele>239</ele>
        <time>2017-08-11T10:10:08Z</time>
      </trkpt>
      <trkpt lat="45.98092" lon="4.80966">
        <ele>239</ele>
        <time>2017-08-11T10:10:09Z</time>
      </trkpt>
      <trkpt lat="45.9809" lon="4.80958">
        <ele>239</ele>
        <time>2017-08-11T10:10:10Z</time>
      </trkpt>
      <trkpt lat="45.98089" lon="4.8095">
        <ele>238</ele>
        <time>2017-08-11T10:10:11Z</time>
      </trkpt>
      <trkpt lat="45.98087" lon="4.8094">
        <ele>238</ele>
        <time>2017-08-11T10:10:12Z</time>
      </trkpt>
      <trkpt lat="45.98085" lon="4.8093">
        <ele>238</ele>
        <time>2017-08-11T10:10:13Z</time>
      </trkpt>
      <trkpt lat="45.98082" lon="4.8092">
        <ele>239</ele>
        <time>2017-08-11T10:10:14Z</time>
      </trkpt>
      <trkpt lat="45.98079" lon="4.8091">
        <ele>238</ele>
        <time>2017-08-11T10:10:15Z</time>
      </trkpt>
      <trkpt lat="45.98077" lon="4.80899">
        <ele>238</ele>
        <time>2017-08-11T10:10:16Z</time>
      </trkpt>
      <trkpt lat="45.98074" lon="4.80888">
        <ele>238</ele>
        <time>2017-08-11T10:10:17Z</time>
      </trkpt>
      <trkpt lat="45.98072" lon="4.80876">
        <ele>237</ele>
        <time>2017-08-11T10:10:18Z</time>
      </trkpt>
      <trkpt lat="45.98069" lon="4.80864">
        <ele>237</ele>
        <time>2017-08-11T10:10:19Z</time>
      </trkpt>
      <trkpt lat="45.98066" lon="4.80851">
        <ele>236</ele>
        <time>2017-08-11T10:10:20Z</time>
      </trkpt>
      <trkpt lat="45.98064" lon="4.80838">
        <ele>236</ele>
        <time>2017-08-11T10:10:21Z</time>
      </trkpt>
      <trkpt lat="45.98061" lon="4.80826">
        <ele>234</ele>
        <time>2017-08-11T10:10:22Z</time>
      </trkpt>
      <trkpt lat="45.98058" lon="4.80812">
        <ele>234</ele>
        <time>2017-08-11T10:10:23Z</time>
      </trkpt>
      <trkpt lat="45.98054" lon="4.80799">
        <ele>233</ele>
        <time>2017-08-11T10:10:24Z</time>
      </trkpt>
      <trkpt lat="45.98051" lon="4.80786">
        <ele>233</ele>
        <time>2017-08-11T10:10:25Z</time>
      </trkpt>
      <trkpt lat="45.98048" lon="4.80774">
        <ele>233</ele>
        <time>2017-08-11T10:10:26Z</time>
      </trkpt>
      <trkpt lat="45.98044" lon="4.80762">
        <ele>233</ele>
        <time>2017-08-11T10:10:27Z</time>
      </trkpt>
      <trkpt lat="45.98041" lon="4.80752">
        <ele>233</ele>
        <time>2017-08-11T10:10:28Z</time>
      </trkpt>
      <trkpt lat="45.98038" lon="4.80743">
        <ele>231</ele>
        <time>2017-08-11T10:10:29Z</time>
      </trkpt>
      <trkpt lat="45.98036" lon="4.80734">
        <ele>231</ele>
        <time>2017-08-11T10:10:30Z</time>
      </trkpt>
      <trkpt lat="45.98035" lon="4.80727">
        <ele>231</ele>
        <time>2017-08-11T10:10:31Z</time>
      </trkpt>
      <trkpt lat="45.98034" lon="4.80721">
        <ele>231</ele>
        <time>2017-08-11T10:10:32Z</time>
      </trkpt>
      <trkpt lat="45.98033" lon="4.8071">
        <ele>231</ele>
        <time>2017-08-11T10:10:34Z</time>
      </trkpt>
      <trkpt lat="45.98034" lon="4.80705">
        <ele>231</ele>
        <time>2017-08-11T10:10:35Z</time>
      </trkpt>
      <trkpt lat="45.98041" lon="4.80698">
        <ele>230</ele>
        <time>2017-08-11T10:10:37Z</time>
      </trkpt>
      <trkpt lat="45.98048" lon="4.80697">
        <ele>230</ele>
        <time>2017-08-11T10:10:38Z</time>
      </trkpt>
      <trkpt lat="45.98054" lon="4.80697">
        <ele>230</ele>
        <time>2017-08-11T10:10:39Z</time>
      </trkpt>
      <trkpt lat="45.9806" lon="4.80697">
        <ele>230</ele>
        <time>2017-08-11T10:10:40Z</time>
      </trkpt>
      <trkpt lat="45.98066" lon="4.80696">
        <ele>230</ele>
        <time>2017-08-11T10:10:41Z</time>
      </trkpt>
      <trkpt lat="45.98073" lon="4.80696">
        <ele>230</ele>
        <time>2017-08-11T10:10:42Z</time>
      </trkpt>
      <trkpt lat="45.9808" lon="4.80696">
        <ele>230</ele>
        <time>2017-08-11T10:10:43Z</time>
      </trkpt>
      <trkpt lat="45.98087" lon="4.80696">
        <ele>228</ele>
        <time>2017-08-11T10:10:44Z</time>
      </trkpt>
      <trkpt lat="45.98095" lon="4.80696">
        <ele>228</ele>
        <time>2017-08-11T10:10:45Z</time>
      </trkpt>
      <trkpt lat="45.98102" lon="4.80696">
        <ele>228</ele>
        <time>2017-08-11T10:10:46Z</time>
      </trkpt>
      <trkpt lat="45.98109" lon="4.80697">
        <ele>228</ele>
        <time>2017-08-11T10:10:47Z</time>
      </trkpt>
      <trkpt lat="45.98117" lon="4.80697">
        <ele>228</ele>
        <time>2017-08-11T10:10:48Z</time>
      </trkpt>
      <trkpt lat="45.98125" lon="4.80696">
        <ele>228</ele>
        <time>2017-08-11T10:10:49Z</time>
      </trkpt>
      <trkpt lat="45.98133" lon="4.80696">
        <ele>228</ele>
        <time>2017-08-11T10:10:50Z</time>
      </trkpt>
      <trkpt lat="45.98141" lon="4.80696">
        <ele>228</ele>
        <time>2017-08-11T10:10:51Z</time>
      </trkpt>
      <trkpt lat="45.98148" lon="4.80696">
        <ele>228</ele>
        <time>2017-08-11T10:10:52Z</time>
      </trkpt>
      <trkpt lat="45.98156" lon="4.80695">
        <ele>228</ele>
        <time>2017-08-11T10:10:53Z</time>
      </trkpt>
      <trkpt lat="45.98164" lon="4.80693">
        <ele>227</ele>
        <time>2017-08-11T10:10:54Z</time>
      </trkpt>
      <trkpt lat="45.98171" lon="4.80692">
        <ele>225</ele>
        <time>2017-08-11T10:10:55Z</time>
      </trkpt>
      <trkpt lat="45.98179" lon="4.8069">
        <ele>225</ele>
        <time>2017-08-11T10:10:56Z</time>
      </trkpt>
      <trkpt lat="45.98186" lon="4.80688">
        <ele>225</ele>
        <time>2017-08-11T10:10:57Z</time>
      </trkpt>
      <trkpt lat="45.98193" lon="4.80686">
        <ele>225</ele>
        <time>2017-08-11T10:10:58Z</time>
      </trkpt>
      <trkpt lat="45.982" lon="4.80683">
        <ele>225</ele>
        <time>2017-08-11T10:10:59Z</time>
      </trkpt>
      <trkpt lat="45.98207" lon="4.80679">
        <ele>224</ele>
        <time>2017-08-11T10:11:00Z</time>
      </trkpt>
      <trkpt lat="45.98214" lon="4.80675">
        <ele>224</ele>
        <time>2017-08-11T10:11:01Z</time>
      </trkpt>
      <trkpt lat="45.9822" lon="4.80669">
        <ele>224</ele>
        <time>2017-08-11T10:11:02Z</time>
      </trkpt>
      <trkpt lat="45.98225" lon="4.80662">
        <ele>223</ele>
        <time>2017-08-11T10:11:03Z</time>
      </trkpt>
      <trkpt lat="45.98229" lon="4.80654">
        <ele>223</ele>
        <time>2017-08-11T10:11:04Z</time>
      </trkpt>
      <trkpt lat="45.98232" lon="4.80643">
        <ele>223</ele>
        <time>2017-08-11T10:11:05Z</time>
      </trkpt>
      <trkpt lat="45.98236" lon="4.80633">
        <ele>224</ele>
        <time>2017-08-11T10:11:06Z</time>
      </trkpt>
      <trkpt lat="45.98239" lon="4.80623">
        <ele>224</ele>
        <time>2017-08-11T10:11:07Z</time>
      </trkpt>
      <trkpt lat="45.98242" lon="4.80613">
        <ele>224</ele>
        <time>2017-08-11T10:11:08Z</time>
      </trkpt>
      <trkpt lat="45.98246" lon="4.80603">
        <ele>224</ele>
        <time>2017-08-11T10:11:09Z</time>
      </trkpt>
      <trkpt lat="45.98248" lon="4.80593">
        <ele>224</ele>
        <time>2017-08-11T10:11:10Z</time>
      </trkpt>
      <trkpt lat="45.98251" lon="4.80583">
        <ele>224</ele>
        <time>2017-08-11T10:11:11Z</time>
      </trkpt>
      <trkpt lat="45.98253" lon="4.80573">
        <ele>224</ele>
        <time>2017-08-11T10:11:12Z</time>
      </trkpt>
      <trkpt lat="45.98256" lon="4.80564">
        <ele>224</ele>
        <time>2017-08-11T10:11:13Z</time>
      </trkpt>
      <trkpt lat="45.98259" lon="4.80554">
        <ele>224</ele>
        <time>2017-08-11T10:11:14Z</time>
      </trkpt>
      <trkpt lat="45.98261" lon="4.80545">
        <ele>224</ele>
        <time>2017-08-11T10:11:15Z</time>
      </trkpt>
      <trkpt lat="45.98264" lon="4.80538">
        <ele>224</ele>
        <time>2017-08-11T10:11:16Z</time>
      </trkpt>
      <trkpt lat="45.98266" lon="4.8053">
        <ele>224</ele>
        <time>2017-08-11T10:11:17Z</time>
      </trkpt>
      <trkpt lat="45.98268" lon="4.80522">
        <ele>224</ele>
        <time>2017-08-11T10:11:18Z</time>
      </trkpt>
      <trkpt lat="45.9827" lon="4.80514">
        <ele>223</ele>
        <time>2017-08-11T10:11:19Z</time>
      </trkpt>
      <trkpt lat="45.98272" lon="4.80505">
        <ele>223</ele>
        <time>2017-08-11T10:11:20Z</time>
      </trkpt>
      <trkpt lat="45.98274" lon="4.80498">
        <ele>223</ele>
        <time>2017-08-11T10:11:21Z</time>
      </trkpt>
      <trkpt lat="45.98275" lon="4.80491">
        <ele>223</ele>
        <time>2017-08-11T10:11:22Z</time>
      </trkpt>
      <trkpt lat="45.98277" lon="4.80485">
        <ele>223</ele>
        <time>2017-08-11T10:11:23Z</time>
      </trkpt>
      <trkpt lat="45.98279" lon="4.80478">
        <ele>223</ele>
        <time>2017-08-11T10:11:24Z</time>
      </trkpt>
      <trkpt lat="45.98282" lon="4.80466">
        <ele>223</ele>
        <time>2017-08-11T10:11:26Z</time>
      </trkpt>
      <trkpt lat="45.98282" lon="4.8046">
        <ele>223</ele>
        <time>2017-08-11T10:11:27Z</time>
      </trkpt>
      <trkpt lat="45.98284" lon="4.80449">
        <ele>223</ele>
        <time>2017-08-11T10:11:29Z</time>
      </trkpt>
      <trkpt lat="45.98285" lon="4.80442">
        <ele>223</ele>
        <time>2017-08-11T10:11:30Z</time>
      </trkpt>
      <trkpt lat="45.98287" lon="4.80434">
        <ele>224</ele>
        <time>2017-08-11T10:11:31Z</time>
      </trkpt>
      <trkpt lat="45.98288" lon="4.80427">
        <ele>224</ele>
        <time>2017-08-11T10:11:32Z</time>
      </trkpt>
      <trkpt lat="45.9829" lon="4.8042">
        <ele>224</ele>
        <time>2017-08-11T10:11:33Z</time>
      </trkpt>
      <trkpt lat="45.98292" lon="4.80412">
        <ele>224</ele>
        <time>2017-08-11T10:11:34Z</time>
      </trkpt>
      <trkpt lat="45.98292" lon="4.80405">
        <ele>224</ele>
        <time>2017-08-11T10:11:35Z</time>
      </trkpt>
      <trkpt lat="45.98294" lon="4.80398">
        <ele>224</ele>
        <time>2017-08-11T10:11:36Z</time>
      </trkpt>
      <trkpt lat="45.98295" lon="4.8039">
        <ele>224</ele>
        <time>2017-08-11T10:11:37Z</time>
      </trkpt>
      <trkpt lat="45.98296" lon="4.80383">
        <ele>224</ele>
        <time>2017-08-11T10:11:38Z</time>
      </trkpt>
      <trkpt lat="45.98298" lon="4.80377">
        <ele>225</ele>
        <time>2017-08-11T10:11:39Z</time>
      </trkpt>
      <trkpt lat="45.98299" lon="4.8037">
        <ele>225</ele>
        <time>2017-08-11T10:11:40Z</time>
      </trkpt>
      <trkpt lat="45.983" lon="4.80364">
        <ele>225</ele>
        <time>2017-08-11T10:11:41Z</time>
      </trkpt>
      <trkpt lat="45.98302" lon="4.80357">
        <ele>225</ele>
        <time>2017-08-11T10:11:42Z</time>
      </trkpt>
      <trkpt lat="45.98304" lon="4.80345">
        <ele>225</ele>
        <time>2017-08-11T10:11:44Z</time>
      </trkpt>
      <trkpt lat="45.98305" lon="4.80338">
        <ele>226</ele>
        <time>2017-08-11T10:11:45Z</time>
      </trkpt>
      <trkpt lat="45.98306" lon="4.80331">
        <ele>226</ele>
        <time>2017-08-11T10:11:46Z</time>
      </trkpt>
      <trkpt lat="45.9831" lon="4.80322">
        <ele>227</ele>
        <time>2017-08-11T10:11:47Z</time>
      </trkpt>
      <trkpt lat="45.98312" lon="4.80315">
        <ele>226</ele>
        <time>2017-08-11T10:11:48Z</time>
      </trkpt>
      <trkpt lat="45.98314" lon="4.80309">
        <ele>226</ele>
        <time>2017-08-11T10:11:49Z</time>
      </trkpt>
      <trkpt lat="45.98316" lon="4.80303">
        <ele>226</ele>
        <time>2017-08-11T10:11:50Z</time>
      </trkpt>
      <trkpt lat="45.98318" lon="4.80297">
        <ele>226</ele>
        <time>2017-08-11T10:11:51Z</time>
      </trkpt>
      <trkpt lat="45.98319" lon="4.8029">
        <ele>226</ele>
        <time>2017-08-11T10:11:52Z</time>
      </trkpt>
      <trkpt lat="45.98321" lon="4.80283">
        <ele>227</ele>
        <time>2017-08-11T10:11:53Z</time>
      </trkpt>
      <trkpt lat="45.98323" lon="4.80277">
        <ele>227</ele>
        <time>2017-08-11T10:11:54Z</time>
      </trkpt>
      <trkpt lat="45.98324" lon="4.8027">
        <ele>227</ele>
        <time>2017-08-11T10:11:55Z</time>
      </trkpt>
      <trkpt lat="45.98327" lon="4.80259">
        <ele>228</ele>
        <time>2017-08-11T10:11:57Z</time>
      </trkpt>
      <trkpt lat="45.98327" lon="4.80253">
        <ele>229</ele>
        <time>2017-08-11T10:11:58Z</time>
      </trkpt>
      <trkpt lat="45.9833" lon="4.80243">
        <ele>229</ele>
        <time>2017-08-11T10:12:00Z</time>
      </trkpt>
      <trkpt lat="45.98331" lon="4.80238">
        <ele>228</ele>
        <time>2017-08-11T10:12:01Z</time>
      </trkpt>
      <trkpt lat="45.98333" lon="4.80231">
        <ele>228</ele>
        <time>2017-08-11T10:12:02Z</time>
      </trkpt>
      <trkpt lat="45.98334" lon="4.80225">
        <ele>230</ele>
        <time>2017-08-11T10:12:03Z</time>
      </trkpt>
      <trkpt lat="45.98333" lon="4.80216">
        <ele>227</ele>
        <time>2017-08-11T10:12:05Z</time>
      </trkpt>
      <trkpt lat="45.98331" lon="4.80211">
        <ele>227</ele>
        <time>2017-08-11T10:12:06Z</time>
      </trkpt>
      <trkpt lat="45.98328" lon="4.80202">
        <ele>227</ele>
        <time>2017-08-11T10:12:08Z</time>
      </trkpt>
      <trkpt lat="45.98326" lon="4.80196">
        <ele>227</ele>
        <time>2017-08-11T10:12:09Z</time>
      </trkpt>
      <trkpt lat="45.98324" lon="4.80189">
        <ele>227</ele>
        <time>2017-08-11T10:12:10Z</time>
      </trkpt>
      <trkpt lat="45.98322" lon="4.80183">
        <ele>227</ele>
        <time>2017-08-11T10:12:11Z</time>
      </trkpt>
      <trkpt lat="45.98319" lon="4.80177">
        <ele>227</ele>
        <time>2017-08-11T10:12:12Z</time>
      </trkpt>
      <trkpt lat="45.98317" lon="4.8017">
        <ele>227</ele>
        <time>2017-08-11T10:12:13Z</time>
      </trkpt>
      <trkpt lat="45.98314" lon="4.80163">
        <ele>228</ele>
        <time>2017-08-11T10:12:14Z</time>
      </trkpt>
      <trkpt lat="45.98312" lon="4.80157">
        <ele>228</ele>
        <time>2017-08-11T10:12:15Z</time>
      </trkpt>
      <trkpt lat="45.9831" lon="4.8015">
        <ele>228</ele>
        <time>2017-08-11T10:12:16Z</time>
      </trkpt>
      <trkpt lat="45.98307" lon="4.80144">
        <ele>228</ele>
        <time>2017-08-11T10:12:17Z</time>
      </trkpt>
      <trkpt lat="45.98305" lon="4.80139">
        <ele>228</ele>
        <time>2017-08-11T10:12:18Z</time>
      </trkpt>
      <trkpt lat="45.98303" lon="4.80133">
        <ele>228</ele>
        <time>2017-08-11T10:12:19Z</time>
      </trkpt>
      <trkpt lat="45.98299" lon="4.80122">
        <ele>228</ele>
        <time>2017-08-11T10:12:21Z</time>
      </trkpt>
      <trkpt lat="45.98298" lon="4.80116">
        <ele>228</ele>
        <time>2017-08-11T10:12:22Z</time>
      </trkpt>
      <trkpt lat="45.98296" lon="4.8011">
        <ele>228</ele>
        <time>2017-08-11T10:12:23Z</time>
      </trkpt>
      <trkpt lat="45.98293" lon="4.80104">
        <ele>228</ele>
        <time>2017-08-11T10:12:24Z</time>
      </trkpt>
      <trkpt lat="45.98291" lon="4.80098">
        <ele>228</ele>
        <time>2017-08-11T10:12:25Z</time>
      </trkpt>
      <trkpt lat="45.98289" lon="4.80093">
        <ele>228</ele>
        <time>2017-08-11T10:12:26Z</time>
      </trkpt>
      <trkpt lat="45.98285" lon="4.80082">
        <ele>229</ele>
        <time>2017-08-11T10:12:28Z</time>
      </trkpt>
      <trkpt lat="45.98283" lon="4.80076">
        <ele>229</ele>
        <time>2017-08-11T10:12:29Z</time>
      </trkpt>
      <trkpt lat="45.98281" lon="4.8007">
        <ele>229</ele>
        <time>2017-08-11T10:12:30Z</time>
      </trkpt>
      <trkpt lat="45.98279" lon="4.80064">
        <ele>229</ele>
        <time>2017-08-11T10:12:31Z</time>
      </trkpt>
      <trkpt lat="45.98276" lon="4.80057">
        <ele>229</ele>
        <time>2017-08-11T10:12:32Z</time>
      </trkpt>
      <trkpt lat="45.98273" lon="4.8005">
        <ele>229</ele>
        <time>2017-08-11T10:12:33Z</time>
      </trkpt>
      <trkpt lat="45.9827" lon="4.80043">
        <ele>229</ele>
        <time>2017-08-11T10:12:34Z</time>
      </trkpt>
      <trkpt lat="45.98267" lon="4.80035">
        <ele>229</ele>
        <time>2017-08-11T10:12:35Z</time>
      </trkpt>
      <trkpt lat="45.98265" lon="4.80028">
        <ele>228</ele>
        <time>2017-08-11T10:12:36Z</time>
      </trkpt>
      <trkpt lat="45.98262" lon="4.80021">
        <ele>228</ele>
        <time>2017-08-11T10:12:37Z</time>
      </trkpt>
      <trkpt lat="45.98261" lon="4.80014">
        <ele>228</ele>
        <time>2017-08-11T10:12:38Z</time>
      </trkpt>
      <trkpt lat="45.98258" lon="4.80007">
        <ele>227</ele>
        <time>2017-08-11T10:12:39Z</time>
      </trkpt>
      <trkpt lat="45.98256" lon="4.80001">
        <ele>227</ele>
        <time>2017-08-11T10:12:40Z</time>
      </trkpt>
      <trkpt lat="45.98253" lon="4.79994">
        <ele>227</ele>
        <time>2017-08-11T10:12:41Z</time>
      </trkpt>
      <trkpt lat="45.98249" lon="4.79983">
        <ele>225</ele>
        <time>2017-08-11T10:12:43Z</time>
      </trkpt>
      <trkpt lat="45.98247" lon="4.79977">
        <ele>225</ele>
        <time>2017-08-11T10:12:44Z</time>
      </trkpt>
      <trkpt lat="45.98243" lon="4.79967">
        <ele>225</ele>
        <time>2017-08-11T10:12:46Z</time>
      </trkpt>
      <trkpt lat="45.98242" lon="4.79962">
        <ele>225</ele>
        <time>2017-08-11T10:12:47Z</time>
      </trkpt>
      <trkpt lat="45.98239" lon="4.7995">
        <ele>225</ele>
        <time>2017-08-11T10:12:49Z</time>
      </trkpt>
      <trkpt lat="45.98238" lon="4.79943">
        <ele>225</ele>
        <time>2017-08-11T10:12:50Z</time>
      </trkpt>
      <trkpt lat="45.98236" lon="4.79936">
        <ele>225</ele>
        <time>2017-08-11T10:12:51Z</time>
      </trkpt>
      <trkpt lat="45.98234" lon="4.79929">
        <ele>225</ele>
        <time>2017-08-11T10:12:52Z</time>
      </trkpt>
      <trkpt lat="45.98232" lon="4.79922">
        <ele>225</ele>
        <time>2017-08-11T10:12:53Z</time>
      </trkpt>
      <trkpt lat="45.98228" lon="4.79915">
        <ele>225</ele>
        <time>2017-08-11T10:12:54Z</time>
      </trkpt>
      <trkpt lat="45.98226" lon="4.79909">
        <ele>225</ele>
        <time>2017-08-11T10:12:55Z</time>
      </trkpt>
      <trkpt lat="45.98224" lon="4.79902">
        <ele>225</ele>
        <time>2017-08-11T10:12:56Z</time>
      </trkpt>
      <trkpt lat="45.98222" lon="4.79896">
        <ele>225</ele>
        <time>2017-08-11T10:12:57Z</time>
      </trkpt>
      <trkpt lat="45.9822" lon="4.79889">
        <ele>225</ele>
        <time>2017-08-11T10:12:58Z</time>
      </trkpt>
      <trkpt lat="45.98216" lon="4.79878">
        <ele>225</ele>
        <time>2017-08-11T10:13:00Z</time>
      </trkpt>
      <trkpt lat="45.98215" lon="4.79873">
        <ele>225</ele>
        <time>2017-08-11T10:13:01Z</time>
      </trkpt>
      <trkpt lat="45.98213" lon="4.79867">
        <ele>225</ele>
        <time>2017-08-11T10:13:02Z</time>
      </trkpt>
      <trkpt lat="45.98211" lon="4.79861">
        <ele>225</ele>
        <time>2017-08-11T10:13:03Z</time>
      </trkpt>
      <trkpt lat="45.98207" lon="4.79855">
        <ele>225</ele>
        <time>2017-08-11T10:13:04Z</time>
      </trkpt>
      <trkpt lat="45.98205" lon="4.79849">
        <ele>225</ele>
        <time>2017-08-11T10:13:05Z</time>
      </trkpt>
      <trkpt lat="45.98202" lon="4.79843">
        <ele>225</ele>
        <time>2017-08-11T10:13:06Z</time>
      </trkpt>
      <trkpt lat="45.98201" lon="4.79837">
        <ele>225</ele>
        <time>2017-08-11T10:13:07Z</time>
      </trkpt>
      <trkpt lat="45.98199" lon="4.7983">
        <ele>225</ele>
        <time>2017-08-11T10:13:08Z</time>
      </trkpt>
      <trkpt lat="45.98197" lon="4.79824">
        <ele>225</ele>
        <time>2017-08-11T10:13:09Z</time>
      </trkpt>
      <trkpt lat="45.98195" lon="4.79817">
        <ele>225</ele>
        <time>2017-08-11T10:13:10Z</time>
      </trkpt>
      <trkpt lat="45.98193" lon="4.79811">
        <ele>226</ele>
        <time>2017-08-11T10:13:11Z</time>
      </trkpt>
      <trkpt lat="45.98192" lon="4.79805">
        <ele>226</ele>
        <time>2017-08-11T10:13:12Z</time>
      </trkpt>
      <trkpt lat="45.9819" lon="4.79799">
        <ele>226</ele>
        <time>2017-08-11T10:13:13Z</time>
      </trkpt>
      <trkpt lat="45.98189" lon="4.79792">
        <ele>226</ele>
        <time>2017-08-11T10:13:14Z</time>
      </trkpt>
      <trkpt lat="45.98188" lon="4.79785">
        <ele>226</ele>
        <time>2017-08-11T10:13:15Z</time>
      </trkpt>
      <trkpt lat="45.98187" lon="4.79778">
        <ele>226</ele>
        <time>2017-08-11T10:13:16Z</time>
      </trkpt>
      <trkpt lat="45.98187" lon="4.79771">
        <ele>226</ele>
        <time>2017-08-11T10:13:17Z</time>
      </trkpt>
      <trkpt lat="45.98187" lon="4.79764">
        <ele>226</ele>
        <time>2017-08-11T10:13:18Z</time>
      </trkpt>
      <trkpt lat="45.98188" lon="4.79758">
        <ele>226</ele>
        <time>2017-08-11T10:13:19Z</time>
      </trkpt>
      <trkpt lat="45.98185" lon="4.79746">
        <ele>227</ele>
        <time>2017-08-11T10:13:21Z</time>
      </trkpt>
      <trkpt lat="45.98181" lon="4.79742">
        <ele>227</ele>
        <time>2017-08-11T10:13:22Z</time>
      </trkpt>
      <trkpt lat="45.98177" lon="4.7974">
        <ele>227</ele>
        <time>2017-08-11T10:13:23Z</time>
      </trkpt>
      <trkpt lat="45.98172" lon="4.7974">
        <ele>227</ele>
        <time>2017-08-11T10:13:24Z</time>
      </trkpt>
      <trkpt lat="45.98166" lon="4.79742">
        <ele>226</ele>
        <time>2017-08-11T10:13:25Z</time>
      </trkpt>
      <trkpt lat="45.98162" lon="4.79746">
        <ele>226</ele>
        <time>2017-08-11T10:13:26Z</time>
      </trkpt>
      <trkpt lat="45.98157" lon="4.79749">
        <ele>226</ele>
        <time>2017-08-11T10:13:27Z</time>
      </trkpt>
      <trkpt lat="45.98151" lon="4.79752">
        <ele>225</ele>
        <time>2017-08-11T10:13:28Z</time>
      </trkpt>
      <trkpt lat="45.98145" lon="4.79754">
        <ele>225</ele>
        <time>2017-08-11T10:13:29Z</time>
      </trkpt>
      <trkpt lat="45.98139" lon="4.79756">
        <ele>224</ele>
        <time>2017-08-11T10:13:30Z</time>
      </trkpt>
      <trkpt lat="45.98133" lon="4.79757">
        <ele>224</ele>
        <time>2017-08-11T10:13:31Z</time>
      </trkpt>
      <trkpt lat="45.98127" lon="4.79758">
        <ele>224</ele>
        <time>2017-08-11T10:13:32Z</time>
      </trkpt>
      <trkpt lat="45.9812" lon="4.79759">
        <ele>224</ele>
        <time>2017-08-11T10:13:33Z</time>
      </trkpt>
      <trkpt lat="45.98113" lon="4.7976">
        <ele>224</ele>
        <time>2017-08-11T10:13:34Z</time>
      </trkpt>
      <trkpt lat="45.98106" lon="4.79762">
        <ele>224</ele>
        <time>2017-08-11T10:13:35Z</time>
      </trkpt>
      <trkpt lat="45.98099" lon="4.79763">
        <ele>223</ele>
        <time>2017-08-11T10:13:36Z</time>
      </trkpt>
      <trkpt lat="45.98092" lon="4.79764">
        <ele>223</ele>
        <time>2017-08-11T10:13:37Z</time>
      </trkpt>
      <trkpt lat="45.98085" lon="4.79766">
        <ele>223</ele>
        <time>2017-08-11T10:13:38Z</time>
      </trkpt>
      <trkpt lat="45.98079" lon="4.79767">
        <ele>223</ele>
        <time>2017-08-11T10:13:39Z</time>
      </trkpt>
      <trkpt lat="45.98072" lon="4.79768">
        <ele>223</ele>
        <time>2017-08-11T10:13:40Z</time>
      </trkpt>
      <trkpt lat="45.98066" lon="4.79768">
        <ele>223</ele>
        <time>2017-08-11T10:13:41Z</time>
      </trkpt>
      <trkpt lat="45.98059" lon="4.79769">
        <ele>223</ele>
        <time>2017-08-11T10:13:42Z</time>
      </trkpt>
      <trkpt lat="45.98052" lon="4.7977">
        <ele>223</ele>
        <time>2017-08-11T10:13:43Z</time>
      </trkpt>
      <trkpt lat="45.98046" lon="4.7977">
        <ele>223</ele>
        <time>2017-08-11T10:13:44Z</time>
      </trkpt>
      <trkpt lat="45.9804" lon="4.79771">
        <ele>223</ele>
        <time>2017-08-11T10:13:45Z</time>
      </trkpt>
      <trkpt lat="45.98034" lon="4.79772">
        <ele>223</ele>
        <time>2017-08-11T10:13:46Z</time>
      </trkpt>
      <trkpt lat="45.98027" lon="4.79772">
        <ele>223</ele>
        <time>2017-08-11T10:13:47Z</time>
      </trkpt>
      <trkpt lat="45.98021" lon="4.79773">
        <ele>223</ele>
        <time>2017-08-11T10:13:48Z</time>
      </trkpt>
      <trkpt lat="45.98015" lon="4.79774">
        <ele>223</ele>
        <time>2017-08-11T10:13:49Z</time>
      </trkpt>
      <trkpt lat="45.98009" lon="4.79774">
        <ele>223</ele>
        <time>2017-08-11T10:13:50Z</time>
      </trkpt>
      <trkpt lat="45.98004" lon="4.79775">
        <ele>223</ele>
        <time>2017-08-11T10:13:51Z</time>
      </trkpt>
      <trkpt lat="45.97998" lon="4.79776">
        <ele>224</ele>
        <time>2017-08-11T10:13:52Z</time>
      </trkpt>
      <trkpt lat="45.97993" lon="4.79777">
        <ele>224</ele>
        <time>2017-08-11T10:13:53Z</time>
      </trkpt>
      <trkpt lat="45.97988" lon="4.79777">
        <ele>224</ele>
        <time>2017-08-11T10:13:54Z</time>
      </trkpt>
      <trkpt lat="45.97982" lon="4.79778">
        <ele>224</ele>
        <time>2017-08-11T10:13:55Z</time>
      </trkpt>
      <trkpt lat="45.97977" lon="4.79779">
        <ele>224</ele>
        <time>2017-08-11T10:13:56Z</time>
      </trkpt>
      <trkpt lat="45.97972" lon="4.7978">
        <ele>224</ele>
        <time>2017-08-11T10:13:57Z</time>
      </trkpt>
      <trkpt lat="45.97967" lon="4.79781">
        <ele>224</ele>
        <time>2017-08-11T10:13:58Z</time>
      </trkpt>
      <trkpt lat="45.97961" lon="4.79781">
        <ele>224</ele>
        <time>2017-08-11T10:13:59Z</time>
      </trkpt>
      <trkpt lat="45.97955" lon="4.79783">
        <ele>224</ele>
        <time>2017-08-11T10:14:00Z</time>
      </trkpt>
      <trkpt lat="45.97949" lon="4.79784">
        <ele>224</ele>
        <time>2017-08-11T10:14:01Z</time>
      </trkpt>
      <trkpt lat="45.97943" lon="4.79785">
        <ele>224</ele>
        <time>2017-08-11T10:14:02Z</time>
      </trkpt>
      <trkpt lat="45.97937" lon="4.79786">
        <ele>224</ele>
        <time>2017-08-11T10:14:03Z</time>
      </trkpt>
      <trkpt lat="45.97931" lon="4.79787">
        <ele>224</ele>
        <time>2017-08-11T10:14:04Z</time>
      </trkpt>
      <trkpt lat="45.97924" lon="4.79788">
        <ele>224</ele>
        <time>2017-08-11T10:14:05Z</time>
      </trkpt>
      <trkpt lat="45.97918" lon="4.79789">
        <ele>224</ele>
        <time>2017-08-11T10:14:06Z</time>
      </trkpt>
      <trkpt lat="45.97911" lon="4.7979">
        <ele>225</ele>
        <time>2017-08-11T10:14:07Z</time>
      </trkpt>
      <trkpt lat="45.97906" lon="4.7979">
        <ele>225</ele>
        <time>2017-08-11T10:14:08Z</time>
      </trkpt>
      <trkpt lat="45.979" lon="4.79791">
        <ele>224</ele>
        <time>2017-08-11T10:14:09Z</time>
      </trkpt>
      <trkpt lat="45.97895" lon="4.79792">
        <ele>224</ele>
        <time>2017-08-11T10:14:10Z</time>
      </trkpt>
      <trkpt lat="45.9789" lon="4.79793">
        <ele>224</ele>
        <time>2017-08-11T10:14:11Z</time>
      </trkpt>
      <trkpt lat="45.97884" lon="4.79793">
        <ele>224</ele>
        <time>2017-08-11T10:14:12Z</time>
      </trkpt>
      <trkpt lat="45.97879" lon="4.79794">
        <ele>224</ele>
        <time>2017-08-11T10:14:13Z</time>
      </trkpt>
      <trkpt lat="45.97874" lon="4.79795">
        <ele>224</ele>
        <time>2017-08-11T10:14:14Z</time>
      </trkpt>
      <trkpt lat="45.97868" lon="4.79795">
        <ele>224</ele>
        <time>2017-08-11T10:14:15Z</time>
      </trkpt>
      <trkpt lat="45.97863" lon="4.79796">
        <ele>224</ele>
        <time>2017-08-11T10:14:16Z</time>
      </trkpt>
      <trkpt lat="45.97858" lon="4.79797">
        <ele>224</ele>
        <time>2017-08-11T10:14:17Z</time>
      </trkpt>
      <trkpt lat="45.97852" lon="4.79798">
        <ele>224</ele>
        <time>2017-08-11T10:14:18Z</time>
      </trkpt>
      <trkpt lat="45.97846" lon="4.79799">
        <ele>224</ele>
        <time>2017-08-11T10:14:19Z</time>
      </trkpt>
      <trkpt lat="45.97841" lon="4.79799">
        <ele>224</ele>
        <time>2017-08-11T10:14:20Z</time>
      </trkpt>
      <trkpt lat="45.97835" lon="4.798">
        <ele>224</ele>
        <time>2017-08-11T10:14:21Z</time>
      </trkpt>
      <trkpt lat="45.97829" lon="4.79801">
        <ele>223</ele>
        <time>2017-08-11T10:14:22Z</time>
      </trkpt>
      <trkpt lat="45.97824" lon="4.79803">
        <ele>223</ele>
        <time>2017-08-11T10:14:23Z</time>
      </trkpt>
      <trkpt lat="45.97818" lon="4.79803">
        <ele>223</ele>
        <time>2017-08-11T10:14:24Z</time>
      </trkpt>
      <trkpt lat="45.97812" lon="4.79804">
        <ele>223</ele>
        <time>2017-08-11T10:14:25Z</time>
      </trkpt>
      <trkpt lat="45.97807" lon="4.79804">
        <ele>223</ele>
        <time>2017-08-11T10:14:26Z</time>
      </trkpt>
      <trkpt lat="45.97801" lon="4.79805">
        <ele>223</ele>
        <time>2017-08-11T10:14:27Z</time>
      </trkpt>
      <trkpt lat="45.97797" lon="4.79806">
        <ele>223</ele>
        <time>2017-08-11T10:14:28Z</time>
      </trkpt>
      <trkpt lat="45.97792" lon="4.79807">
        <ele>223</ele>
        <time>2017-08-11T10:14:29Z</time>
      </trkpt>
      <trkpt lat="45.97786" lon="4.79807">
        <ele>223</ele>
        <time>2017-08-11T10:14:30Z</time>
      </trkpt>
      <trkpt lat="45.97781" lon="4.79808">
        <ele>223</ele>
        <time>2017-08-11T10:14:31Z</time>
      </trkpt>
      <trkpt lat="45.97775" lon="4.79809">
        <ele>223</ele>
        <time>2017-08-11T10:14:32Z</time>
      </trkpt>
      <trkpt lat="45.97769" lon="4.7981">
        <ele>223</ele>
        <time>2017-08-11T10:14:33Z</time>
      </trkpt>
      <trkpt lat="45.97763" lon="4.79812">
        <ele>223</ele>
        <time>2017-08-11T10:14:34Z</time>
      </trkpt>
      <trkpt lat="45.97757" lon="4.79813">
        <ele>223</ele>
        <time>2017-08-11T10:14:35Z</time>
      </trkpt>
      <trkpt lat="45.97751" lon="4.79815">
        <ele>223</ele>
        <time>2017-08-11T10:14:36Z</time>
      </trkpt>
      <trkpt lat="45.97745" lon="4.79817">
        <ele>223</ele>
        <time>2017-08-11T10:14:37Z</time>
      </trkpt>
      <trkpt lat="45.97739" lon="4.79818">
        <ele>223</ele>
        <time>2017-08-11T10:14:38Z</time>
      </trkpt>
      <trkpt lat="45.97733" lon="4.79819">
        <ele>223</ele>
        <time>2017-08-11T10:14:39Z</time>
      </trkpt>
      <trkpt lat="45.97727" lon="4.7982">
        <ele>223</ele>
        <time>2017-08-11T10:14:40Z</time>
      </trkpt>
      <trkpt lat="45.97722" lon="4.79821">
        <ele>223</ele>
        <time>2017-08-11T10:14:41Z</time>
      </trkpt>
      <trkpt lat="45.97717" lon="4.79822">
        <ele>223</ele>
        <time>2017-08-11T10:14:42Z</time>
      </trkpt>
      <trkpt lat="45.97712" lon="4.79824">
        <ele>223</ele>
        <time>2017-08-11T10:14:43Z</time>
      </trkpt>
      <trkpt lat="45.97707" lon="4.79824">
        <ele>223</ele>
        <time>2017-08-11T10:14:44Z</time>
      </trkpt>
      <trkpt lat="45.97702" lon="4.79825">
        <ele>223</ele>
        <time>2017-08-11T10:14:45Z</time>
      </trkpt>
      <trkpt lat="45.97697" lon="4.79826">
        <ele>223</ele>
        <time>2017-08-11T10:14:46Z</time>
      </trkpt>
      <trkpt lat="45.97691" lon="4.79827">
        <ele>223</ele>
        <time>2017-08-11T10:14:47Z</time>
      </trkpt>
      <trkpt lat="45.97685" lon="4.79829">
        <ele>223</ele>
        <time>2017-08-11T10:14:48Z</time>
      </trkpt>
      <trkpt lat="45.97679" lon="4.79831">
        <ele>223</ele>
        <time>2017-08-11T10:14:49Z</time>
      </trkpt>
      <trkpt lat="45.97673" lon="4.79833">
        <ele>222</ele>
        <time>2017-08-11T10:14:50Z</time>
      </trkpt>
      <trkpt lat="45.97667" lon="4.79834">
        <ele>222</ele>
        <time>2017-08-11T10:14:51Z</time>
      </trkpt>
      <trkpt lat="45.97662" lon="4.79836">
        <ele>222</ele>
        <time>2017-08-11T10:14:52Z</time>
      </trkpt>
      <trkpt lat="45.97657" lon="4.79837">
        <ele>221</ele>
        <time>2017-08-11T10:14:53Z</time>
      </trkpt>
      <trkpt lat="45.97652" lon="4.79839">
        <ele>221</ele>
        <time>2017-08-11T10:14:54Z</time>
      </trkpt>
      <trkpt lat="45.97647" lon="4.79841">
        <ele>221</ele>
        <time>2017-08-11T10:14:55Z</time>
      </trkpt>
      <trkpt lat="45.97642" lon="4.79843">
        <ele>221</ele>
        <time>2017-08-11T10:14:56Z</time>
      </trkpt>
      <trkpt lat="45.97637" lon="4.79844">
        <ele>221</ele>
        <time>2017-08-11T10:14:57Z</time>
      </trkpt>
      <trkpt lat="45.97632" lon="4.79846">
        <ele>221</ele>
        <time>2017-08-11T10:14:58Z</time>
      </trkpt>
      <trkpt lat="45.97627" lon="4.79848">
        <ele>221</ele>
        <time>2017-08-11T10:14:59Z</time>
      </trkpt>
      <trkpt lat="45.97622" lon="4.7985">
        <ele>221</ele>
        <time>2017-08-11T10:15:00Z</time>
      </trkpt>
      <trkpt lat="45.97617" lon="4.79853">
        <ele>221</ele>
        <time>2017-08-11T10:15:01Z</time>
      </trkpt>
      <trkpt lat="45.97613" lon="4.79854">
        <ele>221</ele>
        <time>2017-08-11T10:15:02Z</time>
      </trkpt>
      <trkpt lat="45.97608" lon="4.79856">
        <ele>221</ele>
        <time>2017-08-11T10:15:03Z</time>
      </trkpt>
      <trkpt lat="45.97603" lon="4.79858">
        <ele>221</ele>
        <time>2017-08-11T10:15:04Z</time>
      </trkpt>
      <trkpt lat="45.97598" lon="4.7986">
        <ele>221</ele>
        <time>2017-08-11T10:15:05Z</time>
      </trkpt>
      <trkpt lat="45.97593" lon="4.79862">
        <ele>221</ele>
        <time>2017-08-11T10:15:06Z</time>
      </trkpt>
      <trkpt lat="45.97588" lon="4.79864">
        <ele>221</ele>
        <time>2017-08-11T10:15:07Z</time>
      </trkpt>
      <trkpt lat="45.97582" lon="4.79866">
        <ele>222</ele>
        <time>2017-08-11T10:15:08Z</time>
      </trkpt>
      <trkpt lat="45.97576" lon="4.79868">
        <ele>222</ele>
        <time>2017-08-11T10:15:09Z</time>
      </trkpt>
      <trkpt lat="45.97571" lon="4.7987">
        <ele>222</ele>
        <time>2017-08-11T10:15:10Z</time>
      </trkpt>
      <trkpt lat="45.97565" lon="4.79873">
        <ele>222</ele>
        <time>2017-08-11T10:15:11Z</time>
      </trkpt>
      <trkpt lat="45.9756" lon="4.79875">
        <ele>222</ele>
        <time>2017-08-11T10:15:12Z</time>
      </trkpt>
      <trkpt lat="45.97554" lon="4.79876">
        <ele>222</ele>
        <time>2017-08-11T10:15:13Z</time>
      </trkpt>
      <trkpt lat="45.97548" lon="4.79878">
        <ele>222</ele>
        <time>2017-08-11T10:15:14Z</time>
      </trkpt>
      <trkpt lat="45.97542" lon="4.7988">
        <ele>222</ele>
        <time>2017-08-11T10:15:15Z</time>
      </trkpt>
      <trkpt lat="45.97535" lon="4.79881">
        <ele>222</ele>
        <time>2017-08-11T10:15:16Z</time>
      </trkpt>
      <trkpt lat="45.97528" lon="4.79882">
        <ele>222</ele>
        <time>2017-08-11T10:15:17Z</time>
      </trkpt>
      <trkpt lat="45.97521" lon="4.79884">
        <ele>222</ele>
        <time>2017-08-11T10:15:18Z</time>
      </trkpt>
      <trkpt lat="45.97513" lon="4.79885">
        <ele>221</ele>
        <time>2017-08-11T10:15:19Z</time>
      </trkpt>
      <trkpt lat="45.97506" lon="4.79885">
        <ele>221</ele>
        <time>2017-08-11T10:15:20Z</time>
      </trkpt>
      <trkpt lat="45.97498" lon="4.79886">
        <ele>221</ele>
        <time>2017-08-11T10:15:21Z</time>
      </trkpt>
      <trkpt lat="45.9749" lon="4.79887">
        <ele>221</ele>
        <time>2017-08-11T10:15:22Z</time>
      </trkpt>
      <trkpt lat="45.97481" lon="4.79888">
        <ele>221</ele>
        <time>2017-08-11T10:15:23Z</time>
      </trkpt>
      <trkpt lat="45.97473" lon="4.79888">
        <ele>221</ele>
        <time>2017-08-11T10:15:24Z</time>
      </trkpt>
      <trkpt lat="45.97464" lon="4.79888">
        <ele>221</ele>
        <time>2017-08-11T10:15:25Z</time>
      </trkpt>
      <trkpt lat="45.97456" lon="4.79887">
        <ele>221</ele>
        <time>2017-08-11T10:15:26Z</time>
      </trkpt>
      <trkpt lat="45.97448" lon="4.79887">
        <ele>221</ele>
        <time>2017-08-11T10:15:27Z</time>
      </trkpt>
      <trkpt lat="45.9744" lon="4.79887">
        <ele>220</ele>
        <time>2017-08-11T10:15:28Z</time>
      </trkpt>
      <trkpt lat="45.97431" lon="4.79887">
        <ele>220</ele>
        <time>2017-08-11T10:15:29Z</time>
      </trkpt>
      <trkpt lat="45.97423" lon="4.79888">
        <ele>220</ele>
        <time>2017-08-11T10:15:30Z</time>
      </trkpt>
      <trkpt lat="45.97415" lon="4.79889">
        <ele>218</ele>
        <time>2017-08-11T10:15:31Z</time>
      </trkpt>
      <trkpt lat="45.97406" lon="4.7989">
        <ele>218</ele>
        <time>2017-08-11T10:15:32Z</time>
      </trkpt>
      <trkpt lat="45.97398" lon="4.79892">
        <ele>217</ele>
        <time>2017-08-11T10:15:33Z</time>
      </trkpt>
      <trkpt lat="45.97389" lon="4.79893">
        <ele>217</ele>
        <time>2017-08-11T10:15:34Z</time>
      </trkpt>
      <trkpt lat="45.97381" lon="4.79895">
        <ele>217</ele>
        <time>2017-08-11T10:15:35Z</time>
      </trkpt>
      <trkpt lat="45.97372" lon="4.79897">
        <ele>217</ele>
        <time>2017-08-11T10:15:36Z</time>
      </trkpt>
      <trkpt lat="45.97363" lon="4.79899">
        <ele>217</ele>
        <time>2017-08-11T10:15:37Z</time>
      </trkpt>
      <trkpt lat="45.97355" lon="4.799">
        <ele>216</ele>
        <time>2017-08-11T10:15:38Z</time>
      </trkpt>
      <trkpt lat="45.97346" lon="4.79902">
        <ele>216</ele>
        <time>2017-08-11T10:15:39Z</time>
      </trkpt>
      <trkpt lat="45.97337" lon="4.79903">
        <ele>215</ele>
        <time>2017-08-11T10:15:40Z</time>
      </trkpt>
      <trkpt lat="45.97329" lon="4.79904">
        <ele>213</ele>
        <time>2017-08-11T10:15:41Z</time>
      </trkpt>
      <trkpt lat="45.9732" lon="4.79905">
        <ele>213</ele>
        <time>2017-08-11T10:15:42Z</time>
      </trkpt>
      <trkpt lat="45.97311" lon="4.79906">
        <ele>213</ele>
        <time>2017-08-11T10:15:43Z</time>
      </trkpt>
      <trkpt lat="45.97303" lon="4.79907">
        <ele>213</ele>
        <time>2017-08-11T10:15:44Z</time>
      </trkpt>
      <trkpt lat="45.97295" lon="4.79909">
        <ele>213</ele>
        <time>2017-08-11T10:15:45Z</time>
      </trkpt>
      <trkpt lat="45.97287" lon="4.7991">
        <ele>213</ele>
        <time>2017-08-11T10:15:46Z</time>
      </trkpt>
      <trkpt lat="45.9728" lon="4.79911">
        <ele>213</ele>
        <time>2017-08-11T10:15:47Z</time>
      </trkpt>
      <trkpt lat="45.97272" lon="4.79912">
        <ele>213</ele>
        <time>2017-08-11T10:15:48Z</time>
      </trkpt>
      <trkpt lat="45.97266" lon="4.79914">
        <ele>213</ele>
        <time>2017-08-11T10:15:49Z</time>
      </trkpt>
      <trkpt lat="45.9726" lon="4.79915">
        <ele>213</ele>
        <time>2017-08-11T10:15:50Z</time>
      </trkpt>
      <trkpt lat="45.97256" lon="4.79911">
        <ele>212</ele>
        <time>2017-08-11T10:15:51Z</time>
      </trkpt>
      <trkpt lat="45.97253" lon="4.79906">
        <ele>213</ele>
        <time>2017-08-11T10:15:52Z</time>
      </trkpt>
      <trkpt lat="45.9725" lon="4.79899">
        <ele>211</ele>
        <time>2017-08-11T10:15:53Z</time>
      </trkpt>
      <trkpt lat="45.97248" lon="4.79892">
        <ele>211</ele>
        <time>2017-08-11T10:15:54Z</time>
      </trkpt>
      <trkpt lat="45.97246" lon="4.79885">
        <ele>211</ele>
        <time>2017-08-11T10:15:55Z</time>
      </trkpt>
      <trkpt lat="45.97244" lon="4.79877">
        <ele>211</ele>
        <time>2017-08-11T10:15:56Z</time>
      </trkpt>
      <trkpt lat="45.97242" lon="4.79868">
        <ele>211</ele>
        <time>2017-08-11T10:15:57Z</time>
      </trkpt>
      <trkpt lat="45.9724" lon="4.7986">
        <ele>211</ele>
        <time>2017-08-11T10:15:58Z</time>
      </trkpt>
      <trkpt lat="45.97238" lon="4.79851">
        <ele>211</ele>
        <time>2017-08-11T10:15:59Z</time>
      </trkpt>
      <trkpt lat="45.97238" lon="4.79842">
        <ele>211</ele>
        <time>2017-08-11T10:16:00Z</time>
      </trkpt>
      <trkpt lat="45.97239" lon="4.79834">
        <ele>212</ele>
        <time>2017-08-11T10:16:01Z</time>
      </trkpt>
      <trkpt lat="45.97239" lon="4.79825">
        <ele>211</ele>
        <time>2017-08-11T10:16:02Z</time>
      </trkpt>
      <trkpt lat="45.97239" lon="4.79816">
        <ele>211</ele>
        <time>2017-08-11T10:16:03Z</time>
      </trkpt>
      <trkpt lat="45.97239" lon="4.79808">
        <ele>210</ele>
        <time>2017-08-11T10:16:04Z</time>
      </trkpt>
      <trkpt lat="45.97239" lon="4.79799">
        <ele>210</ele>
        <time>2017-08-11T10:16:05Z</time>
      </trkpt>
      <trkpt lat="45.9724" lon="4.79791">
        <ele>210</ele>
        <time>2017-08-11T10:16:06Z</time>
      </trkpt>
      <trkpt lat="45.97241" lon="4.79782">
        <ele>210</ele>
        <time>2017-08-11T10:16:07Z</time>
      </trkpt>
      <trkpt lat="45.97241" lon="4.79775">
        <ele>210</ele>
        <time>2017-08-11T10:16:08Z</time>
      </trkpt>
      <trkpt lat="45.97242" lon="4.79767">
        <ele>209</ele>
        <time>2017-08-11T10:16:09Z</time>
      </trkpt>
      <trkpt lat="45.97243" lon="4.7976">
        <ele>209</ele>
        <time>2017-08-11T10:16:10Z</time>
      </trkpt>
      <trkpt lat="45.97243" lon="4.79753">
        <ele>209</ele>
        <time>2017-08-11T10:16:11Z</time>
      </trkpt>
      <trkpt lat="45.97244" lon="4.79745">
        <ele>209</ele>
        <time>2017-08-11T10:16:12Z</time>
      </trkpt>
      <trkpt lat="45.97245" lon="4.79738">
        <ele>209</ele>
        <time>2017-08-11T10:16:13Z</time>
      </trkpt>
      <trkpt lat="45.97246" lon="4.79732">
        <ele>209</ele>
        <time>2017-08-11T10:16:14Z</time>
      </trkpt>
      <trkpt lat="45.97246" lon="4.79726">
        <ele>209</ele>
        <time>2017-08-11T10:16:15Z</time>
      </trkpt>
      <trkpt lat="45.97248" lon="4.79718">
        <ele>209</ele>
        <time>2017-08-11T10:16:16Z</time>
      </trkpt>
      <trkpt lat="45.97249" lon="4.7971">
        <ele>209</ele>
        <time>2017-08-11T10:16:17Z</time>
      </trkpt>
      <trkpt lat="45.9725" lon="4.79702">
        <ele>212</ele>
        <time>2017-08-11T10:16:18Z</time>
      </trkpt>
      <trkpt lat="45.97251" lon="4.79694">
        <ele>212</ele>
        <time>2017-08-11T10:16:19Z</time>
      </trkpt>
      <trkpt lat="45.97252" lon="4.79687">
        <ele>211</ele>
        <time>2017-08-11T10:16:20Z</time>
      </trkpt>
      <trkpt lat="45.97253" lon="4.79679">
        <ele>210</ele>
        <time>2017-08-11T10:16:21Z</time>
      </trkpt>
      <trkpt lat="45.97255" lon="4.79672">
        <ele>210</ele>
        <time>2017-08-11T10:16:22Z</time>
      </trkpt>
      <trkpt lat="45.97256" lon="4.79665">
        <ele>210</ele>
        <time>2017-08-11T10:16:23Z</time>
      </trkpt>
      <trkpt lat="45.97256" lon="4.79658">
        <ele>210</ele>
        <time>2017-08-11T10:16:24Z</time>
      </trkpt>
      <trkpt lat="45.97257" lon="4.79651">
        <ele>211</ele>
        <time>2017-08-11T10:16:25Z</time>
      </trkpt>
      <trkpt lat="45.97257" lon="4.79643">
        <ele>212</ele>
        <time>2017-08-11T10:16:26Z</time>
      </trkpt>
      <trkpt lat="45.97257" lon="4.79636">
        <ele>213</ele>
        <time>2017-08-11T10:16:27Z</time>
      </trkpt>
      <trkpt lat="45.97257" lon="4.79628">
        <ele>213</ele>
        <time>2017-08-11T10:16:28Z</time>
      </trkpt>
      <trkpt lat="45.97257" lon="4.79619">
        <ele>213</ele>
        <time>2017-08-11T10:16:29Z</time>
      </trkpt>
      <trkpt lat="45.97258" lon="4.79611">
        <ele>213</ele>
        <time>2017-08-11T10:16:30Z</time>
      </trkpt>
      <trkpt lat="45.97258" lon="4.79602">
        <ele>213</ele>
        <time>2017-08-11T10:16:31Z</time>
      </trkpt>
      <trkpt lat="45.97258" lon="4.79594">
        <ele>212</ele>
        <time>2017-08-11T10:16:32Z</time>
      </trkpt>
      <trkpt lat="45.97258" lon="4.79586">
        <ele>211</ele>
        <time>2017-08-11T10:16:33Z</time>
      </trkpt>
      <trkpt lat="45.97258" lon="4.79578">
        <ele>212</ele>
        <time>2017-08-11T10:16:34Z</time>
      </trkpt>
      <trkpt lat="45.97258" lon="4.79571">
        <ele>213</ele>
        <time>2017-08-11T10:16:35Z</time>
      </trkpt>
      <trkpt lat="45.97258" lon="4.79564">
        <ele>213</ele>
        <time>2017-08-11T10:16:36Z</time>
      </trkpt>
      <trkpt lat="45.97257" lon="4.79557">
        <ele>213</ele>
        <time>2017-08-11T10:16:37Z</time>
      </trkpt>
      <trkpt lat="45.97256" lon="4.7955">
        <ele>214</ele>
        <time>2017-08-11T10:16:38Z</time>
      </trkpt>
      <trkpt lat="45.97255" lon="4.79543">
        <ele>214</ele>
        <time>2017-08-11T10:16:39Z</time>
      </trkpt>
      <trkpt lat="45.97254" lon="4.79536">
        <ele>214</ele>
        <time>2017-08-11T10:16:40Z</time>
      </trkpt>
      <trkpt lat="45.97252" lon="4.79528">
        <ele>214</ele>
        <time>2017-08-11T10:16:41Z</time>
      </trkpt>
      <trkpt lat="45.97251" lon="4.7952">
        <ele>213</ele>
        <time>2017-08-11T10:16:42Z</time>
      </trkpt>
      <trkpt lat="45.97249" lon="4.79513">
        <ele>210</ele>
        <time>2017-08-11T10:16:43Z</time>
      </trkpt>
      <trkpt lat="45.97248" lon="4.79505">
        <ele>211</ele>
        <time>2017-08-11T10:16:44Z</time>
      </trkpt>
      <trkpt lat="45.97248" lon="4.79498">
        <ele>211</ele>
        <time>2017-08-11T10:16:45Z</time>
      </trkpt>
      <trkpt lat="45.97247" lon="4.79491">
        <ele>210</ele>
        <time>2017-08-11T10:16:46Z</time>
      </trkpt>
      <trkpt lat="45.97245" lon="4.79483">
        <ele>210</ele>
        <time>2017-08-11T10:16:47Z</time>
      </trkpt>
      <trkpt lat="45.97243" lon="4.79476">
        <ele>209</ele>
        <time>2017-08-11T10:16:48Z</time>
      </trkpt>
      <trkpt lat="45.9724" lon="4.79468">
        <ele>209</ele>
        <time>2017-08-11T10:16:49Z</time>
      </trkpt>
      <trkpt lat="45.97237" lon="4.79461">
        <ele>209</ele>
        <time>2017-08-11T10:16:50Z</time>
      </trkpt>
      <trkpt lat="45.97234" lon="4.79454">
        <ele>209</ele>
        <time>2017-08-11T10:16:51Z</time>
      </trkpt>
      <trkpt lat="45.97231" lon="4.79447">
        <ele>209</ele>
        <time>2017-08-11T10:16:52Z</time>
      </trkpt>
      <trkpt lat="45.97228" lon="4.7944">
        <ele>209</ele>
        <time>2017-08-11T10:16:53Z</time>
      </trkpt>
      <trkpt lat="45.97225" lon="4.79433">
        <ele>209</ele>
        <time>2017-08-11T10:16:54Z</time>
      </trkpt>
      <trkpt lat="45.97222" lon="4.79426">
        <ele>209</ele>
        <time>2017-08-11T10:16:55Z</time>
      </trkpt>
      <trkpt lat="45.97219" lon="4.79419">
        <ele>208</ele>
        <time>2017-08-11T10:16:56Z</time>
      </trkpt>
      <trkpt lat="45.97216" lon="4.79412">
        <ele>208</ele>
        <time>2017-08-11T10:16:57Z</time>
      </trkpt>
      <trkpt lat="45.97213" lon="4.79405">
        <ele>208</ele>
        <time>2017-08-11T10:16:58Z</time>
      </trkpt>
      <trkpt lat="45.9721" lon="4.79399">
        <ele>208</ele>
        <time>2017-08-11T10:16:59Z</time>
      </trkpt>
      <trkpt lat="45.97208" lon="4.79392">
        <ele>208</ele>
        <time>2017-08-11T10:17:00Z</time>
      </trkpt>
      <trkpt lat="45.97205" lon="4.79385">
        <ele>208</ele>
        <time>2017-08-11T10:17:01Z</time>
      </trkpt>
      <trkpt lat="45.97203" lon="4.79378">
        <ele>208</ele>
        <time>2017-08-11T10:17:02Z</time>
      </trkpt>
      <trkpt lat="45.972" lon="4.79371">
        <ele>207</ele>
        <time>2017-08-11T10:17:03Z</time>
      </trkpt>
      <trkpt lat="45.97197" lon="4.79364">
        <ele>207</ele>
        <time>2017-08-11T10:17:04Z</time>
      </trkpt>
      <trkpt lat="45.97193" lon="4.79358">
        <ele>207</ele>
        <time>2017-08-11T10:17:05Z</time>
      </trkpt>
      <trkpt lat="45.9719" lon="4.79352">
        <ele>207</ele>
        <time>2017-08-11T10:17:06Z</time>
      </trkpt>
      <trkpt lat="45.97188" lon="4.79345">
        <ele>207</ele>
        <time>2017-08-11T10:17:07Z</time>
      </trkpt>
      <trkpt lat="45.97186" lon="4.79339">
        <ele>207</ele>
        <time>2017-08-11T10:17:08Z</time>
      </trkpt>
      <trkpt lat="45.97183" lon="4.79333">
        <ele>207</ele>
        <time>2017-08-11T10:17:09Z</time>
      </trkpt>
      <trkpt lat="45.9718" lon="4.79328">
        <ele>207</ele>
        <time>2017-08-11T10:17:10Z</time>
      </trkpt>
      <trkpt lat="45.97177" lon="4.79322">
        <ele>207</ele>
        <time>2017-08-11T10:17:11Z</time>
      </trkpt>
      <trkpt lat="45.97174" lon="4.79316">
        <ele>207</ele>
        <time>2017-08-11T10:17:12Z</time>
      </trkpt>
      <trkpt lat="45.97172" lon="4.79309">
        <ele>207</ele>
        <time>2017-08-11T10:17:13Z</time>
      </trkpt>
      <trkpt lat="45.97169" lon="4.79303">
        <ele>207</ele>
        <time>2017-08-11T10:17:14Z</time>
      </trkpt>
      <trkpt lat="45.97166" lon="4.79296">
        <ele>204</ele>
        <time>2017-08-11T10:17:15Z</time>
      </trkpt>
      <trkpt lat="45.97164" lon="4.79289">
        <ele>204</ele>
        <time>2017-08-11T10:17:16Z</time>
      </trkpt>
      <trkpt lat="45.97161" lon="4.79281">
        <ele>204</ele>
        <time>2017-08-11T10:17:17Z</time>
      </trkpt>
      <trkpt lat="45.97157" lon="4.79273">
        <ele>204</ele>
        <time>2017-08-11T10:17:18Z</time>
      </trkpt>
      <trkpt lat="45.97154" lon="4.79266">
        <ele>204</ele>
        <time>2017-08-11T10:17:19Z</time>
      </trkpt>
      <trkpt lat="45.97151" lon="4.79258">
        <ele>204</ele>
        <time>2017-08-11T10:17:20Z</time>
      </trkpt>
      <trkpt lat="45.97148" lon="4.7925">
        <ele>204</ele>
        <time>2017-08-11T10:17:21Z</time>
      </trkpt>
      <trkpt lat="45.97145" lon="4.79242">
        <ele>205</ele>
        <time>2017-08-11T10:17:22Z</time>
      </trkpt>
      <trkpt lat="45.97142" lon="4.79235">
        <ele>205</ele>
        <time>2017-08-11T10:17:23Z</time>
      </trkpt>
      <trkpt lat="45.97139" lon="4.79227">
        <ele>205</ele>
        <time>2017-08-11T10:17:24Z</time>
      </trkpt>
      <trkpt lat="45.97137" lon="4.7922">
        <ele>206</ele>
        <time>2017-08-11T10:17:25Z</time>
      </trkpt>
      <trkpt lat="45.97134" lon="4.79213">
        <ele>206</ele>
        <time>2017-08-11T10:17:26Z</time>
      </trkpt>
      <trkpt lat="45.97131" lon="4.79205">
        <ele>206</ele>
        <time>2017-08-11T10:17:27Z</time>
      </trkpt>
      <trkpt lat="45.97128" lon="4.79198">
        <ele>206</ele>
        <time>2017-08-11T10:17:28Z</time>
      </trkpt>
      <trkpt lat="45.97125" lon="4.79191">
        <ele>206</ele>
        <time>2017-08-11T10:17:29Z</time>
      </trkpt>
      <trkpt lat="45.97122" lon="4.79185">
        <ele>206</ele>
        <time>2017-08-11T10:17:30Z</time>
      </trkpt>
      <trkpt lat="45.97119" lon="4.79178">
        <ele>206</ele>
        <time>2017-08-11T10:17:31Z</time>
      </trkpt>
      <trkpt lat="45.97117" lon="4.79172">
        <ele>206</ele>
        <time>2017-08-11T10:17:32Z</time>
      </trkpt>
      <trkpt lat="45.97114" lon="4.79165">
        <ele>207</ele>
        <time>2017-08-11T10:17:33Z</time>
      </trkpt>
      <trkpt lat="45.97111" lon="4.79159">
        <ele>206</ele>
        <time>2017-08-11T10:17:34Z</time>
      </trkpt>
      <trkpt lat="45.97107" lon="4.79153">
        <ele>206</ele>
        <time>2017-08-11T10:17:35Z</time>
      </trkpt>
      <trkpt lat="45.97103" lon="4.79147">
        <ele>206</ele>
        <time>2017-08-11T10:17:36Z</time>
      </trkpt>
      <trkpt lat="45.97099" lon="4.79141">
        <ele>206</ele>
        <time>2017-08-11T10:17:37Z</time>
      </trkpt>
      <trkpt lat="45.97095" lon="4.79135">
        <ele>206</ele>
        <time>2017-08-11T10:17:38Z</time>
      </trkpt>
      <trkpt lat="45.97092" lon="4.79128">
        <ele>206</ele>
        <time>2017-08-11T10:17:39Z</time>
      </trkpt>
      <trkpt lat="45.97089" lon="4.7912">
        <ele>206</ele>
        <time>2017-08-11T10:17:40Z</time>
      </trkpt>
      <trkpt lat="45.97086" lon="4.79113">
        <ele>206</ele>
        <time>2017-08-11T10:17:41Z</time>
      </trkpt>
      <trkpt lat="45.97084" lon="4.79105">
        <ele>206</ele>
        <time>2017-08-11T10:17:42Z</time>
      </trkpt>
      <trkpt lat="45.97082" lon="4.79098">
        <ele>204</ele>
        <time>2017-08-11T10:17:43Z</time>
      </trkpt>
      <trkpt lat="45.9708" lon="4.7909">
        <ele>204</ele>
        <time>2017-08-11T10:17:44Z</time>
      </trkpt>
      <trkpt lat="45.97078" lon="4.79082">
        <ele>204</ele>
        <time>2017-08-11T10:17:45Z</time>
      </trkpt>
      <trkpt lat="45.97077" lon="4.79075">
        <ele>204</ele>
        <time>2017-08-11T10:17:46Z</time>
      </trkpt>
      <trkpt lat="45.97075" lon="4.79069">
        <ele>204</ele>
        <time>2017-08-11T10:17:47Z</time>
      </trkpt>
      <trkpt lat="45.97073" lon="4.79063">
        <ele>203</ele>
        <time>2017-08-11T10:17:48Z</time>
      </trkpt>
      <trkpt lat="45.97071" lon="4.79056">
        <ele>203</ele>
        <time>2017-08-11T10:17:49Z</time>
      </trkpt>
      <trkpt lat="45.9707" lon="4.79049">
        <ele>203</ele>
        <time>2017-08-11T10:17:50Z</time>
      </trkpt>
      <trkpt lat="45.97068" lon="4.79042">
        <ele>203</ele>
        <time>2017-08-11T10:17:51Z</time>
      </trkpt>
      <trkpt lat="45.97066" lon="4.79034">
        <ele>203</ele>
        <time>2017-08-11T10:17:52Z</time>
      </trkpt>
      <trkpt lat="45.97064" lon="4.79027">
        <ele>204</ele>
        <time>2017-08-11T10:17:53Z</time>
      </trkpt>
      <trkpt lat="45.97061" lon="4.79019">
        <ele>204</ele>
        <time>2017-08-11T10:17:54Z</time>
      </trkpt>
      <trkpt lat="45.97059" lon="4.79012">
        <ele>204</ele>
        <time>2017-08-11T10:17:55Z</time>
      </trkpt>
      <trkpt lat="45.97057" lon="4.79006">
        <ele>204</ele>
        <time>2017-08-11T10:17:56Z</time>
      </trkpt>
      <trkpt lat="45.97056" lon="4.78999">
        <ele>205</ele>
        <time>2017-08-11T10:17:57Z</time>
      </trkpt>
      <trkpt lat="45.97054" lon="4.78993">
        <ele>205</ele>
        <time>2017-08-11T10:17:58Z</time>
      </trkpt>
      <trkpt lat="45.97052" lon="4.78987">
        <ele>205</ele>
        <time>2017-08-11T10:17:59Z</time>
      </trkpt>
      <trkpt lat="45.97049" lon="4.7898">
        <ele>205</ele>
        <time>2017-08-11T10:18:00Z</time>
      </trkpt>
      <trkpt lat="45.97046" lon="4.78973">
        <ele>205</ele>
        <time>2017-08-11T10:18:01Z</time>
      </trkpt>
      <trkpt lat="45.97043" lon="4.78967">
        <ele>205</ele>
        <time>2017-08-11T10:18:02Z</time>
      </trkpt>
      <trkpt lat="45.97039" lon="4.7896">
        <ele>205</ele>
        <time>2017-08-11T10:18:03Z</time>
      </trkpt>
      <trkpt lat="45.97035" lon="4.78953">
        <ele>205</ele>
        <time>2017-08-11T10:18:04Z</time>
      </trkpt>
      <trkpt lat="45.97031" lon="4.78947">
        <ele>205</ele>
        <time>2017-08-11T10:18:05Z</time>
      </trkpt>
      <trkpt lat="45.97026" lon="4.7894">
        <ele>205</ele>
        <time>2017-08-11T10:18:06Z</time>
      </trkpt>
      <trkpt lat="45.97022" lon="4.78934">
        <ele>205</ele>
        <time>2017-08-11T10:18:07Z</time>
      </trkpt>
      <trkpt lat="45.97017" lon="4.78927">
        <ele>205</ele>
        <time>2017-08-11T10:18:08Z</time>
      </trkpt>
      <trkpt lat="45.97013" lon="4.78921">
        <ele>205</ele>
        <time>2017-08-11T10:18:09Z</time>
      </trkpt>
      <trkpt lat="45.97008" lon="4.78915">
        <ele>205</ele>
        <time>2017-08-11T10:18:10Z</time>
      </trkpt>
      <trkpt lat="45.97003" lon="4.78908">
        <ele>205</ele>
        <time>2017-08-11T10:18:11Z</time>
      </trkpt>
      <trkpt lat="45.96999" lon="4.78902">
        <ele>204</ele>
        <time>2017-08-11T10:18:12Z</time>
      </trkpt>
      <trkpt lat="45.96994" lon="4.78895">
        <ele>203</ele>
        <time>2017-08-11T10:18:13Z</time>
      </trkpt>
      <trkpt lat="45.9699" lon="4.78889">
        <ele>203</ele>
        <time>2017-08-11T10:18:14Z</time>
      </trkpt>
      <trkpt lat="45.96985" lon="4.78883">
        <ele>203</ele>
        <time>2017-08-11T10:18:15Z</time>
      </trkpt>
      <trkpt lat="45.96981" lon="4.78877">
        <ele>203</ele>
        <time>2017-08-11T10:18:16Z</time>
      </trkpt>
      <trkpt lat="45.96976" lon="4.78871">
        <ele>203</ele>
        <time>2017-08-11T10:18:17Z</time>
      </trkpt>
      <trkpt lat="45.96971" lon="4.78865">
        <ele>203</ele>
        <time>2017-08-11T10:18:18Z</time>
      </trkpt>
      <trkpt lat="45.96966" lon="4.78859">
        <ele>203</ele>
        <time>2017-08-11T10:18:19Z</time>
      </trkpt>
      <trkpt lat="45.96961" lon="4.78854">
        <ele>203</ele>
        <time>2017-08-11T10:18:20Z</time>
      </trkpt>
      <trkpt lat="45.96956" lon="4.78849">
        <ele>203</ele>
        <time>2017-08-11T10:18:21Z</time>
      </trkpt>
      <trkpt lat="45.96952" lon="4.78843">
        <ele>203</ele>
        <time>2017-08-11T10:18:22Z</time>
      </trkpt>
      <trkpt lat="45.96947" lon="4.78837">
        <ele>202</ele>
        <time>2017-08-11T10:18:23Z</time>
      </trkpt>
      <trkpt lat="45.96942" lon="4.78832">
        <ele>203</ele>
        <time>2017-08-11T10:18:24Z</time>
      </trkpt>
      <trkpt lat="45.96938" lon="4.78826">
        <ele>202</ele>
        <time>2017-08-11T10:18:25Z</time>
      </trkpt>
      <trkpt lat="45.96934" lon="4.7882">
        <ele>202</ele>
        <time>2017-08-11T10:18:26Z</time>
      </trkpt>
      <trkpt lat="45.9693" lon="4.78814">
        <ele>202</ele>
        <time>2017-08-11T10:18:27Z</time>
      </trkpt>
      <trkpt lat="45.96927" lon="4.78808">
        <ele>203</ele>
        <time>2017-08-11T10:18:28Z</time>
      </trkpt>
      <trkpt lat="45.96923" lon="4.78802">
        <ele>203</ele>
        <time>2017-08-11T10:18:29Z</time>
      </trkpt>
      <trkpt lat="45.9692" lon="4.78795">
        <ele>203</ele>
        <time>2017-08-11T10:18:30Z</time>
      </trkpt>
      <trkpt lat="45.96917" lon="4.78789">
        <ele>201</ele>
        <time>2017-08-11T10:18:31Z</time>
      </trkpt>
      <trkpt lat="45.96913" lon="4.78783">
        <ele>201</ele>
        <time>2017-08-11T10:18:32Z</time>
      </trkpt>
      <trkpt lat="45.9691" lon="4.78776">
        <ele>201</ele>
        <time>2017-08-11T10:18:33Z</time>
      </trkpt>
      <trkpt lat="45.96907" lon="4.7877">
        <ele>201</ele>
        <time>2017-08-11T10:18:34Z</time>
      </trkpt>
      <trkpt lat="45.96904" lon="4.78763">
        <ele>202</ele>
        <time>2017-08-11T10:18:35Z</time>
      </trkpt>
      <trkpt lat="45.96901" lon="4.78757">
        <ele>202</ele>
        <time>2017-08-11T10:18:36Z</time>
      </trkpt>
      <trkpt lat="45.96897" lon="4.78751">
        <ele>202</ele>
        <time>2017-08-11T10:18:37Z</time>
      </trkpt>
      <trkpt lat="45.96894" lon="4.78746">
        <ele>202</ele>
        <time>2017-08-11T10:18:38Z</time>
      </trkpt>
      <trkpt lat="45.96891" lon="4.7874">
        <ele>202</ele>
        <time>2017-08-11T10:18:39Z</time>
      </trkpt>
      <trkpt lat="45.96888" lon="4.78733">
        <ele>202</ele>
        <time>2017-08-11T10:18:40Z</time>
      </trkpt>
      <trkpt lat="45.96885" lon="4.78725">
        <ele>202</ele>
        <time>2017-08-11T10:18:41Z</time>
      </trkpt>
      <trkpt lat="45.96881" lon="4.78717">
        <ele>202</ele>
        <time>2017-08-11T10:18:42Z</time>
      </trkpt>
      <trkpt lat="45.96877" lon="4.7871">
        <ele>202</ele>
        <time>2017-08-11T10:18:43Z</time>
      </trkpt>
      <trkpt lat="45.96873" lon="4.78702">
        <ele>202</ele>
        <time>2017-08-11T10:18:44Z</time>
      </trkpt>
      <trkpt lat="45.96869" lon="4.78694">
        <ele>202</ele>
        <time>2017-08-11T10:18:45Z</time>
      </trkpt>
      <trkpt lat="45.96866" lon="4.78687">
        <ele>202</ele>
        <time>2017-08-11T10:18:46Z</time>
      </trkpt>
      <trkpt lat="45.96862" lon="4.7868">
        <ele>202</ele>
        <time>2017-08-11T10:18:47Z</time>
      </trkpt>
      <trkpt lat="45.96858" lon="4.78673">
        <ele>202</ele>
        <time>2017-08-11T10:18:48Z</time>
      </trkpt>
      <trkpt lat="45.96853" lon="4.78665">
        <ele>203</ele>
        <time>2017-08-11T10:18:49Z</time>
      </trkpt>
      <trkpt lat="45.9685" lon="4.78657">
        <ele>203</ele>
        <time>2017-08-11T10:18:50Z</time>
      </trkpt>
      <trkpt lat="45.96846" lon="4.78649">
        <ele>203</ele>
        <time>2017-08-11T10:18:51Z</time>
      </trkpt>
      <trkpt lat="45.96843" lon="4.78641">
        <ele>203</ele>
        <time>2017-08-11T10:18:52Z</time>
      </trkpt>
      <trkpt lat="45.96839" lon="4.78634">
        <ele>203</ele>
        <time>2017-08-11T10:18:53Z</time>
      </trkpt>
      <trkpt lat="45.96836" lon="4.78628">
        <ele>203</ele>
        <time>2017-08-11T10:18:54Z</time>
      </trkpt>
      <trkpt lat="45.96833" lon="4.7862">
        <ele>201</ele>
        <time>2017-08-11T10:18:55Z</time>
      </trkpt>
      <trkpt lat="45.9683" lon="4.78613">
        <ele>202</ele>
        <time>2017-08-11T10:18:56Z</time>
      </trkpt>
      <trkpt lat="45.96828" lon="4.78606">
        <ele>202</ele>
        <time>2017-08-11T10:18:57Z</time>
      </trkpt>
      <trkpt lat="45.96826" lon="4.78599">
        <ele>202</ele>
        <time>2017-08-11T10:18:58Z</time>
      </trkpt>
      <trkpt lat="45.96824" lon="4.78593">
        <ele>202</ele>
        <time>2017-08-11T10:18:59Z</time>
      </trkpt>
      <trkpt lat="45.96818" lon="4.78583">
        <ele>203</ele>
        <time>2017-08-11T10:19:01Z</time>
      </trkpt>
      <trkpt lat="45.96816" lon="4.78577">
        <ele>203</ele>
        <time>2017-08-11T10:19:02Z</time>
      </trkpt>
      <trkpt lat="45.96812" lon="4.78572">
        <ele>203</ele>
        <time>2017-08-11T10:19:03Z</time>
      </trkpt>
      <trkpt lat="45.96808" lon="4.78566">
        <ele>203</ele>
        <time>2017-08-11T10:19:04Z</time>
      </trkpt>
      <trkpt lat="45.96805" lon="4.7856">
        <ele>203</ele>
        <time>2017-08-11T10:19:05Z</time>
      </trkpt>
      <trkpt lat="45.96801" lon="4.78553">
        <ele>203</ele>
        <time>2017-08-11T10:19:06Z</time>
      </trkpt>
      <trkpt lat="45.96798" lon="4.78547">
        <ele>203</ele>
        <time>2017-08-11T10:19:07Z</time>
      </trkpt>
      <trkpt lat="45.96793" lon="4.78541">
        <ele>203</ele>
        <time>2017-08-11T10:19:08Z</time>
      </trkpt>
      <trkpt lat="45.9679" lon="4.78535">
        <ele>203</ele>
        <time>2017-08-11T10:19:09Z</time>
      </trkpt>
      <trkpt lat="45.96786" lon="4.78528">
        <ele>203</ele>
        <time>2017-08-11T10:19:10Z</time>
      </trkpt>
      <trkpt lat="45.96782" lon="4.78522">
        <ele>203</ele>
        <time>2017-08-11T10:19:11Z</time>
      </trkpt>
      <trkpt lat="45.96778" lon="4.78516">
        <ele>203</ele>
        <time>2017-08-11T10:19:12Z</time>
      </trkpt>
      <trkpt lat="45.96775" lon="4.78509">
        <ele>203</ele>
        <time>2017-08-11T10:19:13Z</time>
      </trkpt>
      <trkpt lat="45.96771" lon="4.78503">
        <ele>203</ele>
        <time>2017-08-11T10:19:14Z</time>
      </trkpt>
      <trkpt lat="45.96768" lon="4.78497">
        <ele>205</ele>
        <time>2017-08-11T10:19:15Z</time>
      </trkpt>
      <trkpt lat="45.96764" lon="4.78491">
        <ele>205</ele>
        <time>2017-08-11T10:19:16Z</time>
      </trkpt>
      <trkpt lat="45.96761" lon="4.78487">
        <ele>205</ele>
        <time>2017-08-11T10:19:17Z</time>
      </trkpt>
      <trkpt lat="45.96756" lon="4.78483">
        <ele>205</ele>
        <time>2017-08-11T10:19:18Z</time>
      </trkpt>
      <trkpt lat="45.96752" lon="4.78479">
        <ele>205</ele>
        <time>2017-08-11T10:19:19Z</time>
      </trkpt>
      <trkpt lat="45.96747" lon="4.78474">
        <ele>203</ele>
        <time>2017-08-11T10:19:20Z</time>
      </trkpt>
      <trkpt lat="45.96741" lon="4.7847">
        <ele>203</ele>
        <time>2017-08-11T10:19:21Z</time>
      </trkpt>
      <trkpt lat="45.96737" lon="4.78466">
        <ele>203</ele>
        <time>2017-08-11T10:19:22Z</time>
      </trkpt>
      <trkpt lat="45.96732" lon="4.78461">
        <ele>203</ele>
        <time>2017-08-11T10:19:23Z</time>
      </trkpt>
      <trkpt lat="45.96728" lon="4.78456">
        <ele>203</ele>
        <time>2017-08-11T10:19:24Z</time>
      </trkpt>
      <trkpt lat="45.96723" lon="4.78452">
        <ele>203</ele>
        <time>2017-08-11T10:19:25Z</time>
      </trkpt>
      <trkpt lat="45.96717" lon="4.78448">
        <ele>203</ele>
        <time>2017-08-11T10:19:26Z</time>
      </trkpt>
      <trkpt lat="45.96713" lon="4.78443">
        <ele>203</ele>
        <time>2017-08-11T10:19:27Z</time>
      </trkpt>
      <trkpt lat="45.96708" lon="4.78439">
        <ele>203</ele>
        <time>2017-08-11T10:19:28Z</time>
      </trkpt>
      <trkpt lat="45.96704" lon="4.78434">
        <ele>203</ele>
        <time>2017-08-11T10:19:29Z</time>
      </trkpt>
      <trkpt lat="45.967" lon="4.7843">
        <ele>203</ele>
        <time>2017-08-11T10:19:30Z</time>
      </trkpt>
      <trkpt lat="45.96696" lon="4.78426">
        <ele>203</ele>
        <time>2017-08-11T10:19:31Z</time>
      </trkpt>
      <trkpt lat="45.96692" lon="4.78421">
        <ele>202</ele>
        <time>2017-08-11T10:19:32Z</time>
      </trkpt>
      <trkpt lat="45.96687" lon="4.78417">
        <ele>204</ele>
        <time>2017-08-11T10:19:33Z</time>
      </trkpt>
      <trkpt lat="45.96682" lon="4.78412">
        <ele>204</ele>
        <time>2017-08-11T10:19:34Z</time>
      </trkpt>
      <trkpt lat="45.96677" lon="4.78407">
        <ele>203</ele>
        <time>2017-08-11T10:19:35Z</time>
      </trkpt>
      <trkpt lat="45.96672" lon="4.78401">
        <ele>204</ele>
        <time>2017-08-11T10:19:36Z</time>
      </trkpt>
      <trkpt lat="45.96667" lon="4.78396">
        <ele>204</ele>
        <time>2017-08-11T10:19:37Z</time>
      </trkpt>
      <trkpt lat="45.96662" lon="4.7839">
        <ele>201</ele>
        <time>2017-08-11T10:19:38Z</time>
      </trkpt>
      <trkpt lat="45.96657" lon="4.78384">
        <ele>201</ele>
        <time>2017-08-11T10:19:39Z</time>
      </trkpt>
      <trkpt lat="45.96652" lon="4.78379">
        <ele>201</ele>
        <time>2017-08-11T10:19:40Z</time>
      </trkpt>
      <trkpt lat="45.96647" lon="4.78374">
        <ele>201</ele>
        <time>2017-08-11T10:19:41Z</time>
      </trkpt>
      <trkpt lat="45.96642" lon="4.78369">
        <ele>201</ele>
        <time>2017-08-11T10:19:42Z</time>
      </trkpt>
      <trkpt lat="45.96636" lon="4.78365">
        <ele>201</ele>
        <time>2017-08-11T10:19:43Z</time>
      </trkpt>
      <trkpt lat="45.96631" lon="4.7836">
        <ele>201</ele>
        <time>2017-08-11T10:19:44Z</time>
      </trkpt>
      <trkpt lat="45.96625" lon="4.78356">
        <ele>201</ele>
        <time>2017-08-11T10:19:45Z</time>
      </trkpt>
      <trkpt lat="45.96619" lon="4.78352">
        <ele>201</ele>
        <time>2017-08-11T10:19:46Z</time>
      </trkpt>
      <trkpt lat="45.96614" lon="4.78347">
        <ele>200</ele>
        <time>2017-08-11T10:19:47Z</time>
      </trkpt>
      <trkpt lat="45.96609" lon="4.78343">
        <ele>200</ele>
        <time>2017-08-11T10:19:48Z</time>
      </trkpt>
      <trkpt lat="45.96604" lon="4.78338">
        <ele>200</ele>
        <time>2017-08-11T10:19:49Z</time>
      </trkpt>
      <trkpt lat="45.96599" lon="4.78334">
        <ele>199</ele>
        <time>2017-08-11T10:19:50Z</time>
      </trkpt>
      <trkpt lat="45.96594" lon="4.78329">
        <ele>201</ele>
        <time>2017-08-11T10:19:51Z</time>
      </trkpt>
      <trkpt lat="45.96589" lon="4.78323">
        <ele>201</ele>
        <time>2017-08-11T10:19:52Z</time>
      </trkpt>
      <trkpt lat="45.96584" lon="4.78319">
        <ele>202</ele>
        <time>2017-08-11T10:19:53Z</time>
      </trkpt>
      <trkpt lat="45.9658" lon="4.78314">
        <ele>199</ele>
        <time>2017-08-11T10:19:54Z</time>
      </trkpt>
      <trkpt lat="45.96576" lon="4.78309">
        <ele>199</ele>
        <time>2017-08-11T10:19:55Z</time>
      </trkpt>
      <trkpt lat="45.96572" lon="4.78305">
        <ele>200</ele>
        <time>2017-08-11T10:19:56Z</time>
      </trkpt>
      <trkpt lat="45.96567" lon="4.783">
        <ele>200</ele>
        <time>2017-08-11T10:19:57Z</time>
      </trkpt>
      <trkpt lat="45.96563" lon="4.78295">
        <ele>200</ele>
        <time>2017-08-11T10:19:58Z</time>
      </trkpt>
      <trkpt lat="45.96559" lon="4.78289">
        <ele>200</ele>
        <time>2017-08-11T10:19:59Z</time>
      </trkpt>
      <trkpt lat="45.96555" lon="4.78284">
        <ele>200</ele>
        <time>2017-08-11T10:20:00Z</time>
      </trkpt>
      <trkpt lat="45.96551" lon="4.78279">
        <ele>200</ele>
        <time>2017-08-11T10:20:01Z</time>
      </trkpt>
      <trkpt lat="45.96546" lon="4.78273">
        <ele>200</ele>
        <time>2017-08-11T10:20:02Z</time>
      </trkpt>
      <trkpt lat="45.96541" lon="4.78267">
        <ele>200</ele>
        <time>2017-08-11T10:20:03Z</time>
      </trkpt>
      <trkpt lat="45.96536" lon="4.7826">
        <ele>200</ele>
        <time>2017-08-11T10:20:04Z</time>
      </trkpt>
      <trkpt lat="45.96531" lon="4.78253">
        <ele>200</ele>
        <time>2017-08-11T10:20:05Z</time>
      </trkpt>
      <trkpt lat="45.96527" lon="4.78246">
        <ele>204</ele>
        <time>2017-08-11T10:20:06Z</time>
      </trkpt>
      <trkpt lat="45.96523" lon="4.78239">
        <ele>204</ele>
        <time>2017-08-11T10:20:07Z</time>
      </trkpt>
      <trkpt lat="45.96519" lon="4.78232">
        <ele>204</ele>
        <time>2017-08-11T10:20:08Z</time>
      </trkpt>
      <trkpt lat="45.96514" lon="4.78225">
        <ele>204</ele>
        <time>2017-08-11T10:20:09Z</time>
      </trkpt>
      <trkpt lat="45.9651" lon="4.78219">
        <ele>204</ele>
        <time>2017-08-11T10:20:10Z</time>
      </trkpt>
      <trkpt lat="45.96506" lon="4.78213">
        <ele>205</ele>
        <time>2017-08-11T10:20:11Z</time>
      </trkpt>
      <trkpt lat="45.96502" lon="4.78208">
        <ele>205</ele>
        <time>2017-08-11T10:20:12Z</time>
      </trkpt>
      <trkpt lat="45.96497" lon="4.78203">
        <ele>200</ele>
        <time>2017-08-11T10:20:13Z</time>
      </trkpt>
      <trkpt lat="45.96492" lon="4.782">
        <ele>200</ele>
        <time>2017-08-11T10:20:14Z</time>
      </trkpt>
      <trkpt lat="45.96486" lon="4.78197">
        <ele>200</ele>
        <time>2017-08-11T10:20:15Z</time>
      </trkpt>
      <trkpt lat="45.9648" lon="4.78193">
        <ele>200</ele>
        <time>2017-08-11T10:20:16Z</time>
      </trkpt>
      <trkpt lat="45.96475" lon="4.7819">
        <ele>200</ele>
        <time>2017-08-11T10:20:17Z</time>
      </trkpt>
      <trkpt lat="45.96469" lon="4.78187">
        <ele>200</ele>
        <time>2017-08-11T10:20:18Z</time>
      </trkpt>
      <trkpt lat="45.96463" lon="4.78182">
        <ele>200</ele>
        <time>2017-08-11T10:20:19Z</time>
      </trkpt>
      <trkpt lat="45.96458" lon="4.78177">
        <ele>200</ele>
        <time>2017-08-11T10:20:20Z</time>
      </trkpt>
      <trkpt lat="45.96453" lon="4.78172">
        <ele>200</ele>
        <time>2017-08-11T10:20:21Z</time>
      </trkpt>
      <trkpt lat="45.96447" lon="4.78167">
        <ele>199</ele>
        <time>2017-08-11T10:20:22Z</time>
      </trkpt>
      <trkpt lat="45.96442" lon="4.78162">
        <ele>203</ele>
        <time>2017-08-11T10:20:23Z</time>
      </trkpt>
      <trkpt lat="45.96436" lon="4.78156">
        <ele>202</ele>
        <time>2017-08-11T10:20:24Z</time>
      </trkpt>
      <trkpt lat="45.96431" lon="4.78151">
        <ele>202</ele>
        <time>2017-08-11T10:20:25Z</time>
      </trkpt>
      <trkpt lat="45.96425" lon="4.78146">
        <ele>202</ele>
        <time>2017-08-11T10:20:26Z</time>
      </trkpt>
      <trkpt lat="45.9642" lon="4.78141">
        <ele>203</ele>
        <time>2017-08-11T10:20:27Z</time>
      </trkpt>
      <trkpt lat="45.96416" lon="4.78136">
        <ele>199</ele>
        <time>2017-08-11T10:20:28Z</time>
      </trkpt>
      <trkpt lat="45.96412" lon="4.78132">
        <ele>199</ele>
        <time>2017-08-11T10:20:29Z</time>
      </trkpt>
      <trkpt lat="45.96408" lon="4.78128">
        <ele>200</ele>
        <time>2017-08-11T10:20:30Z</time>
      </trkpt>
      <trkpt lat="45.96404" lon="4.78124">
        <ele>200</ele>
        <time>2017-08-11T10:20:31Z</time>
      </trkpt>
      <trkpt lat="45.96399" lon="4.78121">
        <ele>200</ele>
        <time>2017-08-11T10:20:32Z</time>
      </trkpt>
      <trkpt lat="45.96395" lon="4.78118">
        <ele>200</ele>
        <time>2017-08-11T10:20:33Z</time>
      </trkpt>
      <trkpt lat="45.96391" lon="4.78114">
        <ele>200</ele>
        <time>2017-08-11T10:20:34Z</time>
      </trkpt>
      <trkpt lat="45.96387" lon="4.7811">
        <ele>200</ele>
        <time>2017-08-11T10:20:35Z</time>
      </trkpt>
      <trkpt lat="45.96383" lon="4.78106">
        <ele>200</ele>
        <time>2017-08-11T10:20:36Z</time>
      </trkpt>
      <trkpt lat="45.96378" lon="4.78103">
        <ele>200</ele>
        <time>2017-08-11T10:20:37Z</time>
      </trkpt>
      <trkpt lat="45.96373" lon="4.78098">
        <ele>200</ele>
        <time>2017-08-11T10:20:38Z</time>
      </trkpt>
      <trkpt lat="45.96369" lon="4.78094">
        <ele>199</ele>
        <time>2017-08-11T10:20:39Z</time>
      </trkpt>
      <trkpt lat="45.96364" lon="4.78089">
        <ele>199</ele>
        <time>2017-08-11T10:20:40Z</time>
      </trkpt>
      <trkpt lat="45.96359" lon="4.78083">
        <ele>202</ele>
        <time>2017-08-11T10:20:41Z</time>
      </trkpt>
      <trkpt lat="45.96355" lon="4.78077">
        <ele>202</ele>
        <time>2017-08-11T10:20:42Z</time>
      </trkpt>
      <trkpt lat="45.9635" lon="4.7807">
        <ele>201</ele>
        <time>2017-08-11T10:20:43Z</time>
      </trkpt>
      <trkpt lat="45.96345" lon="4.78064">
        <ele>202</ele>
        <time>2017-08-11T10:20:44Z</time>
      </trkpt>
      <trkpt lat="45.96341" lon="4.78058">
        <ele>202</ele>
        <time>2017-08-11T10:20:45Z</time>
      </trkpt>
      <trkpt lat="45.96336" lon="4.78052">
        <ele>202</ele>
        <time>2017-08-11T10:20:46Z</time>
      </trkpt>
      <trkpt lat="45.96331" lon="4.78046">
        <ele>199</ele>
        <time>2017-08-11T10:20:47Z</time>
      </trkpt>
      <trkpt lat="45.96327" lon="4.7804">
        <ele>199</ele>
        <time>2017-08-11T10:20:48Z</time>
      </trkpt>
      <trkpt lat="45.96323" lon="4.78034">
        <ele>200</ele>
        <time>2017-08-11T10:20:49Z</time>
      </trkpt>
      <trkpt lat="45.96318" lon="4.78028">
        <ele>200</ele>
        <time>2017-08-11T10:20:50Z</time>
      </trkpt>
      <trkpt lat="45.96314" lon="4.78023">
        <ele>200</ele>
        <time>2017-08-11T10:20:51Z</time>
      </trkpt>
      <trkpt lat="45.96309" lon="4.78017">
        <ele>200</ele>
        <time>2017-08-11T10:20:52Z</time>
      </trkpt>
      <trkpt lat="45.96305" lon="4.78012">
        <ele>200</ele>
        <time>2017-08-11T10:20:53Z</time>
      </trkpt>
      <trkpt lat="45.963" lon="4.78007">
        <ele>200</ele>
        <time>2017-08-11T10:20:54Z</time>
      </trkpt>
      <trkpt lat="45.96296" lon="4.78003">
        <ele>199</ele>
        <time>2017-08-11T10:20:55Z</time>
      </trkpt>
      <trkpt lat="45.96293" lon="4.77999">
        <ele>204</ele>
        <time>2017-08-11T10:20:56Z</time>
      </trkpt>
      <trkpt lat="45.96288" lon="4.77996">
        <ele>204</ele>
        <time>2017-08-11T10:20:57Z</time>
      </trkpt>
      <trkpt lat="45.96283" lon="4.77992">
        <ele>203</ele>
        <time>2017-08-11T10:20:58Z</time>
      </trkpt>
      <trkpt lat="45.96278" lon="4.77988">
        <ele>203</ele>
        <time>2017-08-11T10:20:59Z</time>
      </trkpt>
      <trkpt lat="45.96274" lon="4.77984">
        <ele>203</ele>
        <time>2017-08-11T10:21:00Z</time>
      </trkpt>
      <trkpt lat="45.96269" lon="4.7798">
        <ele>203</ele>
        <time>2017-08-11T10:21:01Z</time>
      </trkpt>
      <trkpt lat="45.96265" lon="4.77976">
        <ele>203</ele>
        <time>2017-08-11T10:21:02Z</time>
      </trkpt>
      <trkpt lat="45.9626" lon="4.77971">
        <ele>203</ele>
        <time>2017-08-11T10:21:03Z</time>
      </trkpt>
      <trkpt lat="45.96256" lon="4.77968">
        <ele>204</ele>
        <time>2017-08-11T10:21:04Z</time>
      </trkpt>
      <trkpt lat="45.96248" lon="4.7796">
        <ele>199</ele>
        <time>2017-08-11T10:21:06Z</time>
      </trkpt>
      <trkpt lat="45.96245" lon="4.77957">
        <ele>199</ele>
        <time>2017-08-11T10:21:07Z</time>
      </trkpt>
      <trkpt lat="45.96238" lon="4.77948">
        <ele>200</ele>
        <time>2017-08-11T10:21:09Z</time>
      </trkpt>
      <trkpt lat="45.96235" lon="4.77943">
        <ele>200</ele>
        <time>2017-08-11T10:21:10Z</time>
      </trkpt>
      <trkpt lat="45.96231" lon="4.77938">
        <ele>201</ele>
        <time>2017-08-11T10:21:11Z</time>
      </trkpt>
      <trkpt lat="45.96227" lon="4.77932">
        <ele>201</ele>
        <time>2017-08-11T10:21:12Z</time>
      </trkpt>
      <trkpt lat="45.96223" lon="4.77927">
        <ele>201</ele>
        <time>2017-08-11T10:21:13Z</time>
      </trkpt>
      <trkpt lat="45.96218" lon="4.77921">
        <ele>200</ele>
        <time>2017-08-11T10:21:14Z</time>
      </trkpt>
      <trkpt lat="45.96214" lon="4.77914">
        <ele>203</ele>
        <time>2017-08-11T10:21:15Z</time>
      </trkpt>
      <trkpt lat="45.9621" lon="4.77908">
        <ele>203</ele>
        <time>2017-08-11T10:21:16Z</time>
      </trkpt>
      <trkpt lat="45.96206" lon="4.77901">
        <ele>202</ele>
        <time>2017-08-11T10:21:17Z</time>
      </trkpt>
      <trkpt lat="45.96201" lon="4.77894">
        <ele>202</ele>
        <time>2017-08-11T10:21:18Z</time>
      </trkpt>
      <trkpt lat="45.96196" lon="4.77886">
        <ele>202</ele>
        <time>2017-08-11T10:21:19Z</time>
      </trkpt>
      <trkpt lat="45.96192" lon="4.77878">
        <ele>202</ele>
        <time>2017-08-11T10:21:20Z</time>
      </trkpt>
      <trkpt lat="45.96187" lon="4.7787">
        <ele>202</ele>
        <time>2017-08-11T10:21:21Z</time>
      </trkpt>
      <trkpt lat="45.96182" lon="4.77862">
        <ele>201</ele>
        <time>2017-08-11T10:21:22Z</time>
      </trkpt>
      <trkpt lat="45.96177" lon="4.77854">
        <ele>201</ele>
        <time>2017-08-11T10:21:23Z</time>
      </trkpt>
      <trkpt lat="45.96171" lon="4.77846">
        <ele>200</ele>
        <time>2017-08-11T10:21:24Z</time>
      </trkpt>
      <trkpt lat="45.96166" lon="4.77838">
        <ele>198</ele>
        <time>2017-08-11T10:21:25Z</time>
      </trkpt>
      <trkpt lat="45.96162" lon="4.77831">
        <ele>199</ele>
        <time>2017-08-11T10:21:26Z</time>
      </trkpt>
      <trkpt lat="45.96158" lon="4.77824">
        <ele>198</ele>
        <time>2017-08-11T10:21:27Z</time>
      </trkpt>
      <trkpt lat="45.96154" lon="4.77818">
        <ele>198</ele>
        <time>2017-08-11T10:21:28Z</time>
      </trkpt>
      <trkpt lat="45.9615" lon="4.77811">
        <ele>198</ele>
        <time>2017-08-11T10:21:29Z</time>
      </trkpt>
      <trkpt lat="45.96146" lon="4.77805">
        <ele>198</ele>
        <time>2017-08-11T10:21:30Z</time>
      </trkpt>
      <trkpt lat="45.96142" lon="4.77798">
        <ele>198</ele>
        <time>2017-08-11T10:21:31Z</time>
      </trkpt>
      <trkpt lat="45.96138" lon="4.77792">
        <ele>198</ele>
        <time>2017-08-11T10:21:32Z</time>
      </trkpt>
      <trkpt lat="45.96135" lon="4.77786">
        <ele>198</ele>
        <time>2017-08-11T10:21:33Z</time>
      </trkpt>
      <trkpt lat="45.96131" lon="4.7778">
        <ele>198</ele>
        <time>2017-08-11T10:21:34Z</time>
      </trkpt>
      <trkpt lat="45.96127" lon="4.77773">
        <ele>198</ele>
        <time>2017-08-11T10:21:35Z</time>
      </trkpt>
      <trkpt lat="45.96122" lon="4.77766">
        <ele>197</ele>
        <time>2017-08-11T10:21:36Z</time>
      </trkpt>
      <trkpt lat="45.96118" lon="4.77759">
        <ele>197</ele>
        <time>2017-08-11T10:21:37Z</time>
      </trkpt>
      <trkpt lat="45.96115" lon="4.77753">
        <ele>197</ele>
        <time>2017-08-11T10:21:38Z</time>
      </trkpt>
      <trkpt lat="45.96111" lon="4.77747">
        <ele>199</ele>
        <time>2017-08-11T10:21:39Z</time>
      </trkpt>
      <trkpt lat="45.96107" lon="4.7774">
        <ele>199</ele>
        <time>2017-08-11T10:21:40Z</time>
      </trkpt>
      <trkpt lat="45.96103" lon="4.77733">
        <ele>199</ele>
        <time>2017-08-11T10:21:41Z</time>
      </trkpt>
      <trkpt lat="45.96099" lon="4.77726">
        <ele>199</ele>
        <time>2017-08-11T10:21:42Z</time>
      </trkpt>
      <trkpt lat="45.96095" lon="4.77719">
        <ele>199</ele>
        <time>2017-08-11T10:21:43Z</time>
      </trkpt>
      <trkpt lat="45.96091" lon="4.77712">
        <ele>200</ele>
        <time>2017-08-11T10:21:44Z</time>
      </trkpt>
      <trkpt lat="45.96087" lon="4.77706">
        <ele>200</ele>
        <time>2017-08-11T10:21:45Z</time>
      </trkpt>
      <trkpt lat="45.96083" lon="4.77699">
        <ele>197</ele>
        <time>2017-08-11T10:21:46Z</time>
      </trkpt>
      <trkpt lat="45.96078" lon="4.77693">
        <ele>198</ele>
        <time>2017-08-11T10:21:47Z</time>
      </trkpt>
      <trkpt lat="45.96074" lon="4.77686">
        <ele>198</ele>
        <time>2017-08-11T10:21:48Z</time>
      </trkpt>
      <trkpt lat="45.9607" lon="4.7768">
        <ele>198</ele>
        <time>2017-08-11T10:21:49Z</time>
      </trkpt>
      <trkpt lat="45.96066" lon="4.77674">
        <ele>198</ele>
        <time>2017-08-11T10:21:50Z</time>
      </trkpt>
      <trkpt lat="45.96062" lon="4.77668">
        <ele>198</ele>
        <time>2017-08-11T10:21:51Z</time>
      </trkpt>
      <trkpt lat="45.96058" lon="4.77663">
        <ele>200</ele>
        <time>2017-08-11T10:21:52Z</time>
      </trkpt>
      <trkpt lat="45.96054" lon="4.77657">
        <ele>200</ele>
        <time>2017-08-11T10:21:53Z</time>
      </trkpt>
      <trkpt lat="45.9605" lon="4.77651">
        <ele>200</ele>
        <time>2017-08-11T10:21:54Z</time>
      </trkpt>
      <trkpt lat="45.96045" lon="4.77646">
        <ele>199</ele>
        <time>2017-08-11T10:21:55Z</time>
      </trkpt>
      <trkpt lat="45.9604" lon="4.7764">
        <ele>199</ele>
        <time>2017-08-11T10:21:56Z</time>
      </trkpt>
      <trkpt lat="45.96036" lon="4.77635">
        <ele>199</ele>
        <time>2017-08-11T10:21:57Z</time>
      </trkpt>
      <trkpt lat="45.96031" lon="4.77629">
        <ele>199</ele>
        <time>2017-08-11T10:21:58Z</time>
      </trkpt>
      <trkpt lat="45.96026" lon="4.77624">
        <ele>199</ele>
        <time>2017-08-11T10:21:59Z</time>
      </trkpt>
      <trkpt lat="45.96021" lon="4.77618">
        <ele>199</ele>
        <time>2017-08-11T10:22:00Z</time>
      </trkpt>
      <trkpt lat="45.96017" lon="4.77613">
        <ele>199</ele>
        <time>2017-08-11T10:22:01Z</time>
      </trkpt>
      <trkpt lat="45.96013" lon="4.77607">
        <ele>199</ele>
        <time>2017-08-11T10:22:02Z</time>
      </trkpt>
      <trkpt lat="45.96009" lon="4.77602">
        <ele>198</ele>
        <time>2017-08-11T10:22:03Z</time>
      </trkpt>
      <trkpt lat="45.96005" lon="4.77597">
        <ele>198</ele>
        <time>2017-08-11T10:22:04Z</time>
      </trkpt>
      <trkpt lat="45.96001" lon="4.77592">
        <ele>198</ele>
        <time>2017-08-11T10:22:05Z</time>
      </trkpt>
      <trkpt lat="45.95997" lon="4.77586">
        <ele>196</ele>
        <time>2017-08-11T10:22:06Z</time>
      </trkpt>
      <trkpt lat="45.95994" lon="4.7758">
        <ele>196</ele>
        <time>2017-08-11T10:22:07Z</time>
      </trkpt>
      <trkpt lat="45.95991" lon="4.77573">
        <ele>196</ele>
        <time>2017-08-11T10:22:08Z</time>
      </trkpt>
      <trkpt lat="45.95989" lon="4.77567">
        <ele>196</ele>
        <time>2017-08-11T10:22:09Z</time>
      </trkpt>
      <trkpt lat="45.95987" lon="4.7756">
        <ele>196</ele>
        <time>2017-08-11T10:22:10Z</time>
      </trkpt>
      <trkpt lat="45.95984" lon="4.77553">
        <ele>196</ele>
        <time>2017-08-11T10:22:11Z</time>
      </trkpt>
      <trkpt lat="45.95982" lon="4.77546">
        <ele>196</ele>
        <time>2017-08-11T10:22:12Z</time>
      </trkpt>
      <trkpt lat="45.95979" lon="4.7754">
        <ele>196</ele>
        <time>2017-08-11T10:22:13Z</time>
      </trkpt>
      <trkpt lat="45.95976" lon="4.77535">
        <ele>196</ele>
        <time>2017-08-11T10:22:14Z</time>
      </trkpt>
      <trkpt lat="45.95973" lon="4.77529">
        <ele>196</ele>
        <time>2017-08-11T10:22:15Z</time>
      </trkpt>
      <trkpt lat="45.95969" lon="4.77523">
        <ele>196</ele>
        <time>2017-08-11T10:22:16Z</time>
      </trkpt>
      <trkpt lat="45.95966" lon="4.77516">
        <ele>195</ele>
        <time>2017-08-11T10:22:17Z</time>
      </trkpt>
      <trkpt lat="45.95962" lon="4.77509">
        <ele>195</ele>
        <time>2017-08-11T10:22:18Z</time>
      </trkpt>
      <trkpt lat="45.95959" lon="4.77501">
        <ele>195</ele>
        <time>2017-08-11T10:22:19Z</time>
      </trkpt>
      <trkpt lat="45.95956" lon="4.77493">
        <ele>196</ele>
        <time>2017-08-11T10:22:20Z</time>
      </trkpt>
      <trkpt lat="45.95954" lon="4.77485">
        <ele>196</ele>
        <time>2017-08-11T10:22:21Z</time>
      </trkpt>
      <trkpt lat="45.9595" lon="4.77477">
        <ele>196</ele>
        <time>2017-08-11T10:22:22Z</time>
      </trkpt>
      <trkpt lat="45.95947" lon="4.77468">
        <ele>196</ele>
        <time>2017-08-11T10:22:23Z</time>
      </trkpt>
      <trkpt lat="45.95944" lon="4.77459">
        <ele>196</ele>
        <time>2017-08-11T10:22:24Z</time>
      </trkpt>
      <trkpt lat="45.95941" lon="4.77451">
        <ele>196</ele>
        <time>2017-08-11T10:22:25Z</time>
      </trkpt>
      <trkpt lat="45.95937" lon="4.77442">
        <ele>195</ele>
        <time>2017-08-11T10:22:26Z</time>
      </trkpt>
      <trkpt lat="45.95933" lon="4.77433">
        <ele>195</ele>
        <time>2017-08-11T10:22:27Z</time>
      </trkpt>
      <trkpt lat="45.95929" lon="4.77424">
        <ele>195</ele>
        <time>2017-08-11T10:22:28Z</time>
      </trkpt>
      <trkpt lat="45.95926" lon="4.77415">
        <ele>195</ele>
        <time>2017-08-11T10:22:29Z</time>
      </trkpt>
      <trkpt lat="45.95923" lon="4.77406">
        <ele>195</ele>
        <time>2017-08-11T10:22:30Z</time>
      </trkpt>
      <trkpt lat="45.9592" lon="4.77396">
        <ele>196</ele>
        <time>2017-08-11T10:22:31Z</time>
      </trkpt>
      <trkpt lat="45.95919" lon="4.77387">
        <ele>196</ele>
        <time>2017-08-11T10:22:32Z</time>
      </trkpt>
      <trkpt lat="45.95916" lon="4.77379">
        <ele>193</ele>
        <time>2017-08-11T10:22:33Z</time>
      </trkpt>
      <trkpt lat="45.95913" lon="4.7737">
        <ele>193</ele>
        <time>2017-08-11T10:22:34Z</time>
      </trkpt>
      <trkpt lat="45.9591" lon="4.77361">
        <ele>193</ele>
        <time>2017-08-11T10:22:35Z</time>
      </trkpt>
      <trkpt lat="45.95907" lon="4.77352">
        <ele>193</ele>
        <time>2017-08-11T10:22:36Z</time>
      </trkpt>
      <trkpt lat="45.95905" lon="4.77344">
        <ele>193</ele>
        <time>2017-08-11T10:22:37Z</time>
      </trkpt>
      <trkpt lat="45.95902" lon="4.77335">
        <ele>194</ele>
        <time>2017-08-11T10:22:38Z</time>
      </trkpt>
      <trkpt lat="45.959" lon="4.77327">
        <ele>194</ele>
        <time>2017-08-11T10:22:39Z</time>
      </trkpt>
      <trkpt lat="45.95898" lon="4.77319">
        <ele>193</ele>
        <time>2017-08-11T10:22:40Z</time>
      </trkpt>
      <trkpt lat="45.95897" lon="4.7731">
        <ele>193</ele>
        <time>2017-08-11T10:22:41Z</time>
      </trkpt>
      <trkpt lat="45.95894" lon="4.77302">
        <ele>193</ele>
        <time>2017-08-11T10:22:42Z</time>
      </trkpt>
      <trkpt lat="45.95891" lon="4.77294">
        <ele>193</ele>
        <time>2017-08-11T10:22:43Z</time>
      </trkpt>
      <trkpt lat="45.95889" lon="4.77285">
        <ele>193</ele>
        <time>2017-08-11T10:22:44Z</time>
      </trkpt>
      <trkpt lat="45.95887" lon="4.77277">
        <ele>193</ele>
        <time>2017-08-11T10:22:45Z</time>
      </trkpt>
      <trkpt lat="45.95885" lon="4.77269">
        <ele>193</ele>
        <time>2017-08-11T10:22:46Z</time>
      </trkpt>
      <trkpt lat="45.95883" lon="4.77261">
        <ele>193</ele>
        <time>2017-08-11T10:22:47Z</time>
      </trkpt>
      <trkpt lat="45.95881" lon="4.77253">
        <ele>193</ele>
        <time>2017-08-11T10:22:48Z</time>
      </trkpt>
      <trkpt lat="45.95879" lon="4.77245">
        <ele>193</ele>
        <time>2017-08-11T10:22:49Z</time>
      </trkpt>
      <trkpt lat="45.95877" lon="4.77238">
        <ele>193</ele>
        <time>2017-08-11T10:22:50Z</time>
      </trkpt>
      <trkpt lat="45.95875" lon="4.77231">
        <ele>193</ele>
        <time>2017-08-11T10:22:51Z</time>
      </trkpt>
      <trkpt lat="45.95873" lon="4.77223">
        <ele>193</ele>
        <time>2017-08-11T10:22:52Z</time>
      </trkpt>
      <trkpt lat="45.95871" lon="4.77215">
        <ele>193</ele>
        <time>2017-08-11T10:22:53Z</time>
      </trkpt>
      <trkpt lat="45.9587" lon="4.77207">
        <ele>193</ele>
        <time>2017-08-11T10:22:54Z</time>
      </trkpt>
      <trkpt lat="45.95868" lon="4.77198">
        <ele>193</ele>
        <time>2017-08-11T10:22:55Z</time>
      </trkpt>
      <trkpt lat="45.95865" lon="4.77189">
        <ele>193</ele>
        <time>2017-08-11T10:22:56Z</time>
      </trkpt>
      <trkpt lat="45.95863" lon="4.7718">
        <ele>192</ele>
        <time>2017-08-11T10:22:57Z</time>
      </trkpt>
      <trkpt lat="45.9586" lon="4.7717">
        <ele>192</ele>
        <time>2017-08-11T10:22:58Z</time>
      </trkpt>
      <trkpt lat="45.95857" lon="4.7716">
        <ele>192</ele>
        <time>2017-08-11T10:22:59Z</time>
      </trkpt>
      <trkpt lat="45.95854" lon="4.77151">
        <ele>192</ele>
        <time>2017-08-11T10:23:00Z</time>
      </trkpt>
      <trkpt lat="45.95851" lon="4.77142">
        <ele>193</ele>
        <time>2017-08-11T10:23:01Z</time>
      </trkpt>
      <trkpt lat="45.95849" lon="4.77133">
        <ele>193</ele>
        <time>2017-08-11T10:23:02Z</time>
      </trkpt>
      <trkpt lat="45.95846" lon="4.77123">
        <ele>193</ele>
        <time>2017-08-11T10:23:03Z</time>
      </trkpt>
      <trkpt lat="45.95844" lon="4.77113">
        <ele>193</ele>
        <time>2017-08-11T10:23:04Z</time>
      </trkpt>
      <trkpt lat="45.95841" lon="4.77104">
        <ele>193</ele>
        <time>2017-08-11T10:23:05Z</time>
      </trkpt>
      <trkpt lat="45.95839" lon="4.77095">
        <ele>193</ele>
        <time>2017-08-11T10:23:06Z</time>
      </trkpt>
      <trkpt lat="45.95835" lon="4.77086">
        <ele>192</ele>
        <time>2017-08-11T10:23:07Z</time>
      </trkpt>
      <trkpt lat="45.95832" lon="4.77077">
        <ele>191</ele>
        <time>2017-08-11T10:23:08Z</time>
      </trkpt>
      <trkpt lat="45.95829" lon="4.77068">
        <ele>191</ele>
        <time>2017-08-11T10:23:09Z</time>
      </trkpt>
      <trkpt lat="45.95826" lon="4.7706">
        <ele>190</ele>
        <time>2017-08-11T10:23:10Z</time>
      </trkpt>
      <trkpt lat="45.95822" lon="4.77053">
        <ele>190</ele>
        <time>2017-08-11T10:23:11Z</time>
      </trkpt>
      <trkpt lat="45.95819" lon="4.77045">
        <ele>190</ele>
        <time>2017-08-11T10:23:12Z</time>
      </trkpt>
      <trkpt lat="45.95815" lon="4.77037">
        <ele>190</ele>
        <time>2017-08-11T10:23:13Z</time>
      </trkpt>
      <trkpt lat="45.95812" lon="4.77029">
        <ele>190</ele>
        <time>2017-08-11T10:23:14Z</time>
      </trkpt>
      <trkpt lat="45.95809" lon="4.77022">
        <ele>190</ele>
        <time>2017-08-11T10:23:15Z</time>
      </trkpt>
      <trkpt lat="45.95807" lon="4.77014">
        <ele>190</ele>
        <time>2017-08-11T10:23:16Z</time>
      </trkpt>
      <trkpt lat="45.95806" lon="4.77006">
        <ele>190</ele>
        <time>2017-08-11T10:23:17Z</time>
      </trkpt>
      <trkpt lat="45.95805" lon="4.76998">
        <ele>190</ele>
        <time>2017-08-11T10:23:18Z</time>
      </trkpt>
      <trkpt lat="45.95805" lon="4.7699">
        <ele>190</ele>
        <time>2017-08-11T10:23:19Z</time>
      </trkpt>
      <trkpt lat="45.95805" lon="4.76981">
        <ele>189</ele>
        <time>2017-08-11T10:23:20Z</time>
      </trkpt>
      <trkpt lat="45.95805" lon="4.76974">
        <ele>189</ele>
        <time>2017-08-11T10:23:21Z</time>
      </trkpt>
      <trkpt lat="45.95806" lon="4.76965">
        <ele>189</ele>
        <time>2017-08-11T10:23:22Z</time>
      </trkpt>
      <trkpt lat="45.95807" lon="4.76957">
        <ele>189</ele>
        <time>2017-08-11T10:23:23Z</time>
      </trkpt>
      <trkpt lat="45.95808" lon="4.76949">
        <ele>189</ele>
        <time>2017-08-11T10:23:24Z</time>
      </trkpt>
      <trkpt lat="45.9581" lon="4.7694">
        <ele>189</ele>
        <time>2017-08-11T10:23:25Z</time>
      </trkpt>
      <trkpt lat="45.95811" lon="4.76931">
        <ele>189</ele>
        <time>2017-08-11T10:23:26Z</time>
      </trkpt>
      <trkpt lat="45.95813" lon="4.76922">
        <ele>189</ele>
        <time>2017-08-11T10:23:27Z</time>
      </trkpt>
      <trkpt lat="45.95815" lon="4.76913">
        <ele>189</ele>
        <time>2017-08-11T10:23:28Z</time>
      </trkpt>
      <trkpt lat="45.95816" lon="4.76904">
        <ele>189</ele>
        <time>2017-08-11T10:23:29Z</time>
      </trkpt>
      <trkpt lat="45.95818" lon="4.76897">
        <ele>189</ele>
        <time>2017-08-11T10:23:30Z</time>
      </trkpt>
      <trkpt lat="45.95819" lon="4.76889">
        <ele>189</ele>
        <time>2017-08-11T10:23:31Z</time>
      </trkpt>
      <trkpt lat="45.95821" lon="4.76882">
        <ele>189</ele>
        <time>2017-08-11T10:23:32Z</time>
      </trkpt>
      <trkpt lat="45.95823" lon="4.76875">
        <ele>189</ele>
        <time>2017-08-11T10:23:33Z</time>
      </trkpt>
      <trkpt lat="45.95825" lon="4.76867">
        <ele>189</ele>
        <time>2017-08-11T10:23:34Z</time>
      </trkpt>
      <trkpt lat="45.95826" lon="4.7686">
        <ele>189</ele>
        <time>2017-08-11T10:23:35Z</time>
      </trkpt>
      <trkpt lat="45.95827" lon="4.76853">
        <ele>190</ele>
        <time>2017-08-11T10:23:36Z</time>
      </trkpt>
      <trkpt lat="45.95828" lon="4.76846">
        <ele>190</ele>
        <time>2017-08-11T10:23:37Z</time>
      </trkpt>
      <trkpt lat="45.95829" lon="4.7684">
        <ele>190</ele>
        <time>2017-08-11T10:23:38Z</time>
      </trkpt>
      <trkpt lat="45.95831" lon="4.76833">
        <ele>190</ele>
        <time>2017-08-11T10:23:39Z</time>
      </trkpt>
      <trkpt lat="45.95832" lon="4.76827">
        <ele>190</ele>
        <time>2017-08-11T10:23:40Z</time>
      </trkpt>
      <trkpt lat="45.95834" lon="4.7682">
        <ele>190</ele>
        <time>2017-08-11T10:23:41Z</time>
      </trkpt>
      <trkpt lat="45.95835" lon="4.76813">
        <ele>190</ele>
        <time>2017-08-11T10:23:42Z</time>
      </trkpt>
      <trkpt lat="45.95835" lon="4.76806">
        <ele>191</ele>
        <time>2017-08-11T10:23:43Z</time>
      </trkpt>
      <trkpt lat="45.95835" lon="4.76798">
        <ele>191</ele>
        <time>2017-08-11T10:23:44Z</time>
      </trkpt>
      <trkpt lat="45.95834" lon="4.76789">
        <ele>191</ele>
        <time>2017-08-11T10:23:45Z</time>
      </trkpt>
      <trkpt lat="45.95833" lon="4.76781">
        <ele>190</ele>
        <time>2017-08-11T10:23:46Z</time>
      </trkpt>
      <trkpt lat="45.95832" lon="4.76772">
        <ele>190</ele>
        <time>2017-08-11T10:23:47Z</time>
      </trkpt>
      <trkpt lat="45.9583" lon="4.76763">
        <ele>190</ele>
        <time>2017-08-11T10:23:48Z</time>
      </trkpt>
      <trkpt lat="45.95829" lon="4.76753">
        <ele>191</ele>
        <time>2017-08-11T10:23:49Z</time>
      </trkpt>
      <trkpt lat="45.95827" lon="4.76744">
        <ele>190</ele>
        <time>2017-08-11T10:23:50Z</time>
      </trkpt>
      <trkpt lat="45.95826" lon="4.76735">
        <ele>190</ele>
        <time>2017-08-11T10:23:51Z</time>
      </trkpt>
      <trkpt lat="45.95825" lon="4.76725">
        <ele>190</ele>
        <time>2017-08-11T10:23:52Z</time>
      </trkpt>
      <trkpt lat="45.95824" lon="4.76716">
        <ele>189</ele>
        <time>2017-08-11T10:23:53Z</time>
      </trkpt>
      <trkpt lat="45.95823" lon="4.76708">
        <ele>189</ele>
        <time>2017-08-11T10:23:54Z</time>
      </trkpt>
      <trkpt lat="45.95822" lon="4.76699">
        <ele>189</ele>
        <time>2017-08-11T10:23:55Z</time>
      </trkpt>
      <trkpt lat="45.9582" lon="4.76691">
        <ele>189</ele>
        <time>2017-08-11T10:23:56Z</time>
      </trkpt>
      <trkpt lat="45.95819" lon="4.76683">
        <ele>189</ele>
        <time>2017-08-11T10:23:57Z</time>
      </trkpt>
      <trkpt lat="45.95818" lon="4.76675">
        <ele>189</ele>
        <time>2017-08-11T10:23:58Z</time>
      </trkpt>
      <trkpt lat="45.95816" lon="4.76668">
        <ele>188</ele>
        <time>2017-08-11T10:23:59Z</time>
      </trkpt>
      <trkpt lat="45.95815" lon="4.7666">
        <ele>188</ele>
        <time>2017-08-11T10:24:00Z</time>
      </trkpt>
      <trkpt lat="45.95814" lon="4.76653">
        <ele>188</ele>
        <time>2017-08-11T10:24:01Z</time>
      </trkpt>
      <trkpt lat="45.95813" lon="4.76645">
        <ele>188</ele>
        <time>2017-08-11T10:24:02Z</time>
      </trkpt>
      <trkpt lat="45.95812" lon="4.76636">
        <ele>188</ele>
        <time>2017-08-11T10:24:03Z</time>
      </trkpt>
      <trkpt lat="45.95811" lon="4.76628">
        <ele>188</ele>
        <time>2017-08-11T10:24:04Z</time>
      </trkpt>
      <trkpt lat="45.9581" lon="4.76619">
        <ele>188</ele>
        <time>2017-08-11T10:24:05Z</time>
      </trkpt>
      <trkpt lat="45.95808" lon="4.7661">
        <ele>188</ele>
        <time>2017-08-11T10:24:06Z</time>
      </trkpt>
      <trkpt lat="45.95808" lon="4.766">
        <ele>188</ele>
        <time>2017-08-11T10:24:07Z</time>
      </trkpt>
      <trkpt lat="45.95806" lon="4.76591">
        <ele>188</ele>
        <time>2017-08-11T10:24:08Z</time>
      </trkpt>
      <trkpt lat="45.95805" lon="4.76583">
        <ele>187</ele>
        <time>2017-08-11T10:24:09Z</time>
      </trkpt>
      <trkpt lat="45.95803" lon="4.76574">
        <ele>187</ele>
        <time>2017-08-11T10:24:10Z</time>
      </trkpt>
      <trkpt lat="45.95801" lon="4.76565">
        <ele>187</ele>
        <time>2017-08-11T10:24:11Z</time>
      </trkpt>
      <trkpt lat="45.958" lon="4.76557">
        <ele>187</ele>
        <time>2017-08-11T10:24:12Z</time>
      </trkpt>
      <trkpt lat="45.95799" lon="4.76549">
        <ele>187</ele>
        <time>2017-08-11T10:24:13Z</time>
      </trkpt>
      <trkpt lat="45.95798" lon="4.76541">
        <ele>187</ele>
        <time>2017-08-11T10:24:14Z</time>
      </trkpt>
      <trkpt lat="45.95797" lon="4.76534">
        <ele>187</ele>
        <time>2017-08-11T10:24:15Z</time>
      </trkpt>
      <trkpt lat="45.95795" lon="4.76525">
        <ele>187</ele>
        <time>2017-08-11T10:24:16Z</time>
      </trkpt>
      <trkpt lat="45.95794" lon="4.76517">
        <ele>187</ele>
        <time>2017-08-11T10:24:17Z</time>
      </trkpt>
      <trkpt lat="45.95793" lon="4.76509">
        <ele>187</ele>
        <time>2017-08-11T10:24:18Z</time>
      </trkpt>
      <trkpt lat="45.95792" lon="4.765">
        <ele>187</ele>
        <time>2017-08-11T10:24:19Z</time>
      </trkpt>
      <trkpt lat="45.9579" lon="4.76491">
        <ele>186</ele>
        <time>2017-08-11T10:24:20Z</time>
      </trkpt>
      <trkpt lat="45.95789" lon="4.76482">
        <ele>186</ele>
        <time>2017-08-11T10:24:21Z</time>
      </trkpt>
      <trkpt lat="45.95787" lon="4.76472">
        <ele>186</ele>
        <time>2017-08-11T10:24:22Z</time>
      </trkpt>
      <trkpt lat="45.95785" lon="4.76462">
        <ele>186</ele>
        <time>2017-08-11T10:24:23Z</time>
      </trkpt>
      <trkpt lat="45.95784" lon="4.76453">
        <ele>186</ele>
        <time>2017-08-11T10:24:24Z</time>
      </trkpt>
      <trkpt lat="45.95783" lon="4.76443">
        <ele>186</ele>
        <time>2017-08-11T10:24:25Z</time>
      </trkpt>
      <trkpt lat="45.95782" lon="4.76434">
        <ele>186</ele>
        <time>2017-08-11T10:24:26Z</time>
      </trkpt>
      <trkpt lat="45.9578" lon="4.76425">
        <ele>186</ele>
        <time>2017-08-11T10:24:27Z</time>
      </trkpt>
      <trkpt lat="45.9578" lon="4.76416">
        <ele>186</ele>
        <time>2017-08-11T10:24:28Z</time>
      </trkpt>
      <trkpt lat="45.95779" lon="4.76407">
        <ele>186</ele>
        <time>2017-08-11T10:24:29Z</time>
      </trkpt>
      <trkpt lat="45.95777" lon="4.76399">
        <ele>186</ele>
        <time>2017-08-11T10:24:30Z</time>
      </trkpt>
      <trkpt lat="45.95777" lon="4.7639">
        <ele>186</ele>
        <time>2017-08-11T10:24:31Z</time>
      </trkpt>
      <trkpt lat="45.95776" lon="4.76382">
        <ele>186</ele>
        <time>2017-08-11T10:24:32Z</time>
      </trkpt>
      <trkpt lat="45.95775" lon="4.76374">
        <ele>186</ele>
        <time>2017-08-11T10:24:33Z</time>
      </trkpt>
      <trkpt lat="45.95774" lon="4.76366">
        <ele>186</ele>
        <time>2017-08-11T10:24:34Z</time>
      </trkpt>
      <trkpt lat="45.95774" lon="4.76358">
        <ele>186</ele>
        <time>2017-08-11T10:24:35Z</time>
      </trkpt>
      <trkpt lat="45.95774" lon="4.76351">
        <ele>186</ele>
        <time>2017-08-11T10:24:36Z</time>
      </trkpt>
      <trkpt lat="45.95773" lon="4.76344">
        <ele>186</ele>
        <time>2017-08-11T10:24:37Z</time>
      </trkpt>
      <trkpt lat="45.95773" lon="4.76336">
        <ele>186</ele>
        <time>2017-08-11T10:24:38Z</time>
      </trkpt>
      <trkpt lat="45.95773" lon="4.76328">
        <ele>185</ele>
        <time>2017-08-11T10:24:39Z</time>
      </trkpt>
      <trkpt lat="45.95772" lon="4.7632">
        <ele>185</ele>
        <time>2017-08-11T10:24:40Z</time>
      </trkpt>
      <trkpt lat="45.95772" lon="4.76311">
        <ele>186</ele>
        <time>2017-08-11T10:24:41Z</time>
      </trkpt>
      <trkpt lat="45.95771" lon="4.76302">
        <ele>186</ele>
        <time>2017-08-11T10:24:42Z</time>
      </trkpt>
      <trkpt lat="45.95771" lon="4.76292">
        <ele>186</ele>
        <time>2017-08-11T10:24:43Z</time>
      </trkpt>
      <trkpt lat="45.95771" lon="4.76283">
        <ele>186</ele>
        <time>2017-08-11T10:24:44Z</time>
      </trkpt>
      <trkpt lat="45.9577" lon="4.76273">
        <ele>186</ele>
        <time>2017-08-11T10:24:45Z</time>
      </trkpt>
      <trkpt lat="45.9577" lon="4.76263">
        <ele>186</ele>
        <time>2017-08-11T10:24:46Z</time>
      </trkpt>
      <trkpt lat="45.95769" lon="4.76253">
        <ele>185</ele>
        <time>2017-08-11T10:24:47Z</time>
      </trkpt>
      <trkpt lat="45.95769" lon="4.76243">
        <ele>186</ele>
        <time>2017-08-11T10:24:48Z</time>
      </trkpt>
      <trkpt lat="45.95768" lon="4.76234">
        <ele>186</ele>
        <time>2017-08-11T10:24:49Z</time>
      </trkpt>
      <trkpt lat="45.95767" lon="4.76225">
        <ele>186</ele>
        <time>2017-08-11T10:24:50Z</time>
      </trkpt>
      <trkpt lat="45.95767" lon="4.76216">
        <ele>186</ele>
        <time>2017-08-11T10:24:51Z</time>
      </trkpt>
      <trkpt lat="45.95766" lon="4.76207">
        <ele>186</ele>
        <time>2017-08-11T10:24:52Z</time>
      </trkpt>
      <trkpt lat="45.95766" lon="4.76199">
        <ele>186</ele>
        <time>2017-08-11T10:24:53Z</time>
      </trkpt>
      <trkpt lat="45.95765" lon="4.7619">
        <ele>186</ele>
        <time>2017-08-11T10:24:54Z</time>
      </trkpt>
      <trkpt lat="45.95765" lon="4.76182">
        <ele>186</ele>
        <time>2017-08-11T10:24:55Z</time>
      </trkpt>
      <trkpt lat="45.95764" lon="4.76174">
        <ele>185</ele>
        <time>2017-08-11T10:24:56Z</time>
      </trkpt>
      <trkpt lat="45.95764" lon="4.76166">
        <ele>186</ele>
        <time>2017-08-11T10:24:57Z</time>
      </trkpt>
      <trkpt lat="45.95763" lon="4.76158">
        <ele>186</ele>
        <time>2017-08-11T10:24:58Z</time>
      </trkpt>
      <trkpt lat="45.95763" lon="4.7615">
        <ele>186</ele>
        <time>2017-08-11T10:24:59Z</time>
      </trkpt>
      <trkpt lat="45.95763" lon="4.76141">
        <ele>186</ele>
        <time>2017-08-11T10:25:00Z</time>
      </trkpt>
      <trkpt lat="45.95762" lon="4.76131">
        <ele>186</ele>
        <time>2017-08-11T10:25:01Z</time>
      </trkpt>
      <trkpt lat="45.95761" lon="4.76121">
        <ele>186</ele>
        <time>2017-08-11T10:25:02Z</time>
      </trkpt>
      <trkpt lat="45.9576" lon="4.76112">
        <ele>186</ele>
        <time>2017-08-11T10:25:03Z</time>
      </trkpt>
      <trkpt lat="45.95758" lon="4.76103">
        <ele>186</ele>
        <time>2017-08-11T10:25:04Z</time>
      </trkpt>
      <trkpt lat="45.95756" lon="4.76094">
        <ele>186</ele>
        <time>2017-08-11T10:25:05Z</time>
      </trkpt>
      <trkpt lat="45.95753" lon="4.76086">
        <ele>185</ele>
        <time>2017-08-11T10:25:06Z</time>
      </trkpt>
      <trkpt lat="45.95751" lon="4.76078">
        <ele>185</ele>
        <time>2017-08-11T10:25:07Z</time>
      </trkpt>
      <trkpt lat="45.95747" lon="4.7607">
        <ele>185</ele>
        <time>2017-08-11T10:25:08Z</time>
      </trkpt>
      <trkpt lat="45.95744" lon="4.76062">
        <ele>185</ele>
        <time>2017-08-11T10:25:09Z</time>
      </trkpt>
      <trkpt lat="45.95741" lon="4.76055">
        <ele>184</ele>
        <time>2017-08-11T10:25:10Z</time>
      </trkpt>
      <trkpt lat="45.95737" lon="4.76047">
        <ele>184</ele>
        <time>2017-08-11T10:25:11Z</time>
      </trkpt>
      <trkpt lat="45.95734" lon="4.7604">
        <ele>184</ele>
        <time>2017-08-11T10:25:12Z</time>
      </trkpt>
      <trkpt lat="45.95731" lon="4.76033">
        <ele>184</ele>
        <time>2017-08-11T10:25:13Z</time>
      </trkpt>
      <trkpt lat="45.95728" lon="4.76026">
        <ele>185</ele>
        <time>2017-08-11T10:25:14Z</time>
      </trkpt>
      <trkpt lat="45.95725" lon="4.76019">
        <ele>185</ele>
        <time>2017-08-11T10:25:15Z</time>
      </trkpt>
      <trkpt lat="45.95721" lon="4.76012">
        <ele>185</ele>
        <time>2017-08-11T10:25:16Z</time>
      </trkpt>
      <trkpt lat="45.95718" lon="4.76005">
        <ele>184</ele>
        <time>2017-08-11T10:25:17Z</time>
      </trkpt>
      <trkpt lat="45.95715" lon="4.75999">
        <ele>185</ele>
        <time>2017-08-11T10:25:18Z</time>
      </trkpt>
      <trkpt lat="45.95712" lon="4.75992">
        <ele>185</ele>
        <time>2017-08-11T10:25:19Z</time>
      </trkpt>
      <trkpt lat="45.95708" lon="4.75985">
        <ele>185</ele>
        <time>2017-08-11T10:25:20Z</time>
      </trkpt>
      <trkpt lat="45.95705" lon="4.75977">
        <ele>185</ele>
        <time>2017-08-11T10:25:21Z</time>
      </trkpt>
      <trkpt lat="45.95701" lon="4.7597">
        <ele>185</ele>
        <time>2017-08-11T10:25:22Z</time>
      </trkpt>
      <trkpt lat="45.95697" lon="4.75962">
        <ele>185</ele>
        <time>2017-08-11T10:25:23Z</time>
      </trkpt>
      <trkpt lat="45.95693" lon="4.75954">
        <ele>185</ele>
        <time>2017-08-11T10:25:24Z</time>
      </trkpt>
      <trkpt lat="45.9569" lon="4.75946">
        <ele>185</ele>
        <time>2017-08-11T10:25:25Z</time>
      </trkpt>
      <trkpt lat="45.95686" lon="4.75938">
        <ele>185</ele>
        <time>2017-08-11T10:25:26Z</time>
      </trkpt>
      <trkpt lat="45.95683" lon="4.7593">
        <ele>185</ele>
        <time>2017-08-11T10:25:27Z</time>
      </trkpt>
      <trkpt lat="45.9568" lon="4.75922">
        <ele>185</ele>
        <time>2017-08-11T10:25:28Z</time>
      </trkpt>
      <trkpt lat="45.95677" lon="4.75915">
        <ele>185</ele>
        <time>2017-08-11T10:25:29Z</time>
      </trkpt>
      <trkpt lat="45.95674" lon="4.75907">
        <ele>185</ele>
        <time>2017-08-11T10:25:30Z</time>
      </trkpt>
      <trkpt lat="45.95672" lon="4.759">
        <ele>185</ele>
        <time>2017-08-11T10:25:31Z</time>
      </trkpt>
      <trkpt lat="45.95669" lon="4.75892">
        <ele>186</ele>
        <time>2017-08-11T10:25:32Z</time>
      </trkpt>
      <trkpt lat="45.95667" lon="4.75884">
        <ele>184</ele>
        <time>2017-08-11T10:25:33Z</time>
      </trkpt>
      <trkpt lat="45.95664" lon="4.75876">
        <ele>184</ele>
        <time>2017-08-11T10:25:34Z</time>
      </trkpt>
      <trkpt lat="45.95661" lon="4.75868">
        <ele>184</ele>
        <time>2017-08-11T10:25:35Z</time>
      </trkpt>
      <trkpt lat="45.95658" lon="4.75859">
        <ele>184</ele>
        <time>2017-08-11T10:25:36Z</time>
      </trkpt>
      <trkpt lat="45.95656" lon="4.7585">
        <ele>185</ele>
        <time>2017-08-11T10:25:37Z</time>
      </trkpt>
      <trkpt lat="45.95654" lon="4.7584">
        <ele>185</ele>
        <time>2017-08-11T10:25:38Z</time>
      </trkpt>
      <trkpt lat="45.95651" lon="4.75831">
        <ele>185</ele>
        <time>2017-08-11T10:25:39Z</time>
      </trkpt>
      <trkpt lat="45.9565" lon="4.75822">
        <ele>185</ele>
        <time>2017-08-11T10:25:40Z</time>
      </trkpt>
      <trkpt lat="45.95648" lon="4.75813">
        <ele>185</ele>
        <time>2017-08-11T10:25:41Z</time>
      </trkpt>
      <trkpt lat="45.95646" lon="4.75805">
        <ele>185</ele>
        <time>2017-08-11T10:25:42Z</time>
      </trkpt>
      <trkpt lat="45.95644" lon="4.75797">
        <ele>185</ele>
        <time>2017-08-11T10:25:43Z</time>
      </trkpt>
      <trkpt lat="45.95643" lon="4.7579">
        <ele>185</ele>
        <time>2017-08-11T10:25:44Z</time>
      </trkpt>
      <trkpt lat="45.95642" lon="4.75783">
        <ele>186</ele>
        <time>2017-08-11T10:25:45Z</time>
      </trkpt>
      <trkpt lat="45.95641" lon="4.75775">
        <ele>186</ele>
        <time>2017-08-11T10:25:46Z</time>
      </trkpt>
      <trkpt lat="45.9564" lon="4.75768">
        <ele>186</ele>
        <time>2017-08-11T10:25:47Z</time>
      </trkpt>
      <trkpt lat="45.95639" lon="4.7576">
        <ele>186</ele>
        <time>2017-08-11T10:25:48Z</time>
      </trkpt>
      <trkpt lat="45.95637" lon="4.75752">
        <ele>186</ele>
        <time>2017-08-11T10:25:49Z</time>
      </trkpt>
      <trkpt lat="45.95636" lon="4.75744">
        <ele>187</ele>
        <time>2017-08-11T10:25:50Z</time>
      </trkpt>
      <trkpt lat="45.95635" lon="4.75736">
        <ele>187</ele>
        <time>2017-08-11T10:25:51Z</time>
      </trkpt>
      <trkpt lat="45.95634" lon="4.75727">
        <ele>187</ele>
        <time>2017-08-11T10:25:52Z</time>
      </trkpt>
      <trkpt lat="45.95634" lon="4.75718">
        <ele>187</ele>
        <time>2017-08-11T10:25:53Z</time>
      </trkpt>
      <trkpt lat="45.95632" lon="4.75709">
        <ele>187</ele>
        <time>2017-08-11T10:25:54Z</time>
      </trkpt>
      <trkpt lat="45.95631" lon="4.75701">
        <ele>187</ele>
        <time>2017-08-11T10:25:55Z</time>
      </trkpt>
      <trkpt lat="45.9563" lon="4.75693">
        <ele>187</ele>
        <time>2017-08-11T10:25:56Z</time>
      </trkpt>
      <trkpt lat="45.95629" lon="4.75685">
        <ele>187</ele>
        <time>2017-08-11T10:25:57Z</time>
      </trkpt>
      <trkpt lat="45.95628" lon="4.75677">
        <ele>187</ele>
        <time>2017-08-11T10:25:58Z</time>
      </trkpt>
      <trkpt lat="45.95626" lon="4.7567">
        <ele>187</ele>
        <time>2017-08-11T10:25:59Z</time>
      </trkpt>
      <trkpt lat="45.95625" lon="4.75663">
        <ele>188</ele>
        <time>2017-08-11T10:26:00Z</time>
      </trkpt>
      <trkpt lat="45.95623" lon="4.75656">
        <ele>188</ele>
        <time>2017-08-11T10:26:01Z</time>
      </trkpt>
      <trkpt lat="45.95622" lon="4.75649">
        <ele>188</ele>
        <time>2017-08-11T10:26:02Z</time>
      </trkpt>
      <trkpt lat="45.9562" lon="4.75642">
        <ele>188</ele>
        <time>2017-08-11T10:26:03Z</time>
      </trkpt>
      <trkpt lat="45.95618" lon="4.75636">
        <ele>188</ele>
        <time>2017-08-11T10:26:04Z</time>
      </trkpt>
      <trkpt lat="45.95615" lon="4.75629">
        <ele>188</ele>
        <time>2017-08-11T10:26:05Z</time>
      </trkpt>
      <trkpt lat="45.95613" lon="4.75622">
        <ele>188</ele>
        <time>2017-08-11T10:26:06Z</time>
      </trkpt>
      <trkpt lat="45.9561" lon="4.75614">
        <ele>188</ele>
        <time>2017-08-11T10:26:07Z</time>
      </trkpt>
      <trkpt lat="45.95608" lon="4.75607">
        <ele>188</ele>
        <time>2017-08-11T10:26:08Z</time>
      </trkpt>
      <trkpt lat="45.95605" lon="4.75599">
        <ele>187</ele>
        <time>2017-08-11T10:26:09Z</time>
      </trkpt>
      <trkpt lat="45.95602" lon="4.75592">
        <ele>187</ele>
        <time>2017-08-11T10:26:10Z</time>
      </trkpt>
      <trkpt lat="45.95599" lon="4.75585">
        <ele>187</ele>
        <time>2017-08-11T10:26:11Z</time>
      </trkpt>
      <trkpt lat="45.95595" lon="4.75578">
        <ele>187</ele>
        <time>2017-08-11T10:26:12Z</time>
      </trkpt>
      <trkpt lat="45.95592" lon="4.75571">
        <ele>188</ele>
        <time>2017-08-11T10:26:13Z</time>
      </trkpt>
      <trkpt lat="45.95588" lon="4.75564">
        <ele>188</ele>
        <time>2017-08-11T10:26:14Z</time>
      </trkpt>
      <trkpt lat="45.95584" lon="4.75557">
        <ele>188</ele>
        <time>2017-08-11T10:26:15Z</time>
      </trkpt>
      <trkpt lat="45.9558" lon="4.75551">
        <ele>186</ele>
        <time>2017-08-11T10:26:16Z</time>
      </trkpt>
      <trkpt lat="45.95576" lon="4.75546">
        <ele>186</ele>
        <time>2017-08-11T10:26:17Z</time>
      </trkpt>
      <trkpt lat="45.95571" lon="4.75542">
        <ele>186</ele>
        <time>2017-08-11T10:26:18Z</time>
      </trkpt>
      <trkpt lat="45.95566" lon="4.75537">
        <ele>186</ele>
        <time>2017-08-11T10:26:19Z</time>
      </trkpt>
      <trkpt lat="45.95561" lon="4.75532">
        <ele>186</ele>
        <time>2017-08-11T10:26:20Z</time>
      </trkpt>
      <trkpt lat="45.95557" lon="4.75526">
        <ele>186</ele>
        <time>2017-08-11T10:26:21Z</time>
      </trkpt>
      <trkpt lat="45.95552" lon="4.75521">
        <ele>186</ele>
        <time>2017-08-11T10:26:22Z</time>
      </trkpt>
      <trkpt lat="45.95548" lon="4.75514">
        <ele>186</ele>
        <time>2017-08-11T10:26:23Z</time>
      </trkpt>
      <trkpt lat="45.95544" lon="4.75508">
        <ele>186</ele>
        <time>2017-08-11T10:26:24Z</time>
      </trkpt>
      <trkpt lat="45.95542" lon="4.75501">
        <ele>186</ele>
        <time>2017-08-11T10:26:25Z</time>
      </trkpt>
      <trkpt lat="45.9554" lon="4.75493">
        <ele>187</ele>
        <time>2017-08-11T10:26:26Z</time>
      </trkpt>
      <trkpt lat="45.9554" lon="4.75485">
        <ele>187</ele>
        <time>2017-08-11T10:26:27Z</time>
      </trkpt>
      <trkpt lat="45.95539" lon="4.75477">
        <ele>187</ele>
        <time>2017-08-11T10:26:28Z</time>
      </trkpt>
      <trkpt lat="45.95538" lon="4.7547">
        <ele>187</ele>
        <time>2017-08-11T10:26:29Z</time>
      </trkpt>
      <trkpt lat="45.95536" lon="4.75462">
        <ele>187</ele>
        <time>2017-08-11T10:26:30Z</time>
      </trkpt>
      <trkpt lat="45.95533" lon="4.75454">
        <ele>187</ele>
        <time>2017-08-11T10:26:31Z</time>
      </trkpt>
      <trkpt lat="45.95528" lon="4.75448">
        <ele>187</ele>
        <time>2017-08-11T10:26:32Z</time>
      </trkpt>
      <trkpt lat="45.95523" lon="4.75441">
        <ele>187</ele>
        <time>2017-08-11T10:26:33Z</time>
      </trkpt>
      <trkpt lat="45.95518" lon="4.75433">
        <ele>187</ele>
        <time>2017-08-11T10:26:34Z</time>
      </trkpt>
      <trkpt lat="45.95515" lon="4.75425">
        <ele>186</ele>
        <time>2017-08-11T10:26:35Z</time>
      </trkpt>
      <trkpt lat="45.95512" lon="4.75417">
        <ele>186</ele>
        <time>2017-08-11T10:26:36Z</time>
      </trkpt>
      <trkpt lat="45.9551" lon="4.7541">
        <ele>187</ele>
        <time>2017-08-11T10:26:37Z</time>
      </trkpt>
      <trkpt lat="45.95508" lon="4.75403">
        <ele>187</ele>
        <time>2017-08-11T10:26:38Z</time>
      </trkpt>
      <trkpt lat="45.95506" lon="4.75396">
        <ele>188</ele>
        <time>2017-08-11T10:26:39Z</time>
      </trkpt>
      <trkpt lat="45.95503" lon="4.7539">
        <ele>188</ele>
        <time>2017-08-11T10:26:40Z</time>
      </trkpt>
      <trkpt lat="45.955" lon="4.75383">
        <ele>185</ele>
        <time>2017-08-11T10:26:41Z</time>
      </trkpt>
      <trkpt lat="45.95497" lon="4.75377">
        <ele>185</ele>
        <time>2017-08-11T10:26:42Z</time>
      </trkpt>
      <trkpt lat="45.95493" lon="4.7537">
        <ele>186</ele>
        <time>2017-08-11T10:26:43Z</time>
      </trkpt>
      <trkpt lat="45.9549" lon="4.75363">
        <ele>186</ele>
        <time>2017-08-11T10:26:44Z</time>
      </trkpt>
      <trkpt lat="45.95488" lon="4.75357">
        <ele>186</ele>
        <time>2017-08-11T10:26:45Z</time>
      </trkpt>
      <trkpt lat="45.95485" lon="4.7535">
        <ele>186</ele>
        <time>2017-08-11T10:26:46Z</time>
      </trkpt>
      <trkpt lat="45.95481" lon="4.75344">
        <ele>186</ele>
        <time>2017-08-11T10:26:47Z</time>
      </trkpt>
      <trkpt lat="45.95478" lon="4.75337">
        <ele>186</ele>
        <time>2017-08-11T10:26:48Z</time>
      </trkpt>
      <trkpt lat="45.95475" lon="4.7533">
        <ele>188</ele>
        <time>2017-08-11T10:26:49Z</time>
      </trkpt>
      <trkpt lat="45.95471" lon="4.75324">
        <ele>188</ele>
        <time>2017-08-11T10:26:50Z</time>
      </trkpt>
      <trkpt lat="45.95468" lon="4.75317">
        <ele>188</ele>
        <time>2017-08-11T10:26:51Z</time>
      </trkpt>
      <trkpt lat="45.95464" lon="4.75311">
        <ele>188</ele>
        <time>2017-08-11T10:26:52Z</time>
      </trkpt>
      <trkpt lat="45.9546" lon="4.75305">
        <ele>188</ele>
        <time>2017-08-11T10:26:53Z</time>
      </trkpt>
      <trkpt lat="45.95457" lon="4.75298">
        <ele>188</ele>
        <time>2017-08-11T10:26:54Z</time>
      </trkpt>
      <trkpt lat="45.95453" lon="4.75292">
        <ele>188</ele>
        <time>2017-08-11T10:26:55Z</time>
      </trkpt>
      <trkpt lat="45.9545" lon="4.75285">
        <ele>188</ele>
        <time>2017-08-11T10:26:56Z</time>
      </trkpt>
      <trkpt lat="45.95446" lon="4.75279">
        <ele>189</ele>
        <time>2017-08-11T10:26:57Z</time>
      </trkpt>
      <trkpt lat="45.95442" lon="4.75273">
        <ele>189</ele>
        <time>2017-08-11T10:26:58Z</time>
      </trkpt>
      <trkpt lat="45.9544" lon="4.75266">
        <ele>189</ele>
        <time>2017-08-11T10:26:59Z</time>
      </trkpt>
      <trkpt lat="45.95436" lon="4.7526">
        <ele>189</ele>
        <time>2017-08-11T10:27:00Z</time>
      </trkpt>
      <trkpt lat="45.95433" lon="4.75253">
        <ele>189</ele>
        <time>2017-08-11T10:27:01Z</time>
      </trkpt>
      <trkpt lat="45.9543" lon="4.75246">
        <ele>190</ele>
        <time>2017-08-11T10:27:02Z</time>
      </trkpt>
      <trkpt lat="45.95427" lon="4.7524">
        <ele>190</ele>
        <time>2017-08-11T10:27:03Z</time>
      </trkpt>
      <trkpt lat="45.95424" lon="4.75233">
        <ele>190</ele>
        <time>2017-08-11T10:27:04Z</time>
      </trkpt>
      <trkpt lat="45.9542" lon="4.75225">
        <ele>191</ele>
        <time>2017-08-11T10:27:05Z</time>
      </trkpt>
      <trkpt lat="45.95415" lon="4.75218">
        <ele>189</ele>
        <time>2017-08-11T10:27:06Z</time>
      </trkpt>
      <trkpt lat="45.95412" lon="4.75213">
        <ele>189</ele>
        <time>2017-08-11T10:27:07Z</time>
      </trkpt>
      <trkpt lat="45.95408" lon="4.75207">
        <ele>189</ele>
        <time>2017-08-11T10:27:08Z</time>
      </trkpt>
      <trkpt lat="45.95404" lon="4.75201">
        <ele>189</ele>
        <time>2017-08-11T10:27:09Z</time>
      </trkpt>
      <trkpt lat="45.95401" lon="4.75195">
        <ele>189</ele>
        <time>2017-08-11T10:27:10Z</time>
      </trkpt>
      <trkpt lat="45.95397" lon="4.75189">
        <ele>189</ele>
        <time>2017-08-11T10:27:11Z</time>
      </trkpt>
      <trkpt lat="45.95394" lon="4.75183">
        <ele>189</ele>
        <time>2017-08-11T10:27:12Z</time>
      </trkpt>
      <trkpt lat="45.9539" lon="4.75176">
        <ele>189</ele>
        <time>2017-08-11T10:27:13Z</time>
      </trkpt>
      <trkpt lat="45.95386" lon="4.7517">
        <ele>189</ele>
        <time>2017-08-11T10:27:14Z</time>
      </trkpt>
      <trkpt lat="45.95383" lon="4.75164">
        <ele>191</ele>
        <time>2017-08-11T10:27:15Z</time>
      </trkpt>
      <trkpt lat="45.95379" lon="4.75157">
        <ele>191</ele>
        <time>2017-08-11T10:27:16Z</time>
      </trkpt>
      <trkpt lat="45.95375" lon="4.75152">
        <ele>191</ele>
        <time>2017-08-11T10:27:17Z</time>
      </trkpt>
      <trkpt lat="45.95372" lon="4.75146">
        <ele>191</ele>
        <time>2017-08-11T10:27:18Z</time>
      </trkpt>
      <trkpt lat="45.95369" lon="4.75141">
        <ele>191</ele>
        <time>2017-08-11T10:27:19Z</time>
      </trkpt>
      <trkpt lat="45.95366" lon="4.75135">
        <ele>191</ele>
        <time>2017-08-11T10:27:20Z</time>
      </trkpt>
      <trkpt lat="45.95362" lon="4.7513">
        <ele>191</ele>
        <time>2017-08-11T10:27:21Z</time>
      </trkpt>
      <trkpt lat="45.95359" lon="4.75125">
        <ele>191</ele>
        <time>2017-08-11T10:27:22Z</time>
      </trkpt>
      <trkpt lat="45.95355" lon="4.7512">
        <ele>191</ele>
        <time>2017-08-11T10:27:23Z</time>
      </trkpt>
      <trkpt lat="45.95351" lon="4.75114">
        <ele>192</ele>
        <time>2017-08-11T10:27:24Z</time>
      </trkpt>
      <trkpt lat="45.95348" lon="4.75108">
        <ele>192</ele>
        <time>2017-08-11T10:27:25Z</time>
      </trkpt>
      <trkpt lat="45.95344" lon="4.75102">
        <ele>192</ele>
        <time>2017-08-11T10:27:26Z</time>
      </trkpt>
      <trkpt lat="45.9534" lon="4.75096">
        <ele>192</ele>
        <time>2017-08-11T10:27:27Z</time>
      </trkpt>
      <trkpt lat="45.95337" lon="4.7509">
        <ele>193</ele>
        <time>2017-08-11T10:27:28Z</time>
      </trkpt>
      <trkpt lat="45.95333" lon="4.75085">
        <ele>193</ele>
        <time>2017-08-11T10:27:29Z</time>
      </trkpt>
      <trkpt lat="45.9533" lon="4.75079">
        <ele>193</ele>
        <time>2017-08-11T10:27:30Z</time>
      </trkpt>
      <trkpt lat="45.95326" lon="4.75074">
        <ele>192</ele>
        <time>2017-08-11T10:27:31Z</time>
      </trkpt>
      <trkpt lat="45.95323" lon="4.75068">
        <ele>192</ele>
        <time>2017-08-11T10:27:32Z</time>
      </trkpt>
      <trkpt lat="45.9532" lon="4.75063">
        <ele>192</ele>
        <time>2017-08-11T10:27:33Z</time>
      </trkpt>
      <trkpt lat="45.95317" lon="4.75058">
        <ele>192</ele>
        <time>2017-08-11T10:27:34Z</time>
      </trkpt>
      <trkpt lat="45.95312" lon="4.75049">
        <ele>192</ele>
        <time>2017-08-11T10:27:36Z</time>
      </trkpt>
      <trkpt lat="45.95309" lon="4.75045">
        <ele>192</ele>
        <time>2017-08-11T10:27:37Z</time>
      </trkpt>
      <trkpt lat="45.95306" lon="4.7504">
        <ele>192</ele>
        <time>2017-08-11T10:27:38Z</time>
      </trkpt>
      <trkpt lat="45.95303" lon="4.75035">
        <ele>192</ele>
        <time>2017-08-11T10:27:39Z</time>
      </trkpt>
      <trkpt lat="45.95299" lon="4.75029">
        <ele>192</ele>
        <time>2017-08-11T10:27:40Z</time>
      </trkpt>
      <trkpt lat="45.95295" lon="4.75024">
        <ele>191</ele>
        <time>2017-08-11T10:27:41Z</time>
      </trkpt>
      <trkpt lat="45.95291" lon="4.75018">
        <ele>191</ele>
        <time>2017-08-11T10:27:42Z</time>
      </trkpt>
      <trkpt lat="45.95288" lon="4.75011">
        <ele>191</ele>
        <time>2017-08-11T10:27:43Z</time>
      </trkpt>
      <trkpt lat="45.95283" lon="4.75005">
        <ele>191</ele>
        <time>2017-08-11T10:27:44Z</time>
      </trkpt>
      <trkpt lat="45.9528" lon="4.75">
        <ele>192</ele>
        <time>2017-08-11T10:27:45Z</time>
      </trkpt>
      <trkpt lat="45.95276" lon="4.74994">
        <ele>192</ele>
        <time>2017-08-11T10:27:46Z</time>
      </trkpt>
      <trkpt lat="45.95273" lon="4.74988">
        <ele>192</ele>
        <time>2017-08-11T10:27:47Z</time>
      </trkpt>
      <trkpt lat="45.95269" lon="4.74983">
        <ele>192</ele>
        <time>2017-08-11T10:27:48Z</time>
      </trkpt>
      <trkpt lat="45.95266" lon="4.74978">
        <ele>192</ele>
        <time>2017-08-11T10:27:49Z</time>
      </trkpt>
      <trkpt lat="45.95263" lon="4.74973">
        <ele>192</ele>
        <time>2017-08-11T10:27:50Z</time>
      </trkpt>
      <trkpt lat="45.95259" lon="4.74967">
        <ele>192</ele>
        <time>2017-08-11T10:27:51Z</time>
      </trkpt>
      <trkpt lat="45.95256" lon="4.74961">
        <ele>192</ele>
        <time>2017-08-11T10:27:52Z</time>
      </trkpt>
      <trkpt lat="45.95252" lon="4.74955">
        <ele>192</ele>
        <time>2017-08-11T10:27:53Z</time>
      </trkpt>
      <trkpt lat="45.95248" lon="4.74949">
        <ele>192</ele>
        <time>2017-08-11T10:27:54Z</time>
      </trkpt>
      <trkpt lat="45.95244" lon="4.74943">
        <ele>192</ele>
        <time>2017-08-11T10:27:55Z</time>
      </trkpt>
      <trkpt lat="45.95241" lon="4.74937">
        <ele>192</ele>
        <time>2017-08-11T10:27:56Z</time>
      </trkpt>
      <trkpt lat="45.95237" lon="4.74931">
        <ele>192</ele>
        <time>2017-08-11T10:27:57Z</time>
      </trkpt>
      <trkpt lat="45.95234" lon="4.74926">
        <ele>192</ele>
        <time>2017-08-11T10:27:58Z</time>
      </trkpt>
      <trkpt lat="45.95231" lon="4.7492">
        <ele>192</ele>
        <time>2017-08-11T10:27:59Z</time>
      </trkpt>
      <trkpt lat="45.95227" lon="4.74915">
        <ele>193</ele>
        <time>2017-08-11T10:28:00Z</time>
      </trkpt>
      <trkpt lat="45.95224" lon="4.7491">
        <ele>193</ele>
        <time>2017-08-11T10:28:01Z</time>
      </trkpt>
      <trkpt lat="45.95221" lon="4.74905">
        <ele>193</ele>
        <time>2017-08-11T10:28:02Z</time>
      </trkpt>
      <trkpt lat="45.95218" lon="4.749">
        <ele>193</ele>
        <time>2017-08-11T10:28:03Z</time>
      </trkpt>
      <trkpt lat="45.95214" lon="4.74895">
        <ele>193</ele>
        <time>2017-08-11T10:28:04Z</time>
      </trkpt>
      <trkpt lat="45.95211" lon="4.74891">
        <ele>193</ele>
        <time>2017-08-11T10:28:05Z</time>
      </trkpt>
      <trkpt lat="45.95208" lon="4.74885">
        <ele>194</ele>
        <time>2017-08-11T10:28:06Z</time>
      </trkpt>
      <trkpt lat="45.95204" lon="4.7488">
        <ele>194</ele>
        <time>2017-08-11T10:28:07Z</time>
      </trkpt>
      <trkpt lat="45.952" lon="4.74872">
        <ele>194</ele>
        <time>2017-08-11T10:28:08Z</time>
      </trkpt>
      <trkpt lat="45.95197" lon="4.74866">
        <ele>194</ele>
        <time>2017-08-11T10:28:09Z</time>
      </trkpt>
      <trkpt lat="45.95193" lon="4.7486">
        <ele>194</ele>
        <time>2017-08-11T10:28:10Z</time>
      </trkpt>
      <trkpt lat="45.95189" lon="4.74854">
        <ele>194</ele>
        <time>2017-08-11T10:28:11Z</time>
      </trkpt>
      <trkpt lat="45.95185" lon="4.74848">
        <ele>194</ele>
        <time>2017-08-11T10:28:12Z</time>
      </trkpt>
      <trkpt lat="45.95181" lon="4.74842">
        <ele>194</ele>
        <time>2017-08-11T10:28:13Z</time>
      </trkpt>
      <trkpt lat="45.95177" lon="4.74836">
        <ele>194</ele>
        <time>2017-08-11T10:28:14Z</time>
      </trkpt>
      <trkpt lat="45.95173" lon="4.7483">
        <ele>194</ele>
        <time>2017-08-11T10:28:15Z</time>
      </trkpt>
      <trkpt lat="45.95169" lon="4.74824">
        <ele>194</ele>
        <time>2017-08-11T10:28:16Z</time>
      </trkpt>
      <trkpt lat="45.95166" lon="4.74818">
        <ele>194</ele>
        <time>2017-08-11T10:28:17Z</time>
      </trkpt>
      <trkpt lat="45.95162" lon="4.74812">
        <ele>194</ele>
        <time>2017-08-11T10:28:18Z</time>
      </trkpt>
      <trkpt lat="45.95158" lon="4.74806">
        <ele>194</ele>
        <time>2017-08-11T10:28:19Z</time>
      </trkpt>
      <trkpt lat="45.95155" lon="4.748">
        <ele>194</ele>
        <time>2017-08-11T10:28:20Z</time>
      </trkpt>
      <trkpt lat="45.95152" lon="4.74795">
        <ele>194</ele>
        <time>2017-08-11T10:28:21Z</time>
      </trkpt>
      <trkpt lat="45.95148" lon="4.7479">
        <ele>194</ele>
        <time>2017-08-11T10:28:22Z</time>
      </trkpt>
      <trkpt lat="45.95144" lon="4.74785">
        <ele>194</ele>
        <time>2017-08-11T10:28:23Z</time>
      </trkpt>
      <trkpt lat="45.9514" lon="4.74779">
        <ele>194</ele>
        <time>2017-08-11T10:28:24Z</time>
      </trkpt>
      <trkpt lat="45.95137" lon="4.74774">
        <ele>194</ele>
        <time>2017-08-11T10:28:25Z</time>
      </trkpt>
      <trkpt lat="45.95133" lon="4.74768">
        <ele>194</ele>
        <time>2017-08-11T10:28:26Z</time>
      </trkpt>
      <trkpt lat="45.95129" lon="4.74761">
        <ele>194</ele>
        <time>2017-08-11T10:28:27Z</time>
      </trkpt>
      <trkpt lat="45.95125" lon="4.74754">
        <ele>194</ele>
        <time>2017-08-11T10:28:28Z</time>
      </trkpt>
      <trkpt lat="45.95121" lon="4.74747">
        <ele>194</ele>
        <time>2017-08-11T10:28:29Z</time>
      </trkpt>
      <trkpt lat="45.95116" lon="4.74739">
        <ele>194</ele>
        <time>2017-08-11T10:28:30Z</time>
      </trkpt>
      <trkpt lat="45.95112" lon="4.74732">
        <ele>194</ele>
        <time>2017-08-11T10:28:31Z</time>
      </trkpt>
      <trkpt lat="45.95108" lon="4.74724">
        <ele>194</ele>
        <time>2017-08-11T10:28:32Z</time>
      </trkpt>
      <trkpt lat="45.95103" lon="4.74716">
        <ele>194</ele>
        <time>2017-08-11T10:28:33Z</time>
      </trkpt>
      <trkpt lat="45.95099" lon="4.74708">
        <ele>194</ele>
        <time>2017-08-11T10:28:34Z</time>
      </trkpt>
      <trkpt lat="45.95094" lon="4.74701">
        <ele>194</ele>
        <time>2017-08-11T10:28:35Z</time>
      </trkpt>
      <trkpt lat="45.9509" lon="4.74694">
        <ele>194</ele>
        <time>2017-08-11T10:28:36Z</time>
      </trkpt>
      <trkpt lat="45.95085" lon="4.74687">
        <ele>195</ele>
        <time>2017-08-11T10:28:37Z</time>
      </trkpt>
      <trkpt lat="45.95081" lon="4.7468">
        <ele>194</ele>
        <time>2017-08-11T10:28:38Z</time>
      </trkpt>
      <trkpt lat="45.95077" lon="4.74672">
        <ele>195</ele>
        <time>2017-08-11T10:28:39Z</time>
      </trkpt>
      <trkpt lat="45.95073" lon="4.74665">
        <ele>195</ele>
        <time>2017-08-11T10:28:40Z</time>
      </trkpt>
      <trkpt lat="45.95069" lon="4.74659">
        <ele>195</ele>
        <time>2017-08-11T10:28:41Z</time>
      </trkpt>
      <trkpt lat="45.95065" lon="4.74652">
        <ele>195</ele>
        <time>2017-08-11T10:28:42Z</time>
      </trkpt>
      <trkpt lat="45.95062" lon="4.74646">
        <ele>194</ele>
        <time>2017-08-11T10:28:43Z</time>
      </trkpt>
      <trkpt lat="45.95058" lon="4.7464">
        <ele>194</ele>
        <time>2017-08-11T10:28:44Z</time>
      </trkpt>
      <trkpt lat="45.95054" lon="4.74634">
        <ele>194</ele>
        <time>2017-08-11T10:28:45Z</time>
      </trkpt>
      <trkpt lat="45.95051" lon="4.74628">
        <ele>194</ele>
        <time>2017-08-11T10:28:46Z</time>
      </trkpt>
      <trkpt lat="45.95047" lon="4.74622">
        <ele>194</ele>
        <time>2017-08-11T10:28:47Z</time>
      </trkpt>
      <trkpt lat="45.95044" lon="4.74615">
        <ele>194</ele>
        <time>2017-08-11T10:28:48Z</time>
      </trkpt>
      <trkpt lat="45.9504" lon="4.74608">
        <ele>194</ele>
        <time>2017-08-11T10:28:49Z</time>
      </trkpt>
      <trkpt lat="45.95036" lon="4.74601">
        <ele>194</ele>
        <time>2017-08-11T10:28:50Z</time>
      </trkpt>
      <trkpt lat="45.95033" lon="4.74594">
        <ele>194</ele>
        <time>2017-08-11T10:28:51Z</time>
      </trkpt>
      <trkpt lat="45.95029" lon="4.74587">
        <ele>194</ele>
        <time>2017-08-11T10:28:52Z</time>
      </trkpt>
      <trkpt lat="45.95025" lon="4.74581">
        <ele>194</ele>
        <time>2017-08-11T10:28:53Z</time>
      </trkpt>
      <trkpt lat="45.95022" lon="4.74574">
        <ele>194</ele>
        <time>2017-08-11T10:28:54Z</time>
      </trkpt>
      <trkpt lat="45.95019" lon="4.74568">
        <ele>194</ele>
        <time>2017-08-11T10:28:55Z</time>
      </trkpt>
      <trkpt lat="45.95015" lon="4.74561">
        <ele>194</ele>
        <time>2017-08-11T10:28:56Z</time>
      </trkpt>
      <trkpt lat="45.95012" lon="4.74555">
        <ele>194</ele>
        <time>2017-08-11T10:28:57Z</time>
      </trkpt>
      <trkpt lat="45.95008" lon="4.74548">
        <ele>194</ele>
        <time>2017-08-11T10:28:58Z</time>
      </trkpt>
      <trkpt lat="45.95005" lon="4.74541">
        <ele>194</ele>
        <time>2017-08-11T10:28:59Z</time>
      </trkpt>
      <trkpt lat="45.95001" lon="4.74534">
        <ele>194</ele>
        <time>2017-08-11T10:29:00Z</time>
      </trkpt>
      <trkpt lat="45.94997" lon="4.74526">
        <ele>193</ele>
        <time>2017-08-11T10:29:01Z</time>
      </trkpt>
      <trkpt lat="45.94993" lon="4.74519">
        <ele>193</ele>
        <time>2017-08-11T10:29:02Z</time>
      </trkpt>
      <trkpt lat="45.94989" lon="4.74512">
        <ele>193</ele>
        <time>2017-08-11T10:29:03Z</time>
      </trkpt>
      <trkpt lat="45.94985" lon="4.74504">
        <ele>193</ele>
        <time>2017-08-11T10:29:04Z</time>
      </trkpt>
      <trkpt lat="45.94981" lon="4.74497">
        <ele>193</ele>
        <time>2017-08-11T10:29:05Z</time>
      </trkpt>
      <trkpt lat="45.94977" lon="4.74489">
        <ele>193</ele>
        <time>2017-08-11T10:29:06Z</time>
      </trkpt>
      <trkpt lat="45.94974" lon="4.74482">
        <ele>193</ele>
        <time>2017-08-11T10:29:07Z</time>
      </trkpt>
      <trkpt lat="45.9497" lon="4.74474">
        <ele>193</ele>
        <time>2017-08-11T10:29:08Z</time>
      </trkpt>
      <trkpt lat="45.94966" lon="4.74467">
        <ele>193</ele>
        <time>2017-08-11T10:29:09Z</time>
      </trkpt>
      <trkpt lat="45.94963" lon="4.7446">
        <ele>193</ele>
        <time>2017-08-11T10:29:10Z</time>
      </trkpt>
      <trkpt lat="45.9496" lon="4.74453">
        <ele>192</ele>
        <time>2017-08-11T10:29:11Z</time>
      </trkpt>
      <trkpt lat="45.94956" lon="4.74446">
        <ele>192</ele>
        <time>2017-08-11T10:29:12Z</time>
      </trkpt>
      <trkpt lat="45.94953" lon="4.74439">
        <ele>192</ele>
        <time>2017-08-11T10:29:13Z</time>
      </trkpt>
      <trkpt lat="45.94949" lon="4.74432">
        <ele>192</ele>
        <time>2017-08-11T10:29:14Z</time>
      </trkpt>
      <trkpt lat="45.94946" lon="4.74426">
        <ele>192</ele>
        <time>2017-08-11T10:29:15Z</time>
      </trkpt>
      <trkpt lat="45.94943" lon="4.74419">
        <ele>192</ele>
        <time>2017-08-11T10:29:16Z</time>
      </trkpt>
      <trkpt lat="45.9494" lon="4.74413">
        <ele>192</ele>
        <time>2017-08-11T10:29:17Z</time>
      </trkpt>
      <trkpt lat="45.94937" lon="4.74406">
        <ele>192</ele>
        <time>2017-08-11T10:29:18Z</time>
      </trkpt>
      <trkpt lat="45.94933" lon="4.744">
        <ele>192</ele>
        <time>2017-08-11T10:29:19Z</time>
      </trkpt>
      <trkpt lat="45.9493" lon="4.74393">
        <ele>192</ele>
        <time>2017-08-11T10:29:20Z</time>
      </trkpt>
      <trkpt lat="45.94926" lon="4.74387">
        <ele>192</ele>
        <time>2017-08-11T10:29:21Z</time>
      </trkpt>
      <trkpt lat="45.94923" lon="4.7438">
        <ele>192</ele>
        <time>2017-08-11T10:29:22Z</time>
      </trkpt>
      <trkpt lat="45.94919" lon="4.74373">
        <ele>192</ele>
        <time>2017-08-11T10:29:23Z</time>
      </trkpt>
      <trkpt lat="45.94916" lon="4.74366">
        <ele>191</ele>
        <time>2017-08-11T10:29:24Z</time>
      </trkpt>
      <trkpt lat="45.94913" lon="4.74358">
        <ele>191</ele>
        <time>2017-08-11T10:29:25Z</time>
      </trkpt>
      <trkpt lat="45.94909" lon="4.7435">
        <ele>191</ele>
        <time>2017-08-11T10:29:26Z</time>
      </trkpt>
      <trkpt lat="45.94905" lon="4.74343">
        <ele>191</ele>
        <time>2017-08-11T10:29:27Z</time>
      </trkpt>
      <trkpt lat="45.949" lon="4.74335">
        <ele>191</ele>
        <time>2017-08-11T10:29:28Z</time>
      </trkpt>
      <trkpt lat="45.94896" lon="4.74328">
        <ele>191</ele>
        <time>2017-08-11T10:29:29Z</time>
      </trkpt>
      <trkpt lat="45.94892" lon="4.74321">
        <ele>191</ele>
        <time>2017-08-11T10:29:30Z</time>
      </trkpt>
      <trkpt lat="45.94889" lon="4.74314">
        <ele>191</ele>
        <time>2017-08-11T10:29:31Z</time>
      </trkpt>
      <trkpt lat="45.94885" lon="4.74307">
        <ele>191</ele>
        <time>2017-08-11T10:29:32Z</time>
      </trkpt>
      <trkpt lat="45.94881" lon="4.743">
        <ele>191</ele>
        <time>2017-08-11T10:29:33Z</time>
      </trkpt>
      <trkpt lat="45.94877" lon="4.74293">
        <ele>191</ele>
        <time>2017-08-11T10:29:34Z</time>
      </trkpt>
      <trkpt lat="45.94873" lon="4.74287">
        <ele>191</ele>
        <time>2017-08-11T10:29:35Z</time>
      </trkpt>
      <trkpt lat="45.9487" lon="4.7428">
        <ele>191</ele>
        <time>2017-08-11T10:29:36Z</time>
      </trkpt>
      <trkpt lat="45.94865" lon="4.74273">
        <ele>190</ele>
        <time>2017-08-11T10:29:37Z</time>
      </trkpt>
      <trkpt lat="45.94861" lon="4.74265">
        <ele>190</ele>
        <time>2017-08-11T10:29:38Z</time>
      </trkpt>
      <trkpt lat="45.94857" lon="4.74257">
        <ele>190</ele>
        <time>2017-08-11T10:29:39Z</time>
      </trkpt>
      <trkpt lat="45.94853" lon="4.74249">
        <ele>190</ele>
        <time>2017-08-11T10:29:40Z</time>
      </trkpt>
      <trkpt lat="45.94849" lon="4.74241">
        <ele>190</ele>
        <time>2017-08-11T10:29:41Z</time>
      </trkpt>
      <trkpt lat="45.94845" lon="4.74233">
        <ele>190</ele>
        <time>2017-08-11T10:29:42Z</time>
      </trkpt>
      <trkpt lat="45.9484" lon="4.74225">
        <ele>190</ele>
        <time>2017-08-11T10:29:43Z</time>
      </trkpt>
      <trkpt lat="45.94836" lon="4.74217">
        <ele>190</ele>
        <time>2017-08-11T10:29:44Z</time>
      </trkpt>
      <trkpt lat="45.94832" lon="4.7421">
        <ele>189</ele>
        <time>2017-08-11T10:29:45Z</time>
      </trkpt>
      <trkpt lat="45.94828" lon="4.74202">
        <ele>189</ele>
        <time>2017-08-11T10:29:46Z</time>
      </trkpt>
      <trkpt lat="45.94825" lon="4.74196">
        <ele>189</ele>
        <time>2017-08-11T10:29:47Z</time>
      </trkpt>
      <trkpt lat="45.94821" lon="4.74189">
        <ele>189</ele>
        <time>2017-08-11T10:29:48Z</time>
      </trkpt>
      <trkpt lat="45.94818" lon="4.74182">
        <ele>189</ele>
        <time>2017-08-11T10:29:49Z</time>
      </trkpt>
      <trkpt lat="45.94814" lon="4.74176">
        <ele>189</ele>
        <time>2017-08-11T10:29:50Z</time>
      </trkpt>
      <trkpt lat="45.9481" lon="4.7417">
        <ele>189</ele>
        <time>2017-08-11T10:29:51Z</time>
      </trkpt>
      <trkpt lat="45.94806" lon="4.74163">
        <ele>189</ele>
        <time>2017-08-11T10:29:52Z</time>
      </trkpt>
      <trkpt lat="45.94802" lon="4.74157">
        <ele>189</ele>
        <time>2017-08-11T10:29:53Z</time>
      </trkpt>
      <trkpt lat="45.94799" lon="4.7415">
        <ele>189</ele>
        <time>2017-08-11T10:29:54Z</time>
      </trkpt>
      <trkpt lat="45.94795" lon="4.74143">
        <ele>189</ele>
        <time>2017-08-11T10:29:55Z</time>
      </trkpt>
      <trkpt lat="45.9479" lon="4.74136">
        <ele>189</ele>
        <time>2017-08-11T10:29:56Z</time>
      </trkpt>
      <trkpt lat="45.94786" lon="4.74129">
        <ele>189</ele>
        <time>2017-08-11T10:29:57Z</time>
      </trkpt>
      <trkpt lat="45.94782" lon="4.74123">
        <ele>189</ele>
        <time>2017-08-11T10:29:58Z</time>
      </trkpt>
      <trkpt lat="45.94778" lon="4.74117">
        <ele>189</ele>
        <time>2017-08-11T10:29:59Z</time>
      </trkpt>
      <trkpt lat="45.94774" lon="4.74111">
        <ele>189</ele>
        <time>2017-08-11T10:30:00Z</time>
      </trkpt>
      <trkpt lat="45.9477" lon="4.74104">
        <ele>189</ele>
        <time>2017-08-11T10:30:01Z</time>
      </trkpt>
      <trkpt lat="45.94766" lon="4.74098">
        <ele>189</ele>
        <time>2017-08-11T10:30:02Z</time>
      </trkpt>
      <trkpt lat="45.94762" lon="4.74092">
        <ele>189</ele>
        <time>2017-08-11T10:30:03Z</time>
      </trkpt>
      <trkpt lat="45.94758" lon="4.74087">
        <ele>189</ele>
        <time>2017-08-11T10:30:04Z</time>
      </trkpt>
      <trkpt lat="45.94754" lon="4.74081">
        <ele>189</ele>
        <time>2017-08-11T10:30:05Z</time>
      </trkpt>
      <trkpt lat="45.9475" lon="4.74076">
        <ele>189</ele>
        <time>2017-08-11T10:30:06Z</time>
      </trkpt>
      <trkpt lat="45.94745" lon="4.7407">
        <ele>188</ele>
        <time>2017-08-11T10:30:07Z</time>
      </trkpt>
      <trkpt lat="45.94741" lon="4.74064">
        <ele>188</ele>
        <time>2017-08-11T10:30:08Z</time>
      </trkpt>
      <trkpt lat="45.94736" lon="4.74058">
        <ele>188</ele>
        <time>2017-08-11T10:30:09Z</time>
      </trkpt>
      <trkpt lat="45.94731" lon="4.74051">
        <ele>188</ele>
        <time>2017-08-11T10:30:10Z</time>
      </trkpt>
      <trkpt lat="45.94727" lon="4.74045">
        <ele>188</ele>
        <time>2017-08-11T10:30:11Z</time>
      </trkpt>
      <trkpt lat="45.94722" lon="4.74039">
        <ele>187</ele>
        <time>2017-08-11T10:30:12Z</time>
      </trkpt>
      <trkpt lat="45.94717" lon="4.74033">
        <ele>187</ele>
        <time>2017-08-11T10:30:13Z</time>
      </trkpt>
      <trkpt lat="45.94712" lon="4.74027">
        <ele>187</ele>
        <time>2017-08-11T10:30:14Z</time>
      </trkpt>
      <trkpt lat="45.94708" lon="4.74022">
        <ele>187</ele>
        <time>2017-08-11T10:30:15Z</time>
      </trkpt>
      <trkpt lat="45.94704" lon="4.74016">
        <ele>187</ele>
        <time>2017-08-11T10:30:16Z</time>
      </trkpt>
      <trkpt lat="45.94699" lon="4.7401">
        <ele>187</ele>
        <time>2017-08-11T10:30:17Z</time>
      </trkpt>
      <trkpt lat="45.94695" lon="4.74005">
        <ele>187</ele>
        <time>2017-08-11T10:30:18Z</time>
      </trkpt>
      <trkpt lat="45.94691" lon="4.73999">
        <ele>187</ele>
        <time>2017-08-11T10:30:19Z</time>
      </trkpt>
      <trkpt lat="45.94687" lon="4.73994">
        <ele>187</ele>
        <time>2017-08-11T10:30:20Z</time>
      </trkpt>
      <trkpt lat="45.94683" lon="4.73989">
        <ele>187</ele>
        <time>2017-08-11T10:30:21Z</time>
      </trkpt>
      <trkpt lat="45.94679" lon="4.73983">
        <ele>187</ele>
        <time>2017-08-11T10:30:22Z</time>
      </trkpt>
      <trkpt lat="45.94675" lon="4.73977">
        <ele>187</ele>
        <time>2017-08-11T10:30:23Z</time>
      </trkpt>
      <trkpt lat="45.94671" lon="4.73971">
        <ele>187</ele>
        <time>2017-08-11T10:30:24Z</time>
      </trkpt>
      <trkpt lat="45.94666" lon="4.73965">
        <ele>187</ele>
        <time>2017-08-11T10:30:25Z</time>
      </trkpt>
      <trkpt lat="45.94662" lon="4.73958">
        <ele>187</ele>
        <time>2017-08-11T10:30:26Z</time>
      </trkpt>
      <trkpt lat="45.94657" lon="4.73952">
        <ele>187</ele>
        <time>2017-08-11T10:30:27Z</time>
      </trkpt>
      <trkpt lat="45.94652" lon="4.73946">
        <ele>187</ele>
        <time>2017-08-11T10:30:28Z</time>
      </trkpt>
      <trkpt lat="45.94648" lon="4.73939">
        <ele>187</ele>
        <time>2017-08-11T10:30:29Z</time>
      </trkpt>
      <trkpt lat="45.94644" lon="4.73933">
        <ele>187</ele>
        <time>2017-08-11T10:30:30Z</time>
      </trkpt>
      <trkpt lat="45.94639" lon="4.73928">
        <ele>187</ele>
        <time>2017-08-11T10:30:31Z</time>
      </trkpt>
      <trkpt lat="45.94635" lon="4.73922">
        <ele>187</ele>
        <time>2017-08-11T10:30:32Z</time>
      </trkpt>
      <trkpt lat="45.9463" lon="4.73917">
        <ele>187</ele>
        <time>2017-08-11T10:30:33Z</time>
      </trkpt>
      <trkpt lat="45.94626" lon="4.73911">
        <ele>187</ele>
        <time>2017-08-11T10:30:34Z</time>
      </trkpt>
      <trkpt lat="45.94622" lon="4.73905">
        <ele>187</ele>
        <time>2017-08-11T10:30:35Z</time>
      </trkpt>
      <trkpt lat="45.94618" lon="4.73899">
        <ele>187</ele>
        <time>2017-08-11T10:30:36Z</time>
      </trkpt>
      <trkpt lat="45.94613" lon="4.73893">
        <ele>187</ele>
        <time>2017-08-11T10:30:37Z</time>
      </trkpt>
      <trkpt lat="45.94609" lon="4.73888">
        <ele>187</ele>
        <time>2017-08-11T10:30:38Z</time>
      </trkpt>
      <trkpt lat="45.94604" lon="4.73882">
        <ele>187</ele>
        <time>2017-08-11T10:30:39Z</time>
      </trkpt>
      <trkpt lat="45.946" lon="4.73877">
        <ele>187</ele>
        <time>2017-08-11T10:30:40Z</time>
      </trkpt>
      <trkpt lat="45.94595" lon="4.73872">
        <ele>187</ele>
        <time>2017-08-11T10:30:41Z</time>
      </trkpt>
      <trkpt lat="45.9459" lon="4.73867">
        <ele>187</ele>
        <time>2017-08-11T10:30:42Z</time>
      </trkpt>
      <trkpt lat="45.94585" lon="4.73861">
        <ele>187</ele>
        <time>2017-08-11T10:30:43Z</time>
      </trkpt>
      <trkpt lat="45.94579" lon="4.73856">
        <ele>186</ele>
        <time>2017-08-11T10:30:44Z</time>
      </trkpt>
      <trkpt lat="45.94574" lon="4.73851">
        <ele>186</ele>
        <time>2017-08-11T10:30:45Z</time>
      </trkpt>
      <trkpt lat="45.94569" lon="4.73846">
        <ele>186</ele>
        <time>2017-08-11T10:30:46Z</time>
      </trkpt>
      <trkpt lat="45.94564" lon="4.73841">
        <ele>186</ele>
        <time>2017-08-11T10:30:47Z</time>
      </trkpt>
      <trkpt lat="45.94559" lon="4.73835">
        <ele>186</ele>
        <time>2017-08-11T10:30:48Z</time>
      </trkpt>
      <trkpt lat="45.94554" lon="4.73831">
        <ele>186</ele>
        <time>2017-08-11T10:30:49Z</time>
      </trkpt>
      <trkpt lat="45.94549" lon="4.73826">
        <ele>186</ele>
        <time>2017-08-11T10:30:50Z</time>
      </trkpt>
      <trkpt lat="45.94544" lon="4.73821">
        <ele>186</ele>
        <time>2017-08-11T10:30:51Z</time>
      </trkpt>
      <trkpt lat="45.94539" lon="4.73816">
        <ele>186</ele>
        <time>2017-08-11T10:30:52Z</time>
      </trkpt>
      <trkpt lat="45.94535" lon="4.73811">
        <ele>186</ele>
        <time>2017-08-11T10:30:53Z</time>
      </trkpt>
      <trkpt lat="45.94531" lon="4.73806">
        <ele>186</ele>
        <time>2017-08-11T10:30:54Z</time>
      </trkpt>
      <trkpt lat="45.94526" lon="4.73801">
        <ele>186</ele>
        <time>2017-08-11T10:30:55Z</time>
      </trkpt>
      <trkpt lat="45.94521" lon="4.73796">
        <ele>186</ele>
        <time>2017-08-11T10:30:56Z</time>
      </trkpt>
      <trkpt lat="45.94516" lon="4.73791">
        <ele>186</ele>
        <time>2017-08-11T10:30:57Z</time>
      </trkpt>
      <trkpt lat="45.94512" lon="4.73787">
        <ele>186</ele>
        <time>2017-08-11T10:30:58Z</time>
      </trkpt>
      <trkpt lat="45.94507" lon="4.73781">
        <ele>186</ele>
        <time>2017-08-11T10:30:59Z</time>
      </trkpt>
      <trkpt lat="45.94503" lon="4.73776">
        <ele>186</ele>
        <time>2017-08-11T10:31:00Z</time>
      </trkpt>
      <trkpt lat="45.94498" lon="4.7377">
        <ele>186</ele>
        <time>2017-08-11T10:31:01Z</time>
      </trkpt>
      <trkpt lat="45.94495" lon="4.73764">
        <ele>186</ele>
        <time>2017-08-11T10:31:02Z</time>
      </trkpt>
      <trkpt lat="45.94492" lon="4.73758">
        <ele>186</ele>
        <time>2017-08-11T10:31:03Z</time>
      </trkpt>
      <trkpt lat="45.9449" lon="4.73751">
        <ele>186</ele>
        <time>2017-08-11T10:31:04Z</time>
      </trkpt>
      <trkpt lat="45.94489" lon="4.73744">
        <ele>186</ele>
        <time>2017-08-11T10:31:05Z</time>
      </trkpt>
      <trkpt lat="45.9449" lon="4.73736">
        <ele>186</ele>
        <time>2017-08-11T10:31:06Z</time>
      </trkpt>
      <trkpt lat="45.94491" lon="4.73728">
        <ele>186</ele>
        <time>2017-08-11T10:31:07Z</time>
      </trkpt>
      <trkpt lat="45.94492" lon="4.7372">
        <ele>186</ele>
        <time>2017-08-11T10:31:08Z</time>
      </trkpt>
      <trkpt lat="45.94493" lon="4.73712">
        <ele>186</ele>
        <time>2017-08-11T10:31:09Z</time>
      </trkpt>
      <trkpt lat="45.94494" lon="4.73702">
        <ele>186</ele>
        <time>2017-08-11T10:31:10Z</time>
      </trkpt>
      <trkpt lat="45.94495" lon="4.73692">
        <ele>186</ele>
        <time>2017-08-11T10:31:11Z</time>
      </trkpt>
      <trkpt lat="45.94496" lon="4.73682">
        <ele>185</ele>
        <time>2017-08-11T10:31:12Z</time>
      </trkpt>
      <trkpt lat="45.94497" lon="4.73673">
        <ele>185</ele>
        <time>2017-08-11T10:31:13Z</time>
      </trkpt>
      <trkpt lat="45.94498" lon="4.73664">
        <ele>185</ele>
        <time>2017-08-11T10:31:14Z</time>
      </trkpt>
      <trkpt lat="45.94499" lon="4.73656">
        <ele>185</ele>
        <time>2017-08-11T10:31:15Z</time>
      </trkpt>
      <trkpt lat="45.945" lon="4.73647">
        <ele>184</ele>
        <time>2017-08-11T10:31:16Z</time>
      </trkpt>
      <trkpt lat="45.94501" lon="4.73638">
        <ele>184</ele>
        <time>2017-08-11T10:31:17Z</time>
      </trkpt>
      <trkpt lat="45.94502" lon="4.7363">
        <ele>184</ele>
        <time>2017-08-11T10:31:18Z</time>
      </trkpt>
      <trkpt lat="45.94503" lon="4.73622">
        <ele>184</ele>
        <time>2017-08-11T10:31:19Z</time>
      </trkpt>
      <trkpt lat="45.94503" lon="4.73613">
        <ele>184</ele>
        <time>2017-08-11T10:31:20Z</time>
      </trkpt>
      <trkpt lat="45.94503" lon="4.73605">
        <ele>184</ele>
        <time>2017-08-11T10:31:21Z</time>
      </trkpt>
      <trkpt lat="45.94504" lon="4.73596">
        <ele>184</ele>
        <time>2017-08-11T10:31:22Z</time>
      </trkpt>
      <trkpt lat="45.94505" lon="4.73587">
        <ele>185</ele>
        <time>2017-08-11T10:31:23Z</time>
      </trkpt>
      <trkpt lat="45.94506" lon="4.73578">
        <ele>184</ele>
        <time>2017-08-11T10:31:24Z</time>
      </trkpt>
      <trkpt lat="45.94506" lon="4.73569">
        <ele>184</ele>
        <time>2017-08-11T10:31:25Z</time>
      </trkpt>
      <trkpt lat="45.94507" lon="4.7356">
        <ele>184</ele>
        <time>2017-08-11T10:31:26Z</time>
      </trkpt>
      <trkpt lat="45.94507" lon="4.7355">
        <ele>183</ele>
        <time>2017-08-11T10:31:27Z</time>
      </trkpt>
      <trkpt lat="45.94507" lon="4.7354">
        <ele>183</ele>
        <time>2017-08-11T10:31:28Z</time>
      </trkpt>
      <trkpt lat="45.94508" lon="4.7353">
        <ele>183</ele>
        <time>2017-08-11T10:31:29Z</time>
      </trkpt>
      <trkpt lat="45.94508" lon="4.7352">
        <ele>183</ele>
        <time>2017-08-11T10:31:30Z</time>
      </trkpt>
      <trkpt lat="45.94508" lon="4.73509">
        <ele>183</ele>
        <time>2017-08-11T10:31:31Z</time>
      </trkpt>
      <trkpt lat="45.94508" lon="4.73499">
        <ele>182</ele>
        <time>2017-08-11T10:31:32Z</time>
      </trkpt>
      <trkpt lat="45.94508" lon="4.73488">
        <ele>182</ele>
        <time>2017-08-11T10:31:33Z</time>
      </trkpt>
      <trkpt lat="45.94508" lon="4.73478">
        <ele>182</ele>
        <time>2017-08-11T10:31:34Z</time>
      </trkpt>
      <trkpt lat="45.94508" lon="4.73467">
        <ele>181</ele>
        <time>2017-08-11T10:31:35Z</time>
      </trkpt>
      <trkpt lat="45.94508" lon="4.73457">
        <ele>181</ele>
        <time>2017-08-11T10:31:36Z</time>
      </trkpt>
      <trkpt lat="45.94507" lon="4.73446">
        <ele>181</ele>
        <time>2017-08-11T10:31:37Z</time>
      </trkpt>
      <trkpt lat="45.94507" lon="4.73435">
        <ele>181</ele>
        <time>2017-08-11T10:31:38Z</time>
      </trkpt>
      <trkpt lat="45.94506" lon="4.73424">
        <ele>180</ele>
        <time>2017-08-11T10:31:39Z</time>
      </trkpt>
      <trkpt lat="45.94506" lon="4.73413">
        <ele>180</ele>
        <time>2017-08-11T10:31:40Z</time>
      </trkpt>
      <trkpt lat="45.94505" lon="4.73402">
        <ele>179</ele>
        <time>2017-08-11T10:31:41Z</time>
      </trkpt>
      <trkpt lat="45.94504" lon="4.73391">
        <ele>179</ele>
        <time>2017-08-11T10:31:42Z</time>
      </trkpt>
      <trkpt lat="45.94503" lon="4.7338">
        <ele>178</ele>
        <time>2017-08-11T10:31:43Z</time>
      </trkpt>
      <trkpt lat="45.945" lon="4.73369">
        <ele>178</ele>
        <time>2017-08-11T10:31:44Z</time>
      </trkpt>
      <trkpt lat="45.94499" lon="4.73357">
        <ele>178</ele>
        <time>2017-08-11T10:31:45Z</time>
      </trkpt>
      <trkpt lat="45.94498" lon="4.73345">
        <ele>178</ele>
        <time>2017-08-11T10:31:46Z</time>
      </trkpt>
      <trkpt lat="45.94497" lon="4.73334">
        <ele>177</ele>
        <time>2017-08-11T10:31:47Z</time>
      </trkpt>
      <trkpt lat="45.94496" lon="4.73323">
        <ele>177</ele>
        <time>2017-08-11T10:31:48Z</time>
      </trkpt>
      <trkpt lat="45.94495" lon="4.73311">
        <ele>177</ele>
        <time>2017-08-11T10:31:49Z</time>
      </trkpt>
      <trkpt lat="45.94493" lon="4.733">
        <ele>177</ele>
        <time>2017-08-11T10:31:50Z</time>
      </trkpt>
      <trkpt lat="45.94492" lon="4.73289">
        <ele>177</ele>
        <time>2017-08-11T10:31:51Z</time>
      </trkpt>
      <trkpt lat="45.9449" lon="4.73278">
        <ele>177</ele>
        <time>2017-08-11T10:31:52Z</time>
      </trkpt>
      <trkpt lat="45.94489" lon="4.73266">
        <ele>177</ele>
        <time>2017-08-11T10:31:53Z</time>
      </trkpt>
      <trkpt lat="45.94488" lon="4.73255">
        <ele>176</ele>
        <time>2017-08-11T10:31:54Z</time>
      </trkpt>
      <trkpt lat="45.94487" lon="4.73244">
        <ele>175</ele>
        <time>2017-08-11T10:31:55Z</time>
      </trkpt>
      <trkpt lat="45.94486" lon="4.73233">
        <ele>175</ele>
        <time>2017-08-11T10:31:56Z</time>
      </trkpt>
      <trkpt lat="45.94485" lon="4.73221">
        <ele>175</ele>
        <time>2017-08-11T10:31:57Z</time>
      </trkpt>
      <trkpt lat="45.94483" lon="4.7321">
        <ele>175</ele>
        <time>2017-08-11T10:31:58Z</time>
      </trkpt>
      <trkpt lat="45.94482" lon="4.73199">
        <ele>174</ele>
        <time>2017-08-11T10:31:59Z</time>
      </trkpt>
      <trkpt lat="45.9448" lon="4.73188">
        <ele>174</ele>
        <time>2017-08-11T10:32:00Z</time>
      </trkpt>
      <trkpt lat="45.94479" lon="4.73177">
        <ele>174</ele>
        <time>2017-08-11T10:32:01Z</time>
      </trkpt>
      <trkpt lat="45.94477" lon="4.73165">
        <ele>173</ele>
        <time>2017-08-11T10:32:02Z</time>
      </trkpt>
      <trkpt lat="45.94476" lon="4.73155">
        <ele>173</ele>
        <time>2017-08-11T10:32:03Z</time>
      </trkpt>
      <trkpt lat="45.94474" lon="4.73144">
        <ele>172</ele>
        <time>2017-08-11T10:32:04Z</time>
      </trkpt>
      <trkpt lat="45.94473" lon="4.73134">
        <ele>172</ele>
        <time>2017-08-11T10:32:05Z</time>
      </trkpt>
      <trkpt lat="45.94472" lon="4.73124">
        <ele>172</ele>
        <time>2017-08-11T10:32:06Z</time>
      </trkpt>
      <trkpt lat="45.94471" lon="4.73114">
        <ele>172</ele>
        <time>2017-08-11T10:32:07Z</time>
      </trkpt>
      <trkpt lat="45.9447" lon="4.73105">
        <ele>172</ele>
        <time>2017-08-11T10:32:08Z</time>
      </trkpt>
      <trkpt lat="45.94469" lon="4.73095">
        <ele>172</ele>
        <time>2017-08-11T10:32:09Z</time>
      </trkpt>
      <trkpt lat="45.94467" lon="4.73085">
        <ele>171</ele>
        <time>2017-08-11T10:32:10Z</time>
      </trkpt>
      <trkpt lat="45.94465" lon="4.73075">
        <ele>170</ele>
        <time>2017-08-11T10:32:11Z</time>
      </trkpt>
      <trkpt lat="45.94463" lon="4.73066">
        <ele>170</ele>
        <time>2017-08-11T10:32:12Z</time>
      </trkpt>
      <trkpt lat="45.94462" lon="4.73056">
        <ele>170</ele>
        <time>2017-08-11T10:32:13Z</time>
      </trkpt>
      <trkpt lat="45.9446" lon="4.73046">
        <ele>170</ele>
        <time>2017-08-11T10:32:14Z</time>
      </trkpt>
      <trkpt lat="45.94458" lon="4.73036">
        <ele>169</ele>
        <time>2017-08-11T10:32:15Z</time>
      </trkpt>
      <trkpt lat="45.94457" lon="4.73027">
        <ele>169</ele>
        <time>2017-08-11T10:32:16Z</time>
      </trkpt>
      <trkpt lat="45.94455" lon="4.73019">
        <ele>169</ele>
        <time>2017-08-11T10:32:17Z</time>
      </trkpt>
      <trkpt lat="45.94454" lon="4.7301">
        <ele>169</ele>
        <time>2017-08-11T10:32:18Z</time>
      </trkpt>
      <trkpt lat="45.94452" lon="4.73001">
        <ele>169</ele>
        <time>2017-08-11T10:32:19Z</time>
      </trkpt>
      <trkpt lat="45.94451" lon="4.72992">
        <ele>167</ele>
        <time>2017-08-11T10:32:20Z</time>
      </trkpt>
      <trkpt lat="45.9445" lon="4.72983">
        <ele>167</ele>
        <time>2017-08-11T10:32:21Z</time>
      </trkpt>
      <trkpt lat="45.94449" lon="4.72975">
        <ele>167</ele>
        <time>2017-08-11T10:32:22Z</time>
      </trkpt>
      <trkpt lat="45.94447" lon="4.72966">
        <ele>167</ele>
        <time>2017-08-11T10:32:23Z</time>
      </trkpt>
      <trkpt lat="45.94446" lon="4.72957">
        <ele>167</ele>
        <time>2017-08-11T10:32:24Z</time>
      </trkpt>
      <trkpt lat="45.94445" lon="4.72948">
        <ele>167</ele>
        <time>2017-08-11T10:32:25Z</time>
      </trkpt>
      <trkpt lat="45.94444" lon="4.72939">
        <ele>167</ele>
        <time>2017-08-11T10:32:26Z</time>
      </trkpt>
      <trkpt lat="45.94442" lon="4.72931">
        <ele>167</ele>
        <time>2017-08-11T10:32:27Z</time>
      </trkpt>
      <trkpt lat="45.94441" lon="4.72923">
        <ele>167</ele>
        <time>2017-08-11T10:32:28Z</time>
      </trkpt>
      <trkpt lat="45.94441" lon="4.72916">
        <ele>166</ele>
        <time>2017-08-11T10:32:29Z</time>
      </trkpt>
      <trkpt lat="45.9444" lon="4.72909">
        <ele>166</ele>
        <time>2017-08-11T10:32:30Z</time>
      </trkpt>
      <trkpt lat="45.94439" lon="4.72902">
        <ele>166</ele>
        <time>2017-08-11T10:32:31Z</time>
      </trkpt>
      <trkpt lat="45.94438" lon="4.72895">
        <ele>166</ele>
        <time>2017-08-11T10:32:32Z</time>
      </trkpt>
      <trkpt lat="45.94437" lon="4.72887">
        <ele>166</ele>
        <time>2017-08-11T10:32:33Z</time>
      </trkpt>
      <trkpt lat="45.94436" lon="4.7288">
        <ele>166</ele>
        <time>2017-08-11T10:32:34Z</time>
      </trkpt>
      <trkpt lat="45.94435" lon="4.72872">
        <ele>166</ele>
        <time>2017-08-11T10:32:35Z</time>
      </trkpt>
      <trkpt lat="45.94435" lon="4.72865">
        <ele>166</ele>
        <time>2017-08-11T10:32:36Z</time>
      </trkpt>
      <trkpt lat="45.94433" lon="4.72857">
        <ele>166</ele>
        <time>2017-08-11T10:32:37Z</time>
      </trkpt>
      <trkpt lat="45.94432" lon="4.72849">
        <ele>166</ele>
        <time>2017-08-11T10:32:38Z</time>
      </trkpt>
      <trkpt lat="45.94431" lon="4.72841">
        <ele>166</ele>
        <time>2017-08-11T10:32:39Z</time>
      </trkpt>
      <trkpt lat="45.9443" lon="4.72832">
        <ele>167</ele>
        <time>2017-08-11T10:32:40Z</time>
      </trkpt>
      <trkpt lat="45.94429" lon="4.72823">
        <ele>167</ele>
        <time>2017-08-11T10:32:41Z</time>
      </trkpt>
      <trkpt lat="45.94428" lon="4.72813">
        <ele>167</ele>
        <time>2017-08-11T10:32:42Z</time>
      </trkpt>
      <trkpt lat="45.94427" lon="4.72803">
        <ele>167</ele>
        <time>2017-08-11T10:32:43Z</time>
      </trkpt>
      <trkpt lat="45.94426" lon="4.72793">
        <ele>168</ele>
        <time>2017-08-11T10:32:44Z</time>
      </trkpt>
      <trkpt lat="45.94425" lon="4.72783">
        <ele>168</ele>
        <time>2017-08-11T10:32:45Z</time>
      </trkpt>
      <trkpt lat="45.94423" lon="4.72773">
        <ele>169</ele>
        <time>2017-08-11T10:32:46Z</time>
      </trkpt>
      <trkpt lat="45.94422" lon="4.72762">
        <ele>169</ele>
        <time>2017-08-11T10:32:47Z</time>
      </trkpt>
      <trkpt lat="45.94421" lon="4.72752">
        <ele>170</ele>
        <time>2017-08-11T10:32:48Z</time>
      </trkpt>
      <trkpt lat="45.9442" lon="4.72741">
        <ele>171</ele>
        <time>2017-08-11T10:32:49Z</time>
      </trkpt>
      <trkpt lat="45.94419" lon="4.72731">
        <ele>171</ele>
        <time>2017-08-11T10:32:50Z</time>
      </trkpt>
      <trkpt lat="45.94418" lon="4.72721">
        <ele>171</ele>
        <time>2017-08-11T10:32:51Z</time>
      </trkpt>
      <trkpt lat="45.94416" lon="4.72712">
        <ele>172</ele>
        <time>2017-08-11T10:32:52Z</time>
      </trkpt>
      <trkpt lat="45.94415" lon="4.72702">
        <ele>172</ele>
        <time>2017-08-11T10:32:53Z</time>
      </trkpt>
      <trkpt lat="45.94414" lon="4.72692">
        <ele>173</ele>
        <time>2017-08-11T10:32:54Z</time>
      </trkpt>
      <trkpt lat="45.94413" lon="4.72683">
        <ele>173</ele>
        <time>2017-08-11T10:32:55Z</time>
      </trkpt>
      <trkpt lat="45.94412" lon="4.72673">
        <ele>173</ele>
        <time>2017-08-11T10:32:56Z</time>
      </trkpt>
      <trkpt lat="45.94411" lon="4.72663">
        <ele>174</ele>
        <time>2017-08-11T10:32:57Z</time>
      </trkpt>
      <trkpt lat="45.94411" lon="4.72654">
        <ele>174</ele>
        <time>2017-08-11T10:32:58Z</time>
      </trkpt>
      <trkpt lat="45.9441" lon="4.72645">
        <ele>174</ele>
        <time>2017-08-11T10:32:59Z</time>
      </trkpt>
      <trkpt lat="45.94409" lon="4.72635">
        <ele>174</ele>
        <time>2017-08-11T10:33:00Z</time>
      </trkpt>
      <trkpt lat="45.94408" lon="4.72626">
        <ele>174</ele>
        <time>2017-08-11T10:33:01Z</time>
      </trkpt>
      <trkpt lat="45.94408" lon="4.72617">
        <ele>173</ele>
        <time>2017-08-11T10:33:02Z</time>
      </trkpt>
      <trkpt lat="45.94407" lon="4.72608">
        <ele>173</ele>
        <time>2017-08-11T10:33:03Z</time>
      </trkpt>
      <trkpt lat="45.94406" lon="4.726">
        <ele>173</ele>
        <time>2017-08-11T10:33:04Z</time>
      </trkpt>
      <trkpt lat="45.94405" lon="4.72592">
        <ele>173</ele>
        <time>2017-08-11T10:33:05Z</time>
      </trkpt>
      <trkpt lat="45.94403" lon="4.72584">
        <ele>173</ele>
        <time>2017-08-11T10:33:06Z</time>
      </trkpt>
      <trkpt lat="45.94401" lon="4.72577">
        <ele>173</ele>
        <time>2017-08-11T10:33:07Z</time>
      </trkpt>
      <trkpt lat="45.944" lon="4.72569">
        <ele>173</ele>
        <time>2017-08-11T10:33:08Z</time>
      </trkpt>
      <trkpt lat="45.94399" lon="4.72562">
        <ele>173</ele>
        <time>2017-08-11T10:33:09Z</time>
      </trkpt>
      <trkpt lat="45.94398" lon="4.72554">
        <ele>173</ele>
        <time>2017-08-11T10:33:10Z</time>
      </trkpt>
      <trkpt lat="45.94396" lon="4.72548">
        <ele>173</ele>
        <time>2017-08-11T10:33:11Z</time>
      </trkpt>
      <trkpt lat="45.94395" lon="4.72541">
        <ele>174</ele>
        <time>2017-08-11T10:33:12Z</time>
      </trkpt>
      <trkpt lat="45.94394" lon="4.72534">
        <ele>174</ele>
        <time>2017-08-11T10:33:13Z</time>
      </trkpt>
      <trkpt lat="45.94393" lon="4.72526">
        <ele>174</ele>
        <time>2017-08-11T10:33:14Z</time>
      </trkpt>
      <trkpt lat="45.94391" lon="4.72519">
        <ele>174</ele>
        <time>2017-08-11T10:33:15Z</time>
      </trkpt>
      <trkpt lat="45.94389" lon="4.72511">
        <ele>174</ele>
        <time>2017-08-11T10:33:16Z</time>
      </trkpt>
      <trkpt lat="45.94387" lon="4.72503">
        <ele>174</ele>
        <time>2017-08-11T10:33:17Z</time>
      </trkpt>
      <trkpt lat="45.94384" lon="4.72495">
        <ele>173</ele>
        <time>2017-08-11T10:33:18Z</time>
      </trkpt>
      <trkpt lat="45.94381" lon="4.72488">
        <ele>173</ele>
        <time>2017-08-11T10:33:19Z</time>
      </trkpt>
      <trkpt lat="45.94378" lon="4.72481">
        <ele>173</ele>
        <time>2017-08-11T10:33:20Z</time>
      </trkpt>
      <trkpt lat="45.94375" lon="4.72474">
        <ele>173</ele>
        <time>2017-08-11T10:33:21Z</time>
      </trkpt>
      <trkpt lat="45.94372" lon="4.72468">
        <ele>173</ele>
        <time>2017-08-11T10:33:22Z</time>
      </trkpt>
      <trkpt lat="45.9437" lon="4.72461">
        <ele>173</ele>
        <time>2017-08-11T10:33:23Z</time>
      </trkpt>
      <trkpt lat="45.94367" lon="4.72455">
        <ele>173</ele>
        <time>2017-08-11T10:33:24Z</time>
      </trkpt>
      <trkpt lat="45.94365" lon="4.7245">
        <ele>173</ele>
        <time>2017-08-11T10:33:25Z</time>
      </trkpt>
      <trkpt lat="45.94363" lon="4.72444">
        <ele>173</ele>
        <time>2017-08-11T10:33:26Z</time>
      </trkpt>
      <trkpt lat="45.9436" lon="4.72438">
        <ele>173</ele>
        <time>2017-08-11T10:33:27Z</time>
      </trkpt>
      <trkpt lat="45.94358" lon="4.72433">
        <ele>173</ele>
        <time>2017-08-11T10:33:28Z</time>
      </trkpt>
      <trkpt lat="45.94355" lon="4.72427">
        <ele>173</ele>
        <time>2017-08-11T10:33:29Z</time>
      </trkpt>
      <trkpt lat="45.94351" lon="4.72421">
        <ele>173</ele>
        <time>2017-08-11T10:33:30Z</time>
      </trkpt>
      <trkpt lat="45.94348" lon="4.72414">
        <ele>173</ele>
        <time>2017-08-11T10:33:31Z</time>
      </trkpt>
      <trkpt lat="45.94344" lon="4.72407">
        <ele>173</ele>
        <time>2017-08-11T10:33:32Z</time>
      </trkpt>
      <trkpt lat="45.9434" lon="4.724">
        <ele>172</ele>
        <time>2017-08-11T10:33:33Z</time>
      </trkpt>
      <trkpt lat="45.94337" lon="4.72393">
        <ele>172</ele>
        <time>2017-08-11T10:33:34Z</time>
      </trkpt>
      <trkpt lat="45.94334" lon="4.72386">
        <ele>172</ele>
        <time>2017-08-11T10:33:35Z</time>
      </trkpt>
      <trkpt lat="45.9433" lon="4.72378">
        <ele>172</ele>
        <time>2017-08-11T10:33:36Z</time>
      </trkpt>
      <trkpt lat="45.94326" lon="4.7237">
        <ele>172</ele>
        <time>2017-08-11T10:33:37Z</time>
      </trkpt>
      <trkpt lat="45.94323" lon="4.72362">
        <ele>172</ele>
        <time>2017-08-11T10:33:38Z</time>
      </trkpt>
      <trkpt lat="45.94319" lon="4.72354">
        <ele>172</ele>
        <time>2017-08-11T10:33:39Z</time>
      </trkpt>
      <trkpt lat="45.94315" lon="4.72346">
        <ele>172</ele>
        <time>2017-08-11T10:33:40Z</time>
      </trkpt>
      <trkpt lat="45.94312" lon="4.72338">
        <ele>172</ele>
        <time>2017-08-11T10:33:41Z</time>
      </trkpt>
      <trkpt lat="45.94309" lon="4.7233">
        <ele>172</ele>
        <time>2017-08-11T10:33:42Z</time>
      </trkpt>
      <trkpt lat="45.94306" lon="4.72323">
        <ele>171</ele>
        <time>2017-08-11T10:33:43Z</time>
      </trkpt>
      <trkpt lat="45.94304" lon="4.72316">
        <ele>171</ele>
        <time>2017-08-11T10:33:44Z</time>
      </trkpt>
      <trkpt lat="45.94301" lon="4.72309">
        <ele>171</ele>
        <time>2017-08-11T10:33:45Z</time>
      </trkpt>
      <trkpt lat="45.94297" lon="4.72302">
        <ele>171</ele>
        <time>2017-08-11T10:33:46Z</time>
      </trkpt>
      <trkpt lat="45.94294" lon="4.72296">
        <ele>171</ele>
        <time>2017-08-11T10:33:47Z</time>
      </trkpt>
      <trkpt lat="45.9429" lon="4.72289">
        <ele>171</ele>
        <time>2017-08-11T10:33:48Z</time>
      </trkpt>
      <trkpt lat="45.94286" lon="4.72282">
        <ele>171</ele>
        <time>2017-08-11T10:33:49Z</time>
      </trkpt>
      <trkpt lat="45.94281" lon="4.72278">
        <ele>171</ele>
        <time>2017-08-11T10:33:50Z</time>
      </trkpt>
      <trkpt lat="45.94275" lon="4.72277">
        <ele>171</ele>
        <time>2017-08-11T10:33:51Z</time>
      </trkpt>
      <trkpt lat="45.94269" lon="4.72277">
        <ele>171</ele>
        <time>2017-08-11T10:33:52Z</time>
      </trkpt>
      <trkpt lat="45.94264" lon="4.72278">
        <ele>171</ele>
        <time>2017-08-11T10:33:53Z</time>
      </trkpt>
      <trkpt lat="45.94259" lon="4.72279">
        <ele>171</ele>
        <time>2017-08-11T10:33:54Z</time>
      </trkpt>
      <trkpt lat="45.94253" lon="4.7228">
        <ele>171</ele>
        <time>2017-08-11T10:33:55Z</time>
      </trkpt>
      <trkpt lat="45.94247" lon="4.72282">
        <ele>171</ele>
        <time>2017-08-11T10:33:56Z</time>
      </trkpt>
      <trkpt lat="45.94242" lon="4.72283">
        <ele>171</ele>
        <time>2017-08-11T10:33:57Z</time>
      </trkpt>
      <trkpt lat="45.94236" lon="4.72284">
        <ele>171</ele>
        <time>2017-08-11T10:33:58Z</time>
      </trkpt>
      <trkpt lat="45.94229" lon="4.72286">
        <ele>171</ele>
        <time>2017-08-11T10:33:59Z</time>
      </trkpt>
      <trkpt lat="45.94223" lon="4.72287">
        <ele>171</ele>
        <time>2017-08-11T10:34:00Z</time>
      </trkpt>
      <trkpt lat="45.94217" lon="4.72288">
        <ele>171</ele>
        <time>2017-08-11T10:34:01Z</time>
      </trkpt>
      <trkpt lat="45.94212" lon="4.72288">
        <ele>171</ele>
        <time>2017-08-11T10:34:02Z</time>
      </trkpt>
      <trkpt lat="45.94206" lon="4.72289">
        <ele>171</ele>
        <time>2017-08-11T10:34:03Z</time>
      </trkpt>
      <trkpt lat="45.94201" lon="4.72288">
        <ele>171</ele>
        <time>2017-08-11T10:34:04Z</time>
      </trkpt>
      <trkpt lat="45.94195" lon="4.72288">
        <ele>171</ele>
        <time>2017-08-11T10:34:05Z</time>
      </trkpt>
      <trkpt lat="45.9419" lon="4.72288">
        <ele>171</ele>
        <time>2017-08-11T10:34:06Z</time>
      </trkpt>
      <trkpt lat="45.94185" lon="4.72288">
        <ele>171</ele>
        <time>2017-08-11T10:34:07Z</time>
      </trkpt>
      <trkpt lat="45.9418" lon="4.72288">
        <ele>171</ele>
        <time>2017-08-11T10:34:08Z</time>
      </trkpt>
      <trkpt lat="45.94175" lon="4.72287">
        <ele>171</ele>
        <time>2017-08-11T10:34:09Z</time>
      </trkpt>
      <trkpt lat="45.9417" lon="4.72287">
        <ele>171</ele>
        <time>2017-08-11T10:34:10Z</time>
      </trkpt>
      <trkpt lat="45.94165" lon="4.72286">
        <ele>171</ele>
        <time>2017-08-11T10:34:11Z</time>
      </trkpt>
      <trkpt lat="45.9416" lon="4.72285">
        <ele>171</ele>
        <time>2017-08-11T10:34:12Z</time>
      </trkpt>
      <trkpt lat="45.94155" lon="4.72284">
        <ele>171</ele>
        <time>2017-08-11T10:34:13Z</time>
      </trkpt>
      <trkpt lat="45.94149" lon="4.72282">
        <ele>171</ele>
        <time>2017-08-11T10:34:14Z</time>
      </trkpt>
      <trkpt lat="45.94144" lon="4.72279">
        <ele>171</ele>
        <time>2017-08-11T10:34:15Z</time>
      </trkpt>
      <trkpt lat="45.94138" lon="4.72277">
        <ele>171</ele>
        <time>2017-08-11T10:34:16Z</time>
      </trkpt>
      <trkpt lat="45.94133" lon="4.72274">
        <ele>171</ele>
        <time>2017-08-11T10:34:17Z</time>
      </trkpt>
      <trkpt lat="45.94127" lon="4.72271">
        <ele>171</ele>
        <time>2017-08-11T10:34:18Z</time>
      </trkpt>
      <trkpt lat="45.94122" lon="4.72268">
        <ele>171</ele>
        <time>2017-08-11T10:34:19Z</time>
      </trkpt>
      <trkpt lat="45.94117" lon="4.72265">
        <ele>171</ele>
        <time>2017-08-11T10:34:20Z</time>
      </trkpt>
      <trkpt lat="45.94111" lon="4.72264">
        <ele>171</ele>
        <time>2017-08-11T10:34:21Z</time>
      </trkpt>
      <trkpt lat="45.94106" lon="4.72263">
        <ele>171</ele>
        <time>2017-08-11T10:34:22Z</time>
      </trkpt>
      <trkpt lat="45.94101" lon="4.72262">
        <ele>171</ele>
        <time>2017-08-11T10:34:23Z</time>
      </trkpt>
      <trkpt lat="45.94095" lon="4.72262">
        <ele>171</ele>
        <time>2017-08-11T10:34:24Z</time>
      </trkpt>
      <trkpt lat="45.9409" lon="4.72263">
        <ele>171</ele>
        <time>2017-08-11T10:34:25Z</time>
      </trkpt>
      <trkpt lat="45.94085" lon="4.72265">
        <ele>171</ele>
        <time>2017-08-11T10:34:26Z</time>
      </trkpt>
      <trkpt lat="45.9408" lon="4.72267">
        <ele>171</ele>
        <time>2017-08-11T10:34:27Z</time>
      </trkpt>
      <trkpt lat="45.94075" lon="4.7227">
        <ele>171</ele>
        <time>2017-08-11T10:34:28Z</time>
      </trkpt>
      <trkpt lat="45.9407" lon="4.72274">
        <ele>171</ele>
        <time>2017-08-11T10:34:29Z</time>
      </trkpt>
      <trkpt lat="45.94066" lon="4.72279">
        <ele>171</ele>
        <time>2017-08-11T10:34:30Z</time>
      </trkpt>
      <trkpt lat="45.94061" lon="4.72284">
        <ele>171</ele>
        <time>2017-08-11T10:34:31Z</time>
      </trkpt>
      <trkpt lat="45.94056" lon="4.72289">
        <ele>171</ele>
        <time>2017-08-11T10:34:32Z</time>
      </trkpt>
      <trkpt lat="45.94051" lon="4.72295">
        <ele>171</ele>
        <time>2017-08-11T10:34:33Z</time>
      </trkpt>
      <trkpt lat="45.94046" lon="4.723">
        <ele>171</ele>
        <time>2017-08-11T10:34:34Z</time>
      </trkpt>
      <trkpt lat="45.94041" lon="4.72307">
        <ele>171</ele>
        <time>2017-08-11T10:34:35Z</time>
      </trkpt>
      <trkpt lat="45.94036" lon="4.72314">
        <ele>171</ele>
        <time>2017-08-11T10:34:36Z</time>
      </trkpt>
      <trkpt lat="45.94031" lon="4.7232">
        <ele>171</ele>
        <time>2017-08-11T10:34:37Z</time>
      </trkpt>
      <trkpt lat="45.94026" lon="4.72327">
        <ele>171</ele>
        <time>2017-08-11T10:34:38Z</time>
      </trkpt>
      <trkpt lat="45.94021" lon="4.72333">
        <ele>171</ele>
        <time>2017-08-11T10:34:39Z</time>
      </trkpt>
      <trkpt lat="45.94016" lon="4.72339">
        <ele>171</ele>
        <time>2017-08-11T10:34:40Z</time>
      </trkpt>
      <trkpt lat="45.94011" lon="4.72345">
        <ele>171</ele>
        <time>2017-08-11T10:34:41Z</time>
      </trkpt>
      <trkpt lat="45.94006" lon="4.72351">
        <ele>171</ele>
        <time>2017-08-11T10:34:42Z</time>
      </trkpt>
      <trkpt lat="45.94002" lon="4.72356">
        <ele>171</ele>
        <time>2017-08-11T10:34:43Z</time>
      </trkpt>
      <trkpt lat="45.93997" lon="4.72362">
        <ele>171</ele>
        <time>2017-08-11T10:34:44Z</time>
      </trkpt>
      <trkpt lat="45.93993" lon="4.72367">
        <ele>171</ele>
        <time>2017-08-11T10:34:45Z</time>
      </trkpt>
      <trkpt lat="45.93988" lon="4.72373">
        <ele>171</ele>
        <time>2017-08-11T10:34:46Z</time>
      </trkpt>
      <trkpt lat="45.93984" lon="4.72378">
        <ele>171</ele>
        <time>2017-08-11T10:34:47Z</time>
      </trkpt>
      <trkpt lat="45.93979" lon="4.72383">
        <ele>171</ele>
        <time>2017-08-11T10:34:48Z</time>
      </trkpt>
      <trkpt lat="45.93974" lon="4.72389">
        <ele>171</ele>
        <time>2017-08-11T10:34:49Z</time>
      </trkpt>
      <trkpt lat="45.9397" lon="4.72395">
        <ele>171</ele>
        <time>2017-08-11T10:34:50Z</time>
      </trkpt>
      <trkpt lat="45.93965" lon="4.72401">
        <ele>171</ele>
        <time>2017-08-11T10:34:51Z</time>
      </trkpt>
      <trkpt lat="45.9396" lon="4.72406">
        <ele>171</ele>
        <time>2017-08-11T10:34:52Z</time>
      </trkpt>
      <trkpt lat="45.93955" lon="4.72412">
        <ele>171</ele>
        <time>2017-08-11T10:34:53Z</time>
      </trkpt>
      <trkpt lat="45.9395" lon="4.72418">
        <ele>171</ele>
        <time>2017-08-11T10:34:54Z</time>
      </trkpt>
      <trkpt lat="45.93945" lon="4.72424">
        <ele>171</ele>
        <time>2017-08-11T10:34:55Z</time>
      </trkpt>
      <trkpt lat="45.9394" lon="4.72431">
        <ele>171</ele>
        <time>2017-08-11T10:34:56Z</time>
      </trkpt>
      <trkpt lat="45.93935" lon="4.72437">
        <ele>171</ele>
        <time>2017-08-11T10:34:57Z</time>
      </trkpt>
      <trkpt lat="45.9393" lon="4.72443">
        <ele>171</ele>
        <time>2017-08-11T10:34:58Z</time>
      </trkpt>
      <trkpt lat="45.93925" lon="4.7245">
        <ele>171</ele>
        <time>2017-08-11T10:34:59Z</time>
      </trkpt>
      <trkpt lat="45.93921" lon="4.72456">
        <ele>171</ele>
        <time>2017-08-11T10:35:00Z</time>
      </trkpt>
      <trkpt lat="45.93916" lon="4.72462">
        <ele>172</ele>
        <time>2017-08-11T10:35:01Z</time>
      </trkpt>
      <trkpt lat="45.93911" lon="4.72468">
        <ele>172</ele>
        <time>2017-08-11T10:35:02Z</time>
      </trkpt>
      <trkpt lat="45.93906" lon="4.72474">
        <ele>172</ele>
        <time>2017-08-11T10:35:03Z</time>
      </trkpt>
      <trkpt lat="45.93902" lon="4.72479">
        <ele>172</ele>
        <time>2017-08-11T10:35:04Z</time>
      </trkpt>
      <trkpt lat="45.93898" lon="4.72484">
        <ele>172</ele>
        <time>2017-08-11T10:35:05Z</time>
      </trkpt>
      <trkpt lat="45.93894" lon="4.72489">
        <ele>172</ele>
        <time>2017-08-11T10:35:06Z</time>
      </trkpt>
      <trkpt lat="45.93891" lon="4.72494">
        <ele>172</ele>
        <time>2017-08-11T10:35:07Z</time>
      </trkpt>
      <trkpt lat="45.93887" lon="4.72499">
        <ele>172</ele>
        <time>2017-08-11T10:35:08Z</time>
      </trkpt>
      <trkpt lat="45.93884" lon="4.72503">
        <ele>173</ele>
        <time>2017-08-11T10:35:09Z</time>
      </trkpt>
      <trkpt lat="45.93877" lon="4.7251">
        <ele>173</ele>
        <time>2017-08-11T10:35:11Z</time>
      </trkpt>
      <trkpt lat="45.93873" lon="4.72513">
        <ele>173</ele>
        <time>2017-08-11T10:35:12Z</time>
      </trkpt>
      <trkpt lat="45.93865" lon="4.72515">
        <ele>173</ele>
        <time>2017-08-11T10:35:14Z</time>
      </trkpt>
      <trkpt lat="45.93861" lon="4.72512">
        <ele>173</ele>
        <time>2017-08-11T10:35:15Z</time>
      </trkpt>
      <trkpt lat="45.93857" lon="4.72509">
        <ele>173</ele>
        <time>2017-08-11T10:35:16Z</time>
      </trkpt>
      <trkpt lat="45.93853" lon="4.72505">
        <ele>173</ele>
        <time>2017-08-11T10:35:17Z</time>
      </trkpt>
      <trkpt lat="45.93849" lon="4.72501">
        <ele>174</ele>
        <time>2017-08-11T10:35:18Z</time>
      </trkpt>
      <trkpt lat="45.93845" lon="4.72497">
        <ele>173</ele>
        <time>2017-08-11T10:35:19Z</time>
      </trkpt>
      <trkpt lat="45.93841" lon="4.72493">
        <ele>173</ele>
        <time>2017-08-11T10:35:20Z</time>
      </trkpt>
      <trkpt lat="45.93836" lon="4.72489">
        <ele>173</ele>
        <time>2017-08-11T10:35:21Z</time>
      </trkpt>
      <trkpt lat="45.93831" lon="4.72484">
        <ele>173</ele>
        <time>2017-08-11T10:35:22Z</time>
      </trkpt>
      <trkpt lat="45.93829" lon="4.72471">
        <ele>172</ele>
        <time>2017-08-11T10:35:23Z</time>
      </trkpt>
      <trkpt lat="45.93825" lon="4.72464">
        <ele>172</ele>
        <time>2017-08-11T10:35:25Z</time>
      </trkpt>
      <trkpt lat="45.9382" lon="4.72461">
        <ele>172</ele>
        <time>2017-08-11T10:35:26Z</time>
      </trkpt>
      <trkpt lat="45.93813" lon="4.72455">
        <ele>172</ele>
        <time>2017-08-11T10:35:28Z</time>
      </trkpt>
      <trkpt lat="45.9381" lon="4.72451">
        <ele>172</ele>
        <time>2017-08-11T10:35:29Z</time>
      </trkpt>
      <trkpt lat="45.93805" lon="4.72448">
        <ele>172</ele>
        <time>2017-08-11T10:35:30Z</time>
      </trkpt>
      <trkpt lat="45.93802" lon="4.72445">
        <ele>172</ele>
        <time>2017-08-11T10:35:31Z</time>
      </trkpt>
      <trkpt lat="45.93798" lon="4.7244">
        <ele>172</ele>
        <time>2017-08-11T10:35:32Z</time>
      </trkpt>
      <trkpt lat="45.93794" lon="4.72436">
        <ele>172</ele>
        <time>2017-08-11T10:35:33Z</time>
      </trkpt>
      <trkpt lat="45.9379" lon="4.72434">
        <ele>172</ele>
        <time>2017-08-11T10:35:34Z</time>
      </trkpt>
      <trkpt lat="45.93786" lon="4.7243">
        <ele>172</ele>
        <time>2017-08-11T10:35:35Z</time>
      </trkpt>
      <trkpt lat="45.93781" lon="4.72426">
        <ele>172</ele>
        <time>2017-08-11T10:35:36Z</time>
      </trkpt>
      <trkpt lat="45.93775" lon="4.72423">
        <ele>171</ele>
        <time>2017-08-11T10:35:37Z</time>
      </trkpt>
      <trkpt lat="45.93771" lon="4.7242">
        <ele>171</ele>
        <time>2017-08-11T10:35:38Z</time>
      </trkpt>
      <trkpt lat="45.93766" lon="4.72417">
        <ele>171</ele>
        <time>2017-08-11T10:35:39Z</time>
      </trkpt>
      <trkpt lat="45.93762" lon="4.72412">
        <ele>171</ele>
        <time>2017-08-11T10:35:40Z</time>
      </trkpt>
      <trkpt lat="45.93757" lon="4.72408">
        <ele>171</ele>
        <time>2017-08-11T10:35:41Z</time>
      </trkpt>
      <trkpt lat="45.93753" lon="4.72404">
        <ele>171</ele>
        <time>2017-08-11T10:35:42Z</time>
      </trkpt>
      <trkpt lat="45.9375" lon="4.72399">
        <ele>171</ele>
        <time>2017-08-11T10:35:43Z</time>
      </trkpt>
      <trkpt lat="45.93746" lon="4.72395">
        <ele>171</ele>
        <time>2017-08-11T10:35:44Z</time>
      </trkpt>
      <trkpt lat="45.93743" lon="4.72391">
        <ele>171</ele>
        <time>2017-08-11T10:35:45Z</time>
      </trkpt>
      <trkpt lat="45.93738" lon="4.72387">
        <ele>171</ele>
        <time>2017-08-11T10:35:46Z</time>
      </trkpt>
      <trkpt lat="45.93734" lon="4.72383">
        <ele>171</ele>
        <time>2017-08-11T10:35:47Z</time>
      </trkpt>
      <trkpt lat="45.93729" lon="4.72378">
        <ele>171</ele>
        <time>2017-08-11T10:35:48Z</time>
      </trkpt>
      <trkpt lat="45.93724" lon="4.72372">
        <ele>172</ele>
        <time>2017-08-11T10:35:49Z</time>
      </trkpt>
      <trkpt lat="45.93719" lon="4.72366">
        <ele>172</ele>
        <time>2017-08-11T10:35:50Z</time>
      </trkpt>
      <trkpt lat="45.93713" lon="4.72361">
        <ele>172</ele>
        <time>2017-08-11T10:35:51Z</time>
      </trkpt>
      <trkpt lat="45.93708" lon="4.72356">
        <ele>171</ele>
        <time>2017-08-11T10:35:52Z</time>
      </trkpt>
      <trkpt lat="45.93702" lon="4.72351">
        <ele>171</ele>
        <time>2017-08-11T10:35:53Z</time>
      </trkpt>
      <trkpt lat="45.93697" lon="4.72346">
        <ele>171</ele>
        <time>2017-08-11T10:35:54Z</time>
      </trkpt>
      <trkpt lat="45.93691" lon="4.72342">
        <ele>171</ele>
        <time>2017-08-11T10:35:55Z</time>
      </trkpt>
      <trkpt lat="45.93686" lon="4.72338">
        <ele>171</ele>
        <time>2017-08-11T10:35:56Z</time>
      </trkpt>
      <trkpt lat="45.93682" lon="4.72334">
        <ele>171</ele>
        <time>2017-08-11T10:35:57Z</time>
      </trkpt>
      <trkpt lat="45.93674" lon="4.72326">
        <ele>171</ele>
        <time>2017-08-11T10:35:59Z</time>
      </trkpt>
      <trkpt lat="45.93671" lon="4.72323">
        <ele>171</ele>
        <time>2017-08-11T10:36:00Z</time>
      </trkpt>
      <trkpt lat="45.93664" lon="4.72315">
        <ele>172</ele>
        <time>2017-08-11T10:36:02Z</time>
      </trkpt>
      <trkpt lat="45.93661" lon="4.72311">
        <ele>172</ele>
        <time>2017-08-11T10:36:03Z</time>
      </trkpt>
      <trkpt lat="45.93654" lon="4.72304">
        <ele>172</ele>
        <time>2017-08-11T10:36:05Z</time>
      </trkpt>
      <trkpt lat="45.9365" lon="4.723">
        <ele>172</ele>
        <time>2017-08-11T10:36:06Z</time>
      </trkpt>
      <trkpt lat="45.93646" lon="4.72296">
        <ele>172</ele>
        <time>2017-08-11T10:36:07Z</time>
      </trkpt>
      <trkpt lat="45.93642" lon="4.72293">
        <ele>172</ele>
        <time>2017-08-11T10:36:08Z</time>
      </trkpt>
      <trkpt lat="45.93637" lon="4.72289">
        <ele>172</ele>
        <time>2017-08-11T10:36:09Z</time>
      </trkpt>
      <trkpt lat="45.93632" lon="4.72285">
        <ele>172</ele>
        <time>2017-08-11T10:36:10Z</time>
      </trkpt>
      <trkpt lat="45.93627" lon="4.72281">
        <ele>172</ele>
        <time>2017-08-11T10:36:11Z</time>
      </trkpt>
      <trkpt lat="45.93623" lon="4.72276">
        <ele>172</ele>
        <time>2017-08-11T10:36:12Z</time>
      </trkpt>
      <trkpt lat="45.93619" lon="4.72272">
        <ele>172</ele>
        <time>2017-08-11T10:36:13Z</time>
      </trkpt>
      <trkpt lat="45.93615" lon="4.72268">
        <ele>172</ele>
        <time>2017-08-11T10:36:14Z</time>
      </trkpt>
      <trkpt lat="45.93611" lon="4.72265">
        <ele>172</ele>
        <time>2017-08-11T10:36:15Z</time>
      </trkpt>
      <trkpt lat="45.93607" lon="4.72262">
        <ele>173</ele>
        <time>2017-08-11T10:36:16Z</time>
      </trkpt>
      <trkpt lat="45.93599" lon="4.72255">
        <ele>173</ele>
        <time>2017-08-11T10:36:18Z</time>
      </trkpt>
      <trkpt lat="45.93596" lon="4.72252">
        <ele>173</ele>
        <time>2017-08-11T10:36:19Z</time>
      </trkpt>
      <trkpt lat="45.93592" lon="4.72246">
        <ele>173</ele>
        <time>2017-08-11T10:36:20Z</time>
      </trkpt>
      <trkpt lat="45.93589" lon="4.72242">
        <ele>173</ele>
        <time>2017-08-11T10:36:21Z</time>
      </trkpt>
      <trkpt lat="45.93586" lon="4.72237">
        <ele>173</ele>
        <time>2017-08-11T10:36:22Z</time>
      </trkpt>
      <trkpt lat="45.93583" lon="4.72231">
        <ele>173</ele>
        <time>2017-08-11T10:36:23Z</time>
      </trkpt>
      <trkpt lat="45.93579" lon="4.72228">
        <ele>173</ele>
        <time>2017-08-11T10:36:24Z</time>
      </trkpt>
      <trkpt lat="45.93574" lon="4.72226">
        <ele>173</ele>
        <time>2017-08-11T10:36:25Z</time>
      </trkpt>
      <trkpt lat="45.93568" lon="4.72221">
        <ele>173</ele>
        <time>2017-08-11T10:36:27Z</time>
      </trkpt>
      <trkpt lat="45.93566" lon="4.72219">
        <ele>173</ele>
        <time>2017-08-11T10:36:28Z</time>
      </trkpt>
      <trkpt lat="45.93558" lon="4.72218">
        <ele>173</ele>
        <time>2017-08-11T10:36:31Z</time>
      </trkpt>
      <trkpt lat="45.93554" lon="4.72221">
        <ele>173</ele>
        <time>2017-08-11T10:36:32Z</time>
      </trkpt>
      <trkpt lat="45.93547" lon="4.72229">
        <ele>172</ele>
        <time>2017-08-11T10:36:34Z</time>
      </trkpt>
      <trkpt lat="45.93544" lon="4.72234">
        <ele>172</ele>
        <time>2017-08-11T10:36:35Z</time>
      </trkpt>
      <trkpt lat="45.93541" lon="4.7224">
        <ele>172</ele>
        <time>2017-08-11T10:36:36Z</time>
      </trkpt>
      <trkpt lat="45.93539" lon="4.72246">
        <ele>172</ele>
        <time>2017-08-11T10:36:37Z</time>
      </trkpt>
      <trkpt lat="45.93537" lon="4.72251">
        <ele>172</ele>
        <time>2017-08-11T10:36:38Z</time>
      </trkpt>
      <trkpt lat="45.93534" lon="4.72257">
        <ele>172</ele>
        <time>2017-08-11T10:36:39Z</time>
      </trkpt>
      <trkpt lat="45.93531" lon="4.72263">
        <ele>172</ele>
        <time>2017-08-11T10:36:40Z</time>
      </trkpt>
      <trkpt lat="45.93528" lon="4.72269">
        <ele>172</ele>
        <time>2017-08-11T10:36:41Z</time>
      </trkpt>
      <trkpt lat="45.93526" lon="4.72275">
        <ele>172</ele>
        <time>2017-08-11T10:36:42Z</time>
      </trkpt>
      <trkpt lat="45.93523" lon="4.72281">
        <ele>172</ele>
        <time>2017-08-11T10:36:43Z</time>
      </trkpt>
      <trkpt lat="45.9352" lon="4.72287">
        <ele>172</ele>
        <time>2017-08-11T10:36:44Z</time>
      </trkpt>
      <trkpt lat="45.93516" lon="4.72293">
        <ele>172</ele>
        <time>2017-08-11T10:36:45Z</time>
      </trkpt>
      <trkpt lat="45.93513" lon="4.72299">
        <ele>172</ele>
        <time>2017-08-11T10:36:46Z</time>
      </trkpt>
      <trkpt lat="45.93509" lon="4.72305">
        <ele>173</ele>
        <time>2017-08-11T10:36:47Z</time>
      </trkpt>
      <trkpt lat="45.93505" lon="4.72311">
        <ele>173</ele>
        <time>2017-08-11T10:36:48Z</time>
      </trkpt>
      <trkpt lat="45.935" lon="4.72317">
        <ele>173</ele>
        <time>2017-08-11T10:36:49Z</time>
      </trkpt>
      <trkpt lat="45.93496" lon="4.72323">
        <ele>173</ele>
        <time>2017-08-11T10:36:50Z</time>
      </trkpt>
      <trkpt lat="45.93492" lon="4.72329">
        <ele>173</ele>
        <time>2017-08-11T10:36:51Z</time>
      </trkpt>
      <trkpt lat="45.93488" lon="4.72335">
        <ele>173</ele>
        <time>2017-08-11T10:36:52Z</time>
      </trkpt>
      <trkpt lat="45.93483" lon="4.7234">
        <ele>173</ele>
        <time>2017-08-11T10:36:53Z</time>
      </trkpt>
      <trkpt lat="45.93479" lon="4.72346">
        <ele>173</ele>
        <time>2017-08-11T10:36:54Z</time>
      </trkpt>
      <trkpt lat="45.93474" lon="4.72351">
        <ele>173</ele>
        <time>2017-08-11T10:36:55Z</time>
      </trkpt>
      <trkpt lat="45.9347" lon="4.72356">
        <ele>173</ele>
        <time>2017-08-11T10:36:56Z</time>
      </trkpt>
      <trkpt lat="45.93466" lon="4.72363">
        <ele>173</ele>
        <time>2017-08-11T10:36:57Z</time>
      </trkpt>
      <trkpt lat="45.93462" lon="4.72368">
        <ele>173</ele>
        <time>2017-08-11T10:36:58Z</time>
      </trkpt>
      <trkpt lat="45.93459" lon="4.72373">
        <ele>173</ele>
        <time>2017-08-11T10:36:59Z</time>
      </trkpt>
      <trkpt lat="45.93455" lon="4.72378">
        <ele>173</ele>
        <time>2017-08-11T10:37:00Z</time>
      </trkpt>
      <trkpt lat="45.93451" lon="4.72383">
        <ele>173</ele>
        <time>2017-08-11T10:37:01Z</time>
      </trkpt>
      <trkpt lat="45.93445" lon="4.7239">
        <ele>173</ele>
        <time>2017-08-11T10:37:03Z</time>
      </trkpt>
      <trkpt lat="45.93441" lon="4.72394">
        <ele>173</ele>
        <time>2017-08-11T10:37:04Z</time>
      </trkpt>
      <trkpt lat="45.93437" lon="4.72397">
        <ele>173</ele>
        <time>2017-08-11T10:37:05Z</time>
      </trkpt>
      <trkpt lat="45.93432" lon="4.724">
        <ele>174</ele>
        <time>2017-08-11T10:37:06Z</time>
      </trkpt>
      <trkpt lat="45.93427" lon="4.72402">
        <ele>174</ele>
        <time>2017-08-11T10:37:07Z</time>
      </trkpt>
      <trkpt lat="45.93421" lon="4.72405">
        <ele>174</ele>
        <time>2017-08-11T10:37:08Z</time>
      </trkpt>
      <trkpt lat="45.93415" lon="4.72407">
        <ele>174</ele>
        <time>2017-08-11T10:37:09Z</time>
      </trkpt>
      <trkpt lat="45.93411" lon="4.72407">
        <ele>174</ele>
        <time>2017-08-11T10:37:10Z</time>
      </trkpt>
      <trkpt lat="45.93404" lon="4.72405">
        <ele>174</ele>
        <time>2017-08-11T10:37:12Z</time>
      </trkpt>
      <trkpt lat="45.934" lon="4.72404">
        <ele>174</ele>
        <time>2017-08-11T10:37:13Z</time>
      </trkpt>
      <trkpt lat="45.93396" lon="4.72404">
        <ele>174</ele>
        <time>2017-08-11T10:37:14Z</time>
      </trkpt>
      <trkpt lat="45.93391" lon="4.72407">
        <ele>174</ele>
        <time>2017-08-11T10:37:15Z</time>
      </trkpt>
      <trkpt lat="45.93387" lon="4.72411">
        <ele>174</ele>
        <time>2017-08-11T10:37:16Z</time>
      </trkpt>
      <trkpt lat="45.93384" lon="4.72418">
        <ele>173</ele>
        <time>2017-08-11T10:37:17Z</time>
      </trkpt>
      <trkpt lat="45.93382" lon="4.72426">
        <ele>173</ele>
        <time>2017-08-11T10:37:18Z</time>
      </trkpt>
      <trkpt lat="45.93384" lon="4.72434">
        <ele>173</ele>
        <time>2017-08-11T10:37:19Z</time>
      </trkpt>
      <trkpt lat="45.93387" lon="4.72441">
        <ele>173</ele>
        <time>2017-08-11T10:37:20Z</time>
      </trkpt>
      <trkpt lat="45.93388" lon="4.72448">
        <ele>173</ele>
        <time>2017-08-11T10:37:21Z</time>
      </trkpt>
      <trkpt lat="45.93389" lon="4.72455">
        <ele>173</ele>
        <time>2017-08-11T10:37:22Z</time>
      </trkpt>
      <trkpt lat="45.93388" lon="4.72462">
        <ele>173</ele>
        <time>2017-08-11T10:37:23Z</time>
      </trkpt>
      <trkpt lat="45.93385" lon="4.72468">
        <ele>173</ele>
        <time>2017-08-11T10:37:24Z</time>
      </trkpt>
      <trkpt lat="45.93381" lon="4.72472">
        <ele>173</ele>
        <time>2017-08-11T10:37:25Z</time>
      </trkpt>
      <trkpt lat="45.93377" lon="4.72476">
        <ele>173</ele>
        <time>2017-08-11T10:37:26Z</time>
      </trkpt>
      <trkpt lat="45.93373" lon="4.72481">
        <ele>173</ele>
        <time>2017-08-11T10:37:27Z</time>
      </trkpt>
      <trkpt lat="45.93369" lon="4.72485">
        <ele>173</ele>
        <time>2017-08-11T10:37:28Z</time>
      </trkpt>
      <trkpt lat="45.93364" lon="4.72489">
        <ele>173</ele>
        <time>2017-08-11T10:37:29Z</time>
      </trkpt>
      <trkpt lat="45.9336" lon="4.72492">
        <ele>173</ele>
        <time>2017-08-11T10:37:30Z</time>
      </trkpt>
      <trkpt lat="45.93356" lon="4.72496">
        <ele>173</ele>
        <time>2017-08-11T10:37:31Z</time>
      </trkpt>
      <trkpt lat="45.9335" lon="4.72503">
        <ele>172</ele>
        <time>2017-08-11T10:37:33Z</time>
      </trkpt>
      <trkpt lat="45.93346" lon="4.72508">
        <ele>172</ele>
        <time>2017-08-11T10:37:34Z</time>
      </trkpt>
      <trkpt lat="45.93342" lon="4.72512">
        <ele>172</ele>
        <time>2017-08-11T10:37:35Z</time>
      </trkpt>
      <trkpt lat="45.93338" lon="4.72517">
        <ele>172</ele>
        <time>2017-08-11T10:37:36Z</time>
      </trkpt>
      <trkpt lat="45.93334" lon="4.72523">
        <ele>172</ele>
        <time>2017-08-11T10:37:37Z</time>
      </trkpt>
      <trkpt lat="45.93329" lon="4.72529">
        <ele>172</ele>
        <time>2017-08-11T10:37:38Z</time>
      </trkpt>
      <trkpt lat="45.93324" lon="4.72535">
        <ele>172</ele>
        <time>2017-08-11T10:37:39Z</time>
      </trkpt>
      <trkpt lat="45.9332" lon="4.7254">
        <ele>172</ele>
        <time>2017-08-11T10:37:40Z</time>
      </trkpt>
      <trkpt lat="45.93316" lon="4.72545">
        <ele>172</ele>
        <time>2017-08-11T10:37:41Z</time>
      </trkpt>
      <trkpt lat="45.93312" lon="4.72551">
        <ele>172</ele>
        <time>2017-08-11T10:37:42Z</time>
      </trkpt>
      <trkpt lat="45.93308" lon="4.72556">
        <ele>172</ele>
        <time>2017-08-11T10:37:43Z</time>
      </trkpt>
      <trkpt lat="45.93304" lon="4.7256">
        <ele>172</ele>
        <time>2017-08-11T10:37:44Z</time>
      </trkpt>
      <trkpt lat="45.933" lon="4.72565">
        <ele>172</ele>
        <time>2017-08-11T10:37:45Z</time>
      </trkpt>
      <trkpt lat="45.93296" lon="4.72569">
        <ele>172</ele>
        <time>2017-08-11T10:37:46Z</time>
      </trkpt>
      <trkpt lat="45.93292" lon="4.72574">
        <ele>172</ele>
        <time>2017-08-11T10:37:47Z</time>
      </trkpt>
      <trkpt lat="45.93288" lon="4.72578">
        <ele>171</ele>
        <time>2017-08-11T10:37:48Z</time>
      </trkpt>
      <trkpt lat="45.93285" lon="4.72583">
        <ele>171</ele>
        <time>2017-08-11T10:37:49Z</time>
      </trkpt>
      <trkpt lat="45.93281" lon="4.72587">
        <ele>170</ele>
        <time>2017-08-11T10:37:50Z</time>
      </trkpt>
      <trkpt lat="45.93276" lon="4.72593">
        <ele>170</ele>
        <time>2017-08-11T10:37:51Z</time>
      </trkpt>
      <trkpt lat="45.93272" lon="4.72598">
        <ele>170</ele>
        <time>2017-08-11T10:37:52Z</time>
      </trkpt>
      <trkpt lat="45.93267" lon="4.72603">
        <ele>170</ele>
        <time>2017-08-11T10:37:53Z</time>
      </trkpt>
      <trkpt lat="45.93262" lon="4.72609">
        <ele>170</ele>
        <time>2017-08-11T10:37:54Z</time>
      </trkpt>
      <trkpt lat="45.93258" lon="4.72614">
        <ele>170</ele>
        <time>2017-08-11T10:37:55Z</time>
      </trkpt>
      <trkpt lat="45.93254" lon="4.72619">
        <ele>170</ele>
        <time>2017-08-11T10:37:56Z</time>
      </trkpt>
      <trkpt lat="45.9325" lon="4.72624">
        <ele>170</ele>
        <time>2017-08-11T10:37:57Z</time>
      </trkpt>
      <trkpt lat="45.93246" lon="4.7263">
        <ele>170</ele>
        <time>2017-08-11T10:37:58Z</time>
      </trkpt>
      <trkpt lat="45.9324" lon="4.72639">
        <ele>170</ele>
        <time>2017-08-11T10:38:00Z</time>
      </trkpt>
      <trkpt lat="45.93236" lon="4.72643">
        <ele>170</ele>
        <time>2017-08-11T10:38:01Z</time>
      </trkpt>
      <trkpt lat="45.93232" lon="4.72648">
        <ele>170</ele>
        <time>2017-08-11T10:38:02Z</time>
      </trkpt>
      <trkpt lat="45.93228" lon="4.72653">
        <ele>170</ele>
        <time>2017-08-11T10:38:03Z</time>
      </trkpt>
      <trkpt lat="45.93224" lon="4.72657">
        <ele>170</ele>
        <time>2017-08-11T10:38:04Z</time>
      </trkpt>
      <trkpt lat="45.9322" lon="4.72662">
        <ele>170</ele>
        <time>2017-08-11T10:38:05Z</time>
      </trkpt>
      <trkpt lat="45.93215" lon="4.72667">
        <ele>169</ele>
        <time>2017-08-11T10:38:06Z</time>
      </trkpt>
      <trkpt lat="45.93211" lon="4.72673">
        <ele>169</ele>
        <time>2017-08-11T10:38:07Z</time>
      </trkpt>
      <trkpt lat="45.93206" lon="4.72679">
        <ele>169</ele>
        <time>2017-08-11T10:38:08Z</time>
      </trkpt>
      <trkpt lat="45.93201" lon="4.72685">
        <ele>169</ele>
        <time>2017-08-11T10:38:09Z</time>
      </trkpt>
      <trkpt lat="45.93195" lon="4.72691">
        <ele>169</ele>
        <time>2017-08-11T10:38:10Z</time>
      </trkpt>
      <trkpt lat="45.9319" lon="4.72697">
        <ele>169</ele>
        <time>2017-08-11T10:38:11Z</time>
      </trkpt>
      <trkpt lat="45.93185" lon="4.72703">
        <ele>169</ele>
        <time>2017-08-11T10:38:12Z</time>
      </trkpt>
      <trkpt lat="45.9318" lon="4.72708">
        <ele>169</ele>
        <time>2017-08-11T10:38:13Z</time>
      </trkpt>
      <trkpt lat="45.93176" lon="4.72714">
        <ele>170</ele>
        <time>2017-08-11T10:38:14Z</time>
      </trkpt>
      <trkpt lat="45.93171" lon="4.72719">
        <ele>170</ele>
        <time>2017-08-11T10:38:15Z</time>
      </trkpt>
      <trkpt lat="45.93166" lon="4.72724">
        <ele>170</ele>
        <time>2017-08-11T10:38:16Z</time>
      </trkpt>
      <trkpt lat="45.93162" lon="4.72729">
        <ele>170</ele>
        <time>2017-08-11T10:38:17Z</time>
      </trkpt>
      <trkpt lat="45.93157" lon="4.72733">
        <ele>170</ele>
        <time>2017-08-11T10:38:18Z</time>
      </trkpt>
      <trkpt lat="45.93153" lon="4.72738">
        <ele>170</ele>
        <time>2017-08-11T10:38:19Z</time>
      </trkpt>
      <trkpt lat="45.93149" lon="4.72743">
        <ele>170</ele>
        <time>2017-08-11T10:38:20Z</time>
      </trkpt>
      <trkpt lat="45.93145" lon="4.72748">
        <ele>170</ele>
        <time>2017-08-11T10:38:21Z</time>
      </trkpt>
      <trkpt lat="45.93141" lon="4.72752">
        <ele>171</ele>
        <time>2017-08-11T10:38:22Z</time>
      </trkpt>
      <trkpt lat="45.93138" lon="4.72757">
        <ele>171</ele>
        <time>2017-08-11T10:38:23Z</time>
      </trkpt>
      <trkpt lat="45.93134" lon="4.72762">
        <ele>171</ele>
        <time>2017-08-11T10:38:24Z</time>
      </trkpt>
      <trkpt lat="45.9313" lon="4.72766">
        <ele>171</ele>
        <time>2017-08-11T10:38:25Z</time>
      </trkpt>
      <trkpt lat="45.93127" lon="4.72771">
        <ele>171</ele>
        <time>2017-08-11T10:38:26Z</time>
      </trkpt>
      <trkpt lat="45.93122" lon="4.72776">
        <ele>171</ele>
        <time>2017-08-11T10:38:27Z</time>
      </trkpt>
      <trkpt lat="45.93118" lon="4.72781">
        <ele>171</ele>
        <time>2017-08-11T10:38:28Z</time>
      </trkpt>
      <trkpt lat="45.93114" lon="4.72786">
        <ele>171</ele>
        <time>2017-08-11T10:38:29Z</time>
      </trkpt>
      <trkpt lat="45.93109" lon="4.72792">
        <ele>171</ele>
        <time>2017-08-11T10:38:30Z</time>
      </trkpt>
      <trkpt lat="45.93104" lon="4.72797">
        <ele>171</ele>
        <time>2017-08-11T10:38:31Z</time>
      </trkpt>
      <trkpt lat="45.93099" lon="4.72802">
        <ele>171</ele>
        <time>2017-08-11T10:38:32Z</time>
      </trkpt>
      <trkpt lat="45.93095" lon="4.72807">
        <ele>172</ele>
        <time>2017-08-11T10:38:33Z</time>
      </trkpt>
      <trkpt lat="45.9309" lon="4.72812">
        <ele>172</ele>
        <time>2017-08-11T10:38:34Z</time>
      </trkpt>
      <trkpt lat="45.93085" lon="4.72817">
        <ele>172</ele>
        <time>2017-08-11T10:38:35Z</time>
      </trkpt>
      <trkpt lat="45.93081" lon="4.72821">
        <ele>173</ele>
        <time>2017-08-11T10:38:36Z</time>
      </trkpt>
      <trkpt lat="45.93077" lon="4.72826">
        <ele>173</ele>
        <time>2017-08-11T10:38:37Z</time>
      </trkpt>
      <trkpt lat="45.93072" lon="4.72831">
        <ele>173</ele>
        <time>2017-08-11T10:38:38Z</time>
      </trkpt>
      <trkpt lat="45.93069" lon="4.72835">
        <ele>173</ele>
        <time>2017-08-11T10:38:39Z</time>
      </trkpt>
      <trkpt lat="45.93065" lon="4.72839">
        <ele>173</ele>
        <time>2017-08-11T10:38:40Z</time>
      </trkpt>
      <trkpt lat="45.9306" lon="4.72843">
        <ele>172</ele>
        <time>2017-08-11T10:38:41Z</time>
      </trkpt>
      <trkpt lat="45.93059" lon="4.72851">
        <ele>172</ele>
        <time>2017-08-11T10:38:42Z</time>
      </trkpt>
      <trkpt lat="45.93053" lon="4.72856">
        <ele>172</ele>
        <time>2017-08-11T10:38:43Z</time>
      </trkpt>
      <trkpt lat="45.9305" lon="4.72862">
        <ele>172</ele>
        <time>2017-08-11T10:38:44Z</time>
      </trkpt>
      <trkpt lat="45.93045" lon="4.72865">
        <ele>172</ele>
        <time>2017-08-11T10:38:45Z</time>
      </trkpt>
      <trkpt lat="45.93039" lon="4.72871">
        <ele>172</ele>
        <time>2017-08-11T10:38:46Z</time>
      </trkpt>
      <trkpt lat="45.93034" lon="4.72876">
        <ele>172</ele>
        <time>2017-08-11T10:38:47Z</time>
      </trkpt>
      <trkpt lat="45.93029" lon="4.72882">
        <ele>172</ele>
        <time>2017-08-11T10:38:48Z</time>
      </trkpt>
      <trkpt lat="45.93024" lon="4.72886">
        <ele>172</ele>
        <time>2017-08-11T10:38:49Z</time>
      </trkpt>
      <trkpt lat="45.9302" lon="4.72891">
        <ele>172</ele>
        <time>2017-08-11T10:38:50Z</time>
      </trkpt>
      <trkpt lat="45.93016" lon="4.72896">
        <ele>172</ele>
        <time>2017-08-11T10:38:51Z</time>
      </trkpt>
      <trkpt lat="45.93012" lon="4.729">
        <ele>172</ele>
        <time>2017-08-11T10:38:52Z</time>
      </trkpt>
      <trkpt lat="45.93009" lon="4.72905">
        <ele>171</ele>
        <time>2017-08-11T10:38:53Z</time>
      </trkpt>
      <trkpt lat="45.93002" lon="4.72913">
        <ele>171</ele>
        <time>2017-08-11T10:38:55Z</time>
      </trkpt>
      <trkpt lat="45.92999" lon="4.72917">
        <ele>171</ele>
        <time>2017-08-11T10:38:56Z</time>
      </trkpt>
      <trkpt lat="45.92995" lon="4.72921">
        <ele>171</ele>
        <time>2017-08-11T10:38:57Z</time>
      </trkpt>
      <trkpt lat="45.92992" lon="4.72926">
        <ele>171</ele>
        <time>2017-08-11T10:38:58Z</time>
      </trkpt>
      <trkpt lat="45.92988" lon="4.72931">
        <ele>171</ele>
        <time>2017-08-11T10:38:59Z</time>
      </trkpt>
      <trkpt lat="45.92983" lon="4.72937">
        <ele>171</ele>
        <time>2017-08-11T10:39:00Z</time>
      </trkpt>
      <trkpt lat="45.92979" lon="4.72942">
        <ele>171</ele>
        <time>2017-08-11T10:39:01Z</time>
      </trkpt>
      <trkpt lat="45.92974" lon="4.72947">
        <ele>171</ele>
        <time>2017-08-11T10:39:02Z</time>
      </trkpt>
      <trkpt lat="45.9297" lon="4.72952">
        <ele>171</ele>
        <time>2017-08-11T10:39:03Z</time>
      </trkpt>
      <trkpt lat="45.92966" lon="4.72957">
        <ele>171</ele>
        <time>2017-08-11T10:39:04Z</time>
      </trkpt>
      <trkpt lat="45.92962" lon="4.72961">
        <ele>171</ele>
        <time>2017-08-11T10:39:05Z</time>
      </trkpt>
      <trkpt lat="45.92958" lon="4.72966">
        <ele>171</ele>
        <time>2017-08-11T10:39:06Z</time>
      </trkpt>
      <trkpt lat="45.92955" lon="4.72971">
        <ele>171</ele>
        <time>2017-08-11T10:39:07Z</time>
      </trkpt>
      <trkpt lat="45.92951" lon="4.72975">
        <ele>171</ele>
        <time>2017-08-11T10:39:08Z</time>
      </trkpt>
      <trkpt lat="45.92946" lon="4.7298">
        <ele>171</ele>
        <time>2017-08-11T10:39:09Z</time>
      </trkpt>
      <trkpt lat="45.92942" lon="4.72985">
        <ele>171</ele>
        <time>2017-08-11T10:39:10Z</time>
      </trkpt>
      <trkpt lat="45.92938" lon="4.7299">
        <ele>171</ele>
        <time>2017-08-11T10:39:11Z</time>
      </trkpt>
      <trkpt lat="45.92934" lon="4.72994">
        <ele>172</ele>
        <time>2017-08-11T10:39:12Z</time>
      </trkpt>
      <trkpt lat="45.9293" lon="4.72999">
        <ele>172</ele>
        <time>2017-08-11T10:39:13Z</time>
      </trkpt>
      <trkpt lat="45.92926" lon="4.73003">
        <ele>172</ele>
        <time>2017-08-11T10:39:14Z</time>
      </trkpt>
      <trkpt lat="45.92922" lon="4.73007">
        <ele>172</ele>
        <time>2017-08-11T10:39:15Z</time>
      </trkpt>
      <trkpt lat="45.92919" lon="4.73011">
        <ele>172</ele>
        <time>2017-08-11T10:39:16Z</time>
      </trkpt>
      <trkpt lat="45.92915" lon="4.73016">
        <ele>172</ele>
        <time>2017-08-11T10:39:17Z</time>
      </trkpt>
      <trkpt lat="45.92911" lon="4.73021">
        <ele>172</ele>
        <time>2017-08-11T10:39:18Z</time>
      </trkpt>
      <trkpt lat="45.92907" lon="4.73026">
        <ele>172</ele>
        <time>2017-08-11T10:39:19Z</time>
      </trkpt>
      <trkpt lat="45.92904" lon="4.73032">
        <ele>172</ele>
        <time>2017-08-11T10:39:20Z</time>
      </trkpt>
      <trkpt lat="45.929" lon="4.73037">
        <ele>172</ele>
        <time>2017-08-11T10:39:21Z</time>
      </trkpt>
      <trkpt lat="45.92896" lon="4.73042">
        <ele>172</ele>
        <time>2017-08-11T10:39:22Z</time>
      </trkpt>
      <trkpt lat="45.92893" lon="4.73048">
        <ele>172</ele>
        <time>2017-08-11T10:39:23Z</time>
      </trkpt>
      <trkpt lat="45.92889" lon="4.73053">
        <ele>172</ele>
        <time>2017-08-11T10:39:24Z</time>
      </trkpt>
      <trkpt lat="45.92886" lon="4.73058">
        <ele>172</ele>
        <time>2017-08-11T10:39:25Z</time>
      </trkpt>
      <trkpt lat="45.92883" lon="4.73063">
        <ele>172</ele>
        <time>2017-08-11T10:39:26Z</time>
      </trkpt>
      <trkpt lat="45.92876" lon="4.73071">
        <ele>172</ele>
        <time>2017-08-11T10:39:28Z</time>
      </trkpt>
      <trkpt lat="45.92873" lon="4.73075">
        <ele>172</ele>
        <time>2017-08-11T10:39:29Z</time>
      </trkpt>
      <trkpt lat="45.92867" lon="4.73084">
        <ele>172</ele>
        <time>2017-08-11T10:39:31Z</time>
      </trkpt>
      <trkpt lat="45.92863" lon="4.73088">
        <ele>171</ele>
        <time>2017-08-11T10:39:32Z</time>
      </trkpt>
      <trkpt lat="45.92859" lon="4.73093">
        <ele>171</ele>
        <time>2017-08-11T10:39:33Z</time>
      </trkpt>
      <trkpt lat="45.92856" lon="4.73097">
        <ele>171</ele>
        <time>2017-08-11T10:39:34Z</time>
      </trkpt>
      <trkpt lat="45.92849" lon="4.73105">
        <ele>171</ele>
        <time>2017-08-11T10:39:36Z</time>
      </trkpt>
      <trkpt lat="45.92847" lon="4.73104">
        <ele>171</ele>
        <time>2017-08-11T10:39:37Z</time>
      </trkpt>
      <trkpt lat="45.92844" lon="4.73095">
        <ele>171</ele>
        <time>2017-08-11T10:39:39Z</time>
      </trkpt>
      <trkpt lat="45.92844" lon="4.73088">
        <ele>171</ele>
        <time>2017-08-11T10:39:40Z</time>
      </trkpt>
      <trkpt lat="45.92843" lon="4.73081">
        <ele>171</ele>
        <time>2017-08-11T10:39:41Z</time>
      </trkpt>
      <trkpt lat="45.92842" lon="4.73073">
        <ele>171</ele>
        <time>2017-08-11T10:39:42Z</time>
      </trkpt>
      <trkpt lat="45.92841" lon="4.73065">
        <ele>171</ele>
        <time>2017-08-11T10:39:43Z</time>
      </trkpt>
      <trkpt lat="45.92839" lon="4.73058">
        <ele>171</ele>
        <time>2017-08-11T10:39:44Z</time>
      </trkpt>
      <trkpt lat="45.92838" lon="4.7305">
        <ele>171</ele>
        <time>2017-08-11T10:39:45Z</time>
      </trkpt>
      <trkpt lat="45.92837" lon="4.73043">
        <ele>171</ele>
        <time>2017-08-11T10:39:46Z</time>
      </trkpt>
      <trkpt lat="45.92836" lon="4.73036">
        <ele>171</ele>
        <time>2017-08-11T10:39:47Z</time>
      </trkpt>
      <trkpt lat="45.92835" lon="4.73029">
        <ele>171</ele>
        <time>2017-08-11T10:39:48Z</time>
      </trkpt>
      <trkpt lat="45.92834" lon="4.73021">
        <ele>171</ele>
        <time>2017-08-11T10:39:49Z</time>
      </trkpt>
      <trkpt lat="45.92833" lon="4.73015">
        <ele>170</ele>
        <time>2017-08-11T10:39:50Z</time>
      </trkpt>
      <trkpt lat="45.92832" lon="4.73008">
        <ele>170</ele>
        <time>2017-08-11T10:39:51Z</time>
      </trkpt>
      <trkpt lat="45.92831" lon="4.73001">
        <ele>170</ele>
        <time>2017-08-11T10:39:52Z</time>
      </trkpt>
      <trkpt lat="45.9283" lon="4.72995">
        <ele>170</ele>
        <time>2017-08-11T10:39:53Z</time>
      </trkpt>
      <trkpt lat="45.9283" lon="4.72988">
        <ele>170</ele>
        <time>2017-08-11T10:39:54Z</time>
      </trkpt>
      <trkpt lat="45.92829" lon="4.72976">
        <ele>170</ele>
        <time>2017-08-11T10:39:56Z</time>
      </trkpt>
      <trkpt lat="45.92829" lon="4.72969">
        <ele>170</ele>
        <time>2017-08-11T10:39:57Z</time>
      </trkpt>
      <trkpt lat="45.92828" lon="4.72962">
        <ele>170</ele>
        <time>2017-08-11T10:39:58Z</time>
      </trkpt>
      <trkpt lat="45.92828" lon="4.72955">
        <ele>170</ele>
        <time>2017-08-11T10:39:59Z</time>
      </trkpt>
      <trkpt lat="45.92827" lon="4.72947">
        <ele>170</ele>
        <time>2017-08-11T10:40:00Z</time>
      </trkpt>
      <trkpt lat="45.92827" lon="4.72939">
        <ele>170</ele>
        <time>2017-08-11T10:40:01Z</time>
      </trkpt>
      <trkpt lat="45.92826" lon="4.7293">
        <ele>170</ele>
        <time>2017-08-11T10:40:02Z</time>
      </trkpt>
      <trkpt lat="45.92825" lon="4.72922">
        <ele>170</ele>
        <time>2017-08-11T10:40:03Z</time>
      </trkpt>
      <trkpt lat="45.92824" lon="4.72915">
        <ele>170</ele>
        <time>2017-08-11T10:40:04Z</time>
      </trkpt>
      <trkpt lat="45.92824" lon="4.72907">
        <ele>170</ele>
        <time>2017-08-11T10:40:05Z</time>
      </trkpt>
      <trkpt lat="45.92823" lon="4.72899">
        <ele>170</ele>
        <time>2017-08-11T10:40:06Z</time>
      </trkpt>
      <trkpt lat="45.92822" lon="4.72891">
        <ele>170</ele>
        <time>2017-08-11T10:40:07Z</time>
      </trkpt>
      <trkpt lat="45.92821" lon="4.72883">
        <ele>170</ele>
        <time>2017-08-11T10:40:08Z</time>
      </trkpt>
      <trkpt lat="45.9282" lon="4.72875">
        <ele>170</ele>
        <time>2017-08-11T10:40:09Z</time>
      </trkpt>
      <trkpt lat="45.92818" lon="4.72866">
        <ele>170</ele>
        <time>2017-08-11T10:40:10Z</time>
      </trkpt>
      <trkpt lat="45.92817" lon="4.72858">
        <ele>170</ele>
        <time>2017-08-11T10:40:11Z</time>
      </trkpt>
      <trkpt lat="45.92815" lon="4.72849">
        <ele>170</ele>
        <time>2017-08-11T10:40:12Z</time>
      </trkpt>
      <trkpt lat="45.92813" lon="4.7284">
        <ele>170</ele>
        <time>2017-08-11T10:40:13Z</time>
      </trkpt>
      <trkpt lat="45.92812" lon="4.72832">
        <ele>171</ele>
        <time>2017-08-11T10:40:14Z</time>
      </trkpt>
      <trkpt lat="45.92811" lon="4.72824">
        <ele>171</ele>
        <time>2017-08-11T10:40:15Z</time>
      </trkpt>
      <trkpt lat="45.9281" lon="4.72816">
        <ele>171</ele>
        <time>2017-08-11T10:40:16Z</time>
      </trkpt>
      <trkpt lat="45.92809" lon="4.72808">
        <ele>171</ele>
        <time>2017-08-11T10:40:17Z</time>
      </trkpt>
      <trkpt lat="45.92808" lon="4.72801">
        <ele>171</ele>
        <time>2017-08-11T10:40:18Z</time>
      </trkpt>
      <trkpt lat="45.92806" lon="4.72794">
        <ele>171</ele>
        <time>2017-08-11T10:40:19Z</time>
      </trkpt>
      <trkpt lat="45.92801" lon="4.72788">
        <ele>171</ele>
        <time>2017-08-11T10:40:21Z</time>
      </trkpt>
      <trkpt lat="45.92796" lon="4.72789">
        <ele>171</ele>
        <time>2017-08-11T10:40:22Z</time>
      </trkpt>
      <trkpt lat="45.92792" lon="4.72791">
        <ele>171</ele>
        <time>2017-08-11T10:40:23Z</time>
      </trkpt>
      <trkpt lat="45.92787" lon="4.72794">
        <ele>170</ele>
        <time>2017-08-11T10:40:24Z</time>
      </trkpt>
      <trkpt lat="45.92782" lon="4.72797">
        <ele>170</ele>
        <time>2017-08-11T10:40:25Z</time>
      </trkpt>
      <trkpt lat="45.92777" lon="4.72801">
        <ele>170</ele>
        <time>2017-08-11T10:40:26Z</time>
      </trkpt>
      <trkpt lat="45.92772" lon="4.72805">
        <ele>170</ele>
        <time>2017-08-11T10:40:27Z</time>
      </trkpt>
      <trkpt lat="45.92767" lon="4.72808">
        <ele>170</ele>
        <time>2017-08-11T10:40:28Z</time>
      </trkpt>
      <trkpt lat="45.92762" lon="4.72812">
        <ele>170</ele>
        <time>2017-08-11T10:40:29Z</time>
      </trkpt>
      <trkpt lat="45.92757" lon="4.72816">
        <ele>170</ele>
        <time>2017-08-11T10:40:30Z</time>
      </trkpt>
      <trkpt lat="45.92751" lon="4.7282">
        <ele>170</ele>
        <time>2017-08-11T10:40:31Z</time>
      </trkpt>
      <trkpt lat="45.92746" lon="4.72824">
        <ele>169</ele>
        <time>2017-08-11T10:40:32Z</time>
      </trkpt>
      <trkpt lat="45.92741" lon="4.72827">
        <ele>169</ele>
        <time>2017-08-11T10:40:33Z</time>
      </trkpt>
      <trkpt lat="45.92737" lon="4.72831">
        <ele>169</ele>
        <time>2017-08-11T10:40:34Z</time>
      </trkpt>
      <trkpt lat="45.92732" lon="4.72834">
        <ele>169</ele>
        <time>2017-08-11T10:40:35Z</time>
      </trkpt>
      <trkpt lat="45.92727" lon="4.72838">
        <ele>169</ele>
        <time>2017-08-11T10:40:36Z</time>
      </trkpt>
      <trkpt lat="45.92722" lon="4.72842">
        <ele>169</ele>
        <time>2017-08-11T10:40:37Z</time>
      </trkpt>
      <trkpt lat="45.92717" lon="4.72846">
        <ele>169</ele>
        <time>2017-08-11T10:40:38Z</time>
      </trkpt>
      <trkpt lat="45.92711" lon="4.7285">
        <ele>169</ele>
        <time>2017-08-11T10:40:39Z</time>
      </trkpt>
      <trkpt lat="45.92706" lon="4.72855">
        <ele>169</ele>
        <time>2017-08-11T10:40:40Z</time>
      </trkpt>
      <trkpt lat="45.927" lon="4.72859">
        <ele>169</ele>
        <time>2017-08-11T10:40:41Z</time>
      </trkpt>
      <trkpt lat="45.92695" lon="4.72863">
        <ele>169</ele>
        <time>2017-08-11T10:40:42Z</time>
      </trkpt>
      <trkpt lat="45.9269" lon="4.72867">
        <ele>169</ele>
        <time>2017-08-11T10:40:43Z</time>
      </trkpt>
      <trkpt lat="45.92685" lon="4.72871">
        <ele>169</ele>
        <time>2017-08-11T10:40:44Z</time>
      </trkpt>
      <trkpt lat="45.92681" lon="4.72875">
        <ele>169</ele>
        <time>2017-08-11T10:40:45Z</time>
      </trkpt>
      <trkpt lat="45.92676" lon="4.72879">
        <ele>170</ele>
        <time>2017-08-11T10:40:46Z</time>
      </trkpt>
      <trkpt lat="45.92672" lon="4.72882">
        <ele>170</ele>
        <time>2017-08-11T10:40:47Z</time>
      </trkpt>
      <trkpt lat="45.92668" lon="4.72885">
        <ele>170</ele>
        <time>2017-08-11T10:40:48Z</time>
      </trkpt>
      <trkpt lat="45.92663" lon="4.72889">
        <ele>169</ele>
        <time>2017-08-11T10:40:49Z</time>
      </trkpt>
      <trkpt lat="45.92658" lon="4.72893">
        <ele>169</ele>
        <time>2017-08-11T10:40:50Z</time>
      </trkpt>
      <trkpt lat="45.92652" lon="4.72897">
        <ele>170</ele>
        <time>2017-08-11T10:40:51Z</time>
      </trkpt>
      <trkpt lat="45.92647" lon="4.72901">
        <ele>169</ele>
        <time>2017-08-11T10:40:52Z</time>
      </trkpt>
      <trkpt lat="45.92641" lon="4.72905">
        <ele>169</ele>
        <time>2017-08-11T10:40:53Z</time>
      </trkpt>
      <trkpt lat="45.92636" lon="4.72909">
        <ele>169</ele>
        <time>2017-08-11T10:40:54Z</time>
      </trkpt>
      <trkpt lat="45.92631" lon="4.72913">
        <ele>169</ele>
        <time>2017-08-11T10:40:55Z</time>
      </trkpt>
      <trkpt lat="45.92626" lon="4.72917">
        <ele>169</ele>
        <time>2017-08-11T10:40:56Z</time>
      </trkpt>
      <trkpt lat="45.92621" lon="4.72921">
        <ele>169</ele>
        <time>2017-08-11T10:40:57Z</time>
      </trkpt>
      <trkpt lat="45.92617" lon="4.72925">
        <ele>169</ele>
        <time>2017-08-11T10:40:58Z</time>
      </trkpt>
      <trkpt lat="45.92612" lon="4.72929">
        <ele>169</ele>
        <time>2017-08-11T10:40:59Z</time>
      </trkpt>
      <trkpt lat="45.92607" lon="4.72934">
        <ele>169</ele>
        <time>2017-08-11T10:41:00Z</time>
      </trkpt>
      <trkpt lat="45.92603" lon="4.72938">
        <ele>169</ele>
        <time>2017-08-11T10:41:01Z</time>
      </trkpt>
      <trkpt lat="45.92598" lon="4.72943">
        <ele>169</ele>
        <time>2017-08-11T10:41:02Z</time>
      </trkpt>
      <trkpt lat="45.92593" lon="4.72948">
        <ele>169</ele>
        <time>2017-08-11T10:41:03Z</time>
      </trkpt>
      <trkpt lat="45.92589" lon="4.72953">
        <ele>169</ele>
        <time>2017-08-11T10:41:04Z</time>
      </trkpt>
      <trkpt lat="45.92585" lon="4.72957">
        <ele>169</ele>
        <time>2017-08-11T10:41:05Z</time>
      </trkpt>
      <trkpt lat="45.92581" lon="4.72962">
        <ele>169</ele>
        <time>2017-08-11T10:41:06Z</time>
      </trkpt>
      <trkpt lat="45.92578" lon="4.72967">
        <ele>169</ele>
        <time>2017-08-11T10:41:07Z</time>
      </trkpt>
      <trkpt lat="45.92574" lon="4.72972">
        <ele>169</ele>
        <time>2017-08-11T10:41:08Z</time>
      </trkpt>
      <trkpt lat="45.92571" lon="4.72976">
        <ele>169</ele>
        <time>2017-08-11T10:41:09Z</time>
      </trkpt>
      <trkpt lat="45.92567" lon="4.7298">
        <ele>169</ele>
        <time>2017-08-11T10:41:10Z</time>
      </trkpt>
      <trkpt lat="45.92563" lon="4.72985">
        <ele>169</ele>
        <time>2017-08-11T10:41:11Z</time>
      </trkpt>
      <trkpt lat="45.92558" lon="4.72989">
        <ele>169</ele>
        <time>2017-08-11T10:41:12Z</time>
      </trkpt>
      <trkpt lat="45.92554" lon="4.72994">
        <ele>169</ele>
        <time>2017-08-11T10:41:13Z</time>
      </trkpt>
      <trkpt lat="45.92549" lon="4.72999">
        <ele>169</ele>
        <time>2017-08-11T10:41:14Z</time>
      </trkpt>
      <trkpt lat="45.92544" lon="4.73004">
        <ele>169</ele>
        <time>2017-08-11T10:41:15Z</time>
      </trkpt>
      <trkpt lat="45.92538" lon="4.73008">
        <ele>169</ele>
        <time>2017-08-11T10:41:16Z</time>
      </trkpt>
      <trkpt lat="45.92533" lon="4.73013">
        <ele>169</ele>
        <time>2017-08-11T10:41:17Z</time>
      </trkpt>
      <trkpt lat="45.92529" lon="4.73018">
        <ele>169</ele>
        <time>2017-08-11T10:41:18Z</time>
      </trkpt>
      <trkpt lat="45.92524" lon="4.73022">
        <ele>169</ele>
        <time>2017-08-11T10:41:19Z</time>
      </trkpt>
      <trkpt lat="45.92519" lon="4.73026">
        <ele>169</ele>
        <time>2017-08-11T10:41:20Z</time>
      </trkpt>
      <trkpt lat="45.92514" lon="4.7303">
        <ele>169</ele>
        <time>2017-08-11T10:41:21Z</time>
      </trkpt>
      <trkpt lat="45.9251" lon="4.73034">
        <ele>169</ele>
        <time>2017-08-11T10:41:22Z</time>
      </trkpt>
      <trkpt lat="45.92506" lon="4.73038">
        <ele>169</ele>
        <time>2017-08-11T10:41:23Z</time>
      </trkpt>
      <trkpt lat="45.92501" lon="4.73041">
        <ele>169</ele>
        <time>2017-08-11T10:41:24Z</time>
      </trkpt>
      <trkpt lat="45.92497" lon="4.73045">
        <ele>170</ele>
        <time>2017-08-11T10:41:25Z</time>
      </trkpt>
      <trkpt lat="45.92493" lon="4.73049">
        <ele>170</ele>
        <time>2017-08-11T10:41:26Z</time>
      </trkpt>
      <trkpt lat="45.92489" lon="4.73052">
        <ele>170</ele>
        <time>2017-08-11T10:41:27Z</time>
      </trkpt>
      <trkpt lat="45.92484" lon="4.73055">
        <ele>170</ele>
        <time>2017-08-11T10:41:28Z</time>
      </trkpt>
      <trkpt lat="45.9248" lon="4.73059">
        <ele>170</ele>
        <time>2017-08-11T10:41:29Z</time>
      </trkpt>
      <trkpt lat="45.92475" lon="4.73064">
        <ele>170</ele>
        <time>2017-08-11T10:41:30Z</time>
      </trkpt>
      <trkpt lat="45.92471" lon="4.73068">
        <ele>170</ele>
        <time>2017-08-11T10:41:31Z</time>
      </trkpt>
      <trkpt lat="45.92466" lon="4.73072">
        <ele>170</ele>
        <time>2017-08-11T10:41:32Z</time>
      </trkpt>
      <trkpt lat="45.92461" lon="4.73076">
        <ele>170</ele>
        <time>2017-08-11T10:41:33Z</time>
      </trkpt>
      <trkpt lat="45.92455" lon="4.73081">
        <ele>170</ele>
        <time>2017-08-11T10:41:34Z</time>
      </trkpt>
      <trkpt lat="45.9245" lon="4.73086">
        <ele>170</ele>
        <time>2017-08-11T10:41:35Z</time>
      </trkpt>
      <trkpt lat="45.92445" lon="4.73091">
        <ele>170</ele>
        <time>2017-08-11T10:41:36Z</time>
      </trkpt>
      <trkpt lat="45.92439" lon="4.73095">
        <ele>170</ele>
        <time>2017-08-11T10:41:37Z</time>
      </trkpt>
      <trkpt lat="45.92434" lon="4.73099">
        <ele>171</ele>
        <time>2017-08-11T10:41:38Z</time>
      </trkpt>
      <trkpt lat="45.9243" lon="4.73103">
        <ele>171</ele>
        <time>2017-08-11T10:41:39Z</time>
      </trkpt>
      <trkpt lat="45.92425" lon="4.73107">
        <ele>171</ele>
        <time>2017-08-11T10:41:40Z</time>
      </trkpt>
      <trkpt lat="45.9242" lon="4.7311">
        <ele>170</ele>
        <time>2017-08-11T10:41:41Z</time>
      </trkpt>
      <trkpt lat="45.92416" lon="4.73114">
        <ele>171</ele>
        <time>2017-08-11T10:41:42Z</time>
      </trkpt>
      <trkpt lat="45.92411" lon="4.73118">
        <ele>171</ele>
        <time>2017-08-11T10:41:43Z</time>
      </trkpt>
      <trkpt lat="45.92409" lon="4.73124">
        <ele>171</ele>
        <time>2017-08-11T10:41:44Z</time>
      </trkpt>
      <trkpt lat="45.92407" lon="4.73131">
        <ele>171</ele>
        <time>2017-08-11T10:41:45Z</time>
      </trkpt>
      <trkpt lat="45.92406" lon="4.73139">
        <ele>171</ele>
        <time>2017-08-11T10:41:46Z</time>
      </trkpt>
      <trkpt lat="45.92405" lon="4.73147">
        <ele>171</ele>
        <time>2017-08-11T10:41:47Z</time>
      </trkpt>
      <trkpt lat="45.92405" lon="4.73155">
        <ele>171</ele>
        <time>2017-08-11T10:41:48Z</time>
      </trkpt>
      <trkpt lat="45.92405" lon="4.73163">
        <ele>170</ele>
        <time>2017-08-11T10:41:49Z</time>
      </trkpt>
      <trkpt lat="45.92405" lon="4.7317">
        <ele>171</ele>
        <time>2017-08-11T10:41:50Z</time>
      </trkpt>
      <trkpt lat="45.92405" lon="4.73178">
        <ele>171</ele>
        <time>2017-08-11T10:41:51Z</time>
      </trkpt>
      <trkpt lat="45.92405" lon="4.73185">
        <ele>171</ele>
        <time>2017-08-11T10:41:52Z</time>
      </trkpt>
      <trkpt lat="45.92405" lon="4.73192">
        <ele>171</ele>
        <time>2017-08-11T10:41:53Z</time>
      </trkpt>
      <trkpt lat="45.92405" lon="4.732">
        <ele>171</ele>
        <time>2017-08-11T10:41:54Z</time>
      </trkpt>
      <trkpt lat="45.92405" lon="4.73207">
        <ele>171</ele>
        <time>2017-08-11T10:41:55Z</time>
      </trkpt>
      <trkpt lat="45.92405" lon="4.73215">
        <ele>171</ele>
        <time>2017-08-11T10:41:56Z</time>
      </trkpt>
      <trkpt lat="45.92405" lon="4.73223">
        <ele>171</ele>
        <time>2017-08-11T10:41:57Z</time>
      </trkpt>
      <trkpt lat="45.92405" lon="4.73231">
        <ele>171</ele>
        <time>2017-08-11T10:41:58Z</time>
      </trkpt>
      <trkpt lat="45.92406" lon="4.73239">
        <ele>171</ele>
        <time>2017-08-11T10:41:59Z</time>
      </trkpt>
      <trkpt lat="45.92406" lon="4.73248">
        <ele>171</ele>
        <time>2017-08-11T10:42:00Z</time>
      </trkpt>
      <trkpt lat="45.92406" lon="4.73256">
        <ele>171</ele>
        <time>2017-08-11T10:42:01Z</time>
      </trkpt>
      <trkpt lat="45.92407" lon="4.73265">
        <ele>171</ele>
        <time>2017-08-11T10:42:02Z</time>
      </trkpt>
      <trkpt lat="45.92408" lon="4.73272">
        <ele>171</ele>
        <time>2017-08-11T10:42:03Z</time>
      </trkpt>
      <trkpt lat="45.92408" lon="4.7328">
        <ele>171</ele>
        <time>2017-08-11T10:42:04Z</time>
      </trkpt>
      <trkpt lat="45.92409" lon="4.73287">
        <ele>171</ele>
        <time>2017-08-11T10:42:05Z</time>
      </trkpt>
      <trkpt lat="45.92409" lon="4.73294">
        <ele>171</ele>
        <time>2017-08-11T10:42:06Z</time>
      </trkpt>
      <trkpt lat="45.9241" lon="4.733">
        <ele>171</ele>
        <time>2017-08-11T10:42:07Z</time>
      </trkpt>
      <trkpt lat="45.92411" lon="4.73307">
        <ele>171</ele>
        <time>2017-08-11T10:42:08Z</time>
      </trkpt>
      <trkpt lat="45.92411" lon="4.73315">
        <ele>171</ele>
        <time>2017-08-11T10:42:09Z</time>
      </trkpt>
      <trkpt lat="45.92412" lon="4.73322">
        <ele>171</ele>
        <time>2017-08-11T10:42:10Z</time>
      </trkpt>
      <trkpt lat="45.92412" lon="4.7333">
        <ele>171</ele>
        <time>2017-08-11T10:42:11Z</time>
      </trkpt>
      <trkpt lat="45.92413" lon="4.73337">
        <ele>171</ele>
        <time>2017-08-11T10:42:12Z</time>
      </trkpt>
      <trkpt lat="45.92414" lon="4.73345">
        <ele>171</ele>
        <time>2017-08-11T10:42:13Z</time>
      </trkpt>
      <trkpt lat="45.92415" lon="4.73352">
        <ele>171</ele>
        <time>2017-08-11T10:42:14Z</time>
      </trkpt>
      <trkpt lat="45.92416" lon="4.73359">
        <ele>171</ele>
        <time>2017-08-11T10:42:15Z</time>
      </trkpt>
      <trkpt lat="45.92417" lon="4.73365">
        <ele>171</ele>
        <time>2017-08-11T10:42:16Z</time>
      </trkpt>
      <trkpt lat="45.92418" lon="4.73372">
        <ele>172</ele>
        <time>2017-08-11T10:42:17Z</time>
      </trkpt>
      <trkpt lat="45.92418" lon="4.73378">
        <ele>172</ele>
        <time>2017-08-11T10:42:18Z</time>
      </trkpt>
      <trkpt lat="45.92419" lon="4.73384">
        <ele>172</ele>
        <time>2017-08-11T10:42:19Z</time>
      </trkpt>
      <trkpt lat="45.9242" lon="4.73391">
        <ele>172</ele>
        <time>2017-08-11T10:42:20Z</time>
      </trkpt>
      <trkpt lat="45.92422" lon="4.73397">
        <ele>172</ele>
        <time>2017-08-11T10:42:21Z</time>
      </trkpt>
      <trkpt lat="45.92424" lon="4.73404">
        <ele>172</ele>
        <time>2017-08-11T10:42:22Z</time>
      </trkpt>
      <trkpt lat="45.92427" lon="4.7341">
        <ele>172</ele>
        <time>2017-08-11T10:42:23Z</time>
      </trkpt>
      <trkpt lat="45.92431" lon="4.73414">
        <ele>172</ele>
        <time>2017-08-11T10:42:24Z</time>
      </trkpt>
      <trkpt lat="45.92435" lon="4.73417">
        <ele>173</ele>
        <time>2017-08-11T10:42:25Z</time>
      </trkpt>
      <trkpt lat="45.92439" lon="4.7342">
        <ele>173</ele>
        <time>2017-08-11T10:42:26Z</time>
      </trkpt>
      <trkpt lat="45.92447" lon="4.73425">
        <ele>173</ele>
        <time>2017-08-11T10:42:28Z</time>
      </trkpt>
      <trkpt lat="45.9245" lon="4.73428">
        <ele>173</ele>
        <time>2017-08-11T10:42:29Z</time>
      </trkpt>
      <trkpt lat="45.92454" lon="4.73432">
        <ele>173</ele>
        <time>2017-08-11T10:42:30Z</time>
      </trkpt>
      <trkpt lat="45.92458" lon="4.73437">
        <ele>173</ele>
        <time>2017-08-11T10:42:31Z</time>
      </trkpt>
      <trkpt lat="45.9246" lon="4.73443">
        <ele>173</ele>
        <time>2017-08-11T10:42:32Z</time>
      </trkpt>
      <trkpt lat="45.92462" lon="4.73449">
        <ele>173</ele>
        <time>2017-08-11T10:42:33Z</time>
      </trkpt>
      <trkpt lat="45.92465" lon="4.73461">
        <ele>173</ele>
        <time>2017-08-11T10:42:35Z</time>
      </trkpt>
      <trkpt lat="45.92466" lon="4.73466">
        <ele>173</ele>
        <time>2017-08-11T10:42:36Z</time>
      </trkpt>
      <trkpt lat="45.92466" lon="4.73477">
        <ele>173</ele>
        <time>2017-08-11T10:42:38Z</time>
      </trkpt>
      <trkpt lat="45.92466" lon="4.73482">
        <ele>173</ele>
        <time>2017-08-11T10:42:39Z</time>
      </trkpt>
      <trkpt lat="45.92465" lon="4.73495">
        <ele>173</ele>
        <time>2017-08-11T10:42:41Z</time>
      </trkpt>
      <trkpt lat="45.92464" lon="4.73502">
        <ele>174</ele>
        <time>2017-08-11T10:42:42Z</time>
      </trkpt>
      <trkpt lat="45.92464" lon="4.73508">
        <ele>174</ele>
        <time>2017-08-11T10:42:43Z</time>
      </trkpt>
      <trkpt lat="45.92463" lon="4.73515">
        <ele>174</ele>
        <time>2017-08-11T10:42:44Z</time>
      </trkpt>
      <trkpt lat="45.92463" lon="4.73527">
        <ele>174</ele>
        <time>2017-08-11T10:42:46Z</time>
      </trkpt>
      <trkpt lat="45.92463" lon="4.73533">
        <ele>174</ele>
        <time>2017-08-11T10:42:47Z</time>
      </trkpt>
      <trkpt lat="45.92463" lon="4.73542">
        <ele>173</ele>
        <time>2017-08-11T10:42:49Z</time>
      </trkpt>
      <trkpt lat="45.92462" lon="4.73547">
        <ele>173</ele>
        <time>2017-08-11T10:42:50Z</time>
      </trkpt>
      <trkpt lat="45.92461" lon="4.73559">
        <ele>173</ele>
        <time>2017-08-11T10:42:52Z</time>
      </trkpt>
      <trkpt lat="45.92461" lon="4.73565">
        <ele>173</ele>
        <time>2017-08-11T10:42:53Z</time>
      </trkpt>
      <trkpt lat="45.92461" lon="4.73578">
        <ele>173</ele>
        <time>2017-08-11T10:42:55Z</time>
      </trkpt>
      <trkpt lat="45.92461" lon="4.73584">
        <ele>174</ele>
        <time>2017-08-11T10:42:56Z</time>
      </trkpt>
      <trkpt lat="45.92461" lon="4.73591">
        <ele>174</ele>
        <time>2017-08-11T10:42:57Z</time>
      </trkpt>
      <trkpt lat="45.92461" lon="4.73598">
        <ele>174</ele>
        <time>2017-08-11T10:42:58Z</time>
      </trkpt>
      <trkpt lat="45.92461" lon="4.73605">
        <ele>174</ele>
        <time>2017-08-11T10:42:59Z</time>
      </trkpt>
      <trkpt lat="45.92461" lon="4.73612">
        <ele>174</ele>
        <time>2017-08-11T10:43:00Z</time>
      </trkpt>
      <trkpt lat="45.92461" lon="4.73619">
        <ele>174</ele>
        <time>2017-08-11T10:43:01Z</time>
      </trkpt>
      <trkpt lat="45.92461" lon="4.73626">
        <ele>174</ele>
        <time>2017-08-11T10:43:02Z</time>
      </trkpt>
      <trkpt lat="45.9246" lon="4.73638">
        <ele>174</ele>
        <time>2017-08-11T10:43:04Z</time>
      </trkpt>
      <trkpt lat="45.9246" lon="4.73644">
        <ele>174</ele>
        <time>2017-08-11T10:43:05Z</time>
      </trkpt>
      <trkpt lat="45.9246" lon="4.73656">
        <ele>174</ele>
        <time>2017-08-11T10:43:07Z</time>
      </trkpt>
      <trkpt lat="45.92459" lon="4.73661">
        <ele>174</ele>
        <time>2017-08-11T10:43:08Z</time>
      </trkpt>
      <trkpt lat="45.92458" lon="4.73672">
        <ele>174</ele>
        <time>2017-08-11T10:43:10Z</time>
      </trkpt>
      <trkpt lat="45.92458" lon="4.73677">
        <ele>174</ele>
        <time>2017-08-11T10:43:11Z</time>
      </trkpt>
      <trkpt lat="45.92458" lon="4.73687">
        <ele>174</ele>
        <time>2017-08-11T10:43:13Z</time>
      </trkpt>
      <trkpt lat="45.92458" lon="4.73692">
        <ele>174</ele>
        <time>2017-08-11T10:43:14Z</time>
      </trkpt>
      <trkpt lat="45.92457" lon="4.73704">
        <ele>174</ele>
        <time>2017-08-11T10:43:17Z</time>
      </trkpt>
      <trkpt lat="45.92457" lon="4.73705">
        <ele>174</ele>
        <time>2017-08-11T10:43:18Z</time>
      </trkpt>
      <trkpt lat="45.92459" lon="4.73705">
        <ele>174</ele>
        <time>2017-08-11T10:43:24Z</time>
      </trkpt>
      <trkpt lat="45.9246" lon="4.73705">
        <ele>174</ele>
        <time>2017-08-11T10:43:25Z</time>
      </trkpt>
      <trkpt lat="45.92461" lon="4.73706">
        <ele>174</ele>
        <time>2017-08-11T10:43:28Z</time>
      </trkpt>
      <trkpt lat="45.92461" lon="4.73707">
        <ele>174</ele>
        <time>2017-08-11T10:43:29Z</time>
      </trkpt>
      <trkpt lat="45.92462" lon="4.73707">
        <ele>174</ele>
        <time>2017-08-11T10:43:44.978Z</time>
      </trkpt>
    </trkseg>
  </trk>
</gpx>